<?xml version="1.0" encoding="utf-8"?>
<gpx xmlns:xsi="http://www.w3.org/2001/XMLSchema-instance" xmlns:xsd="http://www.w3.org/2001/XMLSchema" version="1.1" creator="Shapelink.com" xmlns="http://www.topografix.com/GPX/1/1" xmlns:gpxtpx="http://www.garmin.com/xmlschemas/TrackPointExtension/v1">
  <metadata>
    <name>Löpning 10.69 km, 2018-03-17</name>
    <desc></desc>
    <author><name>Bengt-Åke Forslund</name></author> 
    <time>2018-03-17T10:57:48Z</time>
  </metadata>
  <trk>
    <name>Löpning 10.69 km, 2018-03-17</name>
    <trkseg>
      <trkpt lat="62.641643835076" lon="17.899202283358">
        <ele>46.6</ele>
        <time>2018-03-17T10:57:48Z</time>
      </trkpt>
      <trkpt lat="62.641700580539" lon="17.898863151684">
        <ele>46.4</ele>
        <time>2018-03-17T10:58:02Z</time>
      </trkpt>
      <trkpt lat="62.641705106765" lon="17.89882325384">
        <ele>46.2</ele>
        <time>2018-03-17T10:58:03Z</time>
      </trkpt>
      <trkpt lat="62.641711644647" lon="17.898754354622">
        <ele>46.2</ele>
        <time>2018-03-17T10:58:04Z</time>
      </trkpt>
      <trkpt lat="62.641717763434" lon="17.898682270282">
        <ele>46</ele>
        <time>2018-03-17T10:58:05Z</time>
      </trkpt>
      <trkpt lat="62.641722876393" lon="17.898625273362">
        <ele>46.2</ele>
        <time>2018-03-17T10:58:06Z</time>
      </trkpt>
      <trkpt lat="62.641729330456" lon="17.898538185421">
        <ele>46.2</ele>
        <time>2018-03-17T10:58:07Z</time>
      </trkpt>
      <trkpt lat="62.641732767035" lon="17.898467358366">
        <ele>46</ele>
        <time>2018-03-17T10:58:08Z</time>
      </trkpt>
      <trkpt lat="62.64173234794" lon="17.898392759456">
        <ele>46</ele>
        <time>2018-03-17T10:58:09Z</time>
      </trkpt>
      <trkpt lat="62.641736706528" lon="17.898311790302">
        <ele>46</ele>
        <time>2018-03-17T10:58:10Z</time>
      </trkpt>
      <trkpt lat="62.641741987125" lon="17.898244148369">
        <ele>45.8</ele>
        <time>2018-03-17T10:58:11Z</time>
      </trkpt>
      <trkpt lat="62.641748105912" lon="17.89815186365">
        <ele>45.6</ele>
        <time>2018-03-17T10:58:12Z</time>
      </trkpt>
      <trkpt lat="62.641757326002" lon="17.898061925863">
        <ele>45.4</ele>
        <time>2018-03-17T10:58:13Z</time>
      </trkpt>
      <trkpt lat="62.641759086201" lon="17.897989087152">
        <ele>45.2</ele>
        <time>2018-03-17T10:58:14Z</time>
      </trkpt>
      <trkpt lat="62.641765372626" lon="17.897898227356">
        <ele>45</ele>
        <time>2018-03-17T10:58:15Z</time>
      </trkpt>
      <trkpt lat="62.641769144481" lon="17.897813737804">
        <ele>44.8</ele>
        <time>2018-03-17T10:58:16Z</time>
      </trkpt>
      <trkpt lat="62.641763025694" lon="17.897731511365">
        <ele>44.8</ele>
        <time>2018-03-17T10:58:17Z</time>
      </trkpt>
      <trkpt lat="62.641749447016" lon="17.897648614374">
        <ele>44.6</ele>
        <time>2018-03-17T10:58:18Z</time>
      </trkpt>
      <trkpt lat="62.641727737895" lon="17.89759698187">
        <ele>44.2</ele>
        <time>2018-03-17T10:58:19Z</time>
      </trkpt>
      <trkpt lat="62.641704603851" lon="17.897558173673">
        <ele>44</ele>
        <time>2018-03-17T10:58:20Z</time>
      </trkpt>
      <trkpt lat="62.641687504775" lon="17.897545517004">
        <ele>43.6</ele>
        <time>2018-03-17T10:58:21Z</time>
      </trkpt>
      <trkpt lat="62.64166696912" lon="17.897552138705">
        <ele>43.4</ele>
        <time>2018-03-17T10:58:22Z</time>
      </trkpt>
      <trkpt lat="62.641647020198" lon="17.897570243609">
        <ele>43.4</ele>
        <time>2018-03-17T10:58:23Z</time>
      </trkpt>
      <trkpt lat="62.641632100416" lon="17.897592455644">
        <ele>43.4</ele>
        <time>2018-03-17T10:58:24Z</time>
      </trkpt>
      <trkpt lat="62.641613827874" lon="17.897614500041">
        <ele>43.4</ele>
        <time>2018-03-17T10:58:25Z</time>
      </trkpt>
      <trkpt lat="62.641596728798" lon="17.897658337378">
        <ele>43.4</ele>
        <time>2018-03-17T10:58:26Z</time>
      </trkpt>
      <trkpt lat="62.641571080184" lon="17.897695469195">
        <ele>43.6</ele>
        <time>2018-03-17T10:58:27Z</time>
      </trkpt>
      <trkpt lat="62.641547191769" lon="17.897735618496">
        <ele>43.6</ele>
        <time>2018-03-17T10:58:28Z</time>
      </trkpt>
      <trkpt lat="62.641533445453" lon="17.897762775852">
        <ele>43.6</ele>
        <time>2018-03-17T10:58:29Z</time>
      </trkpt>
      <trkpt lat="62.641506288097" lon="17.897806780827">
        <ele>43.6</ele>
        <time>2018-03-17T10:58:30Z</time>
      </trkpt>
      <trkpt lat="62.64148843465" lon="17.897839302599">
        <ele>43.6</ele>
        <time>2018-03-17T10:58:31Z</time>
      </trkpt>
      <trkpt lat="62.641472089945" lon="17.897864113023">
        <ele>43.6</ele>
        <time>2018-03-17T10:58:32Z</time>
      </trkpt>
      <trkpt lat="62.641453482127" lon="17.897886744153">
        <ele>43.6</ele>
        <time>2018-03-17T10:58:33Z</time>
      </trkpt>
      <trkpt lat="62.641431856825" lon="17.897907195989">
        <ele>43.8</ele>
        <time>2018-03-17T10:58:34Z</time>
      </trkpt>
      <trkpt lat="62.64141215936" lon="17.89792639054">
        <ele>43.8</ele>
        <time>2018-03-17T10:58:35Z</time>
      </trkpt>
      <trkpt lat="62.641392964809" lon="17.897948937851">
        <ele>43.8</ele>
        <time>2018-03-17T10:58:36Z</time>
      </trkpt>
      <trkpt lat="62.641377374475" lon="17.89796494728">
        <ele>44</ele>
        <time>2018-03-17T10:58:37Z</time>
      </trkpt>
      <trkpt lat="62.641361951779" lon="17.897981962537">
        <ele>44.4</ele>
        <time>2018-03-17T10:58:38Z</time>
      </trkpt>
      <trkpt lat="62.641340494115" lon="17.898001157088">
        <ele>44.4</ele>
        <time>2018-03-17T10:58:39Z</time>
      </trkpt>
      <trkpt lat="62.64131576751" lon="17.898016328327">
        <ele>44.6</ele>
        <time>2018-03-17T10:58:40Z</time>
      </trkpt>
      <trkpt lat="62.641294980398" lon="17.898032253937">
        <ele>45</ele>
        <time>2018-03-17T10:58:41Z</time>
      </trkpt>
      <trkpt lat="62.641276540218" lon="17.898048011909">
        <ele>45</ele>
        <time>2018-03-17T10:58:42Z</time>
      </trkpt>
      <trkpt lat="62.641261117522" lon="17.898066452089">
        <ele>45.2</ele>
        <time>2018-03-17T10:58:43Z</time>
      </trkpt>
      <trkpt lat="62.641239743677" lon="17.8980806175">
        <ele>45.4</ele>
        <time>2018-03-17T10:58:44Z</time>
      </trkpt>
      <trkpt lat="62.641212921597" lon="17.898095956377">
        <ele>45.6</ele>
        <time>2018-03-17T10:58:45Z</time>
      </trkpt>
      <trkpt lat="62.641193559408" lon="17.898108696865">
        <ele>45.6</ele>
        <time>2018-03-17T10:58:46Z</time>
      </trkpt>
      <trkpt lat="62.641172520839" lon="17.89811246872">
        <ele>45.8</ele>
        <time>2018-03-17T10:58:47Z</time>
      </trkpt>
      <trkpt lat="62.641142597456" lon="17.898113726005">
        <ele>46</ele>
        <time>2018-03-17T10:58:48Z</time>
      </trkpt>
      <trkpt lat="62.641124241095" lon="17.898114228919">
        <ele>46</ele>
        <time>2018-03-17T10:58:49Z</time>
      </trkpt>
      <trkpt lat="62.64110035268" lon="17.89810408682">
        <ele>46.2</ele>
        <time>2018-03-17T10:58:50Z</time>
      </trkpt>
      <trkpt lat="62.641079565568" lon="17.89808816121">
        <ele>46.2</ele>
        <time>2018-03-17T10:58:51Z</time>
      </trkpt>
      <trkpt lat="62.641057772628" lon="17.898064608071">
        <ele>46.2</ele>
        <time>2018-03-17T10:58:52Z</time>
      </trkpt>
      <trkpt lat="62.64104084119" lon="17.898042982769">
        <ele>46.4</ele>
        <time>2018-03-17T10:58:53Z</time>
      </trkpt>
      <trkpt lat="62.641026675779" lon="17.898013143205">
        <ele>46.6</ele>
        <time>2018-03-17T10:58:54Z</time>
      </trkpt>
      <trkpt lat="62.641012594187" lon="17.897982381632">
        <ele>46.8</ele>
        <time>2018-03-17T10:58:55Z</time>
      </trkpt>
      <trkpt lat="62.640998596414" lon="17.897951033326">
        <ele>46.8</ele>
        <time>2018-03-17T10:58:56Z</time>
      </trkpt>
      <trkpt lat="62.640988454315" lon="17.897921864314">
        <ele>47</ele>
        <time>2018-03-17T10:58:57Z</time>
      </trkpt>
      <trkpt lat="62.640980156234" lon="17.897884145764">
        <ele>47</ele>
        <time>2018-03-17T10:58:58Z</time>
      </trkpt>
      <trkpt lat="62.640973953628" lon="17.897844415558">
        <ele>47</ele>
        <time>2018-03-17T10:58:59Z</time>
      </trkpt>
      <trkpt lat="62.640968421574" lon="17.897804517714">
        <ele>47.4</ele>
        <time>2018-03-17T10:59:00Z</time>
      </trkpt>
      <trkpt lat="62.640960877864" lon="17.897769984286">
        <ele>47.6</ele>
        <time>2018-03-17T10:59:01Z</time>
      </trkpt>
      <trkpt lat="62.640953753249" lon="17.897736289048">
        <ele>47.6</ele>
        <time>2018-03-17T10:59:02Z</time>
      </trkpt>
      <trkpt lat="62.640946377177" lon="17.897706030389">
        <ele>47.8</ele>
        <time>2018-03-17T10:59:03Z</time>
      </trkpt>
      <trkpt lat="62.640939755476" lon="17.897679459766">
        <ele>48</ele>
        <time>2018-03-17T10:59:04Z</time>
      </trkpt>
      <trkpt lat="62.640932630861" lon="17.897644088148">
        <ele>48.4</ele>
        <time>2018-03-17T10:59:05Z</time>
      </trkpt>
      <trkpt lat="62.640924584237" lon="17.897600418449">
        <ele>48.4</ele>
        <time>2018-03-17T10:59:06Z</time>
      </trkpt>
      <trkpt lat="62.640919387459" lon="17.897564795374">
        <ele>48.6</ele>
        <time>2018-03-17T10:59:07Z</time>
      </trkpt>
      <trkpt lat="62.640912346663" lon="17.897535374905">
        <ele>48.8</ele>
        <time>2018-03-17T10:59:08Z</time>
      </trkpt>
      <trkpt lat="62.64090756898" lon="17.897505200065">
        <ele>49</ele>
        <time>2018-03-17T10:59:09Z</time>
      </trkpt>
      <trkpt lat="62.640900528184" lon="17.897461949461">
        <ele>49.2</ele>
        <time>2018-03-17T10:59:10Z</time>
      </trkpt>
      <trkpt lat="62.640893822664" lon="17.897431774621">
        <ele>49.2</ele>
        <time>2018-03-17T10:59:11Z</time>
      </trkpt>
      <trkpt lat="62.640881920366" lon="17.897394558985">
        <ele>49.4</ele>
        <time>2018-03-17T10:59:12Z</time>
      </trkpt>
      <trkpt lat="62.640872365" lon="17.897369329466">
        <ele>49.6</ele>
        <time>2018-03-17T10:59:13Z</time>
      </trkpt>
      <trkpt lat="62.640866162394" lon="17.897326917052">
        <ele>49.8</ele>
        <time>2018-03-17T10:59:14Z</time>
      </trkpt>
      <trkpt lat="62.640856858485" lon="17.897283666448">
        <ele>50</ele>
        <time>2018-03-17T10:59:15Z</time>
      </trkpt>
      <trkpt lat="62.640847470757" lon="17.897249635934">
        <ele>50.2</ele>
        <time>2018-03-17T10:59:16Z</time>
      </trkpt>
      <trkpt lat="62.640839759409" lon="17.897227172442">
        <ele>50.2</ele>
        <time>2018-03-17T10:59:17Z</time>
      </trkpt>
      <trkpt lat="62.640831545147" lon="17.897186017313">
        <ele>50.4</ele>
        <time>2018-03-17T10:59:18Z</time>
      </trkpt>
      <trkpt lat="62.640821570686" lon="17.897148298763">
        <ele>50.6</ele>
        <time>2018-03-17T10:59:19Z</time>
      </trkpt>
      <trkpt lat="62.640813775519" lon="17.89710999348">
        <ele>50.8</ele>
        <time>2018-03-17T10:59:20Z</time>
      </trkpt>
      <trkpt lat="62.640806483266" lon="17.897075795328">
        <ele>50.8</ele>
        <time>2018-03-17T10:59:21Z</time>
      </trkpt>
      <trkpt lat="62.640798939556" lon="17.897045620488">
        <ele>51</ele>
        <time>2018-03-17T10:59:22Z</time>
      </trkpt>
      <trkpt lat="62.640792150217" lon="17.897013517811">
        <ele>51.2</ele>
        <time>2018-03-17T10:59:23Z</time>
      </trkpt>
      <trkpt lat="62.640784857964" lon="17.896976972727">
        <ele>51.4</ele>
        <time>2018-03-17T10:59:24Z</time>
      </trkpt>
      <trkpt lat="62.64077513496" lon="17.896941265833">
        <ele>51.6</ele>
        <time>2018-03-17T10:59:25Z</time>
      </trkpt>
      <trkpt lat="62.640764406128" lon="17.89691134245">
        <ele>51.8</ele>
        <time>2018-03-17T10:59:26Z</time>
      </trkpt>
      <trkpt lat="62.640754934581" lon="17.896885107103">
        <ele>52</ele>
        <time>2018-03-17T10:59:27Z</time>
      </trkpt>
      <trkpt lat="62.640747726147" lon="17.896860380498">
        <ele>52.2</ele>
        <time>2018-03-17T10:59:28Z</time>
      </trkpt>
      <trkpt lat="62.640741104446" lon="17.896837665549">
        <ele>52.4</ele>
        <time>2018-03-17T10:59:29Z</time>
      </trkpt>
      <trkpt lat="62.640731046166" lon="17.896800952827">
        <ele>52.6</ele>
        <time>2018-03-17T10:59:30Z</time>
      </trkpt>
      <trkpt lat="62.640723083361" lon="17.896766251761">
        <ele>52.8</ele>
        <time>2018-03-17T10:59:31Z</time>
      </trkpt>
      <trkpt lat="62.64071478528" lon="17.896733310894">
        <ele>53</ele>
        <time>2018-03-17T10:59:32Z</time>
      </trkpt>
      <trkpt lat="62.640705900466" lon="17.896701962588">
        <ele>53.2</ele>
        <time>2018-03-17T10:59:33Z</time>
      </trkpt>
      <trkpt lat="62.640698692032" lon="17.8966724583">
        <ele>53.4</ele>
        <time>2018-03-17T10:59:34Z</time>
      </trkpt>
      <trkpt lat="62.640690813046" lon="17.896642954012">
        <ele>53.4</ele>
        <time>2018-03-17T10:59:35Z</time>
      </trkpt>
      <trkpt lat="62.640684023707" lon="17.896614707009">
        <ele>53.8</ele>
        <time>2018-03-17T10:59:36Z</time>
      </trkpt>
      <trkpt lat="62.640664745337" lon="17.89653415695">
        <ele>53.8</ele>
        <time>2018-03-17T10:59:38Z</time>
      </trkpt>
      <trkpt lat="62.640647394804" lon="17.896460982963">
        <ele>53.8</ele>
        <time>2018-03-17T10:59:40Z</time>
      </trkpt>
      <trkpt lat="62.64064018637" lon="17.896432819779">
        <ele>54</ele>
        <time>2018-03-17T10:59:41Z</time>
      </trkpt>
      <trkpt lat="62.640629457538" lon="17.896382276922">
        <ele>54.2</ele>
        <time>2018-03-17T10:59:42Z</time>
      </trkpt>
      <trkpt lat="62.640621830009" lon="17.89634975515">
        <ele>54.4</ele>
        <time>2018-03-17T10:59:43Z</time>
      </trkpt>
      <trkpt lat="62.640614789213" lon="17.896322178699">
        <ele>54.8</ele>
        <time>2018-03-17T10:59:44Z</time>
      </trkpt>
      <trkpt lat="62.640601797268" lon="17.896272893127">
        <ele>55</ele>
        <time>2018-03-17T10:59:45Z</time>
      </trkpt>
      <trkpt lat="62.640594421196" lon="17.896229223428">
        <ele>55.4</ele>
        <time>2018-03-17T10:59:46Z</time>
      </trkpt>
      <trkpt lat="62.64059073316" lon="17.896206340841">
        <ele>55.6</ele>
        <time>2018-03-17T10:59:47Z</time>
      </trkpt>
      <trkpt lat="62.640585955477" lon="17.896152277586">
        <ele>55.8</ele>
        <time>2018-03-17T10:59:48Z</time>
      </trkpt>
      <trkpt lat="62.640578914681" lon="17.896105422765">
        <ele>56</ele>
        <time>2018-03-17T10:59:49Z</time>
      </trkpt>
      <trkpt lat="62.640575059007" lon="17.896061250152">
        <ele>56.2</ele>
        <time>2018-03-17T10:59:50Z</time>
      </trkpt>
      <trkpt lat="62.640573382627" lon="17.896026465267">
        <ele>56.4</ele>
        <time>2018-03-17T10:59:51Z</time>
      </trkpt>
      <trkpt lat="62.640570281324" lon="17.895995368418">
        <ele>56.4</ele>
        <time>2018-03-17T10:59:52Z</time>
      </trkpt>
      <trkpt lat="62.640568018211" lon="17.895959493886">
        <ele>56.6</ele>
        <time>2018-03-17T10:59:53Z</time>
      </trkpt>
      <trkpt lat="62.640564916908" lon="17.895916662377">
        <ele>57</ele>
        <time>2018-03-17T10:59:54Z</time>
      </trkpt>
      <trkpt lat="62.640561145053" lon="17.895870981022">
        <ele>57</ele>
        <time>2018-03-17T10:59:55Z</time>
      </trkpt>
      <trkpt lat="62.640557792293" lon="17.895838123974">
        <ele>57.2</ele>
        <time>2018-03-17T10:59:56Z</time>
      </trkpt>
      <trkpt lat="62.640555277723" lon="17.895793029352">
        <ele>57.2</ele>
        <time>2018-03-17T10:59:57Z</time>
      </trkpt>
      <trkpt lat="62.640551254411" lon="17.895746509807">
        <ele>57.4</ele>
        <time>2018-03-17T10:59:58Z</time>
      </trkpt>
      <trkpt lat="62.640548572203" lon="17.895716418786">
        <ele>57.4</ele>
        <time>2018-03-17T10:59:59Z</time>
      </trkpt>
      <trkpt lat="62.640545638538" lon="17.895674509286">
        <ele>57.4</ele>
        <time>2018-03-17T11:00:00Z</time>
      </trkpt>
      <trkpt lat="62.640544129796" lon="17.895625894266">
        <ele>57.4</ele>
        <time>2018-03-17T11:00:01Z</time>
      </trkpt>
      <trkpt lat="62.640541447588" lon="17.895596809073">
        <ele>57.6</ele>
        <time>2018-03-17T11:00:02Z</time>
      </trkpt>
      <trkpt lat="62.640538178647" lon="17.895543332551">
        <ele>57.6</ele>
        <time>2018-03-17T11:00:03Z</time>
      </trkpt>
      <trkpt lat="62.64053625081" lon="17.895504775811">
        <ele>57.8</ele>
        <time>2018-03-17T11:00:04Z</time>
      </trkpt>
      <trkpt lat="62.640532730412" lon="17.895453981497">
        <ele>57.8</ele>
        <time>2018-03-17T11:00:05Z</time>
      </trkpt>
      <trkpt lat="62.640529042376" lon="17.895413832196">
        <ele>58</ele>
        <time>2018-03-17T11:00:06Z</time>
      </trkpt>
      <trkpt lat="62.640525689616" lon="17.895358092561">
        <ele>58</ele>
        <time>2018-03-17T11:00:07Z</time>
      </trkpt>
      <trkpt lat="62.640523929417" lon="17.895302352926">
        <ele>58.2</ele>
        <time>2018-03-17T11:00:08Z</time>
      </trkpt>
      <trkpt lat="62.640521247209" lon="17.895253067354">
        <ele>58.2</ele>
        <time>2018-03-17T11:00:09Z</time>
      </trkpt>
      <trkpt lat="62.640521079571" lon="17.89518383286">
        <ele>58.4</ele>
        <time>2018-03-17T11:00:10Z</time>
      </trkpt>
      <trkpt lat="62.640520744295" lon="17.895134714926">
        <ele>58.4</ele>
        <time>2018-03-17T11:00:11Z</time>
      </trkpt>
      <trkpt lat="62.640516804802" lon="17.895062965862">
        <ele>58.4</ele>
        <time>2018-03-17T11:00:12Z</time>
      </trkpt>
      <trkpt lat="62.64051529606" lon="17.895008734969">
        <ele>58</ele>
        <time>2018-03-17T11:00:13Z</time>
      </trkpt>
      <trkpt lat="62.640512949128" lon="17.894968501849">
        <ele>58</ele>
        <time>2018-03-17T11:00:14Z</time>
      </trkpt>
      <trkpt lat="62.640511188929" lon="17.894906978703">
        <ele>57.8</ele>
        <time>2018-03-17T11:00:15Z</time>
      </trkpt>
      <trkpt lat="62.640509344911" lon="17.894858866597">
        <ele>57.8</ele>
        <time>2018-03-17T11:00:16Z</time>
      </trkpt>
      <trkpt lat="62.64050607597" lon="17.894824165531">
        <ele>57.8</ele>
        <time>2018-03-17T11:00:17Z</time>
      </trkpt>
      <trkpt lat="62.640502974667" lon="17.894756272141">
        <ele>57.8</ele>
        <time>2018-03-17T11:00:18Z</time>
      </trkpt>
      <trkpt lat="62.640500795373" lon="17.894716290478">
        <ele>57.6</ele>
        <time>2018-03-17T11:00:19Z</time>
      </trkpt>
      <trkpt lat="62.640495682414" lon="17.894667088725">
        <ele>57.6</ele>
        <time>2018-03-17T11:00:20Z</time>
      </trkpt>
      <trkpt lat="62.640490485636" lon="17.894608918339">
        <ele>57.6</ele>
        <time>2018-03-17T11:00:21Z</time>
      </trkpt>
      <trkpt lat="62.640487384333" lon="17.894573546721">
        <ele>57.6</ele>
        <time>2018-03-17T11:00:22Z</time>
      </trkpt>
      <trkpt lat="62.64048260665" lon="17.894526356624">
        <ele>57.6</ele>
        <time>2018-03-17T11:00:23Z</time>
      </trkpt>
      <trkpt lat="62.640476404044" lon="17.894474556482">
        <ele>57.8</ele>
        <time>2018-03-17T11:00:24Z</time>
      </trkpt>
      <trkpt lat="62.640471039628" lon="17.894435496828">
        <ele>58</ele>
        <time>2018-03-17T11:00:25Z</time>
      </trkpt>
      <trkpt lat="62.640466261945" lon="17.894392246224">
        <ele>58.4</ele>
        <time>2018-03-17T11:00:26Z</time>
      </trkpt>
      <trkpt lat="62.640457125674" lon="17.89434396648">
        <ele>58.6</ele>
        <time>2018-03-17T11:00:27Z</time>
      </trkpt>
      <trkpt lat="62.640449581964" lon="17.894308091948">
        <ele>58.6</ele>
        <time>2018-03-17T11:00:28Z</time>
      </trkpt>
      <trkpt lat="62.640442289711" lon="17.894272468873">
        <ele>58.6</ele>
        <time>2018-03-17T11:00:29Z</time>
      </trkpt>
      <trkpt lat="62.640429884499" lon="17.894217483609">
        <ele>58.8</ele>
        <time>2018-03-17T11:00:30Z</time>
      </trkpt>
      <trkpt lat="62.640424184807" lon="17.894184039828">
        <ele>58.8</ele>
        <time>2018-03-17T11:00:31Z</time>
      </trkpt>
      <trkpt lat="62.640415383812" lon="17.894142046509">
        <ele>58.8</ele>
        <time>2018-03-17T11:00:32Z</time>
      </trkpt>
      <trkpt lat="62.640400799306" lon="17.894093096213">
        <ele>59</ele>
        <time>2018-03-17T11:00:33Z</time>
      </trkpt>
      <trkpt lat="62.640391160121" lon="17.894066357952">
        <ele>59</ele>
        <time>2018-03-17T11:00:34Z</time>
      </trkpt>
      <trkpt lat="62.640381772393" lon="17.894039452053">
        <ele>59</ele>
        <time>2018-03-17T11:00:35Z</time>
      </trkpt>
      <trkpt lat="62.640379174004" lon="17.894019503131">
        <ele>59</ele>
        <time>2018-03-17T11:00:36Z</time>
      </trkpt>
      <trkpt lat="62.640361404376" lon="17.893959572546">
        <ele>59</ele>
        <time>2018-03-17T11:00:37Z</time>
      </trkpt>
      <trkpt lat="62.640349166802" lon="17.893915232295">
        <ele>59</ele>
        <time>2018-03-17T11:00:38Z</time>
      </trkpt>
      <trkpt lat="62.640338018875" lon="17.893878184297">
        <ele>59</ele>
        <time>2018-03-17T11:00:39Z</time>
      </trkpt>
      <trkpt lat="62.64032586512" lon="17.893834849874">
        <ele>59.2</ele>
        <time>2018-03-17T11:00:40Z</time>
      </trkpt>
      <trkpt lat="62.64031496865" lon="17.893798472428">
        <ele>59.2</ele>
        <time>2018-03-17T11:00:41Z</time>
      </trkpt>
      <trkpt lat="62.640306335293" lon="17.893767710855">
        <ele>59.4</ele>
        <time>2018-03-17T11:00:42Z</time>
      </trkpt>
      <trkpt lat="62.640296360832" lon="17.893736865463">
        <ele>59.6</ele>
        <time>2018-03-17T11:00:43Z</time>
      </trkpt>
      <trkpt lat="62.640289068579" lon="17.893702918768">
        <ele>59.8</ele>
        <time>2018-03-17T11:00:44Z</time>
      </trkpt>
      <trkpt lat="62.640282530697" lon="17.893664110571">
        <ele>60.2</ele>
        <time>2018-03-17T11:00:45Z</time>
      </trkpt>
      <trkpt lat="62.640276747186" lon="17.893627481668">
        <ele>60.6</ele>
        <time>2018-03-17T11:00:46Z</time>
      </trkpt>
      <trkpt lat="62.640275070806" lon="17.893607868022">
        <ele>60.8</ele>
        <time>2018-03-17T11:00:47Z</time>
      </trkpt>
      <trkpt lat="62.640275406082" lon="17.893567467264">
        <ele>61</ele>
        <time>2018-03-17T11:00:48Z</time>
      </trkpt>
      <trkpt lat="62.640274567892" lon="17.893541734831">
        <ele>61.2</ele>
        <time>2018-03-17T11:00:49Z</time>
      </trkpt>
      <trkpt lat="62.640276579548" lon="17.893507955774">
        <ele>61.4</ele>
        <time>2018-03-17T11:00:50Z</time>
      </trkpt>
      <trkpt lat="62.640277501557" lon="17.893477613296">
        <ele>61.4</ele>
        <time>2018-03-17T11:00:51Z</time>
      </trkpt>
      <trkpt lat="62.640282195421" lon="17.893440984393">
        <ele>61.8</ele>
        <time>2018-03-17T11:00:52Z</time>
      </trkpt>
      <trkpt lat="62.64028730838" lon="17.8934035173">
        <ele>62</ele>
        <time>2018-03-17T11:00:53Z</time>
      </trkpt>
      <trkpt lat="62.640283787982" lon="17.893411815381">
        <ele>62.2</ele>
        <time>2018-03-17T11:00:54Z</time>
      </trkpt>
      <trkpt lat="62.640288649484" lon="17.893338306118">
        <ele>62.4</ele>
        <time>2018-03-17T11:00:55Z</time>
      </trkpt>
      <trkpt lat="62.640292505158" lon="17.893283069397">
        <ele>62.6</ele>
        <time>2018-03-17T11:00:56Z</time>
      </trkpt>
      <trkpt lat="62.640294935909" lon="17.893242668639">
        <ele>62.8</ele>
        <time>2018-03-17T11:00:57Z</time>
      </trkpt>
      <trkpt lat="62.640297534298" lon="17.89320570446">
        <ele>62.8</ele>
        <time>2018-03-17T11:00:58Z</time>
      </trkpt>
      <trkpt lat="62.640298540126" lon="17.893175864896">
        <ele>62.8</ele>
        <time>2018-03-17T11:00:59Z</time>
      </trkpt>
      <trkpt lat="62.640302479619" lon="17.893130183541">
        <ele>63.2</ele>
        <time>2018-03-17T11:01:00Z</time>
      </trkpt>
      <trkpt lat="62.640299965049" lon="17.893096236846">
        <ele>63.4</ele>
        <time>2018-03-17T11:01:01Z</time>
      </trkpt>
      <trkpt lat="62.640300048868" lon="17.893065559092">
        <ele>63.6</ele>
        <time>2018-03-17T11:01:02Z</time>
      </trkpt>
      <trkpt lat="62.64030155761" lon="17.893023649592">
        <ele>64</ele>
        <time>2018-03-17T11:01:03Z</time>
      </trkpt>
      <trkpt lat="62.640300887058" lon="17.892989032345">
        <ele>64.2</ele>
        <time>2018-03-17T11:01:04Z</time>
      </trkpt>
      <trkpt lat="62.640300132687" lon="17.892953073994">
        <ele>64.4</ele>
        <time>2018-03-17T11:01:05Z</time>
      </trkpt>
      <trkpt lat="62.640296612289" lon="17.892915103987">
        <ele>64.6</ele>
        <time>2018-03-17T11:01:06Z</time>
      </trkpt>
      <trkpt lat="62.640294684452" lon="17.8928754576">
        <ele>64.8</ele>
        <time>2018-03-17T11:01:07Z</time>
      </trkpt>
      <trkpt lat="62.640291164054" lon="17.89284528276">
        <ele>65</ele>
        <time>2018-03-17T11:01:08Z</time>
      </trkpt>
      <trkpt lat="62.640282949792" lon="17.892795745731">
        <ele>65.4</ele>
        <time>2018-03-17T11:01:09Z</time>
      </trkpt>
      <trkpt lat="62.640276998643" lon="17.892749477643">
        <ele>65.4</ele>
        <time>2018-03-17T11:01:10Z</time>
      </trkpt>
      <trkpt lat="62.640273813521" lon="17.892723242296">
        <ele>65.6</ele>
        <time>2018-03-17T11:01:11Z</time>
      </trkpt>
      <trkpt lat="62.640267359458" lon="17.892659875132">
        <ele>65.8</ele>
        <time>2018-03-17T11:01:12Z</time>
      </trkpt>
      <trkpt lat="62.640260989214" lon="17.892611511569">
        <ele>65.8</ele>
        <time>2018-03-17T11:01:13Z</time>
      </trkpt>
      <trkpt lat="62.640256379169" lon="17.8925737092">
        <ele>65.8</ele>
        <time>2018-03-17T11:01:14Z</time>
      </trkpt>
      <trkpt lat="62.640255121884" lon="17.892530374777">
        <ele>65.8</ele>
        <time>2018-03-17T11:01:15Z</time>
      </trkpt>
      <trkpt lat="62.64025042802" lon="17.892480921567">
        <ele>66</ele>
        <time>2018-03-17T11:01:16Z</time>
      </trkpt>
      <trkpt lat="62.640249841287" lon="17.892449992356">
        <ele>66</ele>
        <time>2018-03-17T11:01:17Z</time>
      </trkpt>
      <trkpt lat="62.640247159079" lon="17.892384948812">
        <ele>66.2</ele>
        <time>2018-03-17T11:01:18Z</time>
      </trkpt>
      <trkpt lat="62.640241459387" lon="17.892343793683">
        <ele>66.4</ele>
        <time>2018-03-17T11:01:19Z</time>
      </trkpt>
      <trkpt lat="62.640238190446" lon="17.892290903894">
        <ele>66.6</ele>
        <time>2018-03-17T11:01:20Z</time>
      </trkpt>
      <trkpt lat="62.640235759695" lon="17.892229129291">
        <ele>66.8</ele>
        <time>2018-03-17T11:01:21Z</time>
      </trkpt>
      <trkpt lat="62.640236262609" lon="17.89217473076">
        <ele>67</ele>
        <time>2018-03-17T11:01:22Z</time>
      </trkpt>
      <trkpt lat="62.640237938989" lon="17.892136928391">
        <ele>67.2</ele>
        <time>2018-03-17T11:01:23Z</time>
      </trkpt>
      <trkpt lat="62.640243303405" lon="17.892079847652">
        <ele>67.2</ele>
        <time>2018-03-17T11:01:24Z</time>
      </trkpt>
      <trkpt lat="62.640251433848" lon="17.892023353646">
        <ele>67.4</ele>
        <time>2018-03-17T11:01:25Z</time>
      </trkpt>
      <trkpt lat="62.640259564291" lon="17.891980354499">
        <ele>67.4</ele>
        <time>2018-03-17T11:01:26Z</time>
      </trkpt>
      <trkpt lat="62.640279429394" lon="17.891921848837">
        <ele>67.4</ele>
        <time>2018-03-17T11:01:27Z</time>
      </trkpt>
      <trkpt lat="62.64029652847" lon="17.891871557437">
        <ele>67.2</ele>
        <time>2018-03-17T11:01:28Z</time>
      </trkpt>
      <trkpt lat="62.640325194568" lon="17.891832916878">
        <ele>67</ele>
        <time>2018-03-17T11:01:29Z</time>
      </trkpt>
      <trkpt lat="62.640362242566" lon="17.891788576627">
        <ele>67</ele>
        <time>2018-03-17T11:01:30Z</time>
      </trkpt>
      <trkpt lat="62.640390154293" lon="17.891768040972">
        <ele>66.8</ele>
        <time>2018-03-17T11:01:31Z</time>
      </trkpt>
      <trkpt lat="62.640417311649" lon="17.891748511145">
        <ele>66.8</ele>
        <time>2018-03-17T11:01:32Z</time>
      </trkpt>
      <trkpt lat="62.640450168697" lon="17.891737614675">
        <ele>66.6</ele>
        <time>2018-03-17T11:01:33Z</time>
      </trkpt>
      <trkpt lat="62.640486043229" lon="17.89174138653">
        <ele>66.6</ele>
        <time>2018-03-17T11:01:34Z</time>
      </trkpt>
      <trkpt lat="62.640523258865" lon="17.89174725386">
        <ele>66.6</ele>
        <time>2018-03-17T11:01:35Z</time>
      </trkpt>
      <trkpt lat="62.640609089521" lon="17.891749852249">
        <ele>66.4</ele>
        <time>2018-03-17T11:01:36Z</time>
      </trkpt>
      <trkpt lat="62.64067790492" lon="17.891764688212">
        <ele>66.2</ele>
        <time>2018-03-17T11:01:37Z</time>
      </trkpt>
      <trkpt lat="62.640741774998" lon="17.891795701242">
        <ele>65.2</ele>
        <time>2018-03-17T11:01:38Z</time>
      </trkpt>
      <trkpt lat="62.640797346995" lon="17.891849177764">
        <ele>64.2</ele>
        <time>2018-03-17T11:01:39Z</time>
      </trkpt>
      <trkpt lat="62.640852416078" lon="17.891930901289">
        <ele>63</ele>
        <time>2018-03-17T11:01:40Z</time>
      </trkpt>
      <trkpt lat="62.640897259243" lon="17.892010529339">
        <ele>61.6</ele>
        <time>2018-03-17T11:01:41Z</time>
      </trkpt>
      <trkpt lat="62.640944030245" lon="17.892097868737">
        <ele>60.6</ele>
        <time>2018-03-17T11:01:42Z</time>
      </trkpt>
      <trkpt lat="62.640988370496" lon="17.892166600317">
        <ele>60.2</ele>
        <time>2018-03-17T11:01:43Z</time>
      </trkpt>
      <trkpt lat="62.641028100702" lon="17.892211024387">
        <ele>59.8</ele>
        <time>2018-03-17T11:01:44Z</time>
      </trkpt>
      <trkpt lat="62.641073446781" lon="17.89224094777">
        <ele>59.6</ele>
        <time>2018-03-17T11:01:45Z</time>
      </trkpt>
      <trkpt lat="62.641119547231" lon="17.89225352062">
        <ele>59.6</ele>
        <time>2018-03-17T11:01:46Z</time>
      </trkpt>
      <trkpt lat="62.641152739555" lon="17.892250251679">
        <ele>59.8</ele>
        <time>2018-03-17T11:01:47Z</time>
      </trkpt>
      <trkpt lat="62.641190961019" lon="17.892235667173">
        <ele>59.8</ele>
        <time>2018-03-17T11:01:48Z</time>
      </trkpt>
      <trkpt lat="62.641215939081" lon="17.892216975536">
        <ele>60.2</ele>
        <time>2018-03-17T11:01:49Z</time>
      </trkpt>
      <trkpt lat="62.641237229107" lon="17.892207001075">
        <ele>60.4</ele>
        <time>2018-03-17T11:01:50Z</time>
      </trkpt>
      <trkpt lat="62.641273774191" lon="17.892188477076">
        <ele>60.8</ele>
        <time>2018-03-17T11:01:51Z</time>
      </trkpt>
      <trkpt lat="62.641300009538" lon="17.892167773783">
        <ele>60.8</ele>
        <time>2018-03-17T11:01:52Z</time>
      </trkpt>
      <trkpt lat="62.641332866586" lon="17.892148579232">
        <ele>61</ele>
        <time>2018-03-17T11:01:53Z</time>
      </trkpt>
      <trkpt lat="62.641371842421" lon="17.89213030669">
        <ele>60.8</ele>
        <time>2018-03-17T11:01:54Z</time>
      </trkpt>
      <trkpt lat="62.641406543487" lon="17.892109268121">
        <ele>60.8</ele>
        <time>2018-03-17T11:01:55Z</time>
      </trkpt>
      <trkpt lat="62.641436047775" lon="17.892083619507">
        <ele>60.8</ele>
        <time>2018-03-17T11:01:56Z</time>
      </trkpt>
      <trkpt lat="62.641466138796" lon="17.892059228178">
        <ele>60.6</ele>
        <time>2018-03-17T11:01:57Z</time>
      </trkpt>
      <trkpt lat="62.64150771302" lon="17.89203391484">
        <ele>60.4</ele>
        <time>2018-03-17T11:01:58Z</time>
      </trkpt>
      <trkpt lat="62.641546185941" lon="17.892019414153">
        <ele>60.4</ele>
        <time>2018-03-17T11:01:59Z</time>
      </trkpt>
      <trkpt lat="62.641604188689" lon="17.892005332561">
        <ele>59.6</ele>
        <time>2018-03-17T11:02:00Z</time>
      </trkpt>
      <trkpt lat="62.641657078478" lon="17.891993849358">
        <ele>58.8</ele>
        <time>2018-03-17T11:02:01Z</time>
      </trkpt>
      <trkpt lat="62.641704184756" lon="17.891970463857">
        <ele>57.8</ele>
        <time>2018-03-17T11:02:02Z</time>
      </trkpt>
      <trkpt lat="62.641750704301" lon="17.891943557958">
        <ele>56.6</ele>
        <time>2018-03-17T11:02:03Z</time>
      </trkpt>
      <trkpt lat="62.641802504443" lon="17.891915310955">
        <ele>55.8</ele>
        <time>2018-03-17T11:02:04Z</time>
      </trkpt>
      <trkpt lat="62.641858411716" lon="17.891884549382">
        <ele>55.4</ele>
        <time>2018-03-17T11:02:05Z</time>
      </trkpt>
      <trkpt lat="62.641923036165" lon="17.891849093945">
        <ele>54.6</ele>
        <time>2018-03-17T11:02:06Z</time>
      </trkpt>
      <trkpt lat="62.641988331166" lon="17.891813806146">
        <ele>54</ele>
        <time>2018-03-17T11:02:07Z</time>
      </trkpt>
      <trkpt lat="62.642059325859" lon="17.891771729008">
        <ele>53.4</ele>
        <time>2018-03-17T11:02:08Z</time>
      </trkpt>
      <trkpt lat="62.642127638344" lon="17.891722694893">
        <ele>52.4</ele>
        <time>2018-03-17T11:02:09Z</time>
      </trkpt>
      <trkpt lat="62.642206595842" lon="17.891656058788">
        <ele>51.6</ele>
        <time>2018-03-17T11:02:10Z</time>
      </trkpt>
      <trkpt lat="62.642284379874" lon="17.891580202593">
        <ele>51.4</ele>
        <time>2018-03-17T11:02:11Z</time>
      </trkpt>
      <trkpt lat="62.642367025408" lon="17.891480877078">
        <ele>51</ele>
        <time>2018-03-17T11:02:12Z</time>
      </trkpt>
      <trkpt lat="62.642427123631" lon="17.89138264121">
        <ele>50.4</ele>
        <time>2018-03-17T11:02:13Z</time>
      </trkpt>
      <trkpt lat="62.642468111122" lon="17.891285578808">
        <ele>50.2</ele>
        <time>2018-03-17T11:02:14Z</time>
      </trkpt>
      <trkpt lat="62.642492250994" lon="17.891179044859">
        <ele>49.8</ele>
        <time>2018-03-17T11:02:15Z</time>
      </trkpt>
      <trkpt lat="62.642497280134" lon="17.89108843652">
        <ele>48.8</ele>
        <time>2018-03-17T11:02:16Z</time>
      </trkpt>
      <trkpt lat="62.642490239338" lon="17.891018363836">
        <ele>48.6</ele>
        <time>2018-03-17T11:02:17Z</time>
      </trkpt>
      <trkpt lat="62.642469536045" lon="17.890938987243">
        <ele>48.2</ele>
        <time>2018-03-17T11:02:18Z</time>
      </trkpt>
      <trkpt lat="62.64244480944" lon="17.890870088025">
        <ele>48.2</ele>
        <time>2018-03-17T11:02:19Z</time>
      </trkpt>
      <trkpt lat="62.642411617116" lon="17.890808900155">
        <ele>48</ele>
        <time>2018-03-17T11:02:20Z</time>
      </trkpt>
      <trkpt lat="62.642368031236" lon="17.890766403922">
        <ele>47.8</ele>
        <time>2018-03-17T11:02:21Z</time>
      </trkpt>
      <trkpt lat="62.642318158931" lon="17.890725835526">
        <ele>47.8</ele>
        <time>2018-03-17T11:02:22Z</time>
      </trkpt>
      <trkpt lat="62.642269543911" lon="17.890695409229">
        <ele>47.8</ele>
        <time>2018-03-17T11:02:23Z</time>
      </trkpt>
      <trkpt lat="62.642226712402" lon="17.89066850333">
        <ele>47.4</ele>
        <time>2018-03-17T11:02:24Z</time>
      </trkpt>
      <trkpt lat="62.642178181201" lon="17.890637574119">
        <ele>47</ele>
        <time>2018-03-17T11:02:25Z</time>
      </trkpt>
      <trkpt lat="62.642152029673" lon="17.890610165306">
        <ele>46.2</ele>
        <time>2018-03-17T11:02:26Z</time>
      </trkpt>
      <trkpt lat="62.642129901457" lon="17.890595245524">
        <ele>46.2</ele>
        <time>2018-03-17T11:02:27Z</time>
      </trkpt>
      <trkpt lat="62.642107521784" lon="17.890579403733">
        <ele>46.2</ele>
        <time>2018-03-17T11:02:28Z</time>
      </trkpt>
      <trkpt lat="62.642090925622" lon="17.890566579426">
        <ele>45.8</ele>
        <time>2018-03-17T11:02:29Z</time>
      </trkpt>
      <trkpt lat="62.642068210673" lon="17.890549145074">
        <ele>46.4</ele>
        <time>2018-03-17T11:02:30Z</time>
      </trkpt>
      <trkpt lat="62.642052955615" lon="17.890539254432">
        <ele>46.8</ele>
        <time>2018-03-17T11:02:31Z</time>
      </trkpt>
      <trkpt lat="62.642033174331" lon="17.890527855048">
        <ele>47.2</ele>
        <time>2018-03-17T11:02:32Z</time>
      </trkpt>
      <trkpt lat="62.642012638676" lon="17.890519892243">
        <ele>47.4</ele>
        <time>2018-03-17T11:02:33Z</time>
      </trkpt>
      <trkpt lat="62.641995288143" lon="17.890510001601">
        <ele>47.6</ele>
        <time>2018-03-17T11:02:34Z</time>
      </trkpt>
      <trkpt lat="62.64197626123" lon="17.890500530054">
        <ele>47.8</ele>
        <time>2018-03-17T11:02:35Z</time>
      </trkpt>
      <trkpt lat="62.64195782105" lon="17.890487873385">
        <ele>48.2</ele>
        <time>2018-03-17T11:02:36Z</time>
      </trkpt>
      <trkpt lat="62.641941308707" lon="17.890475468173">
        <ele>48.4</ele>
        <time>2018-03-17T11:02:37Z</time>
      </trkpt>
      <trkpt lat="62.641923958174" lon="17.890463482056">
        <ele>48.6</ele>
        <time>2018-03-17T11:02:38Z</time>
      </trkpt>
      <trkpt lat="62.641908032564" lon="17.890453591414">
        <ele>48.8</ele>
        <time>2018-03-17T11:02:39Z</time>
      </trkpt>
      <trkpt lat="62.641887496909" lon="17.89044051565">
        <ele>49</ele>
        <time>2018-03-17T11:02:40Z</time>
      </trkpt>
      <trkpt lat="62.641871738937" lon="17.890428026619">
        <ele>49.6</ele>
        <time>2018-03-17T11:02:41Z</time>
      </trkpt>
      <trkpt lat="62.64185640006" lon="17.890414280303">
        <ele>49.8</ele>
        <time>2018-03-17T11:02:42Z</time>
      </trkpt>
      <trkpt lat="62.641840055355" lon="17.890404138204">
        <ele>50.4</ele>
        <time>2018-03-17T11:02:43Z</time>
      </trkpt>
      <trkpt lat="62.641825554668" lon="17.890393744648">
        <ele>51</ele>
        <time>2018-03-17T11:02:44Z</time>
      </trkpt>
      <trkpt lat="62.641810718705" lon="17.890380752703">
        <ele>51.4</ele>
        <time>2018-03-17T11:02:45Z</time>
      </trkpt>
      <trkpt lat="62.641797894398" lon="17.890371867889">
        <ele>51.8</ele>
        <time>2018-03-17T11:02:46Z</time>
      </trkpt>
      <trkpt lat="62.641782387883" lon="17.890358959763">
        <ele>52.2</ele>
        <time>2018-03-17T11:02:47Z</time>
      </trkpt>
      <trkpt lat="62.641766378454" lon="17.890339178479">
        <ele>52.4</ele>
        <time>2018-03-17T11:02:48Z</time>
      </trkpt>
      <trkpt lat="62.641751710129" lon="17.890320151566">
        <ele>52.6</ele>
        <time>2018-03-17T11:02:49Z</time>
      </trkpt>
      <trkpt lat="62.6417357007" lon="17.890296514608">
        <ele>52.8</ele>
        <time>2018-03-17T11:02:50Z</time>
      </trkpt>
      <trkpt lat="62.641720864737" lon="17.890271536546">
        <ele>53</ele>
        <time>2018-03-17T11:02:51Z</time>
      </trkpt>
      <trkpt lat="62.64170887862" lon="17.890250497977">
        <ele>53</ele>
        <time>2018-03-17T11:02:52Z</time>
      </trkpt>
      <trkpt lat="62.641695048485" lon="17.890223592078">
        <ele>53.2</ele>
        <time>2018-03-17T11:02:53Z</time>
      </trkpt>
      <trkpt lat="62.641684068196" lon="17.890201463862">
        <ele>53.4</ele>
        <time>2018-03-17T11:02:54Z</time>
      </trkpt>
      <trkpt lat="62.64166948369" lon="17.890157291249">
        <ele>53.6</ele>
        <time>2018-03-17T11:02:55Z</time>
      </trkpt>
      <trkpt lat="62.641653809537" lon="17.890116303758">
        <ele>53.8</ele>
        <time>2018-03-17T11:02:56Z</time>
      </trkpt>
      <trkpt lat="62.641642410153" lon="17.890080596864">
        <ele>53.8</ele>
        <time>2018-03-17T11:02:57Z</time>
      </trkpt>
      <trkpt lat="62.641632351873" lon="17.890045309065">
        <ele>54</ele>
        <time>2018-03-17T11:02:58Z</time>
      </trkpt>
      <trkpt lat="62.641621455403" lon="17.890006249411">
        <ele>54</ele>
        <time>2018-03-17T11:02:59Z</time>
      </trkpt>
      <trkpt lat="62.6416099722" lon="17.889955958011">
        <ele>54.2</ele>
        <time>2018-03-17T11:03:00Z</time>
      </trkpt>
      <trkpt lat="62.641599830101" lon="17.889905498973">
        <ele>54.4</ele>
        <time>2018-03-17T11:03:01Z</time>
      </trkpt>
      <trkpt lat="62.64159069383" lon="17.889856213401">
        <ele>54.4</ele>
        <time>2018-03-17T11:03:02Z</time>
      </trkpt>
      <trkpt lat="62.641587843984" lon="17.889812040788">
        <ele>54.6</ele>
        <time>2018-03-17T11:03:03Z</time>
      </trkpt>
      <trkpt lat="62.641582563387" lon="17.8897657727">
        <ele>54.4</ele>
        <time>2018-03-17T11:03:04Z</time>
      </trkpt>
      <trkpt lat="62.641576193143" lon="17.889695616197">
        <ele>54.2</ele>
        <time>2018-03-17T11:03:05Z</time>
      </trkpt>
      <trkpt lat="62.641571583098" lon="17.889606432781">
        <ele>53.8</ele>
        <time>2018-03-17T11:03:06Z</time>
      </trkpt>
      <trkpt lat="62.641570409632" lon="17.889502832497">
        <ele>53.4</ele>
        <time>2018-03-17T11:03:07Z</time>
      </trkpt>
      <trkpt lat="62.641573678573" lon="17.889375930531">
        <ele>52.4</ele>
        <time>2018-03-17T11:03:08Z</time>
      </trkpt>
      <trkpt lat="62.641582647206" lon="17.889253135696">
        <ele>52</ele>
        <time>2018-03-17T11:03:09Z</time>
      </trkpt>
      <trkpt lat="62.641604859241" lon="17.889053478838">
        <ele>51.2</ele>
        <time>2018-03-17T11:03:10Z</time>
      </trkpt>
      <trkpt lat="62.641632854787" lon="17.888872429798">
        <ele>49.8</ele>
        <time>2018-03-17T11:03:11Z</time>
      </trkpt>
      <trkpt lat="62.641672920269" lon="17.88865600914">
        <ele>48</ele>
        <time>2018-03-17T11:03:12Z</time>
      </trkpt>
      <trkpt lat="62.641716757606" lon="17.888452077513">
        <ele>45.8</ele>
        <time>2018-03-17T11:03:13Z</time>
      </trkpt>
      <trkpt lat="62.641763193332" lon="17.88828469097">
        <ele>42.2</ele>
        <time>2018-03-17T11:03:14Z</time>
      </trkpt>
      <trkpt lat="62.641814825836" lon="17.888130128734">
        <ele>40</ele>
        <time>2018-03-17T11:03:15Z</time>
      </trkpt>
      <trkpt lat="62.641862854123" lon="17.888008842641">
        <ele>38.2</ele>
        <time>2018-03-17T11:03:16Z</time>
      </trkpt>
      <trkpt lat="62.641901913777" lon="17.887913875714">
        <ele>37.6</ele>
        <time>2018-03-17T11:03:17Z</time>
      </trkpt>
      <trkpt lat="62.641944745286" lon="17.887818405873">
        <ele>37.4</ele>
        <time>2018-03-17T11:03:18Z</time>
      </trkpt>
      <trkpt lat="62.641979781628" lon="17.887751769768">
        <ele>37.4</ele>
        <time>2018-03-17T11:03:19Z</time>
      </trkpt>
      <trkpt lat="62.642018254549" lon="17.887689240794">
        <ele>37.8</ele>
        <time>2018-03-17T11:03:20Z</time>
      </trkpt>
      <trkpt lat="62.642048513208" lon="17.887626879458">
        <ele>38.2</ele>
        <time>2018-03-17T11:03:21Z</time>
      </trkpt>
      <trkpt lat="62.642085393568" lon="17.887571475099">
        <ele>39</ele>
        <time>2018-03-17T11:03:22Z</time>
      </trkpt>
      <trkpt lat="62.642120346091" lon="17.887519591138">
        <ele>39.4</ele>
        <time>2018-03-17T11:03:23Z</time>
      </trkpt>
      <trkpt lat="62.642170050758" lon="17.887489751574">
        <ele>40.4</ele>
        <time>2018-03-17T11:03:24Z</time>
      </trkpt>
      <trkpt lat="62.642203913634" lon="17.887440717459">
        <ele>41</ele>
        <time>2018-03-17T11:03:25Z</time>
      </trkpt>
      <trkpt lat="62.642221599443" lon="17.887413895379">
        <ele>41.6</ele>
        <time>2018-03-17T11:03:26Z</time>
      </trkpt>
      <trkpt lat="62.642234088474" lon="17.88738782767">
        <ele>41.8</ele>
        <time>2018-03-17T11:03:27Z</time>
      </trkpt>
      <trkpt lat="62.642240207261" lon="17.887363855436">
        <ele>42</ele>
        <time>2018-03-17T11:03:28Z</time>
      </trkpt>
      <trkpt lat="62.642243979116" lon="17.887346421084">
        <ele>42</ele>
        <time>2018-03-17T11:03:29Z</time>
      </trkpt>
      <trkpt lat="62.642253366844" lon="17.887318341719">
        <ele>42.4</ele>
        <time>2018-03-17T11:03:30Z</time>
      </trkpt>
      <trkpt lat="62.642258312165" lon="17.887289256526">
        <ele>42.4</ele>
        <time>2018-03-17T11:03:31Z</time>
      </trkpt>
      <trkpt lat="62.642260742916" lon="17.887258075858">
        <ele>42.8</ele>
        <time>2018-03-17T11:03:32Z</time>
      </trkpt>
      <trkpt lat="62.642267532255" lon="17.887224967353">
        <ele>43.2</ele>
        <time>2018-03-17T11:03:33Z</time>
      </trkpt>
      <trkpt lat="62.642270549739" lon="17.887191104477">
        <ele>43.4</ele>
        <time>2018-03-17T11:03:34Z</time>
      </trkpt>
      <trkpt lat="62.642271807024" lon="17.887155397583">
        <ele>43.6</ele>
        <time>2018-03-17T11:03:35Z</time>
      </trkpt>
      <trkpt lat="62.642273734861" lon="17.887117846671">
        <ele>43.6</ele>
        <time>2018-03-17T11:03:36Z</time>
      </trkpt>
      <trkpt lat="62.642273651042" lon="17.887083648519">
        <ele>43.8</ele>
        <time>2018-03-17T11:03:37Z</time>
      </trkpt>
      <trkpt lat="62.642275159784" lon="17.88703830244">
        <ele>44</ele>
        <time>2018-03-17T11:03:38Z</time>
      </trkpt>
      <trkpt lat="62.642274321594" lon="17.887003266098">
        <ele>44</ele>
        <time>2018-03-17T11:03:39Z</time>
      </trkpt>
      <trkpt lat="62.642273064309" lon="17.886960266951">
        <ele>44</ele>
        <time>2018-03-17T11:03:40Z</time>
      </trkpt>
      <trkpt lat="62.642270968834" lon="17.886926152618">
        <ele>44.2</ele>
        <time>2018-03-17T11:03:41Z</time>
      </trkpt>
      <trkpt lat="62.642267616074" lon="17.886881812367">
        <ele>44.4</ele>
        <time>2018-03-17T11:03:42Z</time>
      </trkpt>
      <trkpt lat="62.642261497287" lon="17.886840741057">
        <ele>44.4</ele>
        <time>2018-03-17T11:03:43Z</time>
      </trkpt>
      <trkpt lat="62.642256803423" lon="17.886806878181">
        <ele>44.6</ele>
        <time>2018-03-17T11:03:44Z</time>
      </trkpt>
      <trkpt lat="62.64224951117" lon="17.886769578726">
        <ele>44.8</ele>
        <time>2018-03-17T11:03:45Z</time>
      </trkpt>
      <trkpt lat="62.642244817306" lon="17.886724232647">
        <ele>45</ele>
        <time>2018-03-17T11:03:46Z</time>
      </trkpt>
      <trkpt lat="62.642240039623" lon="17.886693135798">
        <ele>45</ele>
        <time>2018-03-17T11:03:47Z</time>
      </trkpt>
      <trkpt lat="62.642230065162" lon="17.886658015637">
        <ele>45.2</ele>
        <time>2018-03-17T11:03:48Z</time>
      </trkpt>
      <trkpt lat="62.642222521452" lon="17.886621638191">
        <ele>45.4</ele>
        <time>2018-03-17T11:03:49Z</time>
      </trkpt>
      <trkpt lat="62.642214558647" lon="17.886580231605">
        <ele>45.6</ele>
        <time>2018-03-17T11:03:50Z</time>
      </trkpt>
      <trkpt lat="62.642207853127" lon="17.886545781996">
        <ele>45.6</ele>
        <time>2018-03-17T11:03:51Z</time>
      </trkpt>
      <trkpt lat="62.64220005796" lon="17.88651527188">
        <ele>45.8</ele>
        <time>2018-03-17T11:03:52Z</time>
      </trkpt>
      <trkpt lat="62.64219167606" lon="17.886489120352">
        <ele>46</ele>
        <time>2018-03-17T11:03:53Z</time>
      </trkpt>
      <trkpt lat="62.642183713255" lon="17.886466070127">
        <ele>46</ele>
        <time>2018-03-17T11:03:54Z</time>
      </trkpt>
      <trkpt lat="62.642173319699" lon="17.88643648202">
        <ele>46.2</ele>
        <time>2018-03-17T11:03:55Z</time>
      </trkpt>
      <trkpt lat="62.642165943627" lon="17.886411001044">
        <ele>46.4</ele>
        <time>2018-03-17T11:03:56Z</time>
      </trkpt>
      <trkpt lat="62.642157813184" lon="17.886387615543">
        <ele>46.8</ele>
        <time>2018-03-17T11:03:57Z</time>
      </trkpt>
      <trkpt lat="62.642148257818" lon="17.886360961101">
        <ele>47.2</ele>
        <time>2018-03-17T11:03:58Z</time>
      </trkpt>
      <trkpt lat="62.642137445167" lon="17.886340341627">
        <ele>47.2</ele>
        <time>2018-03-17T11:03:59Z</time>
      </trkpt>
      <trkpt lat="62.642124872317" lon="17.886308155131">
        <ele>47.6</ele>
        <time>2018-03-17T11:04:00Z</time>
      </trkpt>
      <trkpt lat="62.642113053838" lon="17.886282171241">
        <ele>47.8</ele>
        <time>2018-03-17T11:04:01Z</time>
      </trkpt>
      <trkpt lat="62.64210282792" lon="17.886256774084">
        <ele>48</ele>
        <time>2018-03-17T11:04:02Z</time>
      </trkpt>
      <trkpt lat="62.64209025507" lon="17.886232466574">
        <ele>48.2</ele>
        <time>2018-03-17T11:04:03Z</time>
      </trkpt>
      <trkpt lat="62.642078604229" lon="17.886208075245">
        <ele>48.6</ele>
        <time>2018-03-17T11:04:04Z</time>
      </trkpt>
      <trkpt lat="62.642066199017" lon="17.886186198486">
        <ele>49</ele>
        <time>2018-03-17T11:04:05Z</time>
      </trkpt>
      <trkpt lat="62.642051530692" lon="17.886157867664">
        <ele>49.4</ele>
        <time>2018-03-17T11:04:06Z</time>
      </trkpt>
      <trkpt lat="62.642033677245" lon="17.886126519358">
        <ele>49.8</ele>
        <time>2018-03-17T11:04:07Z</time>
      </trkpt>
      <trkpt lat="62.642019763291" lon="17.886100200192">
        <ele>50</ele>
        <time>2018-03-17T11:04:08Z</time>
      </trkpt>
      <trkpt lat="62.642007525717" lon="17.886083520211">
        <ele>50.2</ele>
        <time>2018-03-17T11:04:09Z</time>
      </trkpt>
      <trkpt lat="62.641987492976" lon="17.886048986783">
        <ele>50.2</ele>
        <time>2018-03-17T11:04:10Z</time>
      </trkpt>
      <trkpt lat="62.641973914298" lon="17.886023505807">
        <ele>50.2</ele>
        <time>2018-03-17T11:04:11Z</time>
      </trkpt>
      <trkpt lat="62.641958323964" lon="17.885996013175">
        <ele>50.2</ele>
        <time>2018-03-17T11:04:12Z</time>
      </trkpt>
      <trkpt lat="62.641939129413" lon="17.885959887186">
        <ele>50.4</ele>
        <time>2018-03-17T11:04:13Z</time>
      </trkpt>
      <trkpt lat="62.64192680802" lon="17.885941027911">
        <ele>50.4</ele>
        <time>2018-03-17T11:04:14Z</time>
      </trkpt>
      <trkpt lat="62.641905937089" lon="17.885900794791">
        <ele>50.4</ele>
        <time>2018-03-17T11:04:15Z</time>
      </trkpt>
      <trkpt lat="62.641890430574" lon="17.885875146177">
        <ele>50.4</ele>
        <time>2018-03-17T11:04:16Z</time>
      </trkpt>
      <trkpt lat="62.641873918231" lon="17.885841786215">
        <ele>50.4</ele>
        <time>2018-03-17T11:04:17Z</time>
      </trkpt>
      <trkpt lat="62.641853214938" lon="17.88580783952">
        <ele>50.4</ele>
        <time>2018-03-17T11:04:18Z</time>
      </trkpt>
      <trkpt lat="62.641836032043" lon="17.885776742671">
        <ele>50.4</ele>
        <time>2018-03-17T11:04:19Z</time>
      </trkpt>
      <trkpt lat="62.641816083121" lon="17.885739191759">
        <ele>50.4</ele>
        <time>2018-03-17T11:04:20Z</time>
      </trkpt>
      <trkpt lat="62.641797391484" lon="17.885708765462">
        <ele>50.4</ele>
        <time>2018-03-17T11:04:21Z</time>
      </trkpt>
      <trkpt lat="62.641775514725" lon="17.885664844306">
        <ele>50.4</ele>
        <time>2018-03-17T11:04:22Z</time>
      </trkpt>
      <trkpt lat="62.641756739269" lon="17.885632573991">
        <ele>50.4</ele>
        <time>2018-03-17T11:04:23Z</time>
      </trkpt>
      <trkpt lat="62.641738466727" lon="17.885607931205">
        <ele>50.4</ele>
        <time>2018-03-17T11:04:24Z</time>
      </trkpt>
      <trkpt lat="62.641717847253" lon="17.885570883207">
        <ele>50.2</ele>
        <time>2018-03-17T11:04:25Z</time>
      </trkpt>
      <trkpt lat="62.641700915815" lon="17.885543055299">
        <ele>50.4</ele>
        <time>2018-03-17T11:04:26Z</time>
      </trkpt>
      <trkpt lat="62.641685660757" lon="17.885515143572">
        <ele>50.2</ele>
        <time>2018-03-17T11:04:27Z</time>
      </trkpt>
      <trkpt lat="62.641670824794" lon="17.885489914053">
        <ele>50.2</ele>
        <time>2018-03-17T11:04:28Z</time>
      </trkpt>
      <trkpt lat="62.641658922496" lon="17.885468456389">
        <ele>50.6</ele>
        <time>2018-03-17T11:04:29Z</time>
      </trkpt>
      <trkpt lat="62.64164433799" lon="17.885440796119">
        <ele>50.8</ele>
        <time>2018-03-17T11:04:30Z</time>
      </trkpt>
      <trkpt lat="62.641634028253" lon="17.885415063686">
        <ele>51.2</ele>
        <time>2018-03-17T11:04:31Z</time>
      </trkpt>
      <trkpt lat="62.641620449575" lon="17.885386900502">
        <ele>51.4</ele>
        <time>2018-03-17T11:04:32Z</time>
      </trkpt>
      <trkpt lat="62.641604859241" lon="17.885357647671">
        <ele>51.6</ele>
        <time>2018-03-17T11:04:33Z</time>
      </trkpt>
      <trkpt lat="62.641590777649" lon="17.885332334333">
        <ele>51.8</ele>
        <time>2018-03-17T11:04:34Z</time>
      </trkpt>
      <trkpt lat="62.641577031333" lon="17.885306518081">
        <ele>51.8</ele>
        <time>2018-03-17T11:04:35Z</time>
      </trkpt>
      <trkpt lat="62.641561440999" lon="17.885283384037">
        <ele>52</ele>
        <time>2018-03-17T11:04:36Z</time>
      </trkpt>
      <trkpt lat="62.641548449054" lon="17.885262513106">
        <ele>52.2</ele>
        <time>2018-03-17T11:04:37Z</time>
      </trkpt>
      <trkpt lat="62.641537217308" lon="17.885234433741">
        <ele>52.4</ele>
        <time>2018-03-17T11:04:38Z</time>
      </trkpt>
      <trkpt lat="62.641526237019" lon="17.885208701308">
        <ele>52.6</ele>
        <time>2018-03-17T11:04:39Z</time>
      </trkpt>
      <trkpt lat="62.641510143771" lon="17.885178861744">
        <ele>52.6</ele>
        <time>2018-03-17T11:04:40Z</time>
      </trkpt>
      <trkpt lat="62.641497570921" lon="17.885155979157">
        <ele>52.8</ele>
        <time>2018-03-17T11:04:41Z</time>
      </trkpt>
      <trkpt lat="62.64148172913" lon="17.885126139593">
        <ele>53</ele>
        <time>2018-03-17T11:04:42Z</time>
      </trkpt>
      <trkpt lat="62.641468569547" lon="17.885100910074">
        <ele>53</ele>
        <time>2018-03-17T11:04:43Z</time>
      </trkpt>
      <trkpt lat="62.641455661421" lon="17.885079620048">
        <ele>53.2</ele>
        <time>2018-03-17T11:04:44Z</time>
      </trkpt>
      <trkpt lat="62.64144065782" lon="17.885045338077">
        <ele>53.4</ele>
        <time>2018-03-17T11:04:45Z</time>
      </trkpt>
      <trkpt lat="62.641420038346" lon="17.885017593988">
        <ele>53.6</ele>
        <time>2018-03-17T11:04:46Z</time>
      </trkpt>
      <trkpt lat="62.641410063885" lon="17.885006110785">
        <ele>53.8</ele>
        <time>2018-03-17T11:04:47Z</time>
      </trkpt>
      <trkpt lat="62.641386510746" lon="17.884969900977">
        <ele>54</ele>
        <time>2018-03-17T11:04:48Z</time>
      </trkpt>
      <trkpt lat="62.641369579308" lon="17.884944671458">
        <ele>54.2</ele>
        <time>2018-03-17T11:04:49Z</time>
      </trkpt>
      <trkpt lat="62.64135767701" lon="17.884924973993">
        <ele>54.4</ele>
        <time>2018-03-17T11:04:50Z</time>
      </trkpt>
      <trkpt lat="62.641337644269" lon="17.884890189108">
        <ele>54.4</ele>
        <time>2018-03-17T11:04:51Z</time>
      </trkpt>
      <trkpt lat="62.641319623184" lon="17.884862445019">
        <ele>54.6</ele>
        <time>2018-03-17T11:04:52Z</time>
      </trkpt>
      <trkpt lat="62.641306379782" lon="17.884840316803">
        <ele>54.8</ele>
        <time>2018-03-17T11:04:53Z</time>
      </trkpt>
      <trkpt lat="62.641287939602" lon="17.884813075628">
        <ele>55</ele>
        <time>2018-03-17T11:04:54Z</time>
      </trkpt>
      <trkpt lat="62.641272349268" lon="17.884786421186">
        <ele>55.2</ele>
        <time>2018-03-17T11:04:55Z</time>
      </trkpt>
      <trkpt lat="62.641260782246" lon="17.884766304626">
        <ele>55.2</ele>
        <time>2018-03-17T11:04:56Z</time>
      </trkpt>
      <trkpt lat="62.641244269903" lon="17.884732777026">
        <ele>55.2</ele>
        <time>2018-03-17T11:04:57Z</time>
      </trkpt>
      <trkpt lat="62.641228092836" lon="17.884700255254">
        <ele>55.4</ele>
        <time>2018-03-17T11:04:58Z</time>
      </trkpt>
      <trkpt lat="62.641214262701" lon="17.884674271364">
        <ele>55.4</ele>
        <time>2018-03-17T11:04:59Z</time>
      </trkpt>
      <trkpt lat="62.641199175281" lon="17.884645940542">
        <ele>55.6</ele>
        <time>2018-03-17T11:05:00Z</time>
      </trkpt>
      <trkpt lat="62.641189033182" lon="17.884622387403">
        <ele>56</ele>
        <time>2018-03-17T11:05:01Z</time>
      </trkpt>
      <trkpt lat="62.641175705961" lon="17.884596487332">
        <ele>56</ele>
        <time>2018-03-17T11:05:02Z</time>
      </trkpt>
      <trkpt lat="62.641159109799" lon="17.884557008583">
        <ele>56.2</ele>
        <time>2018-03-17T11:05:03Z</time>
      </trkpt>
      <trkpt lat="62.641145782578" lon="17.884528091028">
        <ele>56.4</ele>
        <time>2018-03-17T11:05:04Z</time>
      </trkpt>
      <trkpt lat="62.641134215556" lon="17.884503951156">
        <ele>56.6</ele>
        <time>2018-03-17T11:05:05Z</time>
      </trkpt>
      <trkpt lat="62.641118289946" lon="17.884461874018">
        <ele>56.8</ele>
        <time>2018-03-17T11:05:06Z</time>
      </trkpt>
      <trkpt lat="62.641100939413" lon="17.88442985516">
        <ele>57</ele>
        <time>2018-03-17T11:05:07Z</time>
      </trkpt>
      <trkpt lat="62.641086690183" lon="17.884408984229">
        <ele>57.2</ele>
        <time>2018-03-17T11:05:08Z</time>
      </trkpt>
      <trkpt lat="62.6410735306" lon="17.884377552104">
        <ele>57.2</ele>
        <time>2018-03-17T11:05:09Z</time>
      </trkpt>
      <trkpt lat="62.641056180067" lon="17.884335726423">
        <ele>57.6</ele>
        <time>2018-03-17T11:05:10Z</time>
      </trkpt>
      <trkpt lat="62.641046540882" lon="17.884311838008">
        <ele>57.6</ele>
        <time>2018-03-17T11:05:11Z</time>
      </trkpt>
      <trkpt lat="62.641025921408" lon="17.884264899368">
        <ele>57.8</ele>
        <time>2018-03-17T11:05:12Z</time>
      </trkpt>
      <trkpt lat="62.641014102929" lon="17.884232796691">
        <ele>58</ele>
        <time>2018-03-17T11:05:13Z</time>
      </trkpt>
      <trkpt lat="62.641002955002" lon="17.88420102929">
        <ele>58.2</ele>
        <time>2018-03-17T11:05:14Z</time>
      </trkpt>
      <trkpt lat="62.640986107383" lon="17.884156521401">
        <ele>58.2</ele>
        <time>2018-03-17T11:05:15Z</time>
      </trkpt>
      <trkpt lat="62.640974456542" lon="17.884127017113">
        <ele>58.2</ele>
        <time>2018-03-17T11:05:16Z</time>
      </trkpt>
      <trkpt lat="62.640965068814" lon="17.884094914436">
        <ele>58.4</ele>
        <time>2018-03-17T11:05:17Z</time>
      </trkpt>
      <trkpt lat="62.640948472652" lon="17.884048646348">
        <ele>58.4</ele>
        <time>2018-03-17T11:05:18Z</time>
      </trkpt>
      <trkpt lat="62.640937576182" lon="17.884021321354">
        <ele>58.4</ele>
        <time>2018-03-17T11:05:19Z</time>
      </trkpt>
      <trkpt lat="62.640924668056" lon="17.883975388542">
        <ele>58.6</ele>
        <time>2018-03-17T11:05:20Z</time>
      </trkpt>
      <trkpt lat="62.640911257016" lon="17.883919565088">
        <ele>58.6</ele>
        <time>2018-03-17T11:05:21Z</time>
      </trkpt>
      <trkpt lat="62.640905473505" lon="17.883874554285">
        <ele>58.6</ele>
        <time>2018-03-17T11:05:22Z</time>
      </trkpt>
      <trkpt lat="62.640900528184" lon="17.883841697237">
        <ele>58.6</ele>
        <time>2018-03-17T11:05:23Z</time>
      </trkpt>
      <trkpt lat="62.640896421053" lon="17.88380288904">
        <ele>58.6</ele>
        <time>2018-03-17T11:05:24Z</time>
      </trkpt>
      <trkpt lat="62.640890972818" lon="17.883759638436">
        <ele>58.8</ele>
        <time>2018-03-17T11:05:25Z</time>
      </trkpt>
      <trkpt lat="62.640886698049" lon="17.883715968737">
        <ele>59</ele>
        <time>2018-03-17T11:05:26Z</time>
      </trkpt>
      <trkpt lat="62.64087990871" lon="17.883678669282">
        <ele>59</ele>
        <time>2018-03-17T11:05:27Z</time>
      </trkpt>
      <trkpt lat="62.640876304493" lon="17.883636508325">
        <ele>59.2</ele>
        <time>2018-03-17T11:05:28Z</time>
      </trkpt>
      <trkpt lat="62.640875214846" lon="17.883606668761">
        <ele>59.4</ele>
        <time>2018-03-17T11:05:29Z</time>
      </trkpt>
      <trkpt lat="62.640874963389" lon="17.883571213324">
        <ele>59.6</ele>
        <time>2018-03-17T11:05:30Z</time>
      </trkpt>
      <trkpt lat="62.640868593145" lon="17.883543972149">
        <ele>59.8</ele>
        <time>2018-03-17T11:05:31Z</time>
      </trkpt>
      <trkpt lat="62.640870437163" lon="17.883509941635">
        <ele>60</ele>
        <time>2018-03-17T11:05:32Z</time>
      </trkpt>
      <trkpt lat="62.640871191534" lon="17.883471720171">
        <ele>60.2</ele>
        <time>2018-03-17T11:05:33Z</time>
      </trkpt>
      <trkpt lat="62.640870856258" lon="17.883432492879">
        <ele>60.4</ele>
        <time>2018-03-17T11:05:34Z</time>
      </trkpt>
      <trkpt lat="62.640869179878" lon="17.883396702166">
        <ele>60.6</ele>
        <time>2018-03-17T11:05:35Z</time>
      </trkpt>
      <trkpt lat="62.640867168222" lon="17.88335697196">
        <ele>60.8</ele>
        <time>2018-03-17T11:05:36Z</time>
      </trkpt>
      <trkpt lat="62.640862977272" lon="17.883323947274">
        <ele>61</ele>
        <time>2018-03-17T11:05:37Z</time>
      </trkpt>
      <trkpt lat="62.640862725815" lon="17.883282959783">
        <ele>61.4</ele>
        <time>2018-03-17T11:05:38Z</time>
      </trkpt>
      <trkpt lat="62.64085979215" lon="17.883251108563">
        <ele>61.6</ele>
        <time>2018-03-17T11:05:39Z</time>
      </trkpt>
      <trkpt lat="62.640862390539" lon="17.883210540167">
        <ele>61.6</ele>
        <time>2018-03-17T11:05:40Z</time>
      </trkpt>
      <trkpt lat="62.640864569833" lon="17.883176090558">
        <ele>61.8</ele>
        <time>2018-03-17T11:05:41Z</time>
      </trkpt>
      <trkpt lat="62.640865240385" lon="17.883134516334">
        <ele>62.2</ele>
        <time>2018-03-17T11:05:42Z</time>
      </trkpt>
      <trkpt lat="62.640866581489" lon="17.883101994562">
        <ele>62.4</ele>
        <time>2018-03-17T11:05:43Z</time>
      </trkpt>
      <trkpt lat="62.640868257869" lon="17.88306947279">
        <ele>62.4</ele>
        <time>2018-03-17T11:05:44Z</time>
      </trkpt>
      <trkpt lat="62.640872365" lon="17.883026138367">
        <ele>62.6</ele>
        <time>2018-03-17T11:05:45Z</time>
      </trkpt>
      <trkpt lat="62.640873622285" lon="17.882974924958">
        <ele>62.6</ele>
        <time>2018-03-17T11:05:46Z</time>
      </trkpt>
      <trkpt lat="62.640882004185" lon="17.882940559168">
        <ele>62.8</ele>
        <time>2018-03-17T11:05:47Z</time>
      </trkpt>
      <trkpt lat="62.640894241759" lon="17.882908288853">
        <ele>62.8</ele>
        <time>2018-03-17T11:05:48Z</time>
      </trkpt>
      <trkpt lat="62.64089834889" lon="17.882874845072">
        <ele>63</ele>
        <time>2018-03-17T11:05:49Z</time>
      </trkpt>
      <trkpt lat="62.640908239532" lon="17.882823547844">
        <ele>63.2</ele>
        <time>2018-03-17T11:05:50Z</time>
      </trkpt>
      <trkpt lat="62.640914190681" lon="17.882779961964">
        <ele>63.2</ele>
        <time>2018-03-17T11:05:51Z</time>
      </trkpt>
      <trkpt lat="62.640926344436" lon="17.882714834601">
        <ele>63.4</ele>
        <time>2018-03-17T11:05:52Z</time>
      </trkpt>
      <trkpt lat="62.640939168743" lon="17.882651048342">
        <ele>63.6</ele>
        <time>2018-03-17T11:05:53Z</time>
      </trkpt>
      <trkpt lat="62.640946041901" lon="17.882592626499">
        <ele>63.8</ele>
        <time>2018-03-17T11:05:54Z</time>
      </trkpt>
      <trkpt lat="62.640954339982" lon="17.882521799444">
        <ele>64</ele>
        <time>2018-03-17T11:05:55Z</time>
      </trkpt>
      <trkpt lat="62.640955848724" lon="17.882467820008">
        <ele>64</ele>
        <time>2018-03-17T11:05:56Z</time>
      </trkpt>
      <trkpt lat="62.640958447113" lon="17.882409481984">
        <ele>64</ele>
        <time>2018-03-17T11:05:57Z</time>
      </trkpt>
      <trkpt lat="62.640942605322" lon="17.882353323254">
        <ele>64</ele>
        <time>2018-03-17T11:05:58Z</time>
      </trkpt>
      <trkpt lat="62.640938079096" lon="17.882310659383">
        <ele>63.8</ele>
        <time>2018-03-17T11:05:59Z</time>
      </trkpt>
      <trkpt lat="62.640934307241" lon="17.882270090987">
        <ele>63.8</ele>
        <time>2018-03-17T11:06:00Z</time>
      </trkpt>
      <trkpt lat="62.640929781015" lon="17.882236982482">
        <ele>63.8</ele>
        <time>2018-03-17T11:06:01Z</time>
      </trkpt>
      <trkpt lat="62.64092852373" lon="17.882196833181">
        <ele>64</ele>
        <time>2018-03-17T11:06:02Z</time>
      </trkpt>
      <trkpt lat="62.640922237305" lon="17.882153498758">
        <ele>64</ele>
        <time>2018-03-17T11:06:03Z</time>
      </trkpt>
      <trkpt lat="62.64091595088" lon="17.882113600914">
        <ele>64.4</ele>
        <time>2018-03-17T11:06:04Z</time>
      </trkpt>
      <trkpt lat="62.640908574808" lon="17.882078899848">
        <ele>64.6</ele>
        <time>2018-03-17T11:06:05Z</time>
      </trkpt>
      <trkpt lat="62.640900360546" lon="17.882038163814">
        <ele>64.8</ele>
        <time>2018-03-17T11:06:06Z</time>
      </trkpt>
      <trkpt lat="62.640892397741" lon="17.881986782767">
        <ele>65</ele>
        <time>2018-03-17T11:06:07Z</time>
      </trkpt>
      <trkpt lat="62.640882255642" lon="17.881947890751">
        <ele>65.2</ele>
        <time>2018-03-17T11:06:08Z</time>
      </trkpt>
      <trkpt lat="62.640867754955" lon="17.881920817214">
        <ele>65.2</ele>
        <time>2018-03-17T11:06:09Z</time>
      </trkpt>
      <trkpt lat="62.640848644223" lon="17.881894581867">
        <ele>65.4</ele>
        <time>2018-03-17T11:06:10Z</time>
      </trkpt>
      <trkpt lat="62.640830287862" lon="17.881860551353">
        <ele>65.6</ele>
        <time>2018-03-17T11:06:11Z</time>
      </trkpt>
      <trkpt lat="62.640816290089" lon="17.881816797835">
        <ele>65.8</ele>
        <time>2018-03-17T11:06:12Z</time>
      </trkpt>
      <trkpt lat="62.640803968696" lon="17.881772373765">
        <ele>66</ele>
        <time>2018-03-17T11:06:13Z</time>
      </trkpt>
      <trkpt lat="62.640796257348" lon="17.881741863649">
        <ele>66.2</ele>
        <time>2018-03-17T11:06:14Z</time>
      </trkpt>
      <trkpt lat="62.640788378362" lon="17.881699199778">
        <ele>66.4</ele>
        <time>2018-03-17T11:06:15Z</time>
      </trkpt>
      <trkpt lat="62.640779409729" lon="17.881653015509">
        <ele>66.6</ele>
        <time>2018-03-17T11:06:16Z</time>
      </trkpt>
      <trkpt lat="62.640771363105" lon="17.881621331927">
        <ele>66.8</ele>
        <time>2018-03-17T11:06:17Z</time>
      </trkpt>
      <trkpt lat="62.640761221006" lon="17.881585122119">
        <ele>66.8</ele>
        <time>2018-03-17T11:06:18Z</time>
      </trkpt>
      <trkpt lat="62.640752000916" lon="17.881550840148">
        <ele>67</ele>
        <time>2018-03-17T11:06:19Z</time>
      </trkpt>
      <trkpt lat="62.640740433894" lon="17.881502141309">
        <ele>67</ele>
        <time>2018-03-17T11:06:20Z</time>
      </trkpt>
      <trkpt lat="62.640729202148" lon="17.881467188786">
        <ele>67</ele>
        <time>2018-03-17T11:06:21Z</time>
      </trkpt>
      <trkpt lat="62.640718808592" lon="17.881432403901">
        <ele>67.2</ele>
        <time>2018-03-17T11:06:22Z</time>
      </trkpt>
      <trkpt lat="62.640709169407" lon="17.88138890184">
        <ele>67.4</ele>
        <time>2018-03-17T11:06:23Z</time>
      </trkpt>
      <trkpt lat="62.640698524394" lon="17.881353362584">
        <ele>67.4</ele>
        <time>2018-03-17T11:06:24Z</time>
      </trkpt>
      <trkpt lat="62.640686789734" lon="17.881319667346">
        <ele>67.6</ele>
        <time>2018-03-17T11:06:25Z</time>
      </trkpt>
      <trkpt lat="62.640674216884" lon="17.881270381774">
        <ele>67.8</ele>
        <time>2018-03-17T11:06:26Z</time>
      </trkpt>
      <trkpt lat="62.640668349554" lon="17.8812329985">
        <ele>67.8</ele>
        <time>2018-03-17T11:06:27Z</time>
      </trkpt>
      <trkpt lat="62.640660722025" lon="17.881202153108">
        <ele>67.8</ele>
        <time>2018-03-17T11:06:28Z</time>
      </trkpt>
      <trkpt lat="62.640654267962" lon="17.881159321599">
        <ele>68</ele>
        <time>2018-03-17T11:06:29Z</time>
      </trkpt>
      <trkpt lat="62.640646808071" lon="17.881099642471">
        <ele>68</ele>
        <time>2018-03-17T11:06:30Z</time>
      </trkpt>
      <trkpt lat="62.640645550786" lon="17.881062929749">
        <ele>68.2</ele>
        <time>2018-03-17T11:06:31Z</time>
      </trkpt>
      <trkpt lat="62.640644293501" lon="17.881016326385">
        <ele>68.2</ele>
        <time>2018-03-17T11:06:32Z</time>
      </trkpt>
      <trkpt lat="62.640648819727" lon="17.880956898714">
        <ele>68.4</ele>
        <time>2018-03-17T11:06:33Z</time>
      </trkpt>
      <trkpt lat="62.640650160831" lon="17.880907696961">
        <ele>68.4</ele>
        <time>2018-03-17T11:06:34Z</time>
      </trkpt>
      <trkpt lat="62.64064940646" lon="17.880872073886">
        <ele>68.4</ele>
        <time>2018-03-17T11:06:35Z</time>
      </trkpt>
      <trkpt lat="62.640653094496" lon="17.880811137473">
        <ele>68.6</ele>
        <time>2018-03-17T11:06:36Z</time>
      </trkpt>
      <trkpt lat="62.640659213283" lon="17.880770820534">
        <ele>68.8</ele>
        <time>2018-03-17T11:06:37Z</time>
      </trkpt>
      <trkpt lat="62.640665248251" lon="17.880732012337">
        <ele>68.8</ele>
        <time>2018-03-17T11:06:38Z</time>
      </trkpt>
      <trkpt lat="62.640674803617" lon="17.88068985138">
        <ele>69</ele>
        <time>2018-03-17T11:06:39Z</time>
      </trkpt>
      <trkpt lat="62.640687208829" lon="17.880647606604">
        <ele>69</ele>
        <time>2018-03-17T11:06:40Z</time>
      </trkpt>
      <trkpt lat="62.640695758367" lon="17.880613659909">
        <ele>69.4</ele>
        <time>2018-03-17T11:06:41Z</time>
      </trkpt>
      <trkpt lat="62.640708331217" lon="17.880573845884">
        <ele>69.4</ele>
        <time>2018-03-17T11:06:42Z</time>
      </trkpt>
      <trkpt lat="62.640725178836" lon="17.880532439298">
        <ele>69.8</ele>
        <time>2018-03-17T11:06:43Z</time>
      </trkpt>
      <trkpt lat="62.640738422238" lon="17.880496145671">
        <ele>70</ele>
        <time>2018-03-17T11:06:44Z</time>
      </trkpt>
      <trkpt lat="62.640748396699" lon="17.880461109329">
        <ele>70.2</ele>
        <time>2018-03-17T11:06:45Z</time>
      </trkpt>
      <trkpt lat="62.640762310653" lon="17.880425234797">
        <ele>70.4</ele>
        <time>2018-03-17T11:06:46Z</time>
      </trkpt>
      <trkpt lat="62.640776392245" lon="17.880381062184">
        <ele>70.4</ele>
        <time>2018-03-17T11:06:47Z</time>
      </trkpt>
      <trkpt lat="62.640785696154" lon="17.880346444937">
        <ele>70.6</ele>
        <time>2018-03-17T11:06:48Z</time>
      </trkpt>
      <trkpt lat="62.640800951212" lon="17.880304870713">
        <ele>70.6</ele>
        <time>2018-03-17T11:06:49Z</time>
      </trkpt>
      <trkpt lat="62.640814278433" lon="17.880262039204">
        <ele>70.8</ele>
        <time>2018-03-17T11:06:50Z</time>
      </trkpt>
      <trkpt lat="62.640826599826" lon="17.880221219351">
        <ele>70.8</ele>
        <time>2018-03-17T11:06:51Z</time>
      </trkpt>
      <trkpt lat="62.640842776893" lon="17.880171933779">
        <ele>70.8</ele>
        <time>2018-03-17T11:06:52Z</time>
      </trkpt>
      <trkpt lat="62.64085308663" lon="17.880139412007">
        <ele>71</ele>
        <time>2018-03-17T11:06:53Z</time>
      </trkpt>
      <trkpt lat="62.640867922593" lon="17.88008886915">
        <ele>71</ele>
        <time>2018-03-17T11:06:54Z</time>
      </trkpt>
      <trkpt lat="62.640883093832" lon="17.88004109232">
        <ele>71</ele>
        <time>2018-03-17T11:06:55Z</time>
      </trkpt>
      <trkpt lat="62.640891894827" lon="17.880008319091">
        <ele>71.2</ele>
        <time>2018-03-17T11:06:56Z</time>
      </trkpt>
      <trkpt lat="62.640907317523" lon="17.879955932216">
        <ele>71.2</ele>
        <time>2018-03-17T11:06:57Z</time>
      </trkpt>
      <trkpt lat="62.64091595088" lon="17.879919722408">
        <ele>71.2</ele>
        <time>2018-03-17T11:06:58Z</time>
      </trkpt>
      <trkpt lat="62.640926595893" lon="17.879879740745">
        <ele>71.2</ele>
        <time>2018-03-17T11:06:59Z</time>
      </trkpt>
      <trkpt lat="62.640940174571" lon="17.879822911463">
        <ele>71.2</ele>
        <time>2018-03-17T11:07:00Z</time>
      </trkpt>
      <trkpt lat="62.640946880091" lon="17.87979382627">
        <ele>71.2</ele>
        <time>2018-03-17T11:07:01Z</time>
      </trkpt>
      <trkpt lat="62.640960961683" lon="17.879745965621">
        <ele>71</ele>
        <time>2018-03-17T11:07:02Z</time>
      </trkpt>
      <trkpt lat="62.640970852325" lon="17.879704810492">
        <ele>71.2</ele>
        <time>2018-03-17T11:07:03Z</time>
      </trkpt>
      <trkpt lat="62.640976887293" lon="17.879673797462">
        <ele>71.2</ele>
        <time>2018-03-17T11:07:04Z</time>
      </trkpt>
      <trkpt lat="62.640987951401" lon="17.879632474695">
        <ele>71.4</ele>
        <time>2018-03-17T11:07:05Z</time>
      </trkpt>
      <trkpt lat="62.641000021337" lon="17.879583775856">
        <ele>71.6</ele>
        <time>2018-03-17T11:07:06Z</time>
      </trkpt>
      <trkpt lat="62.641006307762" lon="17.879551086446">
        <ele>72</ele>
        <time>2018-03-17T11:07:07Z</time>
      </trkpt>
      <trkpt lat="62.641020473173" lon="17.879493083698">
        <ele>72.2</ele>
        <time>2018-03-17T11:07:08Z</time>
      </trkpt>
      <trkpt lat="62.641030112358" lon="17.879449749275">
        <ele>72.4</ele>
        <time>2018-03-17T11:07:09Z</time>
      </trkpt>
      <trkpt lat="62.641038158982" lon="17.879412785096">
        <ele>72.4</ele>
        <time>2018-03-17T11:07:10Z</time>
      </trkpt>
      <trkpt lat="62.64105089947" lon="17.879366014094">
        <ele>72.6</ele>
        <time>2018-03-17T11:07:11Z</time>
      </trkpt>
      <trkpt lat="62.641063388501" lon="17.879321003291">
        <ele>72.6</ele>
        <time>2018-03-17T11:07:12Z</time>
      </trkpt>
      <trkpt lat="62.641073949695" lon="17.879282027456">
        <ele>72.8</ele>
        <time>2018-03-17T11:07:13Z</time>
      </trkpt>
      <trkpt lat="62.641087276916" lon="17.879234921178">
        <ele>72.8</ele>
        <time>2018-03-17T11:07:14Z</time>
      </trkpt>
      <trkpt lat="62.641098173386" lon="17.879195442429">
        <ele>73</ele>
        <time>2018-03-17T11:07:15Z</time>
      </trkpt>
      <trkpt lat="62.641107980209" lon="17.879163675028">
        <ele>73</ele>
        <time>2018-03-17T11:07:16Z</time>
      </trkpt>
      <trkpt lat="62.641112506435" lon="17.879139032242">
        <ele>73.2</ele>
        <time>2018-03-17T11:07:17Z</time>
      </trkpt>
      <trkpt lat="62.641127426217" lon="17.879087064462">
        <ele>73.4</ele>
        <time>2018-03-17T11:07:18Z</time>
      </trkpt>
      <trkpt lat="62.641140921076" lon="17.87903861708">
        <ele>73.6</ele>
        <time>2018-03-17T11:07:19Z</time>
      </trkpt>
      <trkpt lat="62.641152152822" lon="17.879003245462">
        <ele>73.8</ele>
        <time>2018-03-17T11:07:20Z</time>
      </trkpt>
      <trkpt lat="62.64116740788" lon="17.878952534967">
        <ele>73.8</ele>
        <time>2018-03-17T11:07:21Z</time>
      </trkpt>
      <trkpt lat="62.641176292694" lon="17.878921354299">
        <ele>74</ele>
        <time>2018-03-17T11:07:22Z</time>
      </trkpt>
      <trkpt lat="62.641190374286" lon="17.87887852279">
        <ele>74</ele>
        <time>2018-03-17T11:07:23Z</time>
      </trkpt>
      <trkpt lat="62.641204455878" lon="17.878835020729">
        <ele>74.2</ele>
        <time>2018-03-17T11:07:24Z</time>
      </trkpt>
      <trkpt lat="62.641214597977" lon="17.878802834233">
        <ele>74.2</ele>
        <time>2018-03-17T11:07:25Z</time>
      </trkpt>
      <trkpt lat="62.641228176655" lon="17.878770731556">
        <ele>74.2</ele>
        <time>2018-03-17T11:07:26Z</time>
      </trkpt>
      <trkpt lat="62.641240917143" lon="17.87873435411">
        <ele>74.4</ele>
        <time>2018-03-17T11:07:27Z</time>
      </trkpt>
      <trkpt lat="62.64125038869" lon="17.878701916157">
        <ele>74.6</ele>
        <time>2018-03-17T11:07:28Z</time>
      </trkpt>
      <trkpt lat="62.64125960878" lon="17.878669729661">
        <ele>74.6</ele>
        <time>2018-03-17T11:07:29Z</time>
      </trkpt>
      <trkpt lat="62.641275702028" lon="17.878639387183">
        <ele>74.8</ele>
        <time>2018-03-17T11:07:30Z</time>
      </trkpt>
      <trkpt lat="62.641287436688" lon="17.87860192009">
        <ele>74.8</ele>
        <time>2018-03-17T11:07:31Z</time>
      </trkpt>
      <trkpt lat="62.641296153864" lon="17.878568895404">
        <ele>75</ele>
        <time>2018-03-17T11:07:32Z</time>
      </trkpt>
      <trkpt lat="62.641310570732" lon="17.878523633144">
        <ele>75.2</ele>
        <time>2018-03-17T11:07:33Z</time>
      </trkpt>
      <trkpt lat="62.641325322876" lon="17.87849127901">
        <ele>75.4</ele>
        <time>2018-03-17T11:07:34Z</time>
      </trkpt>
      <trkpt lat="62.641335632613" lon="17.878458841057">
        <ele>75.6</ele>
        <time>2018-03-17T11:07:35Z</time>
      </trkpt>
      <trkpt lat="62.641350217119" lon="17.878412572969">
        <ele>75.6</ele>
        <time>2018-03-17T11:07:36Z</time>
      </trkpt>
      <trkpt lat="62.641362203236" lon="17.87838147612">
        <ele>75.8</ele>
        <time>2018-03-17T11:07:37Z</time>
      </trkpt>
      <trkpt lat="62.641378967036" lon="17.878338644611">
        <ele>75.8</ele>
        <time>2018-03-17T11:07:38Z</time>
      </trkpt>
      <trkpt lat="62.64139371918" lon="17.878302853898">
        <ele>76</ele>
        <time>2018-03-17T11:07:39Z</time>
      </trkpt>
      <trkpt lat="62.641405956754" lon="17.878265302986">
        <ele>76</ele>
        <time>2018-03-17T11:07:40Z</time>
      </trkpt>
      <trkpt lat="62.641421547088" lon="17.878220124545">
        <ele>76</ele>
        <time>2018-03-17T11:07:41Z</time>
      </trkpt>
      <trkpt lat="62.641433784662" lon="17.878186010212">
        <ele>76</ele>
        <time>2018-03-17T11:07:42Z</time>
      </trkpt>
      <trkpt lat="62.641449291177" lon="17.878150219499">
        <ele>75.8</ele>
        <time>2018-03-17T11:07:43Z</time>
      </trkpt>
      <trkpt lat="62.64146328895" lon="17.878110154017">
        <ele>75.8</ele>
        <time>2018-03-17T11:07:44Z</time>
      </trkpt>
      <trkpt lat="62.641479968931" lon="17.878070172354">
        <ele>75.8</ele>
        <time>2018-03-17T11:07:45Z</time>
      </trkpt>
      <trkpt lat="62.64149933112" lon="17.878021222058">
        <ele>75.8</ele>
        <time>2018-03-17T11:07:46Z</time>
      </trkpt>
      <trkpt lat="62.641507880658" lon="17.877992304503">
        <ele>75.8</ele>
        <time>2018-03-17T11:07:47Z</time>
      </trkpt>
      <trkpt lat="62.641518441852" lon="17.87795735198">
        <ele>76.2</ele>
        <time>2018-03-17T11:07:48Z</time>
      </trkpt>
      <trkpt lat="62.641536295299" lon="17.877917202679">
        <ele>76.2</ele>
        <time>2018-03-17T11:07:49Z</time>
      </trkpt>
      <trkpt lat="62.641549371063" lon="17.877870431677">
        <ele>76.4</ele>
        <time>2018-03-17T11:07:50Z</time>
      </trkpt>
      <trkpt lat="62.641556830954" lon="17.877844699244">
        <ele>76.6</ele>
        <time>2018-03-17T11:07:51Z</time>
      </trkpt>
      <trkpt lat="62.641569487623" lon="17.877816033146">
        <ele>76.8</ele>
        <time>2018-03-17T11:07:52Z</time>
      </trkpt>
      <trkpt lat="62.641583904491" lon="17.877779404243">
        <ele>77</ele>
        <time>2018-03-17T11:07:53Z</time>
      </trkpt>
      <trkpt lat="62.641595052418" lon="17.877741434236">
        <ele>77</ele>
        <time>2018-03-17T11:07:54Z</time>
      </trkpt>
      <trkpt lat="62.641606954716" lon="17.87770673317">
        <ele>77.2</ele>
        <time>2018-03-17T11:07:55Z</time>
      </trkpt>
      <trkpt lat="62.641616426263" lon="17.877679324357">
        <ele>77.4</ele>
        <time>2018-03-17T11:07:56Z</time>
      </trkpt>
      <trkpt lat="62.641634531167" lon="17.877643785101">
        <ele>77.6</ele>
        <time>2018-03-17T11:07:57Z</time>
      </trkpt>
      <trkpt lat="62.641647355474" lon="17.877613023528">
        <ele>77.8</ele>
        <time>2018-03-17T11:07:58Z</time>
      </trkpt>
      <trkpt lat="62.641653306623" lon="17.877589470389">
        <ele>78</ele>
        <time>2018-03-17T11:07:59Z</time>
      </trkpt>
      <trkpt lat="62.641668394043" lon="17.877552003296">
        <ele>78.2</ele>
        <time>2018-03-17T11:08:00Z</time>
      </trkpt>
      <trkpt lat="62.641683313825" lon="17.877526773777">
        <ele>78.4</ele>
        <time>2018-03-17T11:08:01Z</time>
      </trkpt>
      <trkpt lat="62.641697898331" lon="17.877489222865">
        <ele>78.6</ele>
        <time>2018-03-17T11:08:02Z</time>
      </trkpt>
      <trkpt lat="62.641710303543" lon="17.877465418269">
        <ele>78.8</ele>
        <time>2018-03-17T11:08:03Z</time>
      </trkpt>
      <trkpt lat="62.641717092882" lon="17.87743767418">
        <ele>79.2</ele>
        <time>2018-03-17T11:08:04Z</time>
      </trkpt>
      <trkpt lat="62.641727989352" lon="17.877401883467">
        <ele>79.4</ele>
        <time>2018-03-17T11:08:05Z</time>
      </trkpt>
      <trkpt lat="62.641736455071" lon="17.877356956483">
        <ele>79.6</ele>
        <time>2018-03-17T11:08:06Z</time>
      </trkpt>
      <trkpt lat="62.641747351541" lon="17.877326697824">
        <ele>79.8</ele>
        <time>2018-03-17T11:08:07Z</time>
      </trkpt>
      <trkpt lat="62.641764869712" lon="17.877282273754">
        <ele>80</ele>
        <time>2018-03-17T11:08:08Z</time>
      </trkpt>
      <trkpt lat="62.641772245784" lon="17.877248578516">
        <ele>80.2</ele>
        <time>2018-03-17T11:08:09Z</time>
      </trkpt>
      <trkpt lat="62.641778532209" lon="17.877221085884">
        <ele>80.2</ele>
        <time>2018-03-17T11:08:10Z</time>
      </trkpt>
      <trkpt lat="62.64179521219" lon="17.8771761589">
        <ele>80.4</ele>
        <time>2018-03-17T11:08:11Z</time>
      </trkpt>
      <trkpt lat="62.641808790868" lon="17.877132992115">
        <ele>80.4</ele>
        <time>2018-03-17T11:08:12Z</time>
      </trkpt>
      <trkpt lat="62.641822369546" lon="17.877100637981">
        <ele>80.4</ele>
        <time>2018-03-17T11:08:13Z</time>
      </trkpt>
      <trkpt lat="62.641837708423" lon="17.877058057929">
        <ele>80.6</ele>
        <time>2018-03-17T11:08:14Z</time>
      </trkpt>
      <trkpt lat="62.641853214938" lon="17.877021512845">
        <ele>80.6</ele>
        <time>2018-03-17T11:08:15Z</time>
      </trkpt>
      <trkpt lat="62.6418614292" lon="17.876997121516">
        <ele>80.6</ele>
        <time>2018-03-17T11:08:16Z</time>
      </trkpt>
      <trkpt lat="62.641871822756" lon="17.876959151509">
        <ele>80.8</ele>
        <time>2018-03-17T11:08:17Z</time>
      </trkpt>
      <trkpt lat="62.641889424746" lon="17.876930988325">
        <ele>80.8</ele>
        <time>2018-03-17T11:08:18Z</time>
      </trkpt>
      <trkpt lat="62.641905266537" lon="17.876907183729">
        <ele>81</ele>
        <time>2018-03-17T11:08:19Z</time>
      </trkpt>
      <trkpt lat="62.641914151351" lon="17.876875835423">
        <ele>81.2</ele>
        <time>2018-03-17T11:08:20Z</time>
      </trkpt>
      <trkpt lat="62.641933345902" lon="17.876836272855">
        <ele>81.6</ele>
        <time>2018-03-17T11:08:21Z</time>
      </trkpt>
      <trkpt lat="62.641949187693" lon="17.876784221256">
        <ele>81.6</ele>
        <time>2018-03-17T11:08:22Z</time>
      </trkpt>
      <trkpt lat="62.641956396127" lon="17.876754968425">
        <ele>82</ele>
        <time>2018-03-17T11:08:23Z</time>
      </trkpt>
      <trkpt lat="62.641976931782" lon="17.876705682853">
        <ele>82</ele>
        <time>2018-03-17T11:08:24Z</time>
      </trkpt>
      <trkpt lat="62.641988331166" lon="17.876677771126">
        <ele>82</ele>
        <time>2018-03-17T11:08:25Z</time>
      </trkpt>
      <trkpt lat="62.642003753862" lon="17.876640639309">
        <ele>82</ele>
        <time>2018-03-17T11:08:26Z</time>
      </trkpt>
      <trkpt lat="62.642020098567" lon="17.876592694841">
        <ele>82</ele>
        <time>2018-03-17T11:08:27Z</time>
      </trkpt>
      <trkpt lat="62.642028899562" lon="17.876567130046">
        <ele>82</ele>
        <time>2018-03-17T11:08:28Z</time>
      </trkpt>
      <trkpt lat="62.642050524864" lon="17.876515078447">
        <ele>82</ele>
        <time>2018-03-17T11:08:29Z</time>
      </trkpt>
      <trkpt lat="62.642065444646" lon="17.876486412349">
        <ele>82.2</ele>
        <time>2018-03-17T11:08:30Z</time>
      </trkpt>
      <trkpt lat="62.642082292265" lon="17.876449699627">
        <ele>82.4</ele>
        <time>2018-03-17T11:08:31Z</time>
      </trkpt>
      <trkpt lat="62.642100983902" lon="17.876406784299">
        <ele>82.4</ele>
        <time>2018-03-17T11:08:32Z</time>
      </trkpt>
      <trkpt lat="62.642113808209" lon="17.876385075178">
        <ele>82.4</ele>
        <time>2018-03-17T11:08:33Z</time>
      </trkpt>
      <trkpt lat="62.642124034127" lon="17.876358839831">
        <ele>82.6</ele>
        <time>2018-03-17T11:08:34Z</time>
      </trkpt>
      <trkpt lat="62.642140965565" lon="17.876323300575">
        <ele>82.8</ele>
        <time>2018-03-17T11:08:35Z</time>
      </trkpt>
      <trkpt lat="62.642156807356" lon="17.876275775202">
        <ele>82.8</ele>
        <time>2018-03-17T11:08:36Z</time>
      </trkpt>
      <trkpt lat="62.642165608351" lon="17.876248198751">
        <ele>83</ele>
        <time>2018-03-17T11:08:37Z</time>
      </trkpt>
      <trkpt lat="62.642180528133" lon="17.87621056402">
        <ele>83.2</ele>
        <time>2018-03-17T11:08:38Z</time>
      </trkpt>
      <trkpt lat="62.642196369924" lon="17.876163373923">
        <ele>83.2</ele>
        <time>2018-03-17T11:08:39Z</time>
      </trkpt>
      <trkpt lat="62.642204584186" lon="17.876130433056">
        <ele>83.2</ele>
        <time>2018-03-17T11:08:40Z</time>
      </trkpt>
      <trkpt lat="62.642226460945" lon="17.876085925167">
        <ele>83.4</ele>
        <time>2018-03-17T11:08:41Z</time>
      </trkpt>
      <trkpt lat="62.642240877813" lon="17.876048290436">
        <ele>83.2</ele>
        <time>2018-03-17T11:08:42Z</time>
      </trkpt>
      <trkpt lat="62.642257976889" lon="17.876021300718">
        <ele>83.4</ele>
        <time>2018-03-17T11:08:43Z</time>
      </trkpt>
      <trkpt lat="62.642279937467" lon="17.875982660159">
        <ele>83.4</ele>
        <time>2018-03-17T11:08:44Z</time>
      </trkpt>
      <trkpt lat="62.642290750118" lon="17.875947037084">
        <ele>83.6</ele>
        <time>2018-03-17T11:08:45Z</time>
      </trkpt>
      <trkpt lat="62.642308603565" lon="17.875913174208">
        <ele>83.6</ele>
        <time>2018-03-17T11:08:46Z</time>
      </trkpt>
      <trkpt lat="62.642328803944" lon="17.875888950517">
        <ele>83.6</ele>
        <time>2018-03-17T11:08:47Z</time>
      </trkpt>
      <trkpt lat="62.64234087388" lon="17.875868414862">
        <ele>83.6</ele>
        <time>2018-03-17T11:08:48Z</time>
      </trkpt>
      <trkpt lat="62.642367528322" lon="17.875831534502">
        <ele>83.8</ele>
        <time>2018-03-17T11:08:49Z</time>
      </trkpt>
      <trkpt lat="62.642388818348" lon="17.875808484277">
        <ele>84</ele>
        <time>2018-03-17T11:08:50Z</time>
      </trkpt>
      <trkpt lat="62.642399630999" lon="17.875780237274">
        <ele>84.2</ele>
        <time>2018-03-17T11:08:51Z</time>
      </trkpt>
      <trkpt lat="62.642423184138" lon="17.875743776009">
        <ele>84.2</ele>
        <time>2018-03-17T11:08:52Z</time>
      </trkpt>
      <trkpt lat="62.642436343721" lon="17.875708404391">
        <ele>84.4</ele>
        <time>2018-03-17T11:08:53Z</time>
      </trkpt>
      <trkpt lat="62.642459813041" lon="17.875675966438">
        <ele>84.4</ele>
        <time>2018-03-17T11:08:54Z</time>
      </trkpt>
      <trkpt lat="62.64249258627" lon="17.875640091906">
        <ele>84.6</ele>
        <time>2018-03-17T11:08:55Z</time>
      </trkpt>
      <trkpt lat="62.64252108473" lon="17.875592147438">
        <ele>84.6</ele>
        <time>2018-03-17T11:08:56Z</time>
      </trkpt>
      <trkpt lat="62.642550169923" lon="17.875547220454">
        <ele>84.6</ele>
        <time>2018-03-17T11:08:57Z</time>
      </trkpt>
      <trkpt lat="62.642586128274" lon="17.875489888258">
        <ele>84.8</ele>
        <time>2018-03-17T11:08:58Z</time>
      </trkpt>
      <trkpt lat="62.642605909558" lon="17.875452672622">
        <ele>84.6</ele>
        <time>2018-03-17T11:08:59Z</time>
      </trkpt>
      <trkpt lat="62.642643711927" lon="17.875407410362">
        <ele>84.4</ele>
        <time>2018-03-17T11:09:00Z</time>
      </trkpt>
      <trkpt lat="62.642685202332" lon="17.875353430926">
        <ele>84</ele>
        <time>2018-03-17T11:09:01Z</time>
      </trkpt>
      <trkpt lat="62.642719149027" lon="17.875307414295">
        <ele>83.6</ele>
        <time>2018-03-17T11:09:02Z</time>
      </trkpt>
      <trkpt lat="62.642745635831" lon="17.875266678261">
        <ele>83.4</ele>
        <time>2018-03-17T11:09:03Z</time>
      </trkpt>
      <trkpt lat="62.6427834382" lon="17.875238347439">
        <ele>83.2</ele>
        <time>2018-03-17T11:09:04Z</time>
      </trkpt>
      <trkpt lat="62.642817636352" lon="17.875192917541">
        <ele>82.8</ele>
        <time>2018-03-17T11:09:05Z</time>
      </trkpt>
      <trkpt lat="62.642851163952" lon="17.875143045236">
        <ele>82.8</ele>
        <time>2018-03-17T11:09:06Z</time>
      </trkpt>
      <trkpt lat="62.642881841706" lon="17.875099291718">
        <ele>82.8</ele>
        <time>2018-03-17T11:09:07Z</time>
      </trkpt>
      <trkpt lat="62.64291503403" lon="17.875061237892">
        <ele>82.6</ele>
        <time>2018-03-17T11:09:08Z</time>
      </trkpt>
      <trkpt lat="62.642952417304" lon="17.875006671723">
        <ele>82.6</ele>
        <time>2018-03-17T11:09:09Z</time>
      </trkpt>
      <trkpt lat="62.64299382389" lon="17.874947998423">
        <ele>82.4</ele>
        <time>2018-03-17T11:09:10Z</time>
      </trkpt>
      <trkpt lat="62.643036487761" lon="17.874885888544">
        <ele>82</ele>
        <time>2018-03-17T11:09:11Z</time>
      </trkpt>
      <trkpt lat="62.643082001478" lon="17.87481413948">
        <ele>81.6</ele>
        <time>2018-03-17T11:09:12Z</time>
      </trkpt>
      <trkpt lat="62.643128604842" lon="17.874741300769">
        <ele>81.2</ele>
        <time>2018-03-17T11:09:13Z</time>
      </trkpt>
      <trkpt lat="62.643174789111" lon="17.874670892809">
        <ele>80.8</ele>
        <time>2018-03-17T11:09:14Z</time>
      </trkpt>
      <trkpt lat="62.643226924529" lon="17.874591935311">
        <ele>80</ele>
        <time>2018-03-17T11:09:15Z</time>
      </trkpt>
      <trkpt lat="62.64327210297" lon="17.874521192075">
        <ele>79.4</ele>
        <time>2018-03-17T11:09:16Z</time>
      </trkpt>
      <trkpt lat="62.64331485066" lon="17.874455058884">
        <ele>79</ele>
        <time>2018-03-17T11:09:17Z</time>
      </trkpt>
      <trkpt lat="62.643356173427" lon="17.874394625385">
        <ele>78.4</ele>
        <time>2018-03-17T11:09:18Z</time>
      </trkpt>
      <trkpt lat="62.643401854782" lon="17.874364199088">
        <ele>78</ele>
        <time>2018-03-17T11:09:19Z</time>
      </trkpt>
      <trkpt lat="62.643447955232" lon="17.874292869119">
        <ele>77.6</ele>
        <time>2018-03-17T11:09:20Z</time>
      </trkpt>
      <trkpt lat="62.643487098705" lon="17.874243248271">
        <ele>77.6</ele>
        <time>2018-03-17T11:09:21Z</time>
      </trkpt>
      <trkpt lat="62.643514758975" lon="17.874198572744">
        <ele>78</ele>
        <time>2018-03-17T11:09:22Z</time>
      </trkpt>
      <trkpt lat="62.643538395933" lon="17.874154903045">
        <ele>78.2</ele>
        <time>2018-03-17T11:09:23Z</time>
      </trkpt>
      <trkpt lat="62.643564966556" lon="17.874108048224">
        <ele>78.6</ele>
        <time>2018-03-17T11:09:24Z</time>
      </trkpt>
      <trkpt lat="62.643590531351" lon="17.874065384353">
        <ele>79</ele>
        <time>2018-03-17T11:09:25Z</time>
      </trkpt>
      <trkpt lat="62.643618945992" lon="17.874020289731">
        <ele>79.2</ele>
        <time>2018-03-17T11:09:26Z</time>
      </trkpt>
      <trkpt lat="62.643634536326" lon="17.873992629461">
        <ele>79.2</ele>
        <time>2018-03-17T11:09:27Z</time>
      </trkpt>
      <trkpt lat="62.643658173284" lon="17.873954827092">
        <ele>79.4</ele>
        <time>2018-03-17T11:09:28Z</time>
      </trkpt>
      <trkpt lat="62.643670662315" lon="17.873935883998">
        <ele>79.4</ele>
        <time>2018-03-17T11:09:29Z</time>
      </trkpt>
      <trkpt lat="62.643691449427" lon="17.873902691674">
        <ele>79.4</ele>
        <time>2018-03-17T11:09:30Z</time>
      </trkpt>
      <trkpt lat="62.643715254023" lon="17.87386698478">
        <ele>79.6</ele>
        <time>2018-03-17T11:09:31Z</time>
      </trkpt>
      <trkpt lat="62.643727156321" lon="17.873837396673">
        <ele>79.6</ele>
        <time>2018-03-17T11:09:32Z</time>
      </trkpt>
      <trkpt lat="62.643747608157" lon="17.873807221833">
        <ele>79.8</ele>
        <time>2018-03-17T11:09:33Z</time>
      </trkpt>
      <trkpt lat="62.643767054165" lon="17.873769503283">
        <ele>79.8</ele>
        <time>2018-03-17T11:09:34Z</time>
      </trkpt>
      <trkpt lat="62.643778034454" lon="17.873737484425">
        <ele>79.8</ele>
        <time>2018-03-17T11:09:35Z</time>
      </trkpt>
      <trkpt lat="62.643797145186" lon="17.873702950997">
        <ele>79.8</ele>
        <time>2018-03-17T11:09:36Z</time>
      </trkpt>
      <trkpt lat="62.643816172099" lon="17.873662298782">
        <ele>79.6</ele>
        <time>2018-03-17T11:09:37Z</time>
      </trkpt>
      <trkpt lat="62.64382614656" lon="17.873633716503">
        <ele>79.6</ele>
        <time>2018-03-17T11:09:38Z</time>
      </trkpt>
      <trkpt lat="62.643840311971" lon="17.873600021265">
        <ele>79.8</ele>
        <time>2018-03-17T11:09:39Z</time>
      </trkpt>
      <trkpt lat="62.643859338884" lon="17.87355350172">
        <ele>79.6</ele>
        <time>2018-03-17T11:09:40Z</time>
      </trkpt>
      <trkpt lat="62.643869061888" lon="17.873523578337">
        <ele>79.8</ele>
        <time>2018-03-17T11:09:41Z</time>
      </trkpt>
      <trkpt lat="62.643884233127" lon="17.873483512855">
        <ele>79.8</ele>
        <time>2018-03-17T11:09:42Z</time>
      </trkpt>
      <trkpt lat="62.643900829289" lon="17.87343364055">
        <ele>80</ele>
        <time>2018-03-17T11:09:43Z</time>
      </trkpt>
      <trkpt lat="62.643906109886" lon="17.873406734651">
        <ele>80</ele>
        <time>2018-03-17T11:09:44Z</time>
      </trkpt>
      <trkpt lat="62.643924801523" lon="17.873353341948">
        <ele>80.2</ele>
        <time>2018-03-17T11:09:45Z</time>
      </trkpt>
      <trkpt lat="62.643938044925" lon="17.8733037211">
        <ele>80.2</ele>
        <time>2018-03-17T11:09:46Z</time>
      </trkpt>
      <trkpt lat="62.643946929739" lon="17.873272456613">
        <ele>80.4</ele>
        <time>2018-03-17T11:09:47Z</time>
      </trkpt>
      <trkpt lat="62.643963022987" lon="17.873221662299">
        <ele>80.4</ele>
        <time>2018-03-17T11:09:48Z</time>
      </trkpt>
      <trkpt lat="62.643974254733" lon="17.873190733088">
        <ele>80.6</ele>
        <time>2018-03-17T11:09:49Z</time>
      </trkpt>
      <trkpt lat="62.643978445683" lon="17.873152930719">
        <ele>80.6</ele>
        <time>2018-03-17T11:09:50Z</time>
      </trkpt>
      <trkpt lat="62.643992778732" lon="17.873101382034">
        <ele>80.6</ele>
        <time>2018-03-17T11:09:51Z</time>
      </trkpt>
      <trkpt lat="62.644001998822" lon="17.873052431738">
        <ele>80.8</ele>
        <time>2018-03-17T11:09:52Z</time>
      </trkpt>
      <trkpt lat="62.644006944143" lon="17.873026112572">
        <ele>81</ele>
        <time>2018-03-17T11:09:53Z</time>
      </trkpt>
      <trkpt lat="62.644022031563" lon="17.872976240267">
        <ele>81</ele>
        <time>2018-03-17T11:09:54Z</time>
      </trkpt>
      <trkpt lat="62.644032928033" lon="17.872929972179">
        <ele>81.2</ele>
        <time>2018-03-17T11:09:55Z</time>
      </trkpt>
      <trkpt lat="62.644040387924" lon="17.872886386299">
        <ele>81.4</ele>
        <time>2018-03-17T11:09:56Z</time>
      </trkpt>
      <trkpt lat="62.64404826691" lon="17.872852104328">
        <ele>81.6</ele>
        <time>2018-03-17T11:09:57Z</time>
      </trkpt>
      <trkpt lat="62.644052793136" lon="17.872815140149">
        <ele>81.8</ele>
        <time>2018-03-17T11:09:58Z</time>
      </trkpt>
      <trkpt lat="62.644061510312" lon="17.872768033871">
        <ele>81.8</ele>
        <time>2018-03-17T11:09:59Z</time>
      </trkpt>
      <trkpt lat="62.64407005985" lon="17.872715227901">
        <ele>82</ele>
        <time>2018-03-17T11:10:00Z</time>
      </trkpt>
      <trkpt lat="62.644071652411" lon="17.872677425532">
        <ele>82</ele>
        <time>2018-03-17T11:10:01Z</time>
      </trkpt>
      <trkpt lat="62.644075340447" lon="17.87263652186">
        <ele>82</ele>
        <time>2018-03-17T11:10:02Z</time>
      </trkpt>
      <trkpt lat="62.644082381243" lon="17.872585224632">
        <ele>82.2</ele>
        <time>2018-03-17T11:10:03Z</time>
      </trkpt>
      <trkpt lat="62.644084476718" lon="17.872540381467">
        <ele>82.4</ele>
        <time>2018-03-17T11:10:04Z</time>
      </trkpt>
      <trkpt lat="62.644084225261" lon="17.872506099496">
        <ele>82.6</ele>
        <time>2018-03-17T11:10:05Z</time>
      </trkpt>
      <trkpt lat="62.64408850003" lon="17.872445917454">
        <ele>82.8</ele>
        <time>2018-03-17T11:10:06Z</time>
      </trkpt>
      <trkpt lat="62.644088835306" lon="17.872391183647">
        <ele>83.2</ele>
        <time>2018-03-17T11:10:07Z</time>
      </trkpt>
      <trkpt lat="62.644088080935" lon="17.872352794545">
        <ele>83.4</ele>
        <time>2018-03-17T11:10:08Z</time>
      </trkpt>
      <trkpt lat="62.64408766184" lon="17.872281045481">
        <ele>83.4</ele>
        <time>2018-03-17T11:10:09Z</time>
      </trkpt>
      <trkpt lat="62.644084979632" lon="17.872242069646">
        <ele>83.4</ele>
        <time>2018-03-17T11:10:10Z</time>
      </trkpt>
      <trkpt lat="62.644085063451" lon="17.872185827097">
        <ele>83.4</ele>
        <time>2018-03-17T11:10:11Z</time>
      </trkpt>
      <trkpt lat="62.644083135614" lon="17.872127991987">
        <ele>83.4</ele>
        <time>2018-03-17T11:10:12Z</time>
      </trkpt>
      <trkpt lat="62.644077687379" lon="17.872078035863">
        <ele>83.4</ele>
        <time>2018-03-17T11:10:13Z</time>
      </trkpt>
      <trkpt lat="62.644070143669" lon="17.872014920156">
        <ele>83.4</ele>
        <time>2018-03-17T11:10:14Z</time>
      </trkpt>
      <trkpt lat="62.64406922166" lon="17.871963539109">
        <ele>83.6</ele>
        <time>2018-03-17T11:10:15Z</time>
      </trkpt>
      <trkpt lat="62.644057151724" lon="17.871890365122">
        <ele>83.4</ele>
        <time>2018-03-17T11:10:16Z</time>
      </trkpt>
      <trkpt lat="62.644057654638" lon="17.871849209993">
        <ele>83.4</ele>
        <time>2018-03-17T11:10:17Z</time>
      </trkpt>
      <trkpt lat="62.644048183091" lon="17.871782322431">
        <ele>83.4</ele>
        <time>2018-03-17T11:10:18Z</time>
      </trkpt>
      <trkpt lat="62.644041477571" lon="17.871736473438">
        <ele>83.4</ele>
        <time>2018-03-17T11:10:19Z</time>
      </trkpt>
      <trkpt lat="62.644031419291" lon="17.871688361332">
        <ele>83.2</ele>
        <time>2018-03-17T11:10:20Z</time>
      </trkpt>
      <trkpt lat="62.644022953572" lon="17.871639159579">
        <ele>83.2</ele>
        <time>2018-03-17T11:10:21Z</time>
      </trkpt>
      <trkpt lat="62.644010464541" lon="17.871611331671">
        <ele>83.2</ele>
        <time>2018-03-17T11:10:22Z</time>
      </trkpt>
      <trkpt lat="62.644005016306" lon="17.871552993647">
        <ele>83.2</ele>
        <time>2018-03-17T11:10:23Z</time>
      </trkpt>
      <trkpt lat="62.64399965189" lon="17.871503875713">
        <ele>83.2</ele>
        <time>2018-03-17T11:10:24Z</time>
      </trkpt>
      <trkpt lat="62.643988503963" lon="17.871468587914">
        <ele>83.2</ele>
        <time>2018-03-17T11:10:25Z</time>
      </trkpt>
      <trkpt lat="62.643974338552" lon="17.871398599049">
        <ele>83</ele>
        <time>2018-03-17T11:10:26Z</time>
      </trkpt>
      <trkpt lat="62.643959754046" lon="17.871355516083">
        <ele>83.2</ele>
        <time>2018-03-17T11:10:27Z</time>
      </trkpt>
      <trkpt lat="62.643944918083" lon="17.871311846384">
        <ele>83</ele>
        <time>2018-03-17T11:10:28Z</time>
      </trkpt>
      <trkpt lat="62.643929076292" lon="17.871247808668">
        <ele>83</ele>
        <time>2018-03-17T11:10:29Z</time>
      </trkpt>
      <trkpt lat="62.643918263641" lon="17.871206904996">
        <ele>83.2</ele>
        <time>2018-03-17T11:10:30Z</time>
      </trkpt>
      <trkpt lat="62.643904852601" lon="17.871151584456">
        <ele>83.2</ele>
        <time>2018-03-17T11:10:31Z</time>
      </trkpt>
      <trkpt lat="62.64389236357" lon="17.871093581708">
        <ele>83.2</ele>
        <time>2018-03-17T11:10:32Z</time>
      </trkpt>
      <trkpt lat="62.643882389109" lon="17.871054773511">
        <ele>83.2</ele>
        <time>2018-03-17T11:10:33Z</time>
      </trkpt>
      <trkpt lat="62.643874677761" lon="17.871013031649">
        <ele>83.4</ele>
        <time>2018-03-17T11:10:34Z</time>
      </trkpt>
      <trkpt lat="62.643860847626" lon="17.870950586494">
        <ele>83.4</ele>
        <time>2018-03-17T11:10:35Z</time>
      </trkpt>
      <trkpt lat="62.643848610052" lon="17.870898451076">
        <ele>83.6</ele>
        <time>2018-03-17T11:10:36Z</time>
      </trkpt>
      <trkpt lat="62.643838048858" lon="17.870847405305">
        <ele>83.6</ele>
        <time>2018-03-17T11:10:37Z</time>
      </trkpt>
      <trkpt lat="62.643822458524" lon="17.870799796113">
        <ele>83.6</ele>
        <time>2018-03-17T11:10:38Z</time>
      </trkpt>
      <trkpt lat="62.643818854307" lon="17.870758557165">
        <ele>83.8</ele>
        <time>2018-03-17T11:10:39Z</time>
      </trkpt>
      <trkpt lat="62.643812316425" lon="17.870690915232">
        <ele>83.6</ele>
        <time>2018-03-17T11:10:40Z</time>
      </trkpt>
      <trkpt lat="62.643802593421" lon="17.87064582061">
        <ele>83.6</ele>
        <time>2018-03-17T11:10:41Z</time>
      </trkpt>
      <trkpt lat="62.643789350019" lon="17.870560576687">
        <ele>83.6</ele>
        <time>2018-03-17T11:10:42Z</time>
      </trkpt>
      <trkpt lat="62.643787254544" lon="17.870498382989">
        <ele>83.8</ele>
        <time>2018-03-17T11:10:43Z</time>
      </trkpt>
      <trkpt lat="62.643784069422" lon="17.870449348874">
        <ele>83.6</ele>
        <time>2018-03-17T11:10:44Z</time>
      </trkpt>
      <trkpt lat="62.643777615359" lon="17.87036921791">
        <ele>83.6</ele>
        <time>2018-03-17T11:10:45Z</time>
      </trkpt>
      <trkpt lat="62.643779878472" lon="17.870331080265">
        <ele>83.6</ele>
        <time>2018-03-17T11:10:46Z</time>
      </trkpt>
      <trkpt lat="62.643776106617" lon="17.870266623454">
        <ele>83.6</ele>
        <time>2018-03-17T11:10:47Z</time>
      </trkpt>
      <trkpt lat="62.643787254544" lon="17.870207866335">
        <ele>83.6</ele>
        <time>2018-03-17T11:10:48Z</time>
      </trkpt>
      <trkpt lat="62.643779962291" lon="17.870149193035">
        <ele>83.4</ele>
        <time>2018-03-17T11:10:49Z</time>
      </trkpt>
      <trkpt lat="62.64377334059" lon="17.870063027103">
        <ele>83.4</ele>
        <time>2018-03-17T11:10:50Z</time>
      </trkpt>
      <trkpt lat="62.643777950635" lon="17.870010304952">
        <ele>83.4</ele>
        <time>2018-03-17T11:10:51Z</time>
      </trkpt>
      <trkpt lat="62.643777028626" lon="17.869960516466">
        <ele>83.2</ele>
        <time>2018-03-17T11:10:52Z</time>
      </trkpt>
      <trkpt lat="62.643779710834" lon="17.869892623076">
        <ele>83</ele>
        <time>2018-03-17T11:10:53Z</time>
      </trkpt>
      <trkpt lat="62.643780549024" lon="17.869836296708">
        <ele>83.2</ele>
        <time>2018-03-17T11:10:54Z</time>
      </trkpt>
      <trkpt lat="62.64378172249" lon="17.86978416129">
        <ele>83.2</ele>
        <time>2018-03-17T11:10:55Z</time>
      </trkpt>
      <trkpt lat="62.643791026399" lon="17.869714088606">
        <ele>83</ele>
        <time>2018-03-17T11:10:56Z</time>
      </trkpt>
      <trkpt lat="62.643794546797" lon="17.869659690075">
        <ele>83.2</ele>
        <time>2018-03-17T11:10:57Z</time>
      </trkpt>
      <trkpt lat="62.643801587593" lon="17.869587354278">
        <ele>83.2</ele>
        <time>2018-03-17T11:10:58Z</time>
      </trkpt>
      <trkpt lat="62.643802174326" lon="17.869542008199">
        <ele>83.2</ele>
        <time>2018-03-17T11:10:59Z</time>
      </trkpt>
      <trkpt lat="62.643811813511" lon="17.869471264963">
        <ele>83.4</ele>
        <time>2018-03-17T11:11:00Z</time>
      </trkpt>
      <trkpt lat="62.643815417728" lon="17.869409909455">
        <ele>83.4</ele>
        <time>2018-03-17T11:11:01Z</time>
      </trkpt>
      <trkpt lat="62.643818938126" lon="17.869352409621">
        <ele>83.4</ele>
        <time>2018-03-17T11:11:02Z</time>
      </trkpt>
      <trkpt lat="62.643822290886" lon="17.869268758259">
        <ele>83.6</ele>
        <time>2018-03-17T11:11:03Z</time>
      </trkpt>
      <trkpt lat="62.643825392189" lon="17.869220646153">
        <ele>83.6</ele>
        <time>2018-03-17T11:11:04Z</time>
      </trkpt>
      <trkpt lat="62.643821871791" lon="17.86917060621">
        <ele>83.6</ele>
        <time>2018-03-17T11:11:05Z</time>
      </trkpt>
      <trkpt lat="62.643824637818" lon="17.869109669797">
        <ele>83.6</ele>
        <time>2018-03-17T11:11:06Z</time>
      </trkpt>
      <trkpt lat="62.64382530837" lon="17.869045883538">
        <ele>83.4</ele>
        <time>2018-03-17T11:11:07Z</time>
      </trkpt>
      <trkpt lat="62.643829583139" lon="17.869008081169">
        <ele>83.6</ele>
        <time>2018-03-17T11:11:08Z</time>
      </trkpt>
      <trkpt lat="62.643825978922" lon="17.868952257715">
        <ele>83.6</ele>
        <time>2018-03-17T11:11:09Z</time>
      </trkpt>
      <trkpt lat="62.643822626162" lon="17.868880005737">
        <ele>83.6</ele>
        <time>2018-03-17T11:11:10Z</time>
      </trkpt>
      <trkpt lat="62.643817010289" lon="17.868828792328">
        <ele>83.8</ele>
        <time>2018-03-17T11:11:11Z</time>
      </trkpt>
      <trkpt lat="62.643809718036" lon="17.868752097943">
        <ele>84</ele>
        <time>2018-03-17T11:11:12Z</time>
      </trkpt>
      <trkpt lat="62.64380351543" lon="17.868689401331">
        <ele>84</ele>
        <time>2018-03-17T11:11:13Z</time>
      </trkpt>
      <trkpt lat="62.643788092734" lon="17.868615892068">
        <ele>84</ele>
        <time>2018-03-17T11:11:14Z</time>
      </trkpt>
      <trkpt lat="62.643767389441" lon="17.868558559872">
        <ele>84</ele>
        <time>2018-03-17T11:11:15Z</time>
      </trkpt>
      <trkpt lat="62.643759678093" lon="17.868471136655">
        <ele>84</ele>
        <time>2018-03-17T11:11:16Z</time>
      </trkpt>
      <trkpt lat="62.643750541822" lon="17.868402656532">
        <ele>83.8</ele>
        <time>2018-03-17T11:11:17Z</time>
      </trkpt>
      <trkpt lat="62.643739645352" lon="17.868335852789">
        <ele>83.8</ele>
        <time>2018-03-17T11:11:18Z</time>
      </trkpt>
      <trkpt lat="62.643730006167" lon="17.868275754566">
        <ele>83.6</ele>
        <time>2018-03-17T11:11:19Z</time>
      </trkpt>
      <trkpt lat="62.643725731398" lon="17.868216578352">
        <ele>83.6</ele>
        <time>2018-03-17T11:11:20Z</time>
      </trkpt>
      <trkpt lat="62.643719444973" lon="17.8681320888">
        <ele>83.4</ele>
        <time>2018-03-17T11:11:21Z</time>
      </trkpt>
      <trkpt lat="62.643714583471" lon="17.868073499319">
        <ele>83.2</ele>
        <time>2018-03-17T11:11:22Z</time>
      </trkpt>
      <trkpt lat="62.643716846584" lon="17.867980879324">
        <ele>83.2</ele>
        <time>2018-03-17T11:11:23Z</time>
      </trkpt>
      <trkpt lat="62.643704273734" lon="17.867918853264">
        <ele>83.2</ele>
        <time>2018-03-17T11:11:24Z</time>
      </trkpt>
      <trkpt lat="62.643695472739" lon="17.867865879656">
        <ele>83</ele>
        <time>2018-03-17T11:11:25Z</time>
      </trkpt>
      <trkpt lat="62.643679966224" lon="17.867798656818">
        <ele>83</ele>
        <time>2018-03-17T11:11:26Z</time>
      </trkpt>
      <trkpt lat="62.643678038387" lon="17.867760938268">
        <ele>82.8</ele>
        <time>2018-03-17T11:11:27Z</time>
      </trkpt>
      <trkpt lat="62.643656245447" lon="17.867689105385">
        <ele>82.8</ele>
        <time>2018-03-17T11:11:28Z</time>
      </trkpt>
      <trkpt lat="62.643630261557" lon="17.867648704627">
        <ele>82.8</ele>
        <time>2018-03-17T11:11:29Z</time>
      </trkpt>
      <trkpt lat="62.64361827544" lon="17.867611153715">
        <ele>82.8</ele>
        <time>2018-03-17T11:11:30Z</time>
      </trkpt>
      <trkpt lat="62.643589860799" lon="17.867556755184">
        <ele>82.8</ele>
        <time>2018-03-17T11:11:31Z</time>
      </trkpt>
      <trkpt lat="62.643573264637" lon="17.867521132109">
        <ele>82.6</ele>
        <time>2018-03-17T11:11:32Z</time>
      </trkpt>
      <trkpt lat="62.643570750067" lon="17.867464721922">
        <ele>82.6</ele>
        <time>2018-03-17T11:11:33Z</time>
      </trkpt>
      <trkpt lat="62.643567900221" lon="17.867406970631">
        <ele>82.8</ele>
        <time>2018-03-17T11:11:34Z</time>
      </trkpt>
      <trkpt lat="62.643572594085" lon="17.867341005078">
        <ele>82.8</ele>
        <time>2018-03-17T11:11:35Z</time>
      </trkpt>
      <trkpt lat="62.643579383424" lon="17.867278643742">
        <ele>82.6</ele>
        <time>2018-03-17T11:11:36Z</time>
      </trkpt>
      <trkpt lat="62.643587430048" lon="17.86721594713">
        <ele>82.6</ele>
        <time>2018-03-17T11:11:37Z</time>
      </trkpt>
      <trkpt lat="62.643601679278" lon="17.867138330736">
        <ele>82.4</ele>
        <time>2018-03-17T11:11:38Z</time>
      </trkpt>
      <trkpt lat="62.643631267385" lon="17.867059289419">
        <ele>82</ele>
        <time>2018-03-17T11:11:39Z</time>
      </trkpt>
      <trkpt lat="62.643669321211" lon="17.86698712126">
        <ele>81.4</ele>
        <time>2018-03-17T11:11:40Z</time>
      </trkpt>
      <trkpt lat="62.643711565987" lon="17.866908163762">
        <ele>80.8</ele>
        <time>2018-03-17T11:11:41Z</time>
      </trkpt>
      <trkpt lat="62.643740986456" lon="17.866844712779">
        <ele>80.6</ele>
        <time>2018-03-17T11:11:42Z</time>
      </trkpt>
      <trkpt lat="62.643777447721" lon="17.866765503824">
        <ele>79.8</ele>
        <time>2018-03-17T11:11:43Z</time>
      </trkpt>
      <trkpt lat="62.643805024172" lon="17.86669626933">
        <ele>79.6</ele>
        <time>2018-03-17T11:11:44Z</time>
      </trkpt>
      <trkpt lat="62.643830002234" lon="17.866654946563">
        <ele>79.2</ele>
        <time>2018-03-17T11:11:45Z</time>
      </trkpt>
      <trkpt lat="62.643854142106" lon="17.866636925478">
        <ele>79.4</ele>
        <time>2018-03-17T11:11:46Z</time>
      </trkpt>
      <trkpt lat="62.643869983897" lon="17.866607672647">
        <ele>79.4</ele>
        <time>2018-03-17T11:11:47Z</time>
      </trkpt>
      <trkpt lat="62.643887921163" lon="17.866580096196">
        <ele>79.4</ele>
        <time>2018-03-17T11:11:48Z</time>
      </trkpt>
      <trkpt lat="62.643901332203" lon="17.866560734007">
        <ele>79.6</ele>
        <time>2018-03-17T11:11:49Z</time>
      </trkpt>
      <trkpt lat="62.643916838718" lon="17.866548915528">
        <ele>79.8</ele>
        <time>2018-03-17T11:11:50Z</time>
      </trkpt>
      <trkpt lat="62.643928238102" lon="17.86652779314">
        <ele>80.4</ele>
        <time>2018-03-17T11:11:51Z</time>
      </trkpt>
      <trkpt lat="62.643945756273" lon="17.866498372671">
        <ele>80.6</ele>
        <time>2018-03-17T11:11:52Z</time>
      </trkpt>
      <trkpt lat="62.643957574752" lon="17.866478256111">
        <ele>81.2</ele>
        <time>2018-03-17T11:11:53Z</time>
      </trkpt>
      <trkpt lat="62.643968219765" lon="17.866457133723">
        <ele>81.6</ele>
        <time>2018-03-17T11:11:54Z</time>
      </trkpt>
      <trkpt lat="62.643975428199" lon="17.866431568928">
        <ele>82</ele>
        <time>2018-03-17T11:11:55Z</time>
      </trkpt>
      <trkpt lat="62.643983893918" lon="17.866405920314">
        <ele>82.4</ele>
        <time>2018-03-17T11:11:56Z</time>
      </trkpt>
      <trkpt lat="62.64399462275" lon="17.866381612804">
        <ele>82.8</ele>
        <time>2018-03-17T11:11:57Z</time>
      </trkpt>
      <trkpt lat="62.644004094297" lon="17.866352946706">
        <ele>83</ele>
        <time>2018-03-17T11:11:58Z</time>
      </trkpt>
      <trkpt lat="62.644007530876" lon="17.866329225929">
        <ele>83.4</ele>
        <time>2018-03-17T11:11:59Z</time>
      </trkpt>
      <trkpt lat="62.64401641569" lon="17.866293016121">
        <ele>83.6</ele>
        <time>2018-03-17T11:12:00Z</time>
      </trkpt>
      <trkpt lat="62.644027395979" lon="17.866254627019">
        <ele>83.8</ele>
        <time>2018-03-17T11:12:01Z</time>
      </trkpt>
      <trkpt lat="62.644035442603" lon="17.866222189066">
        <ele>84.2</ele>
        <time>2018-03-17T11:12:02Z</time>
      </trkpt>
      <trkpt lat="62.644044327417" lon="17.866184889611">
        <ele>84.4</ele>
        <time>2018-03-17T11:12:03Z</time>
      </trkpt>
      <trkpt lat="62.644051284394" lon="17.866144237396">
        <ele>84.8</ele>
        <time>2018-03-17T11:12:04Z</time>
      </trkpt>
      <trkpt lat="62.644054720973" lon="17.866108949597">
        <ele>85</ele>
        <time>2018-03-17T11:12:05Z</time>
      </trkpt>
      <trkpt lat="62.644064443977" lon="17.866070644314">
        <ele>85.2</ele>
        <time>2018-03-17T11:12:06Z</time>
      </trkpt>
      <trkpt lat="62.644072993515" lon="17.866032758126">
        <ele>85.4</ele>
        <time>2018-03-17T11:12:07Z</time>
      </trkpt>
      <trkpt lat="62.644081207777" lon="17.865989423703">
        <ele>85.6</ele>
        <time>2018-03-17T11:12:08Z</time>
      </trkpt>
      <trkpt lat="62.644091098419" lon="17.865949190583">
        <ele>85.8</ele>
        <time>2018-03-17T11:12:09Z</time>
      </trkpt>
      <trkpt lat="62.644099731776" lon="17.865896216975">
        <ele>85.8</ele>
        <time>2018-03-17T11:12:10Z</time>
      </trkpt>
      <trkpt lat="62.644109035685" lon="17.865866545049">
        <ele>86</ele>
        <time>2018-03-17T11:12:11Z</time>
      </trkpt>
      <trkpt lat="62.644121105621" lon="17.865827736852">
        <ele>86.2</ele>
        <time>2018-03-17T11:12:12Z</time>
      </trkpt>
      <trkpt lat="62.644124709838" lon="17.865795801813">
        <ele>86.2</ele>
        <time>2018-03-17T11:12:13Z</time>
      </trkpt>
      <trkpt lat="62.644139042887" lon="17.865746767698">
        <ele>86.4</ele>
        <time>2018-03-17T11:12:14Z</time>
      </trkpt>
      <trkpt lat="62.644151783375" lon="17.865707791863">
        <ele>86.4</ele>
        <time>2018-03-17T11:12:15Z</time>
      </trkpt>
      <trkpt lat="62.644159243266" lon="17.865675856824">
        <ele>86.4</ele>
        <time>2018-03-17T11:12:16Z</time>
      </trkpt>
      <trkpt lat="62.644173073401" lon="17.865644508518">
        <ele>86.6</ele>
        <time>2018-03-17T11:12:17Z</time>
      </trkpt>
      <trkpt lat="62.644190088658" lon="17.865604694493">
        <ele>86.8</ele>
        <time>2018-03-17T11:12:18Z</time>
      </trkpt>
      <trkpt lat="62.644198051463" lon="17.865583404467">
        <ele>86.8</ele>
        <time>2018-03-17T11:12:19Z</time>
      </trkpt>
      <trkpt lat="62.644226549923" lon="17.865536130551">
        <ele>87</ele>
        <time>2018-03-17T11:12:20Z</time>
      </trkpt>
      <trkpt lat="62.644245912112" lon="17.865511739222">
        <ele>87</ele>
        <time>2018-03-17T11:12:21Z</time>
      </trkpt>
      <trkpt lat="62.644257227677" lon="17.865481229106">
        <ele>87</ele>
        <time>2018-03-17T11:12:22Z</time>
      </trkpt>
      <trkpt lat="62.644276589866" lon="17.865439738701">
        <ele>87</ele>
        <time>2018-03-17T11:12:23Z</time>
      </trkpt>
      <trkpt lat="62.644286731965" lon="17.865418783951">
        <ele>87.2</ele>
        <time>2018-03-17T11:12:24Z</time>
      </trkpt>
      <trkpt lat="62.644312380579" lon="17.865383077057">
        <ele>87</ele>
        <time>2018-03-17T11:12:25Z</time>
      </trkpt>
      <trkpt lat="62.644330904578" lon="17.865332953295">
        <ele>87</ele>
        <time>2018-03-17T11:12:26Z</time>
      </trkpt>
      <trkpt lat="62.644341801048" lon="17.865307891414">
        <ele>87</ele>
        <time>2018-03-17T11:12:27Z</time>
      </trkpt>
      <trkpt lat="62.64436091178" lon="17.865261204231">
        <ele>87.2</ele>
        <time>2018-03-17T11:12:28Z</time>
      </trkpt>
      <trkpt lat="62.64437851377" lon="17.865232202857">
        <ele>87.2</ele>
        <time>2018-03-17T11:12:29Z</time>
      </trkpt>
      <trkpt lat="62.64439192481" lon="17.865193813755">
        <ele>87.2</ele>
        <time>2018-03-17T11:12:30Z</time>
      </trkpt>
      <trkpt lat="62.644406425497" lon="17.865145953106">
        <ele>87.2</ele>
        <time>2018-03-17T11:12:31Z</time>
      </trkpt>
      <trkpt lat="62.644407179868" lon="17.865099601199">
        <ele>87.2</ele>
        <time>2018-03-17T11:12:32Z</time>
      </trkpt>
      <trkpt lat="62.644411119361" lon="17.865059116622">
        <ele>87.4</ele>
        <time>2018-03-17T11:12:33Z</time>
      </trkpt>
      <trkpt lat="62.644415058854" lon="17.865016033656">
        <ele>87.4</ele>
        <time>2018-03-17T11:12:34Z</time>
      </trkpt>
      <trkpt lat="62.644412292827" lon="17.864973034509">
        <ele>87.6</ele>
        <time>2018-03-17T11:12:35Z</time>
      </trkpt>
      <trkpt lat="62.64440785042" lon="17.864918216883">
        <ele>87.8</ele>
        <time>2018-03-17T11:12:36Z</time>
      </trkpt>
      <trkpt lat="62.644396451036" lon="17.864859543583">
        <ele>88</ele>
        <time>2018-03-17T11:12:38Z</time>
      </trkpt>
      <trkpt lat="62.644383962005" lon="17.864795505867">
        <ele>88</ele>
        <time>2018-03-17T11:12:39Z</time>
      </trkpt>
      <trkpt lat="62.644370634784" lon="17.864746974666">
        <ele>88.2</ele>
        <time>2018-03-17T11:12:40Z</time>
      </trkpt>
      <trkpt lat="62.64436174997" lon="17.864697605275">
        <ele>88.2</ele>
        <time>2018-03-17T11:12:41Z</time>
      </trkpt>
      <trkpt lat="62.644353535708" lon="17.864653013567">
        <ele>88.2</ele>
        <time>2018-03-17T11:12:42Z</time>
      </trkpt>
      <trkpt lat="62.64435001531" lon="17.864597525389">
        <ele>88</ele>
        <time>2018-03-17T11:12:43Z</time>
      </trkpt>
      <trkpt lat="62.644349009482" lon="17.864560058296">
        <ele>88.2</ele>
        <time>2018-03-17T11:12:44Z</time>
      </trkpt>
      <trkpt lat="62.644351859328" lon="17.864517059149">
        <ele>88</ele>
        <time>2018-03-17T11:12:45Z</time>
      </trkpt>
      <trkpt lat="62.644354541536" lon="17.864484118282">
        <ele>88.2</ele>
        <time>2018-03-17T11:12:46Z</time>
      </trkpt>
      <trkpt lat="62.644365773282" lon="17.864464336998">
        <ele>88.2</ele>
        <time>2018-03-17T11:12:47Z</time>
      </trkpt>
      <trkpt lat="62.644380693064" lon="17.864436425271">
        <ele>88.2</ele>
        <time>2018-03-17T11:12:48Z</time>
      </trkpt>
      <trkpt lat="62.644394942294" lon="17.864414464693">
        <ele>88.2</ele>
        <time>2018-03-17T11:12:49Z</time>
      </trkpt>
      <trkpt lat="62.644406676954" lon="17.864391665925">
        <ele>88.2</ele>
        <time>2018-03-17T11:12:50Z</time>
      </trkpt>
      <trkpt lat="62.644420004175" lon="17.864359730886">
        <ele>88.4</ele>
        <time>2018-03-17T11:12:51Z</time>
      </trkpt>
      <trkpt lat="62.644436600337" lon="17.864332489711">
        <ele>88.2</ele>
        <time>2018-03-17T11:12:52Z</time>
      </trkpt>
      <trkpt lat="62.64445478906" lon="17.864304661803">
        <ele>88.4</ele>
        <time>2018-03-17T11:12:53Z</time>
      </trkpt>
      <trkpt lat="62.644471469041" lon="17.864277672085">
        <ele>88.6</ele>
        <time>2018-03-17T11:12:54Z</time>
      </trkpt>
      <trkpt lat="62.644489071031" lon="17.864260405371">
        <ele>88.8</ele>
        <time>2018-03-17T11:12:55Z</time>
      </trkpt>
      <trkpt lat="62.644502901166" lon="17.86424204901">
        <ele>89</ele>
        <time>2018-03-17T11:12:56Z</time>
      </trkpt>
      <trkpt lat="62.644515222559" lon="17.864233499472">
        <ele>89.2</ele>
        <time>2018-03-17T11:12:57Z</time>
      </trkpt>
      <trkpt lat="62.644520000242" lon="17.864225452848">
        <ele>89.4</ele>
        <time>2018-03-17T11:12:58Z</time>
      </trkpt>
      <trkpt lat="62.644530142341" lon="17.864223944106">
        <ele>89.6</ele>
        <time>2018-03-17T11:12:59Z</time>
      </trkpt>
      <trkpt lat="62.644547660512" lon="17.864213969645">
        <ele>90</ele>
        <time>2018-03-17T11:13:00Z</time>
      </trkpt>
      <trkpt lat="62.644559898086" lon="17.86419846313">
        <ele>90.4</ele>
        <time>2018-03-17T11:13:01Z</time>
      </trkpt>
      <trkpt lat="62.644570794556" lon="17.864196032379">
        <ele>90.6</ele>
        <time>2018-03-17T11:13:02Z</time>
      </trkpt>
      <trkpt lat="62.644584624691" lon="17.864186225556">
        <ele>91</ele>
        <time>2018-03-17T11:13:03Z</time>
      </trkpt>
      <trkpt lat="62.644590156745" lon="17.864175329086">
        <ele>91.4</ele>
        <time>2018-03-17T11:13:04Z</time>
      </trkpt>
      <trkpt lat="62.644601807586" lon="17.864159654933">
        <ele>91.6</ele>
        <time>2018-03-17T11:13:05Z</time>
      </trkpt>
      <trkpt lat="62.644615302445" lon="17.86414984811">
        <ele>92</ele>
        <time>2018-03-17T11:13:06Z</time>
      </trkpt>
      <trkpt lat="62.644626198915" lon="17.864141298572">
        <ele>92.2</ele>
        <time>2018-03-17T11:13:07Z</time>
      </trkpt>
      <trkpt lat="62.644640448145" lon="17.864133335767">
        <ele>92.4</ele>
        <time>2018-03-17T11:13:08Z</time>
      </trkpt>
      <trkpt lat="62.64464924914" lon="17.864130402102">
        <ele>92.6</ele>
        <time>2018-03-17T11:13:09Z</time>
      </trkpt>
      <trkpt lat="62.644655032651" lon="17.86412218784">
        <ele>92.8</ele>
        <time>2018-03-17T11:13:10Z</time>
      </trkpt>
      <trkpt lat="62.644662911637" lon="17.864113973578">
        <ele>93</ele>
        <time>2018-03-17T11:13:11Z</time>
      </trkpt>
      <trkpt lat="62.644678501971" lon="17.864106681325">
        <ele>93.2</ele>
        <time>2018-03-17T11:13:12Z</time>
      </trkpt>
      <trkpt lat="62.644692080649" lon="17.864099221434">
        <ele>93.6</ele>
        <time>2018-03-17T11:13:13Z</time>
      </trkpt>
      <trkpt lat="62.644707251888" lon="17.864094108475">
        <ele>94</ele>
        <time>2018-03-17T11:13:14Z</time>
      </trkpt>
      <trkpt lat="62.644718986548" lon="17.864078350503">
        <ele>94.2</ele>
        <time>2018-03-17T11:13:15Z</time>
      </trkpt>
      <trkpt lat="62.644724937697" lon="17.864069800965">
        <ele>94.6</ele>
        <time>2018-03-17T11:13:16Z</time>
      </trkpt>
      <trkpt lat="62.644738432556" lon="17.864055719373">
        <ele>94.8</ele>
        <time>2018-03-17T11:13:17Z</time>
      </trkpt>
      <trkpt lat="62.644756621279" lon="17.864050438776">
        <ele>95.2</ele>
        <time>2018-03-17T11:13:18Z</time>
      </trkpt>
      <trkpt lat="62.644770451414" lon="17.86404004522">
        <ele>95.4</ele>
        <time>2018-03-17T11:13:19Z</time>
      </trkpt>
      <trkpt lat="62.644784281549" lon="17.864030573673">
        <ele>95.8</ele>
        <time>2018-03-17T11:13:20Z</time>
      </trkpt>
      <trkpt lat="62.644792914906" lon="17.864017665547">
        <ele>96.2</ele>
        <time>2018-03-17T11:13:21Z</time>
      </trkpt>
      <trkpt lat="62.644808421421" lon="17.864006266163">
        <ele>96.4</ele>
        <time>2018-03-17T11:13:22Z</time>
      </trkpt>
      <trkpt lat="62.644818898796" lon="17.863998387177">
        <ele>96.6</ele>
        <time>2018-03-17T11:13:23Z</time>
      </trkpt>
      <trkpt lat="62.644835746415" lon="17.863987490707">
        <ele>96.6</ele>
        <time>2018-03-17T11:13:24Z</time>
      </trkpt>
      <trkpt lat="62.644850163283" lon="17.863985311413">
        <ele>97</ele>
        <time>2018-03-17T11:13:25Z</time>
      </trkpt>
      <trkpt lat="62.644871201852" lon="17.86397299002">
        <ele>97</ele>
        <time>2018-03-17T11:13:26Z</time>
      </trkpt>
      <trkpt lat="62.644887546557" lon="17.863966368319">
        <ele>97.2</ele>
        <time>2018-03-17T11:13:27Z</time>
      </trkpt>
      <trkpt lat="62.644904226538" lon="17.863949353062">
        <ele>97.4</ele>
        <time>2018-03-17T11:13:28Z</time>
      </trkpt>
      <trkpt lat="62.644916380293" lon="17.863939378601">
        <ele>97.6</ele>
        <time>2018-03-17T11:13:29Z</time>
      </trkpt>
      <trkpt lat="62.644931300075" lon="17.863932505443">
        <ele>97.8</ele>
        <time>2018-03-17T11:13:30Z</time>
      </trkpt>
      <trkpt lat="62.644944208201" lon="17.863921273697">
        <ele>98</ele>
        <time>2018-03-17T11:13:31Z</time>
      </trkpt>
      <trkpt lat="62.644958625069" lon="17.863910041951">
        <ele>98.2</ele>
        <time>2018-03-17T11:13:32Z</time>
      </trkpt>
      <trkpt lat="62.644970443548" lon="17.863902749698">
        <ele>98.2</ele>
        <time>2018-03-17T11:13:33Z</time>
      </trkpt>
      <trkpt lat="62.644980837104" lon="17.863897385282">
        <ele>98.6</ele>
        <time>2018-03-17T11:13:34Z</time>
      </trkpt>
      <trkpt lat="62.644994834877" lon="17.863887662278">
        <ele>98.6</ele>
        <time>2018-03-17T11:13:35Z</time>
      </trkpt>
      <trkpt lat="62.645008162098" lon="17.863872071944">
        <ele>99</ele>
        <time>2018-03-17T11:13:36Z</time>
      </trkpt>
      <trkpt lat="62.645019477663" lon="17.863855811058">
        <ele>99.2</ele>
        <time>2018-03-17T11:13:37Z</time>
      </trkpt>
      <trkpt lat="62.645054514005" lon="17.863843992579">
        <ele>99.6</ele>
        <time>2018-03-17T11:13:38Z</time>
      </trkpt>
      <trkpt lat="62.645063734095" lon="17.863825803856">
        <ele>100</ele>
        <time>2018-03-17T11:13:39Z</time>
      </trkpt>
      <trkpt lat="62.645073876194" lon="17.863814907386">
        <ele>100.2</ele>
        <time>2018-03-17T11:13:40Z</time>
      </trkpt>
      <trkpt lat="62.645084521207" lon="17.86380451383">
        <ele>100.4</ele>
        <time>2018-03-17T11:13:41Z</time>
      </trkpt>
      <trkpt lat="62.645098686618" lon="17.86378858822">
        <ele>100.8</ele>
        <time>2018-03-17T11:13:42Z</time>
      </trkpt>
      <trkpt lat="62.645113019667" lon="17.863782469433">
        <ele>101.2</ele>
        <time>2018-03-17T11:13:43Z</time>
      </trkpt>
      <trkpt lat="62.645124251413" lon="17.863778446121">
        <ele>101.4</ele>
        <time>2018-03-17T11:13:44Z</time>
      </trkpt>
      <trkpt lat="62.645139841747" lon="17.863765705633">
        <ele>101.8</ele>
        <time>2018-03-17T11:13:45Z</time>
      </trkpt>
      <trkpt lat="62.645153168968" lon="17.86375589881">
        <ele>102.2</ele>
        <time>2018-03-17T11:13:46Z</time>
      </trkpt>
      <trkpt lat="62.645164233076" lon="17.863746091987">
        <ele>102.4</ele>
        <time>2018-03-17T11:13:47Z</time>
      </trkpt>
      <trkpt lat="62.645188456767" lon="17.863735027879">
        <ele>102.8</ele>
        <time>2018-03-17T11:13:48Z</time>
      </trkpt>
      <trkpt lat="62.645214105381" lon="17.863725304875">
        <ele>102.8</ele>
        <time>2018-03-17T11:13:49Z</time>
      </trkpt>
      <trkpt lat="62.645219888892" lon="17.863721197744">
        <ele>103</ele>
        <time>2018-03-17T11:13:50Z</time>
      </trkpt>
      <trkpt lat="62.645243274393" lon="17.86371315112">
        <ele>103.2</ele>
        <time>2018-03-17T11:13:51Z</time>
      </trkpt>
      <trkpt lat="62.645262720401" lon="17.863707619066">
        <ele>103.2</ele>
        <time>2018-03-17T11:13:52Z</time>
      </trkpt>
      <trkpt lat="62.645274371242" lon="17.863697812243">
        <ele>103.4</ele>
        <time>2018-03-17T11:13:53Z</time>
      </trkpt>
      <trkpt lat="62.645295409811" lon="17.86368632904">
        <ele>103.4</ele>
        <time>2018-03-17T11:13:54Z</time>
      </trkpt>
      <trkpt lat="62.645312005973" lon="17.86367040343">
        <ele>103.4</ele>
        <time>2018-03-17T11:13:55Z</time>
      </trkpt>
      <trkpt lat="62.645326674298" lon="17.863657746761">
        <ele>103.6</ele>
        <time>2018-03-17T11:13:56Z</time>
      </trkpt>
      <trkpt lat="62.645343941012" lon="17.863640815323">
        <ele>103.8</ele>
        <time>2018-03-17T11:13:57Z</time>
      </trkpt>
      <trkpt lat="62.645356262405" lon="17.863620028211">
        <ele>104</ele>
        <time>2018-03-17T11:13:58Z</time>
      </trkpt>
      <trkpt lat="62.645366236866" lon="17.863601504212">
        <ele>104.4</ele>
        <time>2018-03-17T11:13:59Z</time>
      </trkpt>
      <trkpt lat="62.645383084485" lon="17.86357987891">
        <ele>104.6</ele>
        <time>2018-03-17T11:14:00Z</time>
      </trkpt>
      <trkpt lat="62.645396663163" lon="17.863561941644">
        <ele>105</ele>
        <time>2018-03-17T11:14:01Z</time>
      </trkpt>
      <trkpt lat="62.645410744755" lon="17.863524474551">
        <ele>105.2</ele>
        <time>2018-03-17T11:14:02Z</time>
      </trkpt>
      <trkpt lat="62.64542457489" lon="17.863493712978">
        <ele>105.4</ele>
        <time>2018-03-17T11:14:03Z</time>
      </trkpt>
      <trkpt lat="62.645433208247" lon="17.86345415041">
        <ele>105.6</ele>
        <time>2018-03-17T11:14:04Z</time>
      </trkpt>
      <trkpt lat="62.645444942907" lon="17.863407714684">
        <ele>105.8</ele>
        <time>2018-03-17T11:14:05Z</time>
      </trkpt>
      <trkpt lat="62.645448630943" lon="17.863360608406">
        <ele>105.8</ele>
        <time>2018-03-17T11:14:06Z</time>
      </trkpt>
      <trkpt lat="62.645455336463" lon="17.863300510183">
        <ele>105.8</ele>
        <time>2018-03-17T11:14:07Z</time>
      </trkpt>
      <trkpt lat="62.645456174653" lon="17.863266228212">
        <ele>105.8</ele>
        <time>2018-03-17T11:14:08Z</time>
      </trkpt>
      <trkpt lat="62.645450139685" lon="17.863179810823">
        <ele>105.8</ele>
        <time>2018-03-17T11:14:09Z</time>
      </trkpt>
      <trkpt lat="62.645455671739" lon="17.863126501939">
        <ele>106</ele>
        <time>2018-03-17T11:14:10Z</time>
      </trkpt>
      <trkpt lat="62.645462544897" lon="17.863080401489">
        <ele>105.8</ele>
        <time>2018-03-17T11:14:11Z</time>
      </trkpt>
      <trkpt lat="62.645477799955" lon="17.863006640769">
        <ele>105.8</ele>
        <time>2018-03-17T11:14:12Z</time>
      </trkpt>
      <trkpt lat="62.645487187683" lon="17.862961629966">
        <ele>105.8</ele>
        <time>2018-03-17T11:14:13Z</time>
      </trkpt>
      <trkpt lat="62.645503280931" lon="17.862916535344">
        <ele>105.6</ele>
        <time>2018-03-17T11:14:14Z</time>
      </trkpt>
      <trkpt lat="62.645526498794" lon="17.862874709663">
        <ele>105.6</ele>
        <time>2018-03-17T11:14:15Z</time>
      </trkpt>
      <trkpt lat="62.645536808531" lon="17.862844199547">
        <ele>105.6</ele>
        <time>2018-03-17T11:14:16Z</time>
      </trkpt>
      <trkpt lat="62.645545525707" lon="17.862825340272">
        <ele>105.4</ele>
        <time>2018-03-17T11:14:17Z</time>
      </trkpt>
      <trkpt lat="62.645572263968" lon="17.862776138519">
        <ele>105.6</ele>
        <time>2018-03-17T11:14:18Z</time>
      </trkpt>
      <trkpt lat="62.645585172094" lon="17.862746215136">
        <ele>105.8</ele>
        <time>2018-03-17T11:14:19Z</time>
      </trkpt>
      <trkpt lat="62.645601684437" lon="17.862718722504">
        <ele>106.2</ele>
        <time>2018-03-17T11:14:20Z</time>
      </trkpt>
      <trkpt lat="62.645623393558" lon="17.862681590687">
        <ele>106.6</ele>
        <time>2018-03-17T11:14:21Z</time>
      </trkpt>
      <trkpt lat="62.645637978064" lon="17.862655020064">
        <ele>107</ele>
        <time>2018-03-17T11:14:22Z</time>
      </trkpt>
      <trkpt lat="62.645648790715" lon="17.862621660102">
        <ele>107</ele>
        <time>2018-03-17T11:14:23Z</time>
      </trkpt>
      <trkpt lat="62.645656585882" lon="17.862588803054">
        <ele>107</ele>
        <time>2018-03-17T11:14:24Z</time>
      </trkpt>
      <trkpt lat="62.645669494008" lon="17.862539601301">
        <ele>107.2</ele>
        <time>2018-03-17T11:14:25Z</time>
      </trkpt>
      <trkpt lat="62.645688018007" lon="17.862495763964">
        <ele>107.4</ele>
        <time>2018-03-17T11:14:26Z</time>
      </trkpt>
      <trkpt lat="62.645691789862" lon="17.862454357378">
        <ele>107.4</ele>
        <time>2018-03-17T11:14:27Z</time>
      </trkpt>
      <trkpt lat="62.645695813174" lon="17.862413705163">
        <ele>107.6</ele>
        <time>2018-03-17T11:14:28Z</time>
      </trkpt>
      <trkpt lat="62.645697657192" lon="17.862373555862">
        <ele>107.8</ele>
        <time>2018-03-17T11:14:29Z</time>
      </trkpt>
      <trkpt lat="62.645703943617" lon="17.86230415373">
        <ele>108</ele>
        <time>2018-03-17T11:14:30Z</time>
      </trkpt>
      <trkpt lat="62.645702518694" lon="17.862251180122">
        <ele>108</ele>
        <time>2018-03-17T11:14:31Z</time>
      </trkpt>
      <trkpt lat="62.645703189246" lon="17.862216059961">
        <ele>107.8</ele>
        <time>2018-03-17T11:14:32Z</time>
      </trkpt>
      <trkpt lat="62.645708469843" lon="17.862162248163">
        <ele>107.8</ele>
        <time>2018-03-17T11:14:33Z</time>
      </trkpt>
      <trkpt lat="62.645717019381" lon="17.862117740274">
        <ele>108.2</ele>
        <time>2018-03-17T11:14:34Z</time>
      </trkpt>
      <trkpt lat="62.645732525896" lon="17.862086643425">
        <ele>108.2</ele>
        <time>2018-03-17T11:14:35Z</time>
      </trkpt>
      <trkpt lat="62.645743673823" lon="17.862066191589">
        <ele>108.6</ele>
        <time>2018-03-17T11:14:36Z</time>
      </trkpt>
      <trkpt lat="62.645769657713" lon="17.862049763065">
        <ele>108.8</ele>
        <time>2018-03-17T11:14:37Z</time>
      </trkpt>
      <trkpt lat="62.64578332021" lon="17.862032915446">
        <ele>109</ele>
        <time>2018-03-17T11:14:38Z</time>
      </trkpt>
      <trkpt lat="62.645807879177" lon="17.862042470812">
        <ele>109</ele>
        <time>2018-03-17T11:14:39Z</time>
      </trkpt>
      <trkpt lat="62.645825816443" lon="17.862053702558">
        <ele>109.2</ele>
        <time>2018-03-17T11:14:40Z</time>
      </trkpt>
      <trkpt lat="62.645839395121" lon="17.862063425562">
        <ele>109</ele>
        <time>2018-03-17T11:14:41Z</time>
      </trkpt>
      <trkpt lat="62.645857164749" lon="17.862064179933">
        <ele>109.2</ele>
        <time>2018-03-17T11:14:42Z</time>
      </trkpt>
      <trkpt lat="62.645871665436" lon="17.862062084458">
        <ele>109.2</ele>
        <time>2018-03-17T11:14:43Z</time>
      </trkpt>
      <trkpt lat="62.645889937978" lon="17.862057306775">
        <ele>109.4</ele>
        <time>2018-03-17T11:14:44Z</time>
      </trkpt>
      <trkpt lat="62.64590821052" lon="17.862052612911">
        <ele>109.4</ele>
        <time>2018-03-17T11:14:45Z</time>
      </trkpt>
      <trkpt lat="62.645928829994" lon="17.862032328713">
        <ele>109.4</ele>
        <time>2018-03-17T11:14:46Z</time>
      </trkpt>
      <trkpt lat="62.645937379532" lon="17.862018163302">
        <ele>109.4</ele>
        <time>2018-03-17T11:14:47Z</time>
      </trkpt>
      <trkpt lat="62.645955400617" lon="17.861976253802">
        <ele>109.6</ele>
        <time>2018-03-17T11:14:48Z</time>
      </trkpt>
      <trkpt lat="62.645964033974" lon="17.861947755342">
        <ele>109.8</ele>
        <time>2018-03-17T11:14:49Z</time>
      </trkpt>
      <trkpt lat="62.64598700038" lon="17.861912719">
        <ele>109.8</ele>
        <time>2018-03-17T11:14:50Z</time>
      </trkpt>
      <trkpt lat="62.645998986497" lon="17.861873826984">
        <ele>110</ele>
        <time>2018-03-17T11:14:51Z</time>
      </trkpt>
      <trkpt lat="62.646004937646" lon="17.861849435655">
        <ele>110</ele>
        <time>2018-03-17T11:14:52Z</time>
      </trkpt>
      <trkpt lat="62.64601968979" lon="17.861807861431">
        <ele>109.8</ele>
        <time>2018-03-17T11:14:53Z</time>
      </trkpt>
      <trkpt lat="62.646040225445" lon="17.861762180076">
        <ele>109.8</ele>
        <time>2018-03-17T11:14:54Z</time>
      </trkpt>
      <trkpt lat="62.646048942621" lon="17.86173166996">
        <ele>109.8</ele>
        <time>2018-03-17T11:14:55Z</time>
      </trkpt>
      <trkpt lat="62.646072076665" lon="17.86168473132">
        <ele>109.6</ele>
        <time>2018-03-17T11:14:56Z</time>
      </trkpt>
      <trkpt lat="62.646090433026" lon="17.861630668065">
        <ele>109.6</ele>
        <time>2018-03-17T11:14:57Z</time>
      </trkpt>
      <trkpt lat="62.646095378347" lon="17.861601163777">
        <ele>109.8</ele>
        <time>2018-03-17T11:14:58Z</time>
      </trkpt>
      <trkpt lat="62.646110465767" lon="17.861571827127">
        <ele>110</ele>
        <time>2018-03-17T11:14:59Z</time>
      </trkpt>
      <trkpt lat="62.646128486852" lon="17.861523379745">
        <ele>110</ele>
        <time>2018-03-17T11:15:00Z</time>
      </trkpt>
      <trkpt lat="62.646140053874" lon="17.861495048923">
        <ele>110.2</ele>
        <time>2018-03-17T11:15:01Z</time>
      </trkpt>
      <trkpt lat="62.646156985312" lon="17.861464371169">
        <ele>110.2</ele>
        <time>2018-03-17T11:15:02Z</time>
      </trkpt>
      <trkpt lat="62.646170983085" lon="17.861428496637">
        <ele>110</ele>
        <time>2018-03-17T11:15:03Z</time>
      </trkpt>
      <trkpt lat="62.646189590903" lon="17.861394633761">
        <ele>110.2</ele>
        <time>2018-03-17T11:15:04Z</time>
      </trkpt>
      <trkpt lat="62.646205516513" lon="17.861356579935">
        <ele>110.4</ele>
        <time>2018-03-17T11:15:05Z</time>
      </trkpt>
      <trkpt lat="62.646210210377" lon="17.861331434235">
        <ele>110.4</ele>
        <time>2018-03-17T11:15:06Z</time>
      </trkpt>
      <trkpt lat="62.646235356077" lon="17.861292206943">
        <ele>110.6</ele>
        <time>2018-03-17T11:15:07Z</time>
      </trkpt>
      <trkpt lat="62.646256310827" lon="17.861255410402">
        <ele>110.8</ele>
        <time>2018-03-17T11:15:08Z</time>
      </trkpt>
      <trkpt lat="62.646278858138" lon="17.861210734875">
        <ele>111</ele>
        <time>2018-03-17T11:15:09Z</time>
      </trkpt>
      <trkpt lat="62.646317498697" lon="17.861138650535">
        <ele>111</ele>
        <time>2018-03-17T11:15:10Z</time>
      </trkpt>
      <trkpt lat="62.646356893627" lon="17.861095735207">
        <ele>111.2</ele>
        <time>2018-03-17T11:15:11Z</time>
      </trkpt>
      <trkpt lat="62.646393773987" lon="17.861050305309">
        <ele>110.8</ele>
        <time>2018-03-17T11:15:12Z</time>
      </trkpt>
      <trkpt lat="62.646427217768" lon="17.861003785764">
        <ele>110.4</ele>
        <time>2018-03-17T11:15:13Z</time>
      </trkpt>
      <trkpt lat="62.646458733712" lon="17.860973694743">
        <ele>110</ele>
        <time>2018-03-17T11:15:14Z</time>
      </trkpt>
      <trkpt lat="62.646505504714" lon="17.860945866835">
        <ele>109.4</ele>
        <time>2018-03-17T11:15:15Z</time>
      </trkpt>
      <trkpt lat="62.646532829708" lon="17.86090270005">
        <ele>109</ele>
        <time>2018-03-17T11:15:16Z</time>
      </trkpt>
      <trkpt lat="62.646556801942" lon="17.860865735871">
        <ele>108.6</ele>
        <time>2018-03-17T11:15:17Z</time>
      </trkpt>
      <trkpt lat="62.64658630623" lon="17.860826760036">
        <ele>108.6</ele>
        <time>2018-03-17T11:15:18Z</time>
      </trkpt>
      <trkpt lat="62.646614385595" lon="17.860795579368">
        <ele>108.6</ele>
        <time>2018-03-17T11:15:19Z</time>
      </trkpt>
      <trkpt lat="62.646640704761" lon="17.860758279913">
        <ele>108.8</ele>
        <time>2018-03-17T11:15:20Z</time>
      </trkpt>
      <trkpt lat="62.646671466334" lon="17.860734559136">
        <ele>109</ele>
        <time>2018-03-17T11:15:21Z</time>
      </trkpt>
      <trkpt lat="62.646705580667" lon="17.860689296876">
        <ele>109</ele>
        <time>2018-03-17T11:15:22Z</time>
      </trkpt>
      <trkpt lat="62.646737348068" lon="17.860654344353">
        <ele>109</ele>
        <time>2018-03-17T11:15:23Z</time>
      </trkpt>
      <trkpt lat="62.646765343614" lon="17.860613608319">
        <ele>108.8</ele>
        <time>2018-03-17T11:15:24Z</time>
      </trkpt>
      <trkpt lat="62.646793171522" lon="17.86059508432">
        <ele>108.8</ele>
        <time>2018-03-17T11:15:25Z</time>
      </trkpt>
      <trkpt lat="62.646820077421" lon="17.860560886168">
        <ele>108.6</ele>
        <time>2018-03-17T11:15:26Z</time>
      </trkpt>
      <trkpt lat="62.646850587537" lon="17.860529202586">
        <ele>108.8</ele>
        <time>2018-03-17T11:15:27Z</time>
      </trkpt>
      <trkpt lat="62.646890233924" lon="17.860498441013">
        <ele>108.8</ele>
        <time>2018-03-17T11:15:28Z</time>
      </trkpt>
      <trkpt lat="62.646902555317" lon="17.860484191783">
        <ele>108.8</ele>
        <time>2018-03-17T11:15:29Z</time>
      </trkpt>
      <trkpt lat="62.646928706845" lon="17.860455190409">
        <ele>108.8</ele>
        <time>2018-03-17T11:15:30Z</time>
      </trkpt>
      <trkpt lat="62.646952259984" lon="17.860431301994">
        <ele>108.8</ele>
        <time>2018-03-17T11:15:31Z</time>
      </trkpt>
      <trkpt lat="62.646965671024" lon="17.860407497398">
        <ele>108.8</ele>
        <time>2018-03-17T11:15:32Z</time>
      </trkpt>
      <trkpt lat="62.64698947562" lon="17.860379501852">
        <ele>108.8</ele>
        <time>2018-03-17T11:15:33Z</time>
      </trkpt>
      <trkpt lat="62.64701210675" lon="17.860359301473">
        <ele>109</ele>
        <time>2018-03-17T11:15:34Z</time>
      </trkpt>
      <trkpt lat="62.647033732052" lon="17.860334491049">
        <ele>109</ele>
        <time>2018-03-17T11:15:35Z</time>
      </trkpt>
      <trkpt lat="62.647062230512" lon="17.860290653712">
        <ele>109</ele>
        <time>2018-03-17T11:15:36Z</time>
      </trkpt>
      <trkpt lat="62.647091064248" lon="17.860249582402">
        <ele>109</ele>
        <time>2018-03-17T11:15:37Z</time>
      </trkpt>
      <trkpt lat="62.647112438093" lon="17.860234830258">
        <ele>109.2</ele>
        <time>2018-03-17T11:15:38Z</time>
      </trkpt>
      <trkpt lat="62.647133895757" lon="17.86017598932">
        <ele>109</ele>
        <time>2018-03-17T11:15:39Z</time>
      </trkpt>
      <trkpt lat="62.647166417529" lon="17.860115891097">
        <ele>109</ele>
        <time>2018-03-17T11:15:40Z</time>
      </trkpt>
      <trkpt lat="62.647191227953" lon="17.86005026082">
        <ele>108.8</ele>
        <time>2018-03-17T11:15:41Z</time>
      </trkpt>
      <trkpt lat="62.647201453871" lon="17.860020421256">
        <ele>108.6</ele>
        <time>2018-03-17T11:15:42Z</time>
      </trkpt>
      <trkpt lat="62.647225258467" lon="17.859970046037">
        <ele>108.6</ele>
        <time>2018-03-17T11:15:43Z</time>
      </trkpt>
      <trkpt lat="62.64724428538" lon="17.859927717442">
        <ele>108.6</ele>
        <time>2018-03-17T11:15:44Z</time>
      </trkpt>
      <trkpt lat="62.647253589289" lon="17.859884047743">
        <ele>108.8</ele>
        <time>2018-03-17T11:15:45Z</time>
      </trkpt>
      <trkpt lat="62.6472761366" lon="17.859819423294">
        <ele>109</ele>
        <time>2018-03-17T11:15:46Z</time>
      </trkpt>
      <trkpt lat="62.647284769957" lon="17.859768880437">
        <ele>109.2</ele>
        <time>2018-03-17T11:15:47Z</time>
      </trkpt>
      <trkpt lat="62.647306479078" lon="17.859724456367">
        <ele>109.2</ele>
        <time>2018-03-17T11:15:48Z</time>
      </trkpt>
      <trkpt lat="62.64732391343" lon="17.859673494415">
        <ele>109.2</ele>
        <time>2018-03-17T11:15:49Z</time>
      </trkpt>
      <trkpt lat="62.647342102153" lon="17.859626388137">
        <ele>109.2</ele>
        <time>2018-03-17T11:15:50Z</time>
      </trkpt>
      <trkpt lat="62.647361380523" lon="17.859563356249">
        <ele>109.2</ele>
        <time>2018-03-17T11:15:51Z</time>
      </trkpt>
      <trkpt lat="62.647374121011" lon="17.859505940234">
        <ele>109</ele>
        <time>2018-03-17T11:15:52Z</time>
      </trkpt>
      <trkpt lat="62.647392225915" lon="17.859444836183">
        <ele>109.2</ele>
        <time>2018-03-17T11:15:53Z</time>
      </trkpt>
      <trkpt lat="62.647412091018" lon="17.859368896169">
        <ele>109</ele>
        <time>2018-03-17T11:15:54Z</time>
      </trkpt>
      <trkpt lat="62.647415946692" lon="17.859295638363">
        <ele>109</ele>
        <time>2018-03-17T11:15:55Z</time>
      </trkpt>
      <trkpt lat="62.647429860646" lon="17.859194301192">
        <ele>108.6</ele>
        <time>2018-03-17T11:15:56Z</time>
      </trkpt>
      <trkpt lat="62.647433213406" lon="17.859115427513">
        <ele>108.6</ele>
        <time>2018-03-17T11:15:57Z</time>
      </trkpt>
      <trkpt lat="62.647443690781" lon="17.859027333744">
        <ele>108.4</ele>
        <time>2018-03-17T11:15:58Z</time>
      </trkpt>
      <trkpt lat="62.647445953894" lon="17.858960194725">
        <ele>108.2</ele>
        <time>2018-03-17T11:15:59Z</time>
      </trkpt>
      <trkpt lat="62.647451821224" lon="17.858886517824">
        <ele>108.4</ele>
        <time>2018-03-17T11:16:00Z</time>
      </trkpt>
      <trkpt lat="62.647456850364" lon="17.858808733792">
        <ele>108.4</ele>
        <time>2018-03-17T11:16:01Z</time>
      </trkpt>
      <trkpt lat="62.647453413785" lon="17.858777972219">
        <ele>108.2</ele>
        <time>2018-03-17T11:16:02Z</time>
      </trkpt>
      <trkpt lat="62.647462047142" lon="17.858697757436">
        <ele>108.2</ele>
        <time>2018-03-17T11:16:03Z</time>
      </trkpt>
      <trkpt lat="62.647462633875" lon="17.858635312281">
        <ele>108</ele>
        <time>2018-03-17T11:16:04Z</time>
      </trkpt>
      <trkpt lat="62.64746305297" lon="17.85858342832">
        <ele>107.8</ele>
        <time>2018-03-17T11:16:05Z</time>
      </trkpt>
      <trkpt lat="62.647460873676" lon="17.858524084468">
        <ele>107.6</ele>
        <time>2018-03-17T11:16:06Z</time>
      </trkpt>
      <trkpt lat="62.64746305297" lon="17.858483935167">
        <ele>107.8</ele>
        <time>2018-03-17T11:16:07Z</time>
      </trkpt>
      <trkpt lat="62.647464477893" lon="17.858411934646">
        <ele>107.8</ele>
        <time>2018-03-17T11:16:08Z</time>
      </trkpt>
      <trkpt lat="62.647466238092" lon="17.858361727065">
        <ele>108</ele>
        <time>2018-03-17T11:16:09Z</time>
      </trkpt>
      <trkpt lat="62.647467495377" lon="17.85831520752">
        <ele>108</ele>
        <time>2018-03-17T11:16:10Z</time>
      </trkpt>
      <trkpt lat="62.64747646401" lon="17.8582498287">
        <ele>108.2</ele>
        <time>2018-03-17T11:16:11Z</time>
      </trkpt>
      <trkpt lat="62.647488450127" lon="17.858169278641">
        <ele>108</ele>
        <time>2018-03-17T11:16:12Z</time>
      </trkpt>
      <trkpt lat="62.647492138163" lon="17.858112784635">
        <ele>107.8</ele>
        <time>2018-03-17T11:16:13Z</time>
      </trkpt>
      <trkpt lat="62.647489372136" lon="17.858033910956">
        <ele>107.8</ele>
        <time>2018-03-17T11:16:14Z</time>
      </trkpt>
      <trkpt lat="62.647487947213" lon="17.857971633439">
        <ele>108</ele>
        <time>2018-03-17T11:16:15Z</time>
      </trkpt>
      <trkpt lat="62.647496412932" lon="17.857888736448">
        <ele>108</ele>
        <time>2018-03-17T11:16:16Z</time>
      </trkpt>
      <trkpt lat="62.647497167303" lon="17.857823692904">
        <ele>108.2</ele>
        <time>2018-03-17T11:16:17Z</time>
      </trkpt>
      <trkpt lat="62.647505213927" lon="17.857753284944">
        <ele>108.2</ele>
        <time>2018-03-17T11:16:18Z</time>
      </trkpt>
      <trkpt lat="62.647509907791" lon="17.857681871156">
        <ele>108.2</ele>
        <time>2018-03-17T11:16:19Z</time>
      </trkpt>
      <trkpt lat="62.647505549203" lon="17.857618084897">
        <ele>108.2</ele>
        <time>2018-03-17T11:16:20Z</time>
      </trkpt>
      <trkpt lat="62.647519044062" lon="17.857547006385">
        <ele>108.2</ele>
        <time>2018-03-17T11:16:21Z</time>
      </trkpt>
      <trkpt lat="62.647522648279" lon="17.857488333085">
        <ele>108</ele>
        <time>2018-03-17T11:16:22Z</time>
      </trkpt>
      <trkpt lat="62.647535724043" lon="17.857448686698">
        <ele>108</ele>
        <time>2018-03-17T11:16:23Z</time>
      </trkpt>
      <trkpt lat="62.647542429563" lon="17.857375009797">
        <ele>108.2</ele>
        <time>2018-03-17T11:16:24Z</time>
      </trkpt>
      <trkpt lat="62.647539998812" lon="17.857309630977">
        <ele>108.2</ele>
        <time>2018-03-17T11:16:25Z</time>
      </trkpt>
      <trkpt lat="62.647549135083" lon="17.857264368717">
        <ele>108</ele>
        <time>2018-03-17T11:16:26Z</time>
      </trkpt>
      <trkpt lat="62.64756531215" lon="17.85719706206">
        <ele>108</ele>
        <time>2018-03-17T11:16:27Z</time>
      </trkpt>
      <trkpt lat="62.647567407625" lon="17.857169904704">
        <ele>108</ele>
        <time>2018-03-17T11:16:28Z</time>
      </trkpt>
      <trkpt lat="62.647576124801" lon="17.857130425955">
        <ele>108</ele>
        <time>2018-03-17T11:16:29Z</time>
      </trkpt>
      <trkpt lat="62.647594062067" lon="17.857070830646">
        <ele>107.8</ele>
        <time>2018-03-17T11:16:30Z</time>
      </trkpt>
      <trkpt lat="62.647603198338" lon="17.857014001364">
        <ele>107.8</ele>
        <time>2018-03-17T11:16:31Z</time>
      </trkpt>
      <trkpt lat="62.647605293813" lon="17.856980473764">
        <ele>108</ele>
        <time>2018-03-17T11:16:32Z</time>
      </trkpt>
      <trkpt lat="62.647620381233" lon="17.85692297393">
        <ele>107.8</ele>
        <time>2018-03-17T11:16:33Z</time>
      </trkpt>
      <trkpt lat="62.647624656002" lon="17.856854829083">
        <ele>108</ele>
        <time>2018-03-17T11:16:34Z</time>
      </trkpt>
      <trkpt lat="62.647627002934" lon="17.85681065647">
        <ele>108.2</ele>
        <time>2018-03-17T11:16:35Z</time>
      </trkpt>
      <trkpt lat="62.647632283531" lon="17.856747289306">
        <ele>108.2</ele>
        <time>2018-03-17T11:16:36Z</time>
      </trkpt>
      <trkpt lat="62.647632702626" lon="17.856668499446">
        <ele>108.4</ele>
        <time>2018-03-17T11:16:37Z</time>
      </trkpt>
      <trkpt lat="62.647631193884" lon="17.856631451448">
        <ele>108.8</ele>
        <time>2018-03-17T11:16:38Z</time>
      </trkpt>
      <trkpt lat="62.647633373178" lon="17.856560708212">
        <ele>108.8</ele>
        <time>2018-03-17T11:16:39Z</time>
      </trkpt>
      <trkpt lat="62.647632032074" lon="17.856485690207">
        <ele>109</ele>
        <time>2018-03-17T11:16:40Z</time>
      </trkpt>
      <trkpt lat="62.647640162517" lon="17.85642508907">
        <ele>108.8</ele>
        <time>2018-03-17T11:16:41Z</time>
      </trkpt>
      <trkpt lat="62.647641168345" lon="17.856374462394">
        <ele>109</ele>
        <time>2018-03-17T11:16:42Z</time>
      </trkpt>
      <trkpt lat="62.647656255765" lon="17.85629600781">
        <ele>108.8</ele>
        <time>2018-03-17T11:16:43Z</time>
      </trkpt>
      <trkpt lat="62.647672013737" lon="17.856218726692">
        <ele>108.8</ele>
        <time>2018-03-17T11:16:44Z</time>
      </trkpt>
      <trkpt lat="62.647689867184" lon="17.856137086986">
        <ele>109</ele>
        <time>2018-03-17T11:16:45Z</time>
      </trkpt>
      <trkpt lat="62.647702607672" lon="17.856063158628">
        <ele>108.6</ele>
        <time>2018-03-17T11:16:46Z</time>
      </trkpt>
      <trkpt lat="62.647721550766" lon="17.856000881111">
        <ele>108.6</ele>
        <time>2018-03-17T11:16:47Z</time>
      </trkpt>
      <trkpt lat="62.647750384502" lon="17.855908344935">
        <ele>108.2</ele>
        <time>2018-03-17T11:16:48Z</time>
      </trkpt>
      <trkpt lat="62.647776033116" lon="17.855841876468">
        <ele>107.6</ele>
        <time>2018-03-17T11:16:49Z</time>
      </trkpt>
      <trkpt lat="62.647812242924" lon="17.855769959766">
        <ele>106.8</ele>
        <time>2018-03-17T11:16:50Z</time>
      </trkpt>
      <trkpt lat="62.647844177963" lon="17.855692091915">
        <ele>106</ele>
        <time>2018-03-17T11:16:51Z</time>
      </trkpt>
      <trkpt lat="62.647880639228" lon="17.855624701439">
        <ele>105.2</ele>
        <time>2018-03-17T11:16:52Z</time>
      </trkpt>
      <trkpt lat="62.647927913144" lon="17.85554415138">
        <ele>104.6</ele>
        <time>2018-03-17T11:16:53Z</time>
      </trkpt>
      <trkpt lat="62.64797770163" lon="17.855482041501">
        <ele>104.2</ele>
        <time>2018-03-17T11:16:54Z</time>
      </trkpt>
      <trkpt lat="62.648034950007" lon="17.855444490589">
        <ele>103.4</ele>
        <time>2018-03-17T11:16:55Z</time>
      </trkpt>
      <trkpt lat="62.648092701298" lon="17.855446837521">
        <ele>102.6</ele>
        <time>2018-03-17T11:16:56Z</time>
      </trkpt>
      <trkpt lat="62.648143914707" lon="17.855458320724">
        <ele>102</ele>
        <time>2018-03-17T11:16:57Z</time>
      </trkpt>
      <trkpt lat="62.648191020985" lon="17.855468462823">
        <ele>101.4</ele>
        <time>2018-03-17T11:16:58Z</time>
      </trkpt>
      <trkpt lat="62.648243491679" lon="17.85546619971">
        <ele>101</ele>
        <time>2018-03-17T11:16:59Z</time>
      </trkpt>
      <trkpt lat="62.648277438374" lon="17.855457985448">
        <ele>101</ele>
        <time>2018-03-17T11:17:00Z</time>
      </trkpt>
      <trkpt lat="62.648314486372" lon="17.855451531385">
        <ele>101.2</ele>
        <time>2018-03-17T11:17:01Z</time>
      </trkpt>
      <trkpt lat="62.648396126078" lon="17.855397384311">
        <ele>101.6</ele>
        <time>2018-03-17T11:17:03Z</time>
      </trkpt>
      <trkpt lat="62.648433006438" lon="17.855385062918">
        <ele>102</ele>
        <time>2018-03-17T11:17:04Z</time>
      </trkpt>
      <trkpt lat="62.648462510726" lon="17.855351786775">
        <ele>102.4</ele>
        <time>2018-03-17T11:17:05Z</time>
      </trkpt>
      <trkpt lat="62.64849486486" lon="17.855319097365">
        <ele>102.8</ele>
        <time>2018-03-17T11:17:06Z</time>
      </trkpt>
      <trkpt lat="62.648511712479" lon="17.85530694361">
        <ele>102.8</ele>
        <time>2018-03-17T11:17:07Z</time>
      </trkpt>
      <trkpt lat="62.648545742993" lon="17.855291772371">
        <ele>103</ele>
        <time>2018-03-17T11:17:08Z</time>
      </trkpt>
      <trkpt lat="62.648565691915" lon="17.855264615015">
        <ele>103.2</ele>
        <time>2018-03-17T11:17:09Z</time>
      </trkpt>
      <trkpt lat="62.648583964457" lon="17.855238044392">
        <ele>103</ele>
        <time>2018-03-17T11:17:10Z</time>
      </trkpt>
      <trkpt lat="62.648608355786" lon="17.855209545932">
        <ele>103</ele>
        <time>2018-03-17T11:17:11Z</time>
      </trkpt>
      <trkpt lat="62.648620341903" lon="17.855190938114">
        <ele>103</ele>
        <time>2018-03-17T11:17:12Z</time>
      </trkpt>
      <trkpt lat="62.648640039368" lon="17.85517618597">
        <ele>103</ele>
        <time>2018-03-17T11:17:13Z</time>
      </trkpt>
      <trkpt lat="62.648667029086" lon="17.855157578152">
        <ele>103</ele>
        <time>2018-03-17T11:17:14Z</time>
      </trkpt>
      <trkpt lat="62.648678260832" lon="17.855132097176">
        <ele>103.4</ele>
        <time>2018-03-17T11:17:15Z</time>
      </trkpt>
      <trkpt lat="62.648697120107" lon="17.855094294807">
        <ele>103.6</ele>
        <time>2018-03-17T11:17:16Z</time>
      </trkpt>
      <trkpt lat="62.648712039889" lon="17.85505800118">
        <ele>103.6</ele>
        <time>2018-03-17T11:17:17Z</time>
      </trkpt>
      <trkpt lat="62.648727211128" lon="17.8549892696">
        <ele>103.8</ele>
        <time>2018-03-17T11:17:18Z</time>
      </trkpt>
      <trkpt lat="62.648738526693" lon="17.854935373983">
        <ele>103.8</ele>
        <time>2018-03-17T11:17:19Z</time>
      </trkpt>
      <trkpt lat="62.64874883643" lon="17.854843256902">
        <ele>103.8</ele>
        <time>2018-03-17T11:17:20Z</time>
      </trkpt>
      <trkpt lat="62.648751267181" lon="17.854742757921">
        <ele>103.6</ele>
        <time>2018-03-17T11:17:21Z</time>
      </trkpt>
      <trkpt lat="62.648749842258" lon="17.854621890923">
        <ele>103.4</ele>
        <time>2018-03-17T11:17:22Z</time>
      </trkpt>
      <trkpt lat="62.648749423163" lon="17.854515943707">
        <ele>103.4</ele>
        <time>2018-03-17T11:17:23Z</time>
      </trkpt>
      <trkpt lat="62.648759984357" lon="17.854405386446">
        <ele>103.2</ele>
        <time>2018-03-17T11:17:24Z</time>
      </trkpt>
      <trkpt lat="62.648791500301" lon="17.854315029564">
        <ele>102.6</ele>
        <time>2018-03-17T11:17:25Z</time>
      </trkpt>
      <trkpt lat="62.648830643774" lon="17.854272365693">
        <ele>101.8</ele>
        <time>2018-03-17T11:17:26Z</time>
      </trkpt>
      <trkpt lat="62.64887372674" lon="17.854267923286">
        <ele>100.6</ele>
        <time>2018-03-17T11:17:27Z</time>
      </trkpt>
      <trkpt lat="62.648914546593" lon="17.854293907176">
        <ele>100</ele>
        <time>2018-03-17T11:17:28Z</time>
      </trkpt>
      <trkpt lat="62.648942123044" lon="17.854343528024">
        <ele>99.2</ele>
        <time>2018-03-17T11:17:29Z</time>
      </trkpt>
      <trkpt lat="62.648969699495" lon="17.854411589052">
        <ele>98.8</ele>
        <time>2018-03-17T11:17:30Z</time>
      </trkpt>
      <trkpt lat="62.649006076941" lon="17.854464227384">
        <ele>99.2</ele>
        <time>2018-03-17T11:17:31Z</time>
      </trkpt>
      <trkpt lat="62.649023930388" lon="17.854551650601">
        <ele>99.4</ele>
        <time>2018-03-17T11:17:32Z</time>
      </trkpt>
      <trkpt lat="62.649058631454" lon="17.854641336931">
        <ele>99.4</ele>
        <time>2018-03-17T11:17:33Z</time>
      </trkpt>
      <trkpt lat="62.64909584709" lon="17.854682575879">
        <ele>99.2</ele>
        <time>2018-03-17T11:17:34Z</time>
      </trkpt>
      <trkpt lat="62.649119232591" lon="17.854776704616">
        <ele>99</ele>
        <time>2018-03-17T11:17:35Z</time>
      </trkpt>
      <trkpt lat="62.649149072155" lon="17.854836970477">
        <ele>98.6</ele>
        <time>2018-03-17T11:17:36Z</time>
      </trkpt>
      <trkpt lat="62.649180085185" lon="17.854881394547">
        <ele>98.4</ele>
        <time>2018-03-17T11:17:37Z</time>
      </trkpt>
      <trkpt lat="62.649209757111" lon="17.854956664009">
        <ele>98.2</ele>
        <time>2018-03-17T11:17:38Z</time>
      </trkpt>
      <trkpt lat="62.64924755948" lon="17.85499010779">
        <ele>98.2</ele>
        <time>2018-03-17T11:17:39Z</time>
      </trkpt>
      <trkpt lat="62.649284942754" lon="17.855050206013">
        <ele>98.2</ele>
        <time>2018-03-17T11:17:40Z</time>
      </trkpt>
      <trkpt lat="62.649321236381" lon="17.855072669505">
        <ele>98.2</ele>
        <time>2018-03-17T11:17:41Z</time>
      </trkpt>
      <trkpt lat="62.649370186677" lon="17.855078620654">
        <ele>98.2</ele>
        <time>2018-03-17T11:17:42Z</time>
      </trkpt>
      <trkpt lat="62.649413185824" lon="17.855063281777">
        <ele>98.2</ele>
        <time>2018-03-17T11:17:43Z</time>
      </trkpt>
      <trkpt lat="62.649456436428" lon="17.855037130249">
        <ele>97.8</ele>
        <time>2018-03-17T11:17:44Z</time>
      </trkpt>
      <trkpt lat="62.649499770851" lon="17.855006955409">
        <ele>97.8</ele>
        <time>2018-03-17T11:17:45Z</time>
      </trkpt>
      <trkpt lat="62.649544781654" lon="17.854970242687">
        <ele>97.6</ele>
        <time>2018-03-17T11:17:46Z</time>
      </trkpt>
      <trkpt lat="62.649589792457" lon="17.854928668463">
        <ele>97.4</ele>
        <time>2018-03-17T11:17:47Z</time>
      </trkpt>
      <trkpt lat="62.64964653792" lon="17.854884160574">
        <ele>96.8</ele>
        <time>2018-03-17T11:17:48Z</time>
      </trkpt>
      <trkpt lat="62.649704624487" lon="17.854854991562">
        <ele>96</ele>
        <time>2018-03-17T11:17:49Z</time>
      </trkpt>
      <trkpt lat="62.649774529533" lon="17.85483252807">
        <ele>95.2</ele>
        <time>2018-03-17T11:17:50Z</time>
      </trkpt>
      <trkpt lat="62.649838231973" lon="17.854826241645">
        <ele>94.4</ele>
        <time>2018-03-17T11:17:51Z</time>
      </trkpt>
      <trkpt lat="62.649905119535" lon="17.854825654912">
        <ele>93.6</ele>
        <time>2018-03-17T11:17:52Z</time>
      </trkpt>
      <trkpt lat="62.649964295749" lon="17.85482246979">
        <ele>92.8</ele>
        <time>2018-03-17T11:17:53Z</time>
      </trkpt>
      <trkpt lat="62.650030345121" lon="17.854799419565">
        <ele>92.2</ele>
        <time>2018-03-17T11:17:54Z</time>
      </trkpt>
      <trkpt lat="62.65009664595" lon="17.854726832311">
        <ele>91.8</ele>
        <time>2018-03-17T11:17:55Z</time>
      </trkpt>
      <trkpt lat="62.650134951233" lon="17.854620717457">
        <ele>91.6</ele>
        <time>2018-03-17T11:17:56Z</time>
      </trkpt>
      <trkpt lat="62.650167640643" lon="17.854508232359">
        <ele>91</ele>
        <time>2018-03-17T11:17:57Z</time>
      </trkpt>
      <trkpt lat="62.650192451067" lon="17.854390466664">
        <ele>90.6</ele>
        <time>2018-03-17T11:17:58Z</time>
      </trkpt>
      <trkpt lat="62.650206113564" lon="17.854300947972">
        <ele>90</ele>
        <time>2018-03-17T11:17:59Z</time>
      </trkpt>
      <trkpt lat="62.650220949527" lon="17.85419550367">
        <ele>89</ele>
        <time>2018-03-17T11:18:00Z</time>
      </trkpt>
      <trkpt lat="62.650235114938" lon="17.854108583367">
        <ele>88.4</ele>
        <time>2018-03-17T11:18:01Z</time>
      </trkpt>
      <trkpt lat="62.650245927589" lon="17.854071367731">
        <ele>88</ele>
        <time>2018-03-17T11:18:02Z</time>
      </trkpt>
      <trkpt lat="62.650263194303" lon="17.85403038024">
        <ele>87.8</ele>
        <time>2018-03-17T11:18:03Z</time>
      </trkpt>
      <trkpt lat="62.65027350404" lon="17.8540085873">
        <ele>88</ele>
        <time>2018-03-17T11:18:04Z</time>
      </trkpt>
      <trkpt lat="62.650279119913" lon="17.853991907319">
        <ele>88.2</ele>
        <time>2018-03-17T11:18:05Z</time>
      </trkpt>
      <trkpt lat="62.650295380799" lon="17.853957038615">
        <ele>89</ele>
        <time>2018-03-17T11:18:06Z</time>
      </trkpt>
      <trkpt lat="62.650312228418" lon="17.853918649513">
        <ele>89.4</ele>
        <time>2018-03-17T11:18:07Z</time>
      </trkpt>
      <trkpt lat="62.650319688309" lon="17.853879673678">
        <ele>89.6</ele>
        <time>2018-03-17T11:18:08Z</time>
      </trkpt>
      <trkpt lat="62.650341900344" lon="17.853823682586">
        <ele>89.8</ele>
        <time>2018-03-17T11:18:09Z</time>
      </trkpt>
      <trkpt lat="62.650361933085" lon="17.853772301539">
        <ele>90.4</ele>
        <time>2018-03-17T11:18:10Z</time>
      </trkpt>
      <trkpt lat="62.650377104324" lon="17.853730811134">
        <ele>90.6</ele>
        <time>2018-03-17T11:18:11Z</time>
      </trkpt>
      <trkpt lat="62.65040342349" lon="17.85366660578">
        <ele>90.6</ele>
        <time>2018-03-17T11:18:12Z</time>
      </trkpt>
      <trkpt lat="62.65042018729" lon="17.853632323809">
        <ele>90.8</ele>
        <time>2018-03-17T11:18:13Z</time>
      </trkpt>
      <trkpt lat="62.650433179235" lon="17.85360709429">
        <ele>90.6</ele>
        <time>2018-03-17T11:18:14Z</time>
      </trkpt>
      <trkpt lat="62.650456816193" lon="17.853572979957">
        <ele>90.6</ele>
        <time>2018-03-17T11:18:15Z</time>
      </trkpt>
      <trkpt lat="62.65048053697" lon="17.853552192845">
        <ele>90.6</ele>
        <time>2018-03-17T11:18:16Z</time>
      </trkpt>
      <trkpt lat="62.650492020173" lon="17.853531573371">
        <ele>90.8</ele>
        <time>2018-03-17T11:18:17Z</time>
      </trkpt>
      <trkpt lat="62.650522362651" lon="17.853499889789">
        <ele>90.8</ele>
        <time>2018-03-17T11:18:18Z</time>
      </trkpt>
      <trkpt lat="62.650537366252" lon="17.853474995546">
        <ele>91</ele>
        <time>2018-03-17T11:18:19Z</time>
      </trkpt>
      <trkpt lat="62.650551280206" lon="17.853456639185">
        <ele>91</ele>
        <time>2018-03-17T11:18:20Z</time>
      </trkpt>
      <trkpt lat="62.650573073146" lon="17.853429649467">
        <ele>91.2</ele>
        <time>2018-03-17T11:18:21Z</time>
      </trkpt>
      <trkpt lat="62.650589669308" lon="17.853404922862">
        <ele>91.4</ele>
        <time>2018-03-17T11:18:22Z</time>
      </trkpt>
      <trkpt lat="62.650605092004" lon="17.853383465198">
        <ele>91.6</ele>
        <time>2018-03-17T11:18:23Z</time>
      </trkpt>
      <trkpt lat="62.650623448365" lon="17.853355888747">
        <ele>91.6</ele>
        <time>2018-03-17T11:18:24Z</time>
      </trkpt>
      <trkpt lat="62.650632919912" lon="17.853327557925">
        <ele>91.8</ele>
        <time>2018-03-17T11:18:25Z</time>
      </trkpt>
      <trkpt lat="62.650646163314" lon="17.853302328406">
        <ele>91.8</ele>
        <time>2018-03-17T11:18:26Z</time>
      </trkpt>
      <trkpt lat="62.65065907144" lon="17.853273410851">
        <ele>92</ele>
        <time>2018-03-17T11:18:27Z</time>
      </trkpt>
      <trkpt lat="62.650680193828" lon="17.853228986781">
        <ele>92</ele>
        <time>2018-03-17T11:18:28Z</time>
      </trkpt>
      <trkpt lat="62.650695700343" lon="17.853199398674">
        <ele>92</ele>
        <time>2018-03-17T11:18:29Z</time>
      </trkpt>
      <trkpt lat="62.650704836614" lon="17.853175174983">
        <ele>92.2</ele>
        <time>2018-03-17T11:18:30Z</time>
      </trkpt>
      <trkpt lat="62.650725539907" lon="17.853135947691">
        <ele>92.6</ele>
        <time>2018-03-17T11:18:31Z</time>
      </trkpt>
      <trkpt lat="62.650736017282" lon="17.853102923005">
        <ele>93</ele>
        <time>2018-03-17T11:18:32Z</time>
      </trkpt>
      <trkpt lat="62.650752194349" lon="17.853069898319">
        <ele>93.2</ele>
        <time>2018-03-17T11:18:33Z</time>
      </trkpt>
      <trkpt lat="62.65077390347" lon="17.853029497561">
        <ele>93.2</ele>
        <time>2018-03-17T11:18:34Z</time>
      </trkpt>
      <trkpt lat="62.650779184067" lon="17.853002675481">
        <ele>93.6</ele>
        <time>2018-03-17T11:18:35Z</time>
      </trkpt>
      <trkpt lat="62.65079402003" lon="17.852963532008">
        <ele>93.4</ele>
        <time>2018-03-17T11:18:36Z</time>
      </trkpt>
      <trkpt lat="62.650816818798" lon="17.852929669132">
        <ele>93.4</ele>
        <time>2018-03-17T11:18:37Z</time>
      </trkpt>
      <trkpt lat="62.650831570942" lon="17.852907540916">
        <ele>93.4</ele>
        <time>2018-03-17T11:18:38Z</time>
      </trkpt>
      <trkpt lat="62.650852358054" lon="17.852868062167">
        <ele>93.4</ele>
        <time>2018-03-17T11:18:39Z</time>
      </trkpt>
      <trkpt lat="62.650871217329" lon="17.852817351672">
        <ele>93.4</ele>
        <time>2018-03-17T11:18:40Z</time>
      </trkpt>
      <trkpt lat="62.650899548151" lon="17.852784075529">
        <ele>93.6</ele>
        <time>2018-03-17T11:18:41Z</time>
      </trkpt>
      <trkpt lat="62.650937685796" lon="17.852737472165">
        <ele>93.6</ele>
        <time>2018-03-17T11:18:42Z</time>
      </trkpt>
      <trkpt lat="62.650956293614" lon="17.852707967877">
        <ele>93.8</ele>
        <time>2018-03-17T11:18:43Z</time>
      </trkpt>
      <trkpt lat="62.650997364924" lon="17.852681983987">
        <ele>93.6</ele>
        <time>2018-03-17T11:18:44Z</time>
      </trkpt>
      <trkpt lat="62.651026785393" lon="17.852666896567">
        <ele>93.8</ele>
        <time>2018-03-17T11:18:45Z</time>
      </trkpt>
      <trkpt lat="62.651056960233" lon="17.852663795264">
        <ele>93.4</ele>
        <time>2018-03-17T11:18:46Z</time>
      </trkpt>
      <trkpt lat="62.651074310766" lon="17.852660274866">
        <ele>93.4</ele>
        <time>2018-03-17T11:18:47Z</time>
      </trkpt>
      <trkpt lat="62.651093505317" lon="17.852661448332">
        <ele>93.4</ele>
        <time>2018-03-17T11:18:48Z</time>
      </trkpt>
      <trkpt lat="62.65110917947" lon="17.852667231843">
        <ele>93.4</ele>
        <time>2018-03-17T11:18:49Z</time>
      </trkpt>
      <trkpt lat="62.651140863052" lon="17.852683492729">
        <ele>93.4</ele>
        <time>2018-03-17T11:18:50Z</time>
      </trkpt>
      <trkpt lat="62.651163745639" lon="17.852675446105">
        <ele>93.4</ele>
        <time>2018-03-17T11:18:51Z</time>
      </trkpt>
      <trkpt lat="62.651182437276" lon="17.852673937363">
        <ele>93.4</ele>
        <time>2018-03-17T11:18:52Z</time>
      </trkpt>
      <trkpt lat="62.651199871628" lon="17.852677457761">
        <ele>93.4</ele>
        <time>2018-03-17T11:18:53Z</time>
      </trkpt>
      <trkpt lat="62.651217641256" lon="17.852670165508">
        <ele>93.6</ele>
        <time>2018-03-17T11:18:54Z</time>
      </trkpt>
      <trkpt lat="62.651237003445" lon="17.852670752241">
        <ele>93.6</ele>
        <time>2018-03-17T11:18:55Z</time>
      </trkpt>
      <trkpt lat="62.651265837181" lon="17.852667650938">
        <ele>93.8</ele>
        <time>2018-03-17T11:18:56Z</time>
      </trkpt>
      <trkpt lat="62.651288971225" lon="17.852638062831">
        <ele>94</ele>
        <time>2018-03-17T11:18:57Z</time>
      </trkpt>
      <trkpt lat="62.651307495224" lon="17.85262138285">
        <ele>94</ele>
        <time>2018-03-17T11:18:58Z</time>
      </trkpt>
      <trkpt lat="62.651344627041" lon="17.852606127792">
        <ele>94</ele>
        <time>2018-03-17T11:18:59Z</time>
      </trkpt>
      <trkpt lat="62.6513665038" lon="17.8525836643">
        <ele>94.2</ele>
        <time>2018-03-17T11:19:00Z</time>
      </trkpt>
      <trkpt lat="62.651393744975" lon="17.852562374274">
        <ele>94.2</ele>
        <time>2018-03-17T11:19:01Z</time>
      </trkpt>
      <trkpt lat="62.651420315598" lon="17.852532115615">
        <ele>94.2</ele>
        <time>2018-03-17T11:19:02Z</time>
      </trkpt>
      <trkpt lat="62.651432469353" lon="17.852512753426">
        <ele>94.2</ele>
        <time>2018-03-17T11:19:03Z</time>
      </trkpt>
      <trkpt lat="62.651474462672" lon="17.852487607726">
        <ele>94.2</ele>
        <time>2018-03-17T11:19:04Z</time>
      </trkpt>
      <trkpt lat="62.651497680535" lon="17.852476795075">
        <ele>94.2</ele>
        <time>2018-03-17T11:19:05Z</time>
      </trkpt>
      <trkpt lat="62.651513270869" lon="17.852460534189">
        <ele>94.4</ele>
        <time>2018-03-17T11:19:06Z</time>
      </trkpt>
      <trkpt lat="62.65153581818" lon="17.852434801756">
        <ele>94.4</ele>
        <time>2018-03-17T11:19:07Z</time>
      </trkpt>
      <trkpt lat="62.651548893944" lon="17.852422312725">
        <ele>94.4</ele>
        <time>2018-03-17T11:19:08Z</time>
      </trkpt>
      <trkpt lat="62.651563394631" lon="17.852405632744">
        <ele>94.4</ele>
        <time>2018-03-17T11:19:09Z</time>
      </trkpt>
      <trkpt lat="62.651602789561" lon="17.852385600003">
        <ele>94.6</ele>
        <time>2018-03-17T11:19:10Z</time>
      </trkpt>
      <trkpt lat="62.65161041709" lon="17.852369422936">
        <ele>94.8</ele>
        <time>2018-03-17T11:19:11Z</time>
      </trkpt>
      <trkpt lat="62.651633132039" lon="17.852361711588">
        <ele>94.8</ele>
        <time>2018-03-17T11:19:12Z</time>
      </trkpt>
      <trkpt lat="62.651661714318" lon="17.852356011896">
        <ele>95</ele>
        <time>2018-03-17T11:19:13Z</time>
      </trkpt>
      <trkpt lat="62.651671102046" lon="17.852337571716">
        <ele>95.2</ele>
        <time>2018-03-17T11:19:14Z</time>
      </trkpt>
      <trkpt lat="62.651687614389" lon="17.852330363282">
        <ele>95.2</ele>
        <time>2018-03-17T11:19:15Z</time>
      </trkpt>
      <trkpt lat="62.651727931328" lon="17.852320891735">
        <ele>95.4</ele>
        <time>2018-03-17T11:19:16Z</time>
      </trkpt>
      <trkpt lat="62.651738241065" lon="17.852318125708">
        <ele>95.6</ele>
        <time>2018-03-17T11:19:17Z</time>
      </trkpt>
      <trkpt lat="62.651773109769" lon="17.852308654161">
        <ele>95.6</ele>
        <time>2018-03-17T11:19:18Z</time>
      </trkpt>
      <trkpt lat="62.651788616284" lon="17.852295829854">
        <ele>95.6</ele>
        <time>2018-03-17T11:19:19Z</time>
      </trkpt>
      <trkpt lat="62.65180152441" lon="17.852289040515">
        <ele>95.6</ele>
        <time>2018-03-17T11:19:20Z</time>
      </trkpt>
      <trkpt lat="62.651824658454" lon="17.852286274488">
        <ele>95.6</ele>
        <time>2018-03-17T11:19:21Z</time>
      </trkpt>
      <trkpt lat="62.651852151086" lon="17.852273869276">
        <ele>95.6</ele>
        <time>2018-03-17T11:19:22Z</time>
      </trkpt>
      <trkpt lat="62.65185684495" lon="17.85226431391">
        <ele>95.8</ele>
        <time>2018-03-17T11:19:23Z</time>
      </trkpt>
      <trkpt lat="62.651878721709" lon="17.852269259231">
        <ele>96</ele>
        <time>2018-03-17T11:19:24Z</time>
      </trkpt>
      <trkpt lat="62.65189288712" lon="17.852252160155">
        <ele>96.2</ele>
        <time>2018-03-17T11:19:25Z</time>
      </trkpt>
      <trkpt lat="62.651914763879" lon="17.852245789911">
        <ele>96.4</ele>
        <time>2018-03-17T11:19:26Z</time>
      </trkpt>
      <trkpt lat="62.651934209887" lon="17.852233803794">
        <ele>96.8</ele>
        <time>2018-03-17T11:19:27Z</time>
      </trkpt>
      <trkpt lat="62.651948962031" lon="17.852218381098">
        <ele>96.8</ele>
        <time>2018-03-17T11:19:28Z</time>
      </trkpt>
      <trkpt lat="62.651959523225" lon="17.852209161008">
        <ele>96.8</ele>
        <time>2018-03-17T11:19:29Z</time>
      </trkpt>
      <trkpt lat="62.65197754431" lon="17.852197845443">
        <ele>97</ele>
        <time>2018-03-17T11:19:30Z</time>
      </trkpt>
      <trkpt lat="62.652000845992" lon="17.852181752195">
        <ele>97</ele>
        <time>2018-03-17T11:19:31Z</time>
      </trkpt>
      <trkpt lat="62.652031942841" lon="17.852173957028">
        <ele>97.2</ele>
        <time>2018-03-17T11:19:32Z</time>
      </trkpt>
      <trkpt lat="62.652048455184" lon="17.852153589011">
        <ele>97.2</ele>
        <time>2018-03-17T11:19:33Z</time>
      </trkpt>
      <trkpt lat="62.652075193445" lon="17.85212685075">
        <ele>97.4</ele>
        <time>2018-03-17T11:19:34Z</time>
      </trkpt>
      <trkpt lat="62.652084497354" lon="17.852098519928">
        <ele>97.6</ele>
        <time>2018-03-17T11:19:35Z</time>
      </trkpt>
      <trkpt lat="62.652108385769" lon="17.852052084202">
        <ele>97.8</ele>
        <time>2018-03-17T11:19:36Z</time>
      </trkpt>
      <trkpt lat="62.652123892284" lon="17.852037499696">
        <ele>97.8</ele>
        <time>2018-03-17T11:19:37Z</time>
      </trkpt>
      <trkpt lat="62.652138309152" lon="17.852005480838">
        <ele>97.8</ele>
        <time>2018-03-17T11:19:38Z</time>
      </trkpt>
      <trkpt lat="62.652155492047" lon="17.851975641274">
        <ele>98</ele>
        <time>2018-03-17T11:19:39Z</time>
      </trkpt>
      <trkpt lat="62.652176362978" lon="17.851959799483">
        <ele>98.2</ele>
        <time>2018-03-17T11:19:40Z</time>
      </trkpt>
      <trkpt lat="62.652192204769" lon="17.851936749258">
        <ele>98.2</ele>
        <time>2018-03-17T11:19:41Z</time>
      </trkpt>
      <trkpt lat="62.652209220026" lon="17.851910262454">
        <ele>98.4</ele>
        <time>2018-03-17T11:19:42Z</time>
      </trkpt>
      <trkpt lat="62.652228749853" lon="17.851894588301">
        <ele>98.4</ele>
        <time>2018-03-17T11:19:43Z</time>
      </trkpt>
      <trkpt lat="62.652238640495" lon="17.851867430945">
        <ele>98.6</ele>
        <time>2018-03-17T11:19:44Z</time>
      </trkpt>
      <trkpt lat="62.652248195861" lon="17.851847482023">
        <ele>98.8</ele>
        <time>2018-03-17T11:19:45Z</time>
      </trkpt>
      <trkpt lat="62.652263199462" lon="17.851839267761">
        <ele>99</ele>
        <time>2018-03-17T11:19:46Z</time>
      </trkpt>
      <trkpt lat="62.652280549995" lon="17.851821665771">
        <ele>99.4</ele>
        <time>2018-03-17T11:19:47Z</time>
      </trkpt>
      <trkpt lat="62.652297146157" lon="17.851794005501">
        <ele>99.8</ele>
        <time>2018-03-17T11:19:48Z</time>
      </trkpt>
      <trkpt lat="62.652308880817" lon="17.851760142625">
        <ele>100</ele>
        <time>2018-03-17T11:19:49Z</time>
      </trkpt>
      <trkpt lat="62.652323130047" lon="17.851747066861">
        <ele>100.2</ele>
        <time>2018-03-17T11:19:50Z</time>
      </trkpt>
      <trkpt lat="62.652339390933" lon="17.851725273921">
        <ele>100.4</ele>
        <time>2018-03-17T11:19:51Z</time>
      </trkpt>
      <trkpt lat="62.652360010407" lon="17.851698787117">
        <ele>100.6</ele>
        <time>2018-03-17T11:19:52Z</time>
      </trkpt>
      <trkpt lat="62.652373756723" lon="17.851668025544">
        <ele>100.8</ele>
        <time>2018-03-17T11:19:53Z</time>
      </trkpt>
      <trkpt lat="62.65237987551" lon="17.851640113817">
        <ele>101</ele>
        <time>2018-03-17T11:19:54Z</time>
      </trkpt>
      <trkpt lat="62.652399070061" lon="17.851608346416">
        <ele>101.4</ele>
        <time>2018-03-17T11:19:55Z</time>
      </trkpt>
      <trkpt lat="62.652417929336" lon="17.851584960915">
        <ele>101.6</ele>
        <time>2018-03-17T11:19:56Z</time>
      </trkpt>
      <trkpt lat="62.652434609317" lon="17.851559144663">
        <ele>101.8</ele>
        <time>2018-03-17T11:19:57Z</time>
      </trkpt>
      <trkpt lat="62.652450199651" lon="17.851541291216">
        <ele>102</ele>
        <time>2018-03-17T11:19:58Z</time>
      </trkpt>
      <trkpt lat="62.652458078637" lon="17.851515055869">
        <ele>102.2</ele>
        <time>2018-03-17T11:19:59Z</time>
      </trkpt>
      <trkpt lat="62.652481380319" lon="17.851488736703">
        <ele>102.4</ele>
        <time>2018-03-17T11:20:00Z</time>
      </trkpt>
      <trkpt lat="62.652489929857" lon="17.851464848288">
        <ele>102.6</ele>
        <time>2018-03-17T11:20:01Z</time>
      </trkpt>
      <trkpt lat="62.652515410833" lon="17.851448084488">
        <ele>102.8</ele>
        <time>2018-03-17T11:20:02Z</time>
      </trkpt>
      <trkpt lat="62.652528486597" lon="17.851420591856">
        <ele>103</ele>
        <time>2018-03-17T11:20:03Z</time>
      </trkpt>
      <trkpt lat="62.652542568189" lon="17.851397373993">
        <ele>103</ele>
        <time>2018-03-17T11:20:04Z</time>
      </trkpt>
      <trkpt lat="62.652556817419" lon="17.851363343479">
        <ele>103.2</ele>
        <time>2018-03-17T11:20:05Z</time>
      </trkpt>
      <trkpt lat="62.652568635898" lon="17.85134817224">
        <ele>103.4</ele>
        <time>2018-03-17T11:20:06Z</time>
      </trkpt>
      <trkpt lat="62.652590009743" lon="17.851326044024">
        <ele>103.6</ele>
        <time>2018-03-17T11:20:07Z</time>
      </trkpt>
      <trkpt lat="62.652610126303" lon="17.851284637438">
        <ele>103.6</ele>
        <time>2018-03-17T11:20:08Z</time>
      </trkpt>
      <trkpt lat="62.652621358049" lon="17.851273489511">
        <ele>103.8</ele>
        <time>2018-03-17T11:20:09Z</time>
      </trkpt>
      <trkpt lat="62.652652706355" lon="17.851243985223">
        <ele>103.8</ele>
        <time>2018-03-17T11:20:10Z</time>
      </trkpt>
      <trkpt lat="62.652661842626" lon="17.851214816211">
        <ele>104</ele>
        <time>2018-03-17T11:20:11Z</time>
      </trkpt>
      <trkpt lat="62.652680198987" lon="17.85119813623">
        <ele>104</ele>
        <time>2018-03-17T11:20:12Z</time>
      </trkpt>
      <trkpt lat="62.65270341685" lon="17.85119143071">
        <ele>103.8</ele>
        <time>2018-03-17T11:20:13Z</time>
      </trkpt>
      <trkpt lat="62.652718671908" lon="17.85116879958">
        <ele>104</ele>
        <time>2018-03-17T11:20:14Z</time>
      </trkpt>
      <trkpt lat="62.652734765156" lon="17.851151029952">
        <ele>104</ele>
        <time>2018-03-17T11:20:15Z</time>
      </trkpt>
      <trkpt lat="62.652746835092" lon="17.851133260324">
        <ele>104</ele>
        <time>2018-03-17T11:20:16Z</time>
      </trkpt>
      <trkpt lat="62.652750271671" lon="17.851119765465">
        <ele>104.2</ele>
        <time>2018-03-17T11:20:17Z</time>
      </trkpt>
      <trkpt lat="62.652763347435" lon="17.851105180959">
        <ele>104.4</ele>
        <time>2018-03-17T11:20:18Z</time>
      </trkpt>
      <trkpt lat="62.652776423199" lon="17.851102247294">
        <ele>104.6</ele>
        <time>2018-03-17T11:20:19Z</time>
      </trkpt>
      <trkpt lat="62.652790085696" lon="17.851085399675">
        <ele>105</ele>
        <time>2018-03-17T11:20:20Z</time>
      </trkpt>
      <trkpt lat="62.652806011306" lon="17.851067546228">
        <ele>105</ele>
        <time>2018-03-17T11:20:21Z</time>
      </trkpt>
      <trkpt lat="62.652821014907" lon="17.851042065252">
        <ele>105</ele>
        <time>2018-03-17T11:20:22Z</time>
      </trkpt>
      <trkpt lat="62.652829312988" lon="17.851024127986">
        <ele>105</ele>
        <time>2018-03-17T11:20:23Z</time>
      </trkpt>
      <trkpt lat="62.652840125639" lon="17.851013147697">
        <ele>104.8</ele>
        <time>2018-03-17T11:20:24Z</time>
      </trkpt>
      <trkpt lat="62.652851189747" lon="17.850974171862">
        <ele>104.8</ele>
        <time>2018-03-17T11:20:25Z</time>
      </trkpt>
      <trkpt lat="62.65285680562" lon="17.850917426399">
        <ele>104.8</ele>
        <time>2018-03-17T11:20:26Z</time>
      </trkpt>
      <trkpt lat="62.652868959375" lon="17.850871493587">
        <ele>105</ele>
        <time>2018-03-17T11:20:27Z</time>
      </trkpt>
      <trkpt lat="62.652871809221" lon="17.850844503869">
        <ele>105</ele>
        <time>2018-03-17T11:20:28Z</time>
      </trkpt>
      <trkpt lat="62.652881280768" lon="17.850797565229">
        <ele>105.2</ele>
        <time>2018-03-17T11:20:29Z</time>
      </trkpt>
      <trkpt lat="62.652887986288" lon="17.850767390389">
        <ele>105.2</ele>
        <time>2018-03-17T11:20:30Z</time>
      </trkpt>
      <trkpt lat="62.652900559138" lon="17.850691701832">
        <ele>105.2</ele>
        <time>2018-03-17T11:20:31Z</time>
      </trkpt>
      <trkpt lat="62.652903911898" lon="17.850646439572">
        <ele>105.2</ele>
        <time>2018-03-17T11:20:32Z</time>
      </trkpt>
      <trkpt lat="62.652902319337" lon="17.850606960823">
        <ele>105</ele>
        <time>2018-03-17T11:20:33Z</time>
      </trkpt>
      <trkpt lat="62.652915143644" lon="17.850526578402">
        <ele>104.8</ele>
        <time>2018-03-17T11:20:34Z</time>
      </trkpt>
      <trkpt lat="62.652911958522" lon="17.850466061084">
        <ele>104.8</ele>
        <time>2018-03-17T11:20:35Z</time>
      </trkpt>
      <trkpt lat="62.652915814196" lon="17.850382661179">
        <ele>104.6</ele>
        <time>2018-03-17T11:20:36Z</time>
      </trkpt>
      <trkpt lat="62.652924196096" lon="17.850322814413">
        <ele>104.6</ele>
        <time>2018-03-17T11:20:37Z</time>
      </trkpt>
      <trkpt lat="62.652920759517" lon="17.850276294868">
        <ele>104.8</ele>
        <time>2018-03-17T11:20:38Z</time>
      </trkpt>
      <trkpt lat="62.652926291571" lon="17.850203120881">
        <ele>104.8</ele>
        <time>2018-03-17T11:20:39Z</time>
      </trkpt>
      <trkpt lat="62.652938696783" lon="17.850122235546">
        <ele>104.8</ele>
        <time>2018-03-17T11:20:40Z</time>
      </trkpt>
      <trkpt lat="62.652943642104" lon="17.850073788164">
        <ele>104.8</ele>
        <time>2018-03-17T11:20:41Z</time>
      </trkpt>
      <trkpt lat="62.652957472239" lon="17.850012181199">
        <ele>104.8</ele>
        <time>2018-03-17T11:20:42Z</time>
      </trkpt>
      <trkpt lat="62.652959148619" lon="17.849971277527">
        <ele>104.8</ele>
        <time>2018-03-17T11:20:43Z</time>
      </trkpt>
      <trkpt lat="62.652962836655" lon="17.849897181531">
        <ele>104.6</ele>
        <time>2018-03-17T11:20:44Z</time>
      </trkpt>
      <trkpt lat="62.652978678446" lon="17.849841609534">
        <ele>104.6</ele>
        <time>2018-03-17T11:20:45Z</time>
      </trkpt>
      <trkpt lat="62.652981863568" lon="17.849805735002">
        <ele>104.6</ele>
        <time>2018-03-17T11:20:46Z</time>
      </trkpt>
      <trkpt lat="62.652993765866" lon="17.849749073358">
        <ele>104.6</ele>
        <time>2018-03-17T11:20:47Z</time>
      </trkpt>
      <trkpt lat="62.65300516525" lon="17.849734069757">
        <ele>104.4</ele>
        <time>2018-03-17T11:20:48Z</time>
      </trkpt>
      <trkpt lat="62.653020001213" lon="17.849685538556">
        <ele>104.4</ele>
        <time>2018-03-17T11:20:49Z</time>
      </trkpt>
      <trkpt lat="62.653036681194" lon="17.849625607971">
        <ele>104.4</ele>
        <time>2018-03-17T11:20:50Z</time>
      </trkpt>
      <trkpt lat="62.653040955963" lon="17.849574394562">
        <ele>104.6</ele>
        <time>2018-03-17T11:20:51Z</time>
      </trkpt>
      <trkpt lat="62.653050595148" lon="17.849517984375">
        <ele>104.6</ele>
        <time>2018-03-17T11:20:52Z</time>
      </trkpt>
      <trkpt lat="62.653058138858" lon="17.84945973017">
        <ele>104.6</ele>
        <time>2018-03-17T11:20:53Z</time>
      </trkpt>
      <trkpt lat="62.653061156342" lon="17.849429806787">
        <ele>104.8</ele>
        <time>2018-03-17T11:20:54Z</time>
      </trkpt>
      <trkpt lat="62.65307473502" lon="17.849347999443">
        <ele>104.6</ele>
        <time>2018-03-17T11:20:55Z</time>
      </trkpt>
      <trkpt lat="62.653077501047" lon="17.849297708043">
        <ele>104.8</ele>
        <time>2018-03-17T11:20:56Z</time>
      </trkpt>
      <trkpt lat="62.653079345065" lon="17.849256972009">
        <ele>104.8</ele>
        <time>2018-03-17T11:20:57Z</time>
      </trkpt>
      <trkpt lat="62.653094097209" lon="17.849178852701">
        <ele>104.8</ele>
        <time>2018-03-17T11:20:58Z</time>
      </trkpt>
      <trkpt lat="62.653095186856" lon="17.849139122495">
        <ele>104.8</ele>
        <time>2018-03-17T11:20:59Z</time>
      </trkpt>
      <trkpt lat="62.653104826041" lon="17.849053710934">
        <ele>104.8</ele>
        <time>2018-03-17T11:21:00Z</time>
      </trkpt>
      <trkpt lat="62.653099126349" lon="17.84899202015">
        <ele>105</ele>
        <time>2018-03-17T11:21:01Z</time>
      </trkpt>
      <trkpt lat="62.653102730566" lon="17.848923540027">
        <ele>105</ele>
        <time>2018-03-17T11:21:02Z</time>
      </trkpt>
      <trkpt lat="62.653103568756" lon="17.848892778454">
        <ele>105</ele>
        <time>2018-03-17T11:21:03Z</time>
      </trkpt>
      <trkpt lat="62.653102982023" lon="17.848814491508">
        <ele>105</ele>
        <time>2018-03-17T11:21:04Z</time>
      </trkpt>
      <trkpt lat="62.653097282331" lon="17.848766463221">
        <ele>105</ele>
        <time>2018-03-17T11:21:05Z</time>
      </trkpt>
      <trkpt lat="62.653097198512" lon="17.848682225126">
        <ele>105.2</ele>
        <time>2018-03-17T11:21:06Z</time>
      </trkpt>
      <trkpt lat="62.653088229879" lon="17.84862573112">
        <ele>105.2</ele>
        <time>2018-03-17T11:21:07Z</time>
      </trkpt>
      <trkpt lat="62.653090828268" lon="17.848528836356">
        <ele>105.4</ele>
        <time>2018-03-17T11:21:08Z</time>
      </trkpt>
      <trkpt lat="62.653089068069" lon="17.84845809312">
        <ele>105</ele>
        <time>2018-03-17T11:21:09Z</time>
      </trkpt>
      <trkpt lat="62.653086385861" lon="17.848374693215">
        <ele>104.6</ele>
        <time>2018-03-17T11:21:10Z</time>
      </trkpt>
      <trkpt lat="62.653081356721" lon="17.848291628586">
        <ele>104.2</ele>
        <time>2018-03-17T11:21:11Z</time>
      </trkpt>
      <trkpt lat="62.653073393916" lon="17.848191464881">
        <ele>103.8</ele>
        <time>2018-03-17T11:21:12Z</time>
      </trkpt>
      <trkpt lat="62.653068448595" lon="17.848116446876">
        <ele>103.4</ele>
        <time>2018-03-17T11:21:13Z</time>
      </trkpt>
      <trkpt lat="62.653066856034" lon="17.848030448582">
        <ele>103.2</ele>
        <time>2018-03-17T11:21:14Z</time>
      </trkpt>
      <trkpt lat="62.653064173826" lon="17.847931625981">
        <ele>103.4</ele>
        <time>2018-03-17T11:21:15Z</time>
      </trkpt>
      <trkpt lat="62.653043302895" lon="17.847829031525">
        <ele>103.4</ele>
        <time>2018-03-17T11:21:16Z</time>
      </trkpt>
      <trkpt lat="62.653035759185" lon="17.847719312454">
        <ele>103</ele>
        <time>2018-03-17T11:21:17Z</time>
      </trkpt>
      <trkpt lat="62.653029808036" lon="17.847604983338">
        <ele>102.6</ele>
        <time>2018-03-17T11:21:18Z</time>
      </trkpt>
      <trkpt lat="62.653023940706" lon="17.847511022239">
        <ele>102</ele>
        <time>2018-03-17T11:21:19Z</time>
      </trkpt>
      <trkpt lat="62.653020839403" lon="17.847398201865">
        <ele>101.2</ele>
        <time>2018-03-17T11:21:20Z</time>
      </trkpt>
      <trkpt lat="62.65301941448" lon="17.847306839155">
        <ele>100.6</ele>
        <time>2018-03-17T11:21:21Z</time>
      </trkpt>
      <trkpt lat="62.653022012869" lon="17.847242047068">
        <ele>100.4</ele>
        <time>2018-03-17T11:21:22Z</time>
      </trkpt>
      <trkpt lat="62.653019665937" lon="17.847153115109">
        <ele>100.4</ele>
        <time>2018-03-17T11:21:23Z</time>
      </trkpt>
      <trkpt lat="62.653036681194" lon="17.847070469575">
        <ele>100.8</ele>
        <time>2018-03-17T11:21:24Z</time>
      </trkpt>
      <trkpt lat="62.653049421682" lon="17.846982291987">
        <ele>101</ele>
        <time>2018-03-17T11:21:25Z</time>
      </trkpt>
      <trkpt lat="62.653066017844" lon="17.846883469386">
        <ele>101.2</ele>
        <time>2018-03-17T11:21:26Z</time>
      </trkpt>
      <trkpt lat="62.653073142459" lon="17.84682026986">
        <ele>101</ele>
        <time>2018-03-17T11:21:27Z</time>
      </trkpt>
      <trkpt lat="62.653081356721" lon="17.846757573248">
        <ele>101</ele>
        <time>2018-03-17T11:21:28Z</time>
      </trkpt>
      <trkpt lat="62.653089570983" lon="17.846703677631">
        <ele>101</ele>
        <time>2018-03-17T11:21:29Z</time>
      </trkpt>
      <trkpt lat="62.653101305643" lon="17.84664257358">
        <ele>101</ele>
        <time>2018-03-17T11:21:30Z</time>
      </trkpt>
      <trkpt lat="62.653103736394" lon="17.846575769837">
        <ele>101.2</ele>
        <time>2018-03-17T11:21:31Z</time>
      </trkpt>
      <trkpt lat="62.653126535162" lon="17.846511313026">
        <ele>101.2</ele>
        <time>2018-03-17T11:21:32Z</time>
      </trkpt>
      <trkpt lat="62.653144472428" lon="17.846456663038">
        <ele>101.4</ele>
        <time>2018-03-17T11:21:33Z</time>
      </trkpt>
      <trkpt lat="62.653151094129" lon="17.846388015277">
        <ele>101.2</ele>
        <time>2018-03-17T11:21:34Z</time>
      </trkpt>
      <trkpt lat="62.653179005856" lon="17.846318110231">
        <ele>101.2</ele>
        <time>2018-03-17T11:21:35Z</time>
      </trkpt>
      <trkpt lat="62.653204486832" lon="17.846247283176">
        <ele>101.2</ele>
        <time>2018-03-17T11:21:36Z</time>
      </trkpt>
      <trkpt lat="62.653225273944" lon="17.846203194382">
        <ele>101.2</ele>
        <time>2018-03-17T11:21:37Z</time>
      </trkpt>
      <trkpt lat="62.65325159311" lon="17.846153992629">
        <ele>101.2</ele>
        <time>2018-03-17T11:21:38Z</time>
      </trkpt>
      <trkpt lat="62.653283695787" lon="17.846099594098">
        <ele>101.2</ele>
        <time>2018-03-17T11:21:39Z</time>
      </trkpt>
      <trkpt lat="62.653297358284" lon="17.846049721793">
        <ele>101</ele>
        <time>2018-03-17T11:21:40Z</time>
      </trkpt>
      <trkpt lat="62.653321833432" lon="17.845981157851">
        <ele>101.2</ele>
        <time>2018-03-17T11:21:41Z</time>
      </trkpt>
      <trkpt lat="62.653347230589" lon="17.84591251009">
        <ele>101</ele>
        <time>2018-03-17T11:21:42Z</time>
      </trkpt>
      <trkpt lat="62.653373717393" lon="17.845854926437">
        <ele>101</ele>
        <time>2018-03-17T11:21:43Z</time>
      </trkpt>
      <trkpt lat="62.653395175057" lon="17.845794995852">
        <ele>101</ele>
        <time>2018-03-17T11:21:44Z</time>
      </trkpt>
      <trkpt lat="62.653419734024" lon="17.845754008361">
        <ele>100.8</ele>
        <time>2018-03-17T11:21:45Z</time>
      </trkpt>
      <trkpt lat="62.653446639923" lon="17.845715283983">
        <ele>100.6</ele>
        <time>2018-03-17T11:21:46Z</time>
      </trkpt>
      <trkpt lat="62.65347287527" lon="17.845672201017">
        <ele>100.6</ele>
        <time>2018-03-17T11:21:47Z</time>
      </trkpt>
      <trkpt lat="62.653511599648" lon="17.845624843282">
        <ele>100.4</ele>
        <time>2018-03-17T11:21:48Z</time>
      </trkpt>
      <trkpt lat="62.653552251863" lon="17.845586118904">
        <ele>100.4</ele>
        <time>2018-03-17T11:21:49Z</time>
      </trkpt>
      <trkpt lat="62.653595837743" lon="17.845531552735">
        <ele>100.2</ele>
        <time>2018-03-17T11:21:50Z</time>
      </trkpt>
      <trkpt lat="62.653636657596" lon="17.845476483652">
        <ele>100</ele>
        <time>2018-03-17T11:21:51Z</time>
      </trkpt>
      <trkpt lat="62.653682758046" lon="17.845417894171">
        <ele>99.6</ele>
        <time>2018-03-17T11:21:52Z</time>
      </trkpt>
      <trkpt lat="62.653720308958" lon="17.845317730466">
        <ele>99.4</ele>
        <time>2018-03-17T11:21:53Z</time>
      </trkpt>
      <trkpt lat="62.653753585101" lon="17.845205748282">
        <ele>99.2</ele>
        <time>2018-03-17T11:21:54Z</time>
      </trkpt>
      <trkpt lat="62.653774539851" lon="17.845084210732">
        <ele>98.6</ele>
        <time>2018-03-17T11:21:55Z</time>
      </trkpt>
      <trkpt lat="62.653801613388" lon="17.844970635987">
        <ele>97.8</ele>
        <time>2018-03-17T11:21:56Z</time>
      </trkpt>
      <trkpt lat="62.653828016373" lon="17.844865778418">
        <ele>97.4</ele>
        <time>2018-03-17T11:21:57Z</time>
      </trkpt>
      <trkpt lat="62.653856682471" lon="17.844775421536">
        <ele>96.8</ele>
        <time>2018-03-17T11:21:58Z</time>
      </trkpt>
      <trkpt lat="62.6538810738" lon="17.844702331368">
        <ele>96.4</ele>
        <time>2018-03-17T11:21:59Z</time>
      </trkpt>
      <trkpt lat="62.653911416278" lon="17.84461666835">
        <ele>96</ele>
        <time>2018-03-17T11:22:00Z</time>
      </trkpt>
      <trkpt lat="62.653938154539" lon="17.844543494363">
        <ele>95.8</ele>
        <time>2018-03-17T11:22:01Z</time>
      </trkpt>
      <trkpt lat="62.653964976619" lon="17.844473924593">
        <ele>95.8</ele>
        <time>2018-03-17T11:22:02Z</time>
      </trkpt>
      <trkpt lat="62.653994145631" lon="17.844400918244">
        <ele>95.6</ele>
        <time>2018-03-17T11:22:03Z</time>
      </trkpt>
      <trkpt lat="62.654019123693" lon="17.844340736202">
        <ele>95.4</ele>
        <time>2018-03-17T11:22:04Z</time>
      </trkpt>
      <trkpt lat="62.654053824759" lon="17.844289271336">
        <ele>95</ele>
        <time>2018-03-17T11:22:05Z</time>
      </trkpt>
      <trkpt lat="62.654087184721" lon="17.844239818126">
        <ele>94.6</ele>
        <time>2018-03-17T11:22:06Z</time>
      </trkpt>
      <trkpt lat="62.654115180267" lon="17.844203775956">
        <ele>94.2</ele>
        <time>2018-03-17T11:22:07Z</time>
      </trkpt>
      <trkpt lat="62.654149881333" lon="17.844162872284">
        <ele>93.4</ele>
        <time>2018-03-17T11:22:08Z</time>
      </trkpt>
      <trkpt lat="62.65418449858" lon="17.844136804575">
        <ele>92.8</ele>
        <time>2018-03-17T11:22:09Z</time>
      </trkpt>
      <trkpt lat="62.654223977329" lon="17.844113083798">
        <ele>92.2</ele>
        <time>2018-03-17T11:22:10Z</time>
      </trkpt>
      <trkpt lat="62.654259265128" lon="17.844092967238">
        <ele>91.6</ele>
        <time>2018-03-17T11:22:11Z</time>
      </trkpt>
      <trkpt lat="62.654299246791" lon="17.844067067167">
        <ele>91</ele>
        <time>2018-03-17T11:22:12Z</time>
      </trkpt>
      <trkpt lat="62.654338306445" lon="17.844048207892">
        <ele>90.4</ele>
        <time>2018-03-17T11:22:13Z</time>
      </trkpt>
      <trkpt lat="62.65437728228" lon="17.844028929522">
        <ele>90</ele>
        <time>2018-03-17T11:22:14Z</time>
      </trkpt>
      <trkpt lat="62.654420365246" lon="17.844019457975">
        <ele>89.2</ele>
        <time>2018-03-17T11:22:15Z</time>
      </trkpt>
      <trkpt lat="62.654454731036" lon="17.844015769939">
        <ele>88.4</ele>
        <time>2018-03-17T11:22:16Z</time>
      </trkpt>
      <trkpt lat="62.654498400735" lon="17.84400981879">
        <ele>88</ele>
        <time>2018-03-17T11:22:17Z</time>
      </trkpt>
      <trkpt lat="62.654563276641" lon="17.844004454374">
        <ele>87.6</ele>
        <time>2018-03-17T11:22:18Z</time>
      </trkpt>
      <trkpt lat="62.654617423715" lon="17.843994647551">
        <ele>87.2</ele>
        <time>2018-03-17T11:22:19Z</time>
      </trkpt>
      <trkpt lat="62.65467483973" lon="17.843991294791">
        <ele>87</ele>
        <time>2018-03-17T11:22:20Z</time>
      </trkpt>
      <trkpt lat="62.654719682895" lon="17.843982493796">
        <ele>86.4</ele>
        <time>2018-03-17T11:22:21Z</time>
      </trkpt>
      <trkpt lat="62.654766286259" lon="17.843980314502">
        <ele>85.6</ele>
        <time>2018-03-17T11:22:22Z</time>
      </trkpt>
      <trkpt lat="62.654809201587" lon="17.84396288015">
        <ele>84.4</ele>
        <time>2018-03-17T11:22:23Z</time>
      </trkpt>
      <trkpt lat="62.654854799123" lon="17.843954246793">
        <ele>83</ele>
        <time>2018-03-17T11:22:24Z</time>
      </trkpt>
      <trkpt lat="62.654898049727" lon="17.843939159373">
        <ele>81.6</ele>
        <time>2018-03-17T11:22:25Z</time>
      </trkpt>
      <trkpt lat="62.654938701942" lon="17.843926502704">
        <ele>80.4</ele>
        <time>2018-03-17T11:22:26Z</time>
      </trkpt>
      <trkpt lat="62.654997207604" lon="17.843904374488">
        <ele>80</ele>
        <time>2018-03-17T11:22:27Z</time>
      </trkpt>
      <trkpt lat="62.655048337194" lon="17.843884257928">
        <ele>79.6</ele>
        <time>2018-03-17T11:22:28Z</time>
      </trkpt>
      <trkpt lat="62.65509142016" lon="17.843861794436">
        <ele>79.4</ele>
        <time>2018-03-17T11:22:29Z</time>
      </trkpt>
      <trkpt lat="62.65515009346" lon="17.843824662619">
        <ele>79</ele>
        <time>2018-03-17T11:22:30Z</time>
      </trkpt>
      <trkpt lat="62.655194182254" lon="17.843805384249">
        <ele>78.6</ele>
        <time>2018-03-17T11:22:31Z</time>
      </trkpt>
      <trkpt lat="62.655239276876" lon="17.843785351508">
        <ele>77.8</ele>
        <time>2018-03-17T11:22:32Z</time>
      </trkpt>
      <trkpt lat="62.655281354014" lon="17.843778645988">
        <ele>77</ele>
        <time>2018-03-17T11:22:33Z</time>
      </trkpt>
      <trkpt lat="62.655324604618" lon="17.843779903273">
        <ele>76.2</ele>
        <time>2018-03-17T11:22:34Z</time>
      </trkpt>
      <trkpt lat="62.655366597937" lon="17.843797840539">
        <ele>75.8</ele>
        <time>2018-03-17T11:22:35Z</time>
      </trkpt>
      <trkpt lat="62.655415296776" lon="17.843823070058">
        <ele>75.4</ele>
        <time>2018-03-17T11:22:36Z</time>
      </trkpt>
      <trkpt lat="62.655466007271" lon="17.843843521894">
        <ele>75.2</ele>
        <time>2018-03-17T11:22:37Z</time>
      </trkpt>
      <trkpt lat="62.655503390545" lon="17.843894902941">
        <ele>75</ele>
        <time>2018-03-17T11:22:38Z</time>
      </trkpt>
      <trkpt lat="62.655557705257" lon="17.843946283988">
        <ele>75</ele>
        <time>2018-03-17T11:22:39Z</time>
      </trkpt>
      <trkpt lat="62.65561947986" lon="17.844009567333">
        <ele>74.8</ele>
        <time>2018-03-17T11:22:40Z</time>
      </trkpt>
      <trkpt lat="62.655677231151" lon="17.844077209266">
        <ele>74.2</ele>
        <time>2018-03-17T11:22:41Z</time>
      </trkpt>
      <trkpt lat="62.655743951075" lon="17.844163626655">
        <ele>73.6</ele>
        <time>2018-03-17T11:22:42Z</time>
      </trkpt>
      <trkpt lat="62.655804384574" lon="17.844251636605">
        <ele>72.4</ele>
        <time>2018-03-17T11:22:43Z</time>
      </trkpt>
      <trkpt lat="62.655861465313" lon="17.844336461433">
        <ele>71.2</ele>
        <time>2018-03-17T11:22:44Z</time>
      </trkpt>
      <trkpt lat="62.65592122826" lon="17.844432434188">
        <ele>70</ele>
        <time>2018-03-17T11:22:45Z</time>
      </trkpt>
      <trkpt lat="62.655974537144" lon="17.844518767758">
        <ele>68.8</ele>
        <time>2018-03-17T11:22:46Z</time>
      </trkpt>
      <trkpt lat="62.656024241811" lon="17.8445957136">
        <ele>68</ele>
        <time>2018-03-17T11:22:47Z</time>
      </trkpt>
      <trkpt lat="62.656076041953" lon="17.844679364962">
        <ele>67.4</ele>
        <time>2018-03-17T11:22:48Z</time>
      </trkpt>
      <trkpt lat="62.656121304213" lon="17.844750946388">
        <ele>67</ele>
        <time>2018-03-17T11:22:49Z</time>
      </trkpt>
      <trkpt lat="62.656173020536" lon="17.84482537766">
        <ele>66.8</ele>
        <time>2018-03-17T11:22:50Z</time>
      </trkpt>
      <trkpt lat="62.656216690235" lon="17.844902658778">
        <ele>66.6</ele>
        <time>2018-03-17T11:22:51Z</time>
      </trkpt>
      <trkpt lat="62.656258432097" lon="17.84496284082">
        <ele>66.6</ele>
        <time>2018-03-17T11:22:52Z</time>
      </trkpt>
      <trkpt lat="62.65630511928" lon="17.8450315724">
        <ele>66.8</ele>
        <time>2018-03-17T11:22:53Z</time>
      </trkpt>
      <trkpt lat="62.656344598029" lon="17.845107512414">
        <ele>66.8</ele>
        <time>2018-03-17T11:22:54Z</time>
      </trkpt>
      <trkpt lat="62.656395224705" lon="17.845170879578">
        <ele>67.2</ele>
        <time>2018-03-17T11:22:55Z</time>
      </trkpt>
      <trkpt lat="62.656435793101" lon="17.845230642525">
        <ele>67.2</ele>
        <time>2018-03-17T11:22:56Z</time>
      </trkpt>
      <trkpt lat="62.656478456972" lon="17.845291243662">
        <ele>67</ele>
        <time>2018-03-17T11:22:57Z</time>
      </trkpt>
      <trkpt lat="62.656512571305" lon="17.84534924641">
        <ele>66.4</ele>
        <time>2018-03-17T11:22:58Z</time>
      </trkpt>
      <trkpt lat="62.656548697294" lon="17.845392664652">
        <ele>66.4</ele>
        <time>2018-03-17T11:22:59Z</time>
      </trkpt>
      <trkpt lat="62.656607035318" lon="17.845458714024">
        <ele>66.4</ele>
        <time>2018-03-17T11:23:00Z</time>
      </trkpt>
      <trkpt lat="62.656647184619" lon="17.845504227741">
        <ele>66.2</ele>
        <time>2018-03-17T11:23:01Z</time>
      </trkpt>
      <trkpt lat="62.656687753015" lon="17.845573713692">
        <ele>66.2</ele>
        <time>2018-03-17T11:23:02Z</time>
      </trkpt>
      <trkpt lat="62.656715748561" lon="17.845645714213">
        <ele>66.4</ele>
        <time>2018-03-17T11:23:03Z</time>
      </trkpt>
      <trkpt lat="62.656746342496" lon="17.845712601775">
        <ele>66.4</ele>
        <time>2018-03-17T11:23:04Z</time>
      </trkpt>
      <trkpt lat="62.656779618639" lon="17.84577504693">
        <ele>66.4</ele>
        <time>2018-03-17T11:23:05Z</time>
      </trkpt>
      <trkpt lat="62.656816247542" lon="17.845821566475">
        <ele>66.2</ele>
        <time>2018-03-17T11:23:06Z</time>
      </trkpt>
      <trkpt lat="62.656860420155" lon="17.845861464319">
        <ele>66</ele>
        <time>2018-03-17T11:23:07Z</time>
      </trkpt>
      <trkpt lat="62.656902916388" lon="17.845873282798">
        <ele>65.6</ele>
        <time>2018-03-17T11:23:08Z</time>
      </trkpt>
      <trkpt lat="62.656935689617" lon="17.845879066309">
        <ele>65.6</ele>
        <time>2018-03-17T11:23:09Z</time>
      </trkpt>
      <trkpt lat="62.656978604945" lon="17.845884766001">
        <ele>65.8</ele>
        <time>2018-03-17T11:23:10Z</time>
      </trkpt>
      <trkpt lat="62.656999559695" lon="17.845856518998">
        <ele>65.6</ele>
        <time>2018-03-17T11:23:11Z</time>
      </trkpt>
      <trkpt lat="62.657029566897" lon="17.845843862329">
        <ele>65.8</ele>
        <time>2018-03-17T11:23:12Z</time>
      </trkpt>
      <trkpt lat="62.657067788361" lon="17.845851657496">
        <ele>66</ele>
        <time>2018-03-17T11:23:13Z</time>
      </trkpt>
      <trkpt lat="62.657097879382" lon="17.845856267541">
        <ele>65.8</ele>
        <time>2018-03-17T11:23:14Z</time>
      </trkpt>
      <trkpt lat="62.657133921552" lon="17.845872528427">
        <ele>65.6</ele>
        <time>2018-03-17T11:23:15Z</time>
      </trkpt>
      <trkpt lat="62.657170466636" lon="17.845903457638">
        <ele>65.6</ele>
        <time>2018-03-17T11:23:16Z</time>
      </trkpt>
      <trkpt lat="62.657202401675" lon="17.845918712696">
        <ele>65.6</ele>
        <time>2018-03-17T11:23:17Z</time>
      </trkpt>
      <trkpt lat="62.657239533492" lon="17.84595693416">
        <ele>65.6</ele>
        <time>2018-03-17T11:23:18Z</time>
      </trkpt>
      <trkpt lat="62.657249256496" lon="17.845977218358">
        <ele>65.8</ele>
        <time>2018-03-17T11:23:19Z</time>
      </trkpt>
      <trkpt lat="62.657256632568" lon="17.846002531696">
        <ele>66</ele>
        <time>2018-03-17T11:23:20Z</time>
      </trkpt>
      <trkpt lat="62.657272139083" lon="17.846045698481">
        <ele>66</ele>
        <time>2018-03-17T11:23:21Z</time>
      </trkpt>
      <trkpt lat="62.657302062466" lon="17.846088865266">
        <ele>66.2</ele>
        <time>2018-03-17T11:23:22Z</time>
      </trkpt>
      <trkpt lat="62.657318239533" lon="17.846125075074">
        <ele>66.4</ele>
        <time>2018-03-17T11:23:23Z</time>
      </trkpt>
      <trkpt lat="62.657338439912" lon="17.846170085877">
        <ele>66.4</ele>
        <time>2018-03-17T11:23:24Z</time>
      </trkpt>
      <trkpt lat="62.657370123494" lon="17.846237392534">
        <ele>66.4</ele>
        <time>2018-03-17T11:23:25Z</time>
      </trkpt>
      <trkpt lat="62.657401639438" lon="17.846290114685">
        <ele>66.6</ele>
        <time>2018-03-17T11:23:26Z</time>
      </trkpt>
      <trkpt lat="62.65741069189" lon="17.84636261812">
        <ele>66.8</ele>
        <time>2018-03-17T11:23:27Z</time>
      </trkpt>
      <trkpt lat="62.657446147327" lon="17.846407293647">
        <ele>66.6</ele>
        <time>2018-03-17T11:23:28Z</time>
      </trkpt>
      <trkpt lat="62.657453607218" lon="17.846469319707">
        <ele>66.6</ele>
        <time>2018-03-17T11:23:29Z</time>
      </trkpt>
      <trkpt lat="62.657483698239" lon="17.846549953585">
        <ele>66.8</ele>
        <time>2018-03-17T11:23:30Z</time>
      </trkpt>
      <trkpt lat="62.657497193098" lon="17.846611392912">
        <ele>66.6</ele>
        <time>2018-03-17T11:23:31Z</time>
      </trkpt>
      <trkpt lat="62.657517309658" lon="17.846698816129">
        <ele>66.4</ele>
        <time>2018-03-17T11:23:32Z</time>
      </trkpt>
      <trkpt lat="62.657536252752" lon="17.84676578751">
        <ele>66.4</ele>
        <time>2018-03-17T11:23:33Z</time>
      </trkpt>
      <trkpt lat="62.657552262181" lon="17.846825299">
        <ele>66.2</ele>
        <time>2018-03-17T11:23:34Z</time>
      </trkpt>
      <trkpt lat="62.657568606886" lon="17.846910123828">
        <ele>66</ele>
        <time>2018-03-17T11:23:35Z</time>
      </trkpt>
      <trkpt lat="62.657595680423" lon="17.846969802956">
        <ele>65.8</ele>
        <time>2018-03-17T11:23:36Z</time>
      </trkpt>
      <trkpt lat="62.657610097291" lon="17.84706921229">
        <ele>65.6</ele>
        <time>2018-03-17T11:23:37Z</time>
      </trkpt>
      <trkpt lat="62.657629794756" lon="17.847136016033">
        <ele>65.6</ele>
        <time>2018-03-17T11:23:38Z</time>
      </trkpt>
      <trkpt lat="62.65764789966" lon="17.847234587177">
        <ele>65.4</ele>
        <time>2018-03-17T11:23:39Z</time>
      </trkpt>
      <trkpt lat="62.657678158319" lon="17.84729636178">
        <ele>65.2</ele>
        <time>2018-03-17T11:23:40Z</time>
      </trkpt>
      <trkpt lat="62.657688803332" lon="17.847385796653">
        <ele>65</ele>
        <time>2018-03-17T11:23:41Z</time>
      </trkpt>
      <trkpt lat="62.657714619584" lon="17.847460730839">
        <ele>65</ele>
        <time>2018-03-17T11:23:42Z</time>
      </trkpt>
      <trkpt lat="62.657732473031" lon="17.847530719704">
        <ele>65</ele>
        <time>2018-03-17T11:23:43Z</time>
      </trkpt>
      <trkpt lat="62.657743788596" lon="17.847608503736">
        <ele>64.6</ele>
        <time>2018-03-17T11:23:44Z</time>
      </trkpt>
      <trkpt lat="62.657780166042" lon="17.847699028256">
        <ele>64.6</ele>
        <time>2018-03-17T11:23:45Z</time>
      </trkpt>
      <trkpt lat="62.657824673931" lon="17.847753678244">
        <ele>64.6</ele>
        <time>2018-03-17T11:23:46Z</time>
      </trkpt>
      <trkpt lat="62.657844790491" lon="17.847823667109">
        <ele>64.6</ele>
        <time>2018-03-17T11:23:47Z</time>
      </trkpt>
      <trkpt lat="62.657874462417" lon="17.84789063849">
        <ele>64.6</ele>
        <time>2018-03-17T11:23:48Z</time>
      </trkpt>
      <trkpt lat="62.657896590633" lon="17.847969847445">
        <ele>64.8</ele>
        <time>2018-03-17T11:23:49Z</time>
      </trkpt>
      <trkpt lat="62.657926011102" lon="17.848033549885">
        <ele>64.6</ele>
        <time>2018-03-17T11:23:50Z</time>
      </trkpt>
      <trkpt lat="62.657946965852" lon="17.848077722498">
        <ele>64.8</ele>
        <time>2018-03-17T11:23:51Z</time>
      </trkpt>
      <trkpt lat="62.657969848439" lon="17.848146621716">
        <ele>64.8</ele>
        <time>2018-03-17T11:23:52Z</time>
      </trkpt>
      <trkpt lat="62.657989294447" lon="17.848212084355">
        <ele>64.6</ele>
        <time>2018-03-17T11:23:53Z</time>
      </trkpt>
      <trkpt lat="62.658012596129" lon="17.848274194234">
        <ele>64.4</ele>
        <time>2018-03-17T11:23:54Z</time>
      </trkpt>
      <trkpt lat="62.658041094589" lon="17.848345859479">
        <ele>64.6</ele>
        <time>2018-03-17T11:23:55Z</time>
      </trkpt>
      <trkpt lat="62.658063809538" lon="17.848400341829">
        <ele>64.2</ele>
        <time>2018-03-17T11:23:56Z</time>
      </trkpt>
      <trkpt lat="62.658085853935" lon="17.848446945193">
        <ele>64.2</ele>
        <time>2018-03-17T11:23:57Z</time>
      </trkpt>
      <trkpt lat="62.658118710983" lon="17.848510479995">
        <ele>64</ele>
        <time>2018-03-17T11:23:58Z</time>
      </trkpt>
      <trkpt lat="62.658138659905" lon="17.848540151921">
        <ele>64</ele>
        <time>2018-03-17T11:23:59Z</time>
      </trkpt>
      <trkpt lat="62.658176462274" lon="17.848618271229">
        <ele>64</ele>
        <time>2018-03-17T11:24:00Z</time>
      </trkpt>
      <trkpt lat="62.658204876915" lon="17.848668394991">
        <ele>63.8</ele>
        <time>2018-03-17T11:24:01Z</time>
      </trkpt>
      <trkpt lat="62.658229100606" lon="17.848750956706">
        <ele>63.8</ele>
        <time>2018-03-17T11:24:02Z</time>
      </trkpt>
      <trkpt lat="62.658277296531" lon="17.848806528703">
        <ele>63.6</ele>
        <time>2018-03-17T11:24:03Z</time>
      </trkpt>
      <trkpt lat="62.658296407263" lon="17.848871488428">
        <ele>63.4</ele>
        <time>2018-03-17T11:24:04Z</time>
      </trkpt>
      <trkpt lat="62.658334628727" lon="17.848947679899">
        <ele>63.2</ele>
        <time>2018-03-17T11:24:05Z</time>
      </trkpt>
      <trkpt lat="62.658353320364" lon="17.848988751209">
        <ele>63</ele>
        <time>2018-03-17T11:24:06Z</time>
      </trkpt>
      <trkpt lat="62.658380393901" lon="17.849054213848">
        <ele>62.6</ele>
        <time>2018-03-17T11:24:07Z</time>
      </trkpt>
      <trkpt lat="62.658401181013" lon="17.849115569356">
        <ele>62.4</ele>
        <time>2018-03-17T11:24:08Z</time>
      </trkpt>
      <trkpt lat="62.658410568741" lon="17.849158317046">
        <ele>62.4</ele>
        <time>2018-03-17T11:24:09Z</time>
      </trkpt>
      <trkpt lat="62.658436384993" lon="17.849211039197">
        <ele>62.2</ele>
        <time>2018-03-17T11:24:10Z</time>
      </trkpt>
      <trkpt lat="62.658455747182" lon="17.849264683357">
        <ele>62.4</ele>
        <time>2018-03-17T11:24:11Z</time>
      </trkpt>
      <trkpt lat="62.658480725244" lon="17.849333247299">
        <ele>62.6</ele>
        <time>2018-03-17T11:24:12Z</time>
      </trkpt>
      <trkpt lat="62.658489693877" lon="17.849378677197">
        <ele>62.6</ele>
        <time>2018-03-17T11:24:13Z</time>
      </trkpt>
      <trkpt lat="62.658502518184" lon="17.849450007166">
        <ele>62.6</ele>
        <time>2018-03-17T11:24:14Z</time>
      </trkpt>
      <trkpt lat="62.658522550925" lon="17.849531479234">
        <ele>62.6</ele>
        <time>2018-03-17T11:24:15Z</time>
      </trkpt>
      <trkpt lat="62.65853135192" lon="17.849608005981">
        <ele>62.6</ele>
        <time>2018-03-17T11:24:16Z</time>
      </trkpt>
      <trkpt lat="62.65853135192" lon="17.849671037869">
        <ele>62.2</ele>
        <time>2018-03-17T11:24:17Z</time>
      </trkpt>
      <trkpt lat="62.658515510129" lon="17.849766759167">
        <ele>61.8</ele>
        <time>2018-03-17T11:24:18Z</time>
      </trkpt>
      <trkpt lat="62.658489190963" lon="17.849816128558">
        <ele>61.6</ele>
        <time>2018-03-17T11:24:19Z</time>
      </trkpt>
      <trkpt lat="62.658480306149" lon="17.849852086909">
        <ele>61.2</ele>
        <time>2018-03-17T11:24:20Z</time>
      </trkpt>
      <trkpt lat="62.658453148793" lon="17.849866000863">
        <ele>61</ele>
        <time>2018-03-17T11:24:21Z</time>
      </trkpt>
      <trkpt lat="62.658428841283" lon="17.849869856537">
        <ele>61</ele>
        <time>2018-03-17T11:24:22Z</time>
      </trkpt>
      <trkpt lat="62.658405791058" lon="17.849868096338">
        <ele>61</ele>
        <time>2018-03-17T11:24:23Z</time>
      </trkpt>
      <trkpt lat="62.658380980634" lon="17.849865330311">
        <ele>61.2</ele>
        <time>2018-03-17T11:24:24Z</time>
      </trkpt>
      <trkpt lat="62.658363965377" lon="17.849865581768">
        <ele>61.6</ele>
        <time>2018-03-17T11:24:25Z</time>
      </trkpt>
      <trkpt lat="62.658344854645" lon="17.849868180157">
        <ele>62.2</ele>
        <time>2018-03-17T11:24:26Z</time>
      </trkpt>
      <trkpt lat="62.65831761347" lon="17.849867509605">
        <ele>62.4</ele>
        <time>2018-03-17T11:24:27Z</time>
      </trkpt>
      <trkpt lat="62.658291378123" lon="17.849872622564">
        <ele>62.8</ele>
        <time>2018-03-17T11:24:28Z</time>
      </trkpt>
      <trkpt lat="62.658282325671" lon="17.849877735523">
        <ele>62.8</ele>
        <time>2018-03-17T11:24:29Z</time>
      </trkpt>
      <trkpt lat="62.658245780587" lon="17.8498763106">
        <ele>63</ele>
        <time>2018-03-17T11:24:30Z</time>
      </trkpt>
      <trkpt lat="62.658216360118" lon="17.849876478238">
        <ele>63</ele>
        <time>2018-03-17T11:24:31Z</time>
      </trkpt>
      <trkpt lat="62.658201524155" lon="17.84988385431">
        <ele>63</ele>
        <time>2018-03-17T11:24:32Z</time>
      </trkpt>
      <trkpt lat="62.658168164193" lon="17.849876226781">
        <ele>63.2</ele>
        <time>2018-03-17T11:24:33Z</time>
      </trkpt>
      <trkpt lat="62.658144024321" lon="17.8498763106">
        <ele>63.2</ele>
        <time>2018-03-17T11:24:34Z</time>
      </trkpt>
      <trkpt lat="62.658118710983" lon="17.849883770491">
        <ele>63.4</ele>
        <time>2018-03-17T11:24:35Z</time>
      </trkpt>
      <trkpt lat="62.658084345193" lon="17.849877232609">
        <ele>63.4</ele>
        <time>2018-03-17T11:24:36Z</time>
      </trkpt>
      <trkpt lat="62.658061714063" lon="17.849891481839">
        <ele>63.4</ele>
        <time>2018-03-17T11:24:37Z</time>
      </trkpt>
      <trkpt lat="62.658040675494" lon="17.849894331685">
        <ele>63.4</ele>
        <time>2018-03-17T11:24:38Z</time>
      </trkpt>
      <trkpt lat="62.658007399351" lon="17.849894247866">
        <ele>63.4</ele>
        <time>2018-03-17T11:24:39Z</time>
      </trkpt>
      <trkpt lat="62.657988623895" lon="17.849905982526">
        <ele>63.4</ele>
        <time>2018-03-17T11:24:40Z</time>
      </trkpt>
      <trkpt lat="62.657965070756" lon="17.849909754381">
        <ele>63.4</ele>
        <time>2018-03-17T11:24:41Z</time>
      </trkpt>
      <trkpt lat="62.657935734106" lon="17.849911263123">
        <ele>63.4</ele>
        <time>2018-03-17T11:24:42Z</time>
      </trkpt>
      <trkpt lat="62.657914946994" lon="17.849913274779">
        <ele>63.4</ele>
        <time>2018-03-17T11:24:43Z</time>
      </trkpt>
      <trkpt lat="62.657900027212" lon="17.849918303919">
        <ele>63.4</ele>
        <time>2018-03-17T11:24:44Z</time>
      </trkpt>
      <trkpt lat="62.657882173765" lon="17.849916124625">
        <ele>63.4</ele>
        <time>2018-03-17T11:24:45Z</time>
      </trkpt>
      <trkpt lat="62.65786415268" lon="17.849914615883">
        <ele>63.6</ele>
        <time>2018-03-17T11:24:46Z</time>
      </trkpt>
      <trkpt lat="62.657849149079" lon="17.849913610055">
        <ele>64</ele>
        <time>2018-03-17T11:24:47Z</time>
      </trkpt>
      <trkpt lat="62.65782224318" lon="17.849902713585">
        <ele>64.2</ele>
        <time>2018-03-17T11:24:48Z</time>
      </trkpt>
      <trkpt lat="62.657801623706" lon="17.849894583142">
        <ele>64.6</ele>
        <time>2018-03-17T11:24:49Z</time>
      </trkpt>
      <trkpt lat="62.657782429155" lon="17.849885698328">
        <ele>65.2</ele>
        <time>2018-03-17T11:24:50Z</time>
      </trkpt>
      <trkpt lat="62.657763066966" lon="17.849880669188">
        <ele>65.6</ele>
        <time>2018-03-17T11:24:51Z</time>
      </trkpt>
      <trkpt lat="62.657743537139" lon="17.849882513206">
        <ele>65.8</ele>
        <time>2018-03-17T11:24:52Z</time>
      </trkpt>
      <trkpt lat="62.657721995656" lon="17.849878238437">
        <ele>66.2</ele>
        <time>2018-03-17T11:24:53Z</time>
      </trkpt>
      <trkpt lat="62.657695341214" lon="17.849870527089">
        <ele>66.2</ele>
        <time>2018-03-17T11:24:54Z</time>
      </trkpt>
      <trkpt lat="62.657680672889" lon="17.849878741351">
        <ele>66.2</ele>
        <time>2018-03-17T11:24:55Z</time>
      </trkpt>
      <trkpt lat="62.657656533017" lon="17.849879411903">
        <ele>66.2</ele>
        <time>2018-03-17T11:24:56Z</time>
      </trkpt>
      <trkpt lat="62.657626609634" lon="17.849876645876">
        <ele>66.2</ele>
        <time>2018-03-17T11:24:57Z</time>
      </trkpt>
      <trkpt lat="62.657601883029" lon="17.849885363052">
        <ele>66.2</ele>
        <time>2018-03-17T11:24:58Z</time>
      </trkpt>
      <trkpt lat="62.657586627971" lon="17.849894080228">
        <ele>66.2</ele>
        <time>2018-03-17T11:24:59Z</time>
      </trkpt>
      <trkpt lat="62.657562488099" lon="17.84990313268">
        <ele>66.2</ele>
        <time>2018-03-17T11:25:00Z</time>
      </trkpt>
      <trkpt lat="62.657545389023" lon="17.849913777693">
        <ele>66.4</ele>
        <time>2018-03-17T11:25:01Z</time>
      </trkpt>
      <trkpt lat="62.657522422617" lon="17.849919812661">
        <ele>66.6</ele>
        <time>2018-03-17T11:25:02Z</time>
      </trkpt>
      <trkpt lat="62.657506413188" lon="17.849925177077">
        <ele>66.8</ele>
        <time>2018-03-17T11:25:03Z</time>
      </trkpt>
      <trkpt lat="62.657488895017" lon="17.849933391339">
        <ele>67</ele>
        <time>2018-03-17T11:25:04Z</time>
      </trkpt>
      <trkpt lat="62.657475819253" lon="17.849940432135">
        <ele>67.2</ele>
        <time>2018-03-17T11:25:05Z</time>
      </trkpt>
      <trkpt lat="62.657461234747" lon="17.849946215646">
        <ele>67.4</ele>
        <time>2018-03-17T11:25:06Z</time>
      </trkpt>
      <trkpt lat="62.657448075164" lon="17.849953004985">
        <ele>67.6</ele>
        <time>2018-03-17T11:25:07Z</time>
      </trkpt>
      <trkpt lat="62.657433658296" lon="17.849957112116">
        <ele>67.8</ele>
        <time>2018-03-17T11:25:08Z</time>
      </trkpt>
      <trkpt lat="62.657420079618" lon="17.849961889799">
        <ele>68</ele>
        <time>2018-03-17T11:25:09Z</time>
      </trkpt>
      <trkpt lat="62.657407003854" lon="17.849962476532">
        <ele>68.4</ele>
        <time>2018-03-17T11:25:10Z</time>
      </trkpt>
      <trkpt lat="62.657397364669" lon="17.849966583663">
        <ele>68.6</ele>
        <time>2018-03-17T11:25:11Z</time>
      </trkpt>
      <trkpt lat="62.657388228398" lon="17.849975384658">
        <ele>69</ele>
        <time>2018-03-17T11:25:12Z</time>
      </trkpt>
      <trkpt lat="62.65737045877" lon="17.849982090178">
        <ele>69.2</ele>
        <time>2018-03-17T11:25:13Z</time>
      </trkpt>
      <trkpt lat="62.657353611151" lon="17.84999281901">
        <ele>69.6</ele>
        <time>2018-03-17T11:25:14Z</time>
      </trkpt>
      <trkpt lat="62.657337685541" lon="17.850003128747">
        <ele>69.8</ele>
        <time>2018-03-17T11:25:15Z</time>
      </trkpt>
      <trkpt lat="62.657322346664" lon="17.850009750448">
        <ele>70</ele>
        <time>2018-03-17T11:25:16Z</time>
      </trkpt>
      <trkpt lat="62.657310863461" lon="17.850017377977">
        <ele>70.2</ele>
        <time>2018-03-17T11:25:17Z</time>
      </trkpt>
      <trkpt lat="62.65729753624" lon="17.85002802299">
        <ele>70.4</ele>
        <time>2018-03-17T11:25:18Z</time>
      </trkpt>
      <trkpt lat="62.657285633942" lon="17.850034393234">
        <ele>70.6</ele>
        <time>2018-03-17T11:25:19Z</time>
      </trkpt>
      <trkpt lat="62.657267277581" lon="17.850046546989">
        <ele>70.8</ele>
        <time>2018-03-17T11:25:20Z</time>
      </trkpt>
      <trkpt lat="62.65725395036" lon="17.850050905577">
        <ele>71</ele>
        <time>2018-03-17T11:25:21Z</time>
      </trkpt>
      <trkpt lat="62.65724640665" lon="17.850057694916">
        <ele>71.2</ele>
        <time>2018-03-17T11:25:22Z</time>
      </trkpt>
      <trkpt lat="62.657237438017" lon="17.850065490083">
        <ele>71.4</ele>
        <time>2018-03-17T11:25:23Z</time>
      </trkpt>
      <trkpt lat="62.657220171303" lon="17.850075967458">
        <ele>71.6</ele>
        <time>2018-03-17T11:25:24Z</time>
      </trkpt>
      <trkpt lat="62.657204916245" lon="17.85009088724">
        <ele>71.8</ele>
        <time>2018-03-17T11:25:25Z</time>
      </trkpt>
      <trkpt lat="62.65719276249" lon="17.850098179493">
        <ele>72.2</ele>
        <time>2018-03-17T11:25:26Z</time>
      </trkpt>
      <trkpt lat="62.657183793857" lon="17.850109159782">
        <ele>72.2</ele>
        <time>2018-03-17T11:25:27Z</time>
      </trkpt>
      <trkpt lat="62.657170550455" lon="17.850121732632">
        <ele>72.6</ele>
        <time>2018-03-17T11:25:28Z</time>
      </trkpt>
      <trkpt lat="62.657156385044" lon="17.85013279674">
        <ele>72.8</ele>
        <time>2018-03-17T11:25:29Z</time>
      </trkpt>
      <trkpt lat="62.657138699235" lon="17.850145034314">
        <ele>73</ele>
        <time>2018-03-17T11:25:30Z</time>
      </trkpt>
      <trkpt lat="62.657123947091" lon="17.850160624648">
        <ele>73.4</ele>
        <time>2018-03-17T11:25:31Z</time>
      </trkpt>
      <trkpt lat="62.657110703689" lon="17.85016716253">
        <ele>73.6</ele>
        <time>2018-03-17T11:25:32Z</time>
      </trkpt>
      <trkpt lat="62.657101986513" lon="17.850178645733">
        <ele>73.8</ele>
        <time>2018-03-17T11:25:33Z</time>
      </trkpt>
      <trkpt lat="62.6570913415" lon="17.850188620194">
        <ele>74.2</ele>
        <time>2018-03-17T11:25:34Z</time>
      </trkpt>
      <trkpt lat="62.657085641808" lon="17.850193565515">
        <ele>74.2</ele>
        <time>2018-03-17T11:25:35Z</time>
      </trkpt>
      <trkpt lat="62.657064770877" lon="17.850208401478">
        <ele>74.6</ele>
        <time>2018-03-17T11:25:36Z</time>
      </trkpt>
      <trkpt lat="62.657054712597" lon="17.850220219957">
        <ele>74.8</ele>
        <time>2018-03-17T11:25:37Z</time>
      </trkpt>
      <trkpt lat="62.65703937372" lon="17.850229523866">
        <ele>75</ele>
        <time>2018-03-17T11:25:38Z</time>
      </trkpt>
      <trkpt lat="62.65702931544" lon="17.85023421773">
        <ele>75.2</ele>
        <time>2018-03-17T11:25:39Z</time>
      </trkpt>
      <trkpt lat="62.657009534156" lon="17.850246036209">
        <ele>75.4</ele>
        <time>2018-03-17T11:25:40Z</time>
      </trkpt>
      <trkpt lat="62.656991429252" lon="17.850249472788">
        <ele>75.8</ele>
        <time>2018-03-17T11:25:41Z</time>
      </trkpt>
      <trkpt lat="62.656973491986" lon="17.850253328462">
        <ele>76</ele>
        <time>2018-03-17T11:25:42Z</time>
      </trkpt>
      <trkpt lat="62.656960667679" lon="17.850255340118">
        <ele>76.2</ele>
        <time>2018-03-17T11:25:43Z</time>
      </trkpt>
      <trkpt lat="62.656949100657" lon="17.850253663738">
        <ele>76.4</ele>
        <time>2018-03-17T11:25:44Z</time>
      </trkpt>
      <trkpt lat="62.656932504495" lon="17.850248969874">
        <ele>76.6</ele>
        <time>2018-03-17T11:25:45Z</time>
      </trkpt>
      <trkpt lat="62.656914148134" lon="17.850248215503">
        <ele>76.8</ele>
        <time>2018-03-17T11:25:46Z</time>
      </trkpt>
      <trkpt lat="62.656900737094" lon="17.850243856915">
        <ele>77</ele>
        <time>2018-03-17T11:25:47Z</time>
      </trkpt>
      <trkpt lat="62.656879614706" lon="17.850237402852">
        <ele>77.2</ele>
        <time>2018-03-17T11:25:48Z</time>
      </trkpt>
      <trkpt lat="62.656861258345" lon="17.850228266581">
        <ele>77.2</ele>
        <time>2018-03-17T11:25:49Z</time>
      </trkpt>
      <trkpt lat="62.656844662183" lon="17.850227344572">
        <ele>77.4</ele>
        <time>2018-03-17T11:25:50Z</time>
      </trkpt>
      <trkpt lat="62.65683317898" lon="17.850223237441">
        <ele>77.6</ele>
        <time>2018-03-17T11:25:51Z</time>
      </trkpt>
      <trkpt lat="62.656813313877" lon="17.850217873025">
        <ele>77.6</ele>
        <time>2018-03-17T11:25:52Z</time>
      </trkpt>
      <trkpt lat="62.656799819018" lon="17.850214352627">
        <ele>77.8</ele>
        <time>2018-03-17T11:25:53Z</time>
      </trkpt>
      <trkpt lat="62.656774840956" lon="17.850205467813">
        <ele>78</ele>
        <time>2018-03-17T11:25:54Z</time>
      </trkpt>
      <trkpt lat="62.656760172631" lon="17.850201863596">
        <ele>78.2</ele>
        <time>2018-03-17T11:25:55Z</time>
      </trkpt>
      <trkpt lat="62.656743241193" lon="17.85018727909">
        <ele>78.2</ele>
        <time>2018-03-17T11:25:56Z</time>
      </trkpt>
      <trkpt lat="62.656715161828" lon="17.850186021805">
        <ele>78.4</ele>
        <time>2018-03-17T11:25:57Z</time>
      </trkpt>
      <trkpt lat="62.656706696109" lon="17.850190296574">
        <ele>78.4</ele>
        <time>2018-03-17T11:25:58Z</time>
      </trkpt>
      <trkpt lat="62.656680460762" lon="17.850186776176">
        <ele>78.4</ele>
        <time>2018-03-17T11:25:59Z</time>
      </trkpt>
      <trkpt lat="62.656674006699" lon="17.850189877479">
        <ele>78.6</ele>
        <time>2018-03-17T11:26:00Z</time>
      </trkpt>
      <trkpt lat="62.656651543207" lon="17.850187865823">
        <ele>78.6</ele>
        <time>2018-03-17T11:26:01Z</time>
      </trkpt>
      <trkpt lat="62.656632097199" lon="17.850182501407">
        <ele>78.6</ele>
        <time>2018-03-17T11:26:02Z</time>
      </trkpt>
      <trkpt lat="62.656611310087" lon="17.850182082312">
        <ele>78.8</ele>
        <time>2018-03-17T11:26:03Z</time>
      </trkpt>
      <trkpt lat="62.656595468296" lon="17.850184010149">
        <ele>78.8</ele>
        <time>2018-03-17T11:26:04Z</time>
      </trkpt>
      <trkpt lat="62.656579458867" lon="17.850189123108">
        <ele>79</ele>
        <time>2018-03-17T11:26:05Z</time>
      </trkpt>
      <trkpt lat="62.656554396986" lon="17.85019063185">
        <ele>79</ele>
        <time>2018-03-17T11:26:06Z</time>
      </trkpt>
      <trkpt lat="62.656543249059" lon="17.850200103397">
        <ele>79.2</ele>
        <time>2018-03-17T11:26:07Z</time>
      </trkpt>
      <trkpt lat="62.656506620156" lon="17.850205300175">
        <ele>79.4</ele>
        <time>2018-03-17T11:26:08Z</time>
      </trkpt>
      <trkpt lat="62.656490946003" lon="17.850222902165">
        <ele>79.4</ele>
        <time>2018-03-17T11:26:09Z</time>
      </trkpt>
      <trkpt lat="62.656467476683" lon="17.850239665965">
        <ele>79.6</ele>
        <time>2018-03-17T11:26:10Z</time>
      </trkpt>
      <trkpt lat="62.656444510277" lon="17.850243773096">
        <ele>79.6</ele>
        <time>2018-03-17T11:26:11Z</time>
      </trkpt>
      <trkpt lat="62.656417269102" lon="17.85025601067">
        <ele>79.6</ele>
        <time>2018-03-17T11:26:12Z</time>
      </trkpt>
      <trkpt lat="62.656402265501" lon="17.850272690651">
        <ele>79.6</ele>
        <time>2018-03-17T11:26:13Z</time>
      </trkpt>
      <trkpt lat="62.656384579692" lon="17.850289454451">
        <ele>79.6</ele>
        <time>2018-03-17T11:26:14Z</time>
      </trkpt>
      <trkpt lat="62.656358428164" lon="17.850305715337">
        <ele>79.8</ele>
        <time>2018-03-17T11:26:15Z</time>
      </trkpt>
      <trkpt lat="62.656340071803" lon="17.850323736422">
        <ele>80</ele>
        <time>2018-03-17T11:26:16Z</time>
      </trkpt>
      <trkpt lat="62.656326493125" lon="17.850341254593">
        <ele>80.2</ele>
        <time>2018-03-17T11:26:17Z</time>
      </trkpt>
      <trkpt lat="62.656307969126" lon="17.850359610954">
        <ele>80.4</ele>
        <time>2018-03-17T11:26:18Z</time>
      </trkpt>
      <trkpt lat="62.656298497579" lon="17.850366567931">
        <ele>80.6</ele>
        <time>2018-03-17T11:26:19Z</time>
      </trkpt>
      <trkpt lat="62.656288439299" lon="17.850377967315">
        <ele>80.8</ele>
        <time>2018-03-17T11:26:20Z</time>
      </trkpt>
      <trkpt lat="62.656272010775" lon="17.850393725287">
        <ele>81</ele>
        <time>2018-03-17T11:26:21Z</time>
      </trkpt>
      <trkpt lat="62.656257845364" lon="17.850408980345">
        <ele>81.4</ele>
        <time>2018-03-17T11:26:22Z</time>
      </trkpt>
      <trkpt lat="62.656245440152" lon="17.850421469376">
        <ele>81.4</ele>
        <time>2018-03-17T11:26:23Z</time>
      </trkpt>
      <trkpt lat="62.656234795139" lon="17.850437981719">
        <ele>81.6</ele>
        <time>2018-03-17T11:26:24Z</time>
      </trkpt>
      <trkpt lat="62.65622549123" lon="17.850446615076">
        <ele>81.8</ele>
        <time>2018-03-17T11:26:25Z</time>
      </trkpt>
      <trkpt lat="62.656214008027" lon="17.850459858478">
        <ele>82.2</ele>
        <time>2018-03-17T11:26:26Z</time>
      </trkpt>
      <trkpt lat="62.656197495684" lon="17.850471928414">
        <ele>82.4</ele>
        <time>2018-03-17T11:26:27Z</time>
      </trkpt>
      <trkpt lat="62.656181486255" lon="17.850487434929">
        <ele>82.6</ele>
        <time>2018-03-17T11:26:28Z</time>
      </trkpt>
      <trkpt lat="62.656169500138" lon="17.85049992396">
        <ele>82.8</ele>
        <time>2018-03-17T11:26:29Z</time>
      </trkpt>
      <trkpt lat="62.656154161261" lon="17.850512999724">
        <ele>83</ele>
        <time>2018-03-17T11:26:30Z</time>
      </trkpt>
      <trkpt lat="62.656143264791" lon="17.850529679705">
        <ele>83.4</ele>
        <time>2018-03-17T11:26:31Z</time>
      </trkpt>
      <trkpt lat="62.656128847923" lon="17.850545940591">
        <ele>83.6</ele>
        <time>2018-03-17T11:26:32Z</time>
      </trkpt>
      <trkpt lat="62.656113006132" lon="17.85056111183">
        <ele>83.8</ele>
        <time>2018-03-17T11:26:33Z</time>
      </trkpt>
      <trkpt lat="62.656097834893" lon="17.850579971105">
        <ele>84.2</ele>
        <time>2018-03-17T11:26:34Z</time>
      </trkpt>
      <trkpt lat="62.656083082749" lon="17.850591873403">
        <ele>84.4</ele>
        <time>2018-03-17T11:26:35Z</time>
      </trkpt>
      <trkpt lat="62.656071515727" lon="17.850606122633">
        <ele>84.6</ele>
        <time>2018-03-17T11:26:36Z</time>
      </trkpt>
      <trkpt lat="62.656059697248" lon="17.850622718795">
        <ele>85</ele>
        <time>2018-03-17T11:26:37Z</time>
      </trkpt>
      <trkpt lat="62.656043268724" lon="17.850637051844">
        <ele>85.2</ele>
        <time>2018-03-17T11:26:38Z</time>
      </trkpt>
      <trkpt lat="62.656033210444" lon="17.850651301074">
        <ele>85.2</ele>
        <time>2018-03-17T11:26:39Z</time>
      </trkpt>
      <trkpt lat="62.656019128852" lon="17.850667981055">
        <ele>85.4</ele>
        <time>2018-03-17T11:26:40Z</time>
      </trkpt>
      <trkpt lat="62.656009322029" lon="17.850683655208">
        <ele>85.6</ele>
        <time>2018-03-17T11:26:41Z</time>
      </trkpt>
      <trkpt lat="62.655996581541" lon="17.850701843931">
        <ele>85.8</ele>
        <time>2018-03-17T11:26:42Z</time>
      </trkpt>
      <trkpt lat="62.655980823569" lon="17.850721457577">
        <ele>86</ele>
        <time>2018-03-17T11:26:43Z</time>
      </trkpt>
      <trkpt lat="62.655965903787" lon="17.850734868617">
        <ele>86.2</ele>
        <time>2018-03-17T11:26:44Z</time>
      </trkpt>
      <trkpt lat="62.655951906014" lon="17.85075808648">
        <ele>86.4</ele>
        <time>2018-03-17T11:26:45Z</time>
      </trkpt>
      <trkpt lat="62.655938075879" lon="17.850773090081">
        <ele>86.6</ele>
        <time>2018-03-17T11:26:46Z</time>
      </trkpt>
      <trkpt lat="62.655927598504" lon="17.850788009863">
        <ele>86.6</ele>
        <time>2018-03-17T11:26:47Z</time>
      </trkpt>
      <trkpt lat="62.655914271283" lon="17.850810976269">
        <ele>87</ele>
        <time>2018-03-17T11:26:48Z</time>
      </trkpt>
      <trkpt lat="62.655896501655" lon="17.850817262694">
        <ele>87</ele>
        <time>2018-03-17T11:26:49Z</time>
      </trkpt>
      <trkpt lat="62.655883928805" lon="17.850834445589">
        <ele>87.2</ele>
        <time>2018-03-17T11:26:50Z</time>
      </trkpt>
      <trkpt lat="62.655872445602" lon="17.850846012611">
        <ele>87.4</ele>
        <time>2018-03-17T11:26:51Z</time>
      </trkpt>
      <trkpt lat="62.655862303503" lon="17.850864955705">
        <ele>87.6</ele>
        <time>2018-03-17T11:26:52Z</time>
      </trkpt>
      <trkpt lat="62.655852664318" lon="17.850878702021">
        <ele>87.8</ele>
        <time>2018-03-17T11:26:53Z</time>
      </trkpt>
      <trkpt lat="62.655841181115" lon="17.850898567124">
        <ele>88.2</ele>
        <time>2018-03-17T11:26:54Z</time>
      </trkpt>
      <trkpt lat="62.655825842238" lon="17.850919102779">
        <ele>88.4</ele>
        <time>2018-03-17T11:26:55Z</time>
      </trkpt>
      <trkpt lat="62.655812431198" lon="17.850934441656">
        <ele>88.6</ele>
        <time>2018-03-17T11:26:56Z</time>
      </trkpt>
      <trkpt lat="62.655805641859" lon="17.850946846868">
        <ele>89</ele>
        <time>2018-03-17T11:26:57Z</time>
      </trkpt>
      <trkpt lat="62.655795332122" lon="17.850960593184">
        <ele>89.2</ele>
        <time>2018-03-17T11:26:58Z</time>
      </trkpt>
      <trkpt lat="62.655788375145" lon="17.850974004224">
        <ele>89.6</ele>
        <time>2018-03-17T11:26:59Z</time>
      </trkpt>
      <trkpt lat="62.655777478675" lon="17.850987247626">
        <ele>90</ele>
        <time>2018-03-17T11:27:00Z</time>
      </trkpt>
      <trkpt lat="62.655762475074" lon="17.851010214032">
        <ele>90.2</ele>
        <time>2018-03-17T11:27:01Z</time>
      </trkpt>
      <trkpt lat="62.655746633283" lon="17.851033096619">
        <ele>90.4</ele>
        <time>2018-03-17T11:27:02Z</time>
      </trkpt>
      <trkpt lat="62.655735317718" lon="17.851053548455">
        <ele>90.6</ele>
        <time>2018-03-17T11:27:03Z</time>
      </trkpt>
      <trkpt lat="62.655722074316" lon="17.851085567313">
        <ele>90.8</ele>
        <time>2018-03-17T11:27:04Z</time>
      </trkpt>
      <trkpt lat="62.655704388507" lon="17.851104510407">
        <ele>91</ele>
        <time>2018-03-17T11:27:05Z</time>
      </trkpt>
      <trkpt lat="62.655681254463" lon="17.851135942532">
        <ele>91</ele>
        <time>2018-03-17T11:27:06Z</time>
      </trkpt>
      <trkpt lat="62.655670190355" lon="17.851165949734">
        <ele>91.2</ele>
        <time>2018-03-17T11:27:07Z</time>
      </trkpt>
      <trkpt lat="62.655639428782" lon="17.851196208393">
        <ele>91.4</ele>
        <time>2018-03-17T11:27:08Z</time>
      </trkpt>
      <trkpt lat="62.65562534719" lon="17.851217246962">
        <ele>91.4</ele>
        <time>2018-03-17T11:27:09Z</time>
      </trkpt>
      <trkpt lat="62.655597770739" lon="17.851255216969">
        <ele>91.4</ele>
        <time>2018-03-17T11:27:10Z</time>
      </trkpt>
      <trkpt lat="62.655588969744" lon="17.851276590814">
        <ele>91.4</ele>
        <time>2018-03-17T11:27:11Z</time>
      </trkpt>
      <trkpt lat="62.655563572587" lon="17.851311124242">
        <ele>91.4</ele>
        <time>2018-03-17T11:27:12Z</time>
      </trkpt>
      <trkpt lat="62.655540019448" lon="17.85133392301">
        <ele>91.4</ele>
        <time>2018-03-17T11:27:13Z</time>
      </trkpt>
      <trkpt lat="62.655528284788" lon="17.851350100077">
        <ele>91.2</ele>
        <time>2018-03-17T11:27:14Z</time>
      </trkpt>
      <trkpt lat="62.655512862092" lon="17.851366193325">
        <ele>91.4</ele>
        <time>2018-03-17T11:27:15Z</time>
      </trkpt>
      <trkpt lat="62.655503474364" lon="17.851384130591">
        <ele>91.4</ele>
        <time>2018-03-17T11:27:16Z</time>
      </trkpt>
      <trkpt lat="62.655490063324" lon="17.851400810572">
        <ele>91.6</ele>
        <time>2018-03-17T11:27:17Z</time>
      </trkpt>
      <trkpt lat="62.655470198221" lon="17.851429728127">
        <ele>91.8</ele>
        <time>2018-03-17T11:27:18Z</time>
      </trkpt>
      <trkpt lat="62.655455110801" lon="17.851454119456">
        <ele>92.2</ele>
        <time>2018-03-17T11:27:19Z</time>
      </trkpt>
      <trkpt lat="62.655443208503" lon="17.851482031183">
        <ele>92.6</ele>
        <time>2018-03-17T11:27:20Z</time>
      </trkpt>
      <trkpt lat="62.655427869626" lon="17.851498040612">
        <ele>92.8</ele>
        <time>2018-03-17T11:27:21Z</time>
      </trkpt>
      <trkpt lat="62.655420493554" lon="17.851522431941">
        <ele>93</ele>
        <time>2018-03-17T11:27:22Z</time>
      </trkpt>
      <trkpt lat="62.655408675075" lon="17.85153927956">
        <ele>93.2</ele>
        <time>2018-03-17T11:27:23Z</time>
      </trkpt>
      <trkpt lat="62.655394258207" lon="17.851565179631">
        <ele>93.2</ele>
        <time>2018-03-17T11:27:24Z</time>
      </trkpt>
      <trkpt lat="62.655370285973" lon="17.851589487141">
        <ele>93.4</ele>
        <time>2018-03-17T11:27:25Z</time>
      </trkpt>
      <trkpt lat="62.655354444182" lon="17.851611699176">
        <ele>93.6</ele>
        <time>2018-03-17T11:27:26Z</time>
      </trkpt>
      <trkpt lat="62.655339272943" lon="17.851635252315">
        <ele>93.8</ele>
        <time>2018-03-17T11:27:27Z</time>
      </trkpt>
      <trkpt lat="62.655317899098" lon="17.851686214267">
        <ele>94</ele>
        <time>2018-03-17T11:27:28Z</time>
      </trkpt>
      <trkpt lat="62.655302727859" lon="17.851730805975">
        <ele>94.2</ele>
        <time>2018-03-17T11:27:29Z</time>
      </trkpt>
      <trkpt lat="62.655280432005" lon="17.85177229638">
        <ele>94.4</ele>
        <time>2018-03-17T11:27:30Z</time>
      </trkpt>
      <trkpt lat="62.655259980169" lon="17.851813032414">
        <ele>94.4</ele>
        <time>2018-03-17T11:27:31Z</time>
      </trkpt>
      <trkpt lat="62.655251430631" lon="17.851859216683">
        <ele>94.4</ele>
        <time>2018-03-17T11:27:32Z</time>
      </trkpt>
      <trkpt lat="62.655229134777" lon="17.851897857242">
        <ele>94.2</ele>
        <time>2018-03-17T11:27:33Z</time>
      </trkpt>
      <trkpt lat="62.65520709038" lon="17.851942616588">
        <ele>94</ele>
        <time>2018-03-17T11:27:34Z</time>
      </trkpt>
      <trkpt lat="62.655199043756" lon="17.851969690125">
        <ele>94</ele>
        <time>2018-03-17T11:27:35Z</time>
      </trkpt>
      <trkpt lat="62.655181525585" lon="17.852014449471">
        <ele>94</ele>
        <time>2018-03-17T11:27:36Z</time>
      </trkpt>
      <trkpt lat="62.655162163396" lon="17.852061974844">
        <ele>94</ele>
        <time>2018-03-17T11:27:37Z</time>
      </trkpt>
      <trkpt lat="62.655154871143" lon="17.852098436109">
        <ele>94.2</ele>
        <time>2018-03-17T11:27:38Z</time>
      </trkpt>
      <trkpt lat="62.655143052664" lon="17.852135819383">
        <ele>94.2</ele>
        <time>2018-03-17T11:27:39Z</time>
      </trkpt>
      <trkpt lat="62.655130060719" lon="17.852187954801">
        <ele>94.2</ele>
        <time>2018-03-17T11:27:40Z</time>
      </trkpt>
      <trkpt lat="62.655126288864" lon="17.852220476573">
        <ele>94.4</ele>
        <time>2018-03-17T11:27:41Z</time>
      </trkpt>
      <trkpt lat="62.655112794005" lon="17.852276970579">
        <ele>94.4</ele>
        <time>2018-03-17T11:27:42Z</time>
      </trkpt>
      <trkpt lat="62.655112207272" lon="17.852330111825">
        <ele>94.4</ele>
        <time>2018-03-17T11:27:43Z</time>
      </trkpt>
      <trkpt lat="62.655111871996" lon="17.852385097089">
        <ele>94.4</ele>
        <time>2018-03-17T11:27:44Z</time>
      </trkpt>
      <trkpt lat="62.65510734577" lon="17.852463886949">
        <ele>94.4</ele>
        <time>2018-03-17T11:27:45Z</time>
      </trkpt>
      <trkpt lat="62.655111788177" lon="17.852515687091">
        <ele>94.6</ele>
        <time>2018-03-17T11:27:46Z</time>
      </trkpt>
      <trkpt lat="62.655106339942" lon="17.852602691213">
        <ele>94.6</ele>
        <time>2018-03-17T11:27:47Z</time>
      </trkpt>
      <trkpt lat="62.655109105969" lon="17.852665471644">
        <ele>94.6</ele>
        <time>2018-03-17T11:27:48Z</time>
      </trkpt>
      <trkpt lat="62.655110195616" lon="17.85274124402">
        <ele>94.6</ele>
        <time>2018-03-17T11:27:49Z</time>
      </trkpt>
      <trkpt lat="62.655110363254" lon="17.852811316704">
        <ele>94.4</ele>
        <time>2018-03-17T11:27:50Z</time>
      </trkpt>
      <trkpt lat="62.655111452901" lon="17.85286781071">
        <ele>94.4</ele>
        <time>2018-03-17T11:27:51Z</time>
      </trkpt>
      <trkpt lat="62.655105250295" lon="17.852950288606">
        <ele>94.2</ele>
        <time>2018-03-17T11:27:52Z</time>
      </trkpt>
      <trkpt lat="62.655103238639" lon="17.853006614974">
        <ele>94.2</ele>
        <time>2018-03-17T11:27:53Z</time>
      </trkpt>
      <trkpt lat="62.655099466784" lon="17.853060091496">
        <ele>94</ele>
        <time>2018-03-17T11:27:54Z</time>
      </trkpt>
      <trkpt lat="62.655087815943" lon="17.853133349302">
        <ele>94</ele>
        <time>2018-03-17T11:27:55Z</time>
      </trkpt>
      <trkpt lat="62.655083122079" lon="17.85318045558">
        <ele>94</ele>
        <time>2018-03-17T11:27:56Z</time>
      </trkpt>
      <trkpt lat="62.655074740179" lon="17.853210295144">
        <ele>94</ele>
        <time>2018-03-17T11:27:57Z</time>
      </trkpt>
      <trkpt lat="62.655063843709" lon="17.853243487468">
        <ele>93.8</ele>
        <time>2018-03-17T11:27:58Z</time>
      </trkpt>
      <trkpt lat="62.655051941411" lon="17.853280284009">
        <ele>94</ele>
        <time>2018-03-17T11:27:59Z</time>
      </trkpt>
      <trkpt lat="62.655036602534" lon="17.853320936224">
        <ele>94.2</ele>
        <time>2018-03-17T11:28:00Z</time>
      </trkpt>
      <trkpt lat="62.655021347476" lon="17.853351781616">
        <ele>94.4</ele>
        <time>2018-03-17T11:28:01Z</time>
      </trkpt>
      <trkpt lat="62.655006176237" lon="17.853392936745">
        <ele>94.6</ele>
        <time>2018-03-17T11:28:02Z</time>
      </trkpt>
      <trkpt lat="62.654993771025" lon="17.853425542336">
        <ele>95</ele>
        <time>2018-03-17T11:28:03Z</time>
      </trkpt>
      <trkpt lat="62.654982958374" lon="17.8534637638">
        <ele>95.2</ele>
        <time>2018-03-17T11:28:04Z</time>
      </trkpt>
      <trkpt lat="62.654962590357" lon="17.85352076072">
        <ele>95.2</ele>
        <time>2018-03-17T11:28:05Z</time>
      </trkpt>
      <trkpt lat="62.654949179317" lon="17.853563173134">
        <ele>95.2</ele>
        <time>2018-03-17T11:28:06Z</time>
      </trkpt>
      <trkpt lat="62.654936941743" lon="17.853605501729">
        <ele>95.4</ele>
        <time>2018-03-17T11:28:07Z</time>
      </trkpt>
      <trkpt lat="62.654915651717" lon="17.85366576759">
        <ele>95.4</ele>
        <time>2018-03-17T11:28:08Z</time>
      </trkpt>
      <trkpt lat="62.654909113835" lon="17.853700301018">
        <ele>95.6</ele>
        <time>2018-03-17T11:28:09Z</time>
      </trkpt>
      <trkpt lat="62.654894948424" lon="17.853752352617">
        <ele>95.6</ele>
        <time>2018-03-17T11:28:10Z</time>
      </trkpt>
      <trkpt lat="62.654871730561" lon="17.853812367021">
        <ele>95.8</ele>
        <time>2018-03-17T11:28:11Z</time>
      </trkpt>
      <trkpt lat="62.654870724733" lon="17.853846984268">
        <ele>95.8</ele>
        <time>2018-03-17T11:28:12Z</time>
      </trkpt>
      <trkpt lat="62.654853709476" lon="17.853920409712">
        <ele>95.8</ele>
        <time>2018-03-17T11:28:13Z</time>
      </trkpt>
      <trkpt lat="62.654840382255" lon="17.853963408859">
        <ele>95.6</ele>
        <time>2018-03-17T11:28:14Z</time>
      </trkpt>
      <trkpt lat="62.654834012011" lon="17.854000037762">
        <ele>95.6</ele>
        <time>2018-03-17T11:28:15Z</time>
      </trkpt>
      <trkpt lat="62.654809620682" lon="17.854073463206">
        <ele>95.6</ele>
        <time>2018-03-17T11:28:16Z</time>
      </trkpt>
      <trkpt lat="62.654798808031" lon="17.854102213123">
        <ele>95.6</ele>
        <time>2018-03-17T11:28:17Z</time>
      </trkpt>
      <trkpt lat="62.654785564629" lon="17.854155102912">
        <ele>95.6</ele>
        <time>2018-03-17T11:28:18Z</time>
      </trkpt>
      <trkpt lat="62.654769471381" lon="17.854195922765">
        <ele>95.8</ele>
        <time>2018-03-17T11:28:19Z</time>
      </trkpt>
      <trkpt lat="62.654758407273" lon="17.854233641315">
        <ele>96</ele>
        <time>2018-03-17T11:28:20Z</time>
      </trkpt>
      <trkpt lat="62.654735776143" lon="17.85428602819">
        <ele>96</ele>
        <time>2018-03-17T11:28:21Z</time>
      </trkpt>
      <trkpt lat="62.654720353447" lon="17.854317208858">
        <ele>96.2</ele>
        <time>2018-03-17T11:28:22Z</time>
      </trkpt>
      <trkpt lat="62.65470585276" lon="17.85433212864">
        <ele>96.2</ele>
        <time>2018-03-17T11:28:23Z</time>
      </trkpt>
      <trkpt lat="62.654676013196" lon="17.854362387299">
        <ele>96.2</ele>
        <time>2018-03-17T11:28:24Z</time>
      </trkpt>
      <trkpt lat="62.65465723774" lon="17.854395328166">
        <ele>96.2</ele>
        <time>2018-03-17T11:28:25Z</time>
      </trkpt>
      <trkpt lat="62.654636450628" lon="17.854423826626">
        <ele>96.4</ele>
        <time>2018-03-17T11:28:26Z</time>
      </trkpt>
      <trkpt lat="62.654618094267" lon="17.854455845484">
        <ele>96.4</ele>
        <time>2018-03-17T11:28:27Z</time>
      </trkpt>
      <trkpt lat="62.654593116205" lon="17.854502784124">
        <ele>96.6</ele>
        <time>2018-03-17T11:28:28Z</time>
      </trkpt>
      <trkpt lat="62.654564869202" lon="17.854543268701">
        <ele>96.6</ele>
        <time>2018-03-17T11:28:29Z</time>
      </trkpt>
      <trkpt lat="62.654553553637" lon="17.854580568156">
        <ele>96.6</ele>
        <time>2018-03-17T11:28:30Z</time>
      </trkpt>
      <trkpt lat="62.654525390453" lon="17.854621555647">
        <ele>96.6</ele>
        <time>2018-03-17T11:28:31Z</time>
      </trkpt>
      <trkpt lat="62.654506279721" lon="17.854652903953">
        <ele>96.8</ele>
        <time>2018-03-17T11:28:32Z</time>
      </trkpt>
      <trkpt lat="62.654483061858" lon="17.854689532856">
        <ele>96.6</ele>
        <time>2018-03-17T11:28:33Z</time>
      </trkpt>
      <trkpt lat="62.654459676357" lon="17.854729514519">
        <ele>96.6</ele>
        <time>2018-03-17T11:28:34Z</time>
      </trkpt>
      <trkpt lat="62.654446935869" lon="17.854767568345">
        <ele>96.4</ele>
        <time>2018-03-17T11:28:35Z</time>
      </trkpt>
      <trkpt lat="62.654417683038" lon="17.854814590804">
        <ele>96.4</ele>
        <time>2018-03-17T11:28:36Z</time>
      </trkpt>
      <trkpt lat="62.65439320789" lon="17.854870498077">
        <ele>96.4</ele>
        <time>2018-03-17T11:28:37Z</time>
      </trkpt>
      <trkpt lat="62.65436806219" lon="17.854904360953">
        <ele>96.4</ele>
        <time>2018-03-17T11:28:38Z</time>
      </trkpt>
      <trkpt lat="62.654341659205" lon="17.854940570761">
        <ele>96.4</ele>
        <time>2018-03-17T11:28:39Z</time>
      </trkpt>
      <trkpt lat="62.65432866726" lon="17.854969739773">
        <ele>96.4</ele>
        <time>2018-03-17T11:28:40Z</time>
      </trkpt>
      <trkpt lat="62.654292541271" lon="17.855020366449">
        <ele>96.4</ele>
        <time>2018-03-17T11:28:41Z</time>
      </trkpt>
      <trkpt lat="62.654273011444" lon="17.85506051575">
        <ele>96.4</ele>
        <time>2018-03-17T11:28:42Z</time>
      </trkpt>
      <trkpt lat="62.654249206848" lon="17.855095216816">
        <ele>96.4</ele>
        <time>2018-03-17T11:28:43Z</time>
      </trkpt>
      <trkpt lat="62.654235376713" lon="17.855113070263">
        <ele>96.4</ele>
        <time>2018-03-17T11:28:44Z</time>
      </trkpt>
      <trkpt lat="62.654230766668" lon="17.855140562895">
        <ele>96.4</ele>
        <time>2018-03-17T11:28:45Z</time>
      </trkpt>
      <trkpt lat="62.654207884081" lon="17.855167133518">
        <ele>96.2</ele>
        <time>2018-03-17T11:28:46Z</time>
      </trkpt>
      <trkpt lat="62.654184247123" lon="17.855204181516">
        <ele>96.2</ele>
        <time>2018-03-17T11:28:47Z</time>
      </trkpt>
      <trkpt lat="62.654161280717" lon="17.855229913949">
        <ele>96.2</ele>
        <time>2018-03-17T11:28:48Z</time>
      </trkpt>
      <trkpt lat="62.654149629876" lon="17.85523318289">
        <ele>96.2</ele>
        <time>2018-03-17T11:28:49Z</time>
      </trkpt>
      <trkpt lat="62.654106463091" lon="17.855278193693">
        <ele>96.2</ele>
        <time>2018-03-17T11:28:50Z</time>
      </trkpt>
      <trkpt lat="62.654080395382" lon="17.855302333565">
        <ele>96.2</ele>
        <time>2018-03-17T11:28:51Z</time>
      </trkpt>
      <trkpt lat="62.654056758424" lon="17.85531700189">
        <ele>96.4</ele>
        <time>2018-03-17T11:28:52Z</time>
      </trkpt>
      <trkpt lat="62.654030858353" lon="17.855331334939">
        <ele>96.4</ele>
        <time>2018-03-17T11:28:53Z</time>
      </trkpt>
      <trkpt lat="62.654005545015" lon="17.855355139535">
        <ele>96.6</ele>
        <time>2018-03-17T11:28:54Z</time>
      </trkpt>
      <trkpt lat="62.653987272473" lon="17.855378692674">
        <ele>96.6</ele>
        <time>2018-03-17T11:28:55Z</time>
      </trkpt>
      <trkpt lat="62.653968413198" lon="17.855397132854">
        <ele>96.8</ele>
        <time>2018-03-17T11:28:56Z</time>
      </trkpt>
      <trkpt lat="62.653949134828" lon="17.855414818663">
        <ele>96.8</ele>
        <time>2018-03-17T11:28:57Z</time>
      </trkpt>
      <trkpt lat="62.653932706304" lon="17.855438874716">
        <ele>97</ele>
        <time>2018-03-17T11:28:58Z</time>
      </trkpt>
      <trkpt lat="62.65392465968" lon="17.855450609376">
        <ele>97.2</ele>
        <time>2018-03-17T11:28:59Z</time>
      </trkpt>
      <trkpt lat="62.653904375482" lon="17.855477850551">
        <ele>97.4</ele>
        <time>2018-03-17T11:29:00Z</time>
      </trkpt>
      <trkpt lat="62.653885851483" lon="17.85551146197">
        <ele>97.8</ele>
        <time>2018-03-17T11:29:01Z</time>
      </trkpt>
      <trkpt lat="62.653874535918" lon="17.855550521624">
        <ele>98.2</ele>
        <time>2018-03-17T11:29:02Z</time>
      </trkpt>
      <trkpt lat="62.653849306399" lon="17.855584468319">
        <ele>98.4</ele>
        <time>2018-03-17T11:29:03Z</time>
      </trkpt>
      <trkpt lat="62.653834889531" lon="17.85561707391">
        <ele>98.6</ele>
        <time>2018-03-17T11:29:04Z</time>
      </trkpt>
      <trkpt lat="62.65382491507" lon="17.855638783031">
        <ele>98.8</ele>
        <time>2018-03-17T11:29:05Z</time>
      </trkpt>
      <trkpt lat="62.653802535397" lon="17.855662503808">
        <ele>99</ele>
        <time>2018-03-17T11:29:06Z</time>
      </trkpt>
      <trkpt lat="62.653780239543" lon="17.855682620368">
        <ele>99</ele>
        <time>2018-03-17T11:29:07Z</time>
      </trkpt>
      <trkpt lat="62.653763224286" lon="17.855712459932">
        <ele>99</ele>
        <time>2018-03-17T11:29:08Z</time>
      </trkpt>
      <trkpt lat="62.653756770223" lon="17.855735510157">
        <ele>99.2</ele>
        <time>2018-03-17T11:29:09Z</time>
      </trkpt>
      <trkpt lat="62.653734306731" lon="17.855759147115">
        <ele>99.2</ele>
        <time>2018-03-17T11:29:10Z</time>
      </trkpt>
      <trkpt lat="62.653718297302" lon="17.85577130087">
        <ele>99.4</ele>
        <time>2018-03-17T11:29:11Z</time>
      </trkpt>
      <trkpt lat="62.653695247077" lon="17.855790160145">
        <ele>99.6</ele>
        <time>2018-03-17T11:29:12Z</time>
      </trkpt>
      <trkpt lat="62.653680997847" lon="17.855800302244">
        <ele>99.6</ele>
        <time>2018-03-17T11:29:13Z</time>
      </trkpt>
      <trkpt lat="62.653668927911" lon="17.855810192886">
        <ele>99.8</ele>
        <time>2018-03-17T11:29:14Z</time>
      </trkpt>
      <trkpt lat="62.65365308612" lon="17.855827878695">
        <ele>100</ele>
        <time>2018-03-17T11:29:15Z</time>
      </trkpt>
      <trkpt lat="62.653632885741" lon="17.855828716885">
        <ele>100.2</ele>
        <time>2018-03-17T11:29:16Z</time>
      </trkpt>
      <trkpt lat="62.653616038122" lon="17.855830560903">
        <ele>100.4</ele>
        <time>2018-03-17T11:29:17Z</time>
      </trkpt>
      <trkpt lat="62.653594245182" lon="17.85583667969">
        <ele>100.8</ele>
        <time>2018-03-17T11:29:18Z</time>
      </trkpt>
      <trkpt lat="62.653577313744" lon="17.855842379382">
        <ele>101</ele>
        <time>2018-03-17T11:29:19Z</time>
      </trkpt>
      <trkpt lat="62.653558454469" lon="17.855848330531">
        <ele>101.2</ele>
        <time>2018-03-17T11:29:20Z</time>
      </trkpt>
      <trkpt lat="62.653532219122" lon="17.85583919426">
        <ele>101.4</ele>
        <time>2018-03-17T11:29:21Z</time>
      </trkpt>
      <trkpt lat="62.653506654327" lon="17.855831399093">
        <ele>101.6</ele>
        <time>2018-03-17T11:29:22Z</time>
      </trkpt>
      <trkpt lat="62.653493494744" lon="17.855823101012">
        <ele>101.6</ele>
        <time>2018-03-17T11:29:23Z</time>
      </trkpt>
      <trkpt lat="62.65347622803" lon="17.855821508451">
        <ele>101.8</ele>
        <time>2018-03-17T11:29:24Z</time>
      </trkpt>
      <trkpt lat="62.653457201117" lon="17.85581153399">
        <ele>101.8</ele>
        <time>2018-03-17T11:29:25Z</time>
      </trkpt>
      <trkpt lat="62.653424930802" lon="17.855799715511">
        <ele>102</ele>
        <time>2018-03-17T11:29:26Z</time>
      </trkpt>
      <trkpt lat="62.653397354351" lon="17.855771133232">
        <ele>102.4</ele>
        <time>2018-03-17T11:29:27Z</time>
      </trkpt>
      <trkpt lat="62.653374555583" lon="17.855749172654">
        <ele>102.6</ele>
        <time>2018-03-17T11:29:28Z</time>
      </trkpt>
      <trkpt lat="62.653361731276" lon="17.85574112603">
        <ele>102.8</ele>
        <time>2018-03-17T11:29:29Z</time>
      </trkpt>
      <trkpt lat="62.653340022155" lon="17.855718075805">
        <ele>103.2</ele>
        <time>2018-03-17T11:29:30Z</time>
      </trkpt>
      <trkpt lat="62.653322252527" lon="17.855693265381">
        <ele>103.2</ele>
        <time>2018-03-17T11:29:31Z</time>
      </trkpt>
      <trkpt lat="62.653302471243" lon="17.855675914848">
        <ele>103.6</ele>
        <time>2018-03-17T11:29:32Z</time>
      </trkpt>
      <trkpt lat="62.653281600312" lon="17.855658815772">
        <ele>103.6</ele>
        <time>2018-03-17T11:29:33Z</time>
      </trkpt>
      <trkpt lat="62.653261064657" lon="17.855633083339">
        <ele>103.8</ele>
        <time>2018-03-17T11:29:34Z</time>
      </trkpt>
      <trkpt lat="62.653240780459" lon="17.855609278743">
        <ele>104</ele>
        <time>2018-03-17T11:29:35Z</time>
      </trkpt>
      <trkpt lat="62.653227788514" lon="17.855598969006">
        <ele>104.2</ele>
        <time>2018-03-17T11:29:36Z</time>
      </trkpt>
      <trkpt lat="62.653216221492" lon="17.855588826907">
        <ele>104.2</ele>
        <time>2018-03-17T11:29:37Z</time>
      </trkpt>
      <trkpt lat="62.653201553167" lon="17.855574493858">
        <ele>104.4</ele>
        <time>2018-03-17T11:29:38Z</time>
      </trkpt>
      <trkpt lat="62.65318453791" lon="17.855558568248">
        <ele>104.6</ele>
        <time>2018-03-17T11:29:39Z</time>
      </trkpt>
      <trkpt lat="62.653163918436" lon="17.855537613498">
        <ele>105</ele>
        <time>2018-03-17T11:29:40Z</time>
      </trkpt>
      <trkpt lat="62.653151261767" lon="17.85552654939">
        <ele>105.2</ele>
        <time>2018-03-17T11:29:41Z</time>
      </trkpt>
      <trkpt lat="62.653140365297" lon="17.855514060359">
        <ele>105.6</ele>
        <time>2018-03-17T11:29:42Z</time>
      </trkpt>
      <trkpt lat="62.653127960085" lon="17.855506265192">
        <ele>106</ele>
        <time>2018-03-17T11:29:43Z</time>
      </trkpt>
      <trkpt lat="62.653115722511" lon="17.855478604922">
        <ele>106.4</ele>
        <time>2018-03-17T11:29:44Z</time>
      </trkpt>
      <trkpt lat="62.653095522132" lon="17.855463852778">
        <ele>106.6</ele>
        <time>2018-03-17T11:29:45Z</time>
      </trkpt>
      <trkpt lat="62.653087978422" lon="17.85544943591">
        <ele>107</ele>
        <time>2018-03-17T11:29:46Z</time>
      </trkpt>
      <trkpt lat="62.653095857408" lon="17.855453543041">
        <ele>107.2</ele>
        <time>2018-03-17T11:29:47Z</time>
      </trkpt>
      <trkpt lat="62.653074902658" lon="17.85543434849">
        <ele>107.6</ele>
        <time>2018-03-17T11:29:48Z</time>
      </trkpt>
      <trkpt lat="62.653063084179" lon="17.855420434536">
        <ele>107.8</ele>
        <time>2018-03-17T11:29:49Z</time>
      </trkpt>
      <trkpt lat="62.653047326207" lon="17.85541423193">
        <ele>108</ele>
        <time>2018-03-17T11:29:50Z</time>
      </trkpt>
      <trkpt lat="62.653030730045" lon="17.855404257469">
        <ele>108.2</ele>
        <time>2018-03-17T11:29:51Z</time>
      </trkpt>
      <trkpt lat="62.653012206046" lon="17.855401994356">
        <ele>108.4</ele>
        <time>2018-03-17T11:29:52Z</time>
      </trkpt>
      <trkpt lat="62.653003740327" lon="17.855398222501">
        <ele>108.6</ele>
        <time>2018-03-17T11:29:53Z</time>
      </trkpt>
      <trkpt lat="62.652987395622" lon="17.855391684619">
        <ele>108.8</ele>
        <time>2018-03-17T11:29:54Z</time>
      </trkpt>
      <trkpt lat="62.652973230211" lon="17.855386320203">
        <ele>109</ele>
        <time>2018-03-17T11:29:55Z</time>
      </trkpt>
      <trkpt lat="62.652948755063" lon="17.855381123425">
        <ele>109.2</ele>
        <time>2018-03-17T11:29:56Z</time>
      </trkpt>
      <trkpt lat="62.652928387046" lon="17.855375507552">
        <ele>109.4</ele>
        <time>2018-03-17T11:29:57Z</time>
      </trkpt>
      <trkpt lat="62.652914892187" lon="17.85538154252">
        <ele>109.6</ele>
        <time>2018-03-17T11:29:58Z</time>
      </trkpt>
      <trkpt lat="62.652899804767" lon="17.85538070433">
        <ele>109.8</ele>
        <time>2018-03-17T11:29:59Z</time>
      </trkpt>
      <trkpt lat="62.65288027494" lon="17.855373831172">
        <ele>109.8</ele>
        <time>2018-03-17T11:30:00Z</time>
      </trkpt>
      <trkpt lat="62.652859823104" lon="17.855369304946">
        <ele>110</ele>
        <time>2018-03-17T11:30:01Z</time>
      </trkpt>
      <trkpt lat="62.6528417182" lon="17.855384979099">
        <ele>110.2</ele>
        <time>2018-03-17T11:30:02Z</time>
      </trkpt>
      <trkpt lat="62.652816321043" lon="17.855371148964">
        <ele>110.4</ele>
        <time>2018-03-17T11:30:03Z</time>
      </trkpt>
      <trkpt lat="62.652798048501" lon="17.855370729869">
        <ele>110.4</ele>
        <time>2018-03-17T11:30:04Z</time>
      </trkpt>
      <trkpt lat="62.652776926113" lon="17.855371903335">
        <ele>110.6</ele>
        <time>2018-03-17T11:30:05Z</time>
      </trkpt>
      <trkpt lat="62.652744739617" lon="17.855363772892">
        <ele>110.8</ele>
        <time>2018-03-17T11:30:06Z</time>
      </trkpt>
      <trkpt lat="62.652732250586" lon="17.855362431788">
        <ele>110.8</ele>
        <time>2018-03-17T11:30:07Z</time>
      </trkpt>
      <trkpt lat="62.652708948904" lon="17.85535723501">
        <ele>111</ele>
        <time>2018-03-17T11:30:08Z</time>
      </trkpt>
      <trkpt lat="62.652687658878" lon="17.855349439843">
        <ele>111</ele>
        <time>2018-03-17T11:30:09Z</time>
      </trkpt>
      <trkpt lat="62.65266737468" lon="17.855349858938">
        <ele>111.2</ele>
        <time>2018-03-17T11:30:10Z</time>
      </trkpt>
      <trkpt lat="62.652651365251" lon="17.855352708784">
        <ele>111.2</ele>
        <time>2018-03-17T11:30:11Z</time>
      </trkpt>
      <trkpt lat="62.652620519859" lon="17.855342315228">
        <ele>111.2</ele>
        <time>2018-03-17T11:30:12Z</time>
      </trkpt>
      <trkpt lat="62.652597385815" lon="17.855351702956">
        <ele>111.4</ele>
        <time>2018-03-17T11:30:13Z</time>
      </trkpt>
      <trkpt lat="62.652569809364" lon="17.855354971897">
        <ele>111.6</ele>
        <time>2018-03-17T11:30:14Z</time>
      </trkpt>
      <trkpt lat="62.652536449402" lon="17.855355642449">
        <ele>111.6</ele>
        <time>2018-03-17T11:30:15Z</time>
      </trkpt>
      <trkpt lat="62.652522283991" lon="17.855367125652">
        <ele>111.8</ele>
        <time>2018-03-17T11:30:16Z</time>
      </trkpt>
      <trkpt lat="62.652500910146" lon="17.855386404022">
        <ele>111.8</ele>
        <time>2018-03-17T11:30:17Z</time>
      </trkpt>
      <trkpt lat="62.652469478021" lon="17.855422194735">
        <ele>112</ele>
        <time>2018-03-17T11:30:18Z</time>
      </trkpt>
      <trkpt lat="62.652457156628" lon="17.855438790897">
        <ele>112</ele>
        <time>2018-03-17T11:30:19Z</time>
      </trkpt>
      <trkpt lat="62.652427400883" lon="17.855488663202">
        <ele>112</ele>
        <time>2018-03-17T11:30:20Z</time>
      </trkpt>
      <trkpt lat="62.652405356486" lon="17.85555756242">
        <ele>112</ele>
        <time>2018-03-17T11:30:21Z</time>
      </trkpt>
      <trkpt lat="62.652390520523" lon="17.855593436952">
        <ele>112</ele>
        <time>2018-03-17T11:30:22Z</time>
      </trkpt>
      <trkpt lat="62.652369230497" lon="17.855661162704">
        <ele>112</ele>
        <time>2018-03-17T11:30:23Z</time>
      </trkpt>
      <trkpt lat="62.652365458642" lon="17.8556933492">
        <ele>112</ele>
        <time>2018-03-17T11:30:24Z</time>
      </trkpt>
      <trkpt lat="62.65234383334" lon="17.855749088835">
        <ele>112</ele>
        <time>2018-03-17T11:30:25Z</time>
      </trkpt>
      <trkpt lat="62.652321788943" lon="17.855812707456">
        <ele>112</ele>
        <time>2018-03-17T11:30:26Z</time>
      </trkpt>
      <trkpt lat="62.652310641016" lon="17.85586014901">
        <ele>112.2</ele>
        <time>2018-03-17T11:30:27Z</time>
      </trkpt>
      <trkpt lat="62.652287171696" lon="17.855925946925">
        <ele>112.2</ele>
        <time>2018-03-17T11:30:28Z</time>
      </trkpt>
      <trkpt lat="62.652271497543" lon="17.85598084837">
        <ele>112.2</ele>
        <time>2018-03-17T11:30:29Z</time>
      </trkpt>
      <trkpt lat="62.652263870014" lon="17.856014962703">
        <ele>112.2</ele>
        <time>2018-03-17T11:30:30Z</time>
      </trkpt>
      <trkpt lat="62.65224408873" lon="17.85607304927">
        <ele>112.2</ele>
        <time>2018-03-17T11:30:31Z</time>
      </trkpt>
      <trkpt lat="62.652225145636" lon="17.856120071729">
        <ele>112.2</ele>
        <time>2018-03-17T11:30:32Z</time>
      </trkpt>
      <trkpt lat="62.652214332985" lon="17.856150749483">
        <ele>112.4</ele>
        <time>2018-03-17T11:30:33Z</time>
      </trkpt>
      <trkpt lat="62.65219966466" lon="17.85618369035">
        <ele>112.4</ele>
        <time>2018-03-17T11:30:34Z</time>
      </trkpt>
      <trkpt lat="62.652173177856" lon="17.856228868791">
        <ele>112.4</ele>
        <time>2018-03-17T11:30:35Z</time>
      </trkpt>
      <trkpt lat="62.652153312753" lon="17.856263234581">
        <ele>112.8</ele>
        <time>2018-03-17T11:30:36Z</time>
      </trkpt>
      <trkpt lat="62.652143841206" lon="17.856308077746">
        <ele>112.8</ele>
        <time>2018-03-17T11:30:37Z</time>
      </trkpt>
      <trkpt lat="62.652117689678" lon="17.856338168767">
        <ele>113</ele>
        <time>2018-03-17T11:30:38Z</time>
      </trkpt>
      <trkpt lat="62.652083072431" lon="17.856367924512">
        <ele>113</ele>
        <time>2018-03-17T11:30:39Z</time>
      </trkpt>
      <trkpt lat="62.65204879046" lon="17.856390890918">
        <ele>113.2</ele>
        <time>2018-03-17T11:30:40Z</time>
      </trkpt>
      <trkpt lat="62.652023058027" lon="17.856392483479">
        <ele>113.2</ele>
        <time>2018-03-17T11:30:41Z</time>
      </trkpt>
      <trkpt lat="62.651967234573" lon="17.856422993595">
        <ele>113.2</ele>
        <time>2018-03-17T11:30:42Z</time>
      </trkpt>
      <trkpt lat="62.65192054739" lon="17.856449312761">
        <ele>113.2</ele>
        <time>2018-03-17T11:30:43Z</time>
      </trkpt>
      <trkpt lat="62.651893809129" lon="17.856490635528">
        <ele>113</ele>
        <time>2018-03-17T11:30:44Z</time>
      </trkpt>
      <trkpt lat="62.651869250162" lon="17.856533718494">
        <ele>113</ele>
        <time>2018-03-17T11:30:45Z</time>
      </trkpt>
      <trkpt lat="62.651830274327" lon="17.85659607983">
        <ele>112.8</ele>
        <time>2018-03-17T11:30:46Z</time>
      </trkpt>
      <trkpt lat="62.651799764211" lon="17.856682078124">
        <ele>112.6</ele>
        <time>2018-03-17T11:30:47Z</time>
      </trkpt>
      <trkpt lat="62.651759447272" lon="17.856767741142">
        <ele>111.6</ele>
        <time>2018-03-17T11:30:48Z</time>
      </trkpt>
      <trkpt lat="62.651745784775" lon="17.856843597337">
        <ele>110.8</ele>
        <time>2018-03-17T11:30:49Z</time>
      </trkpt>
      <trkpt lat="62.65172608731" lon="17.856928673622">
        <ele>109.8</ele>
        <time>2018-03-17T11:30:50Z</time>
      </trkpt>
      <trkpt lat="62.651717370134" lon="17.856983910343">
        <ele>109.2</ele>
        <time>2018-03-17T11:30:51Z</time>
      </trkpt>
      <trkpt lat="62.651703959094" lon="17.85703864415">
        <ele>108.6</ele>
        <time>2018-03-17T11:30:52Z</time>
      </trkpt>
      <trkpt lat="62.651690296597" lon="17.857105280255">
        <ele>108.6</ele>
        <time>2018-03-17T11:30:53Z</time>
      </trkpt>
      <trkpt lat="62.651676298824" lon="17.857163283003">
        <ele>109</ele>
        <time>2018-03-17T11:30:54Z</time>
      </trkpt>
      <trkpt lat="62.651648303278" lon="17.857249951849">
        <ele>109.2</ele>
        <time>2018-03-17T11:30:55Z</time>
      </trkpt>
      <trkpt lat="62.651621648836" lon="17.857329412261">
        <ele>109.6</ele>
        <time>2018-03-17T11:30:56Z</time>
      </trkpt>
      <trkpt lat="62.65160287338" lon="17.857392108873">
        <ele>109.8</ele>
        <time>2018-03-17T11:30:57Z</time>
      </trkpt>
      <trkpt lat="62.651582840639" lon="17.857452374734">
        <ele>109.8</ele>
        <time>2018-03-17T11:30:58Z</time>
      </trkpt>
      <trkpt lat="62.651549732134" lon="17.857512640595">
        <ele>109.8</ele>
        <time>2018-03-17T11:30:59Z</time>
      </trkpt>
      <trkpt lat="62.651514779611" lon="17.857591681912">
        <ele>109.6</ele>
        <time>2018-03-17T11:31:00Z</time>
      </trkpt>
      <trkpt lat="62.651484269495" lon="17.857647589185">
        <ele>109.2</ele>
        <time>2018-03-17T11:31:01Z</time>
      </trkpt>
      <trkpt lat="62.651474965586" lon="17.857721014629">
        <ele>108.6</ele>
        <time>2018-03-17T11:31:02Z</time>
      </trkpt>
      <trkpt lat="62.651443030547" lon="17.857789243295">
        <ele>108.6</ele>
        <time>2018-03-17T11:31:03Z</time>
      </trkpt>
      <trkpt lat="62.651413610078" lon="17.857858813065">
        <ele>108.2</ele>
        <time>2018-03-17T11:31:04Z</time>
      </trkpt>
      <trkpt lat="62.651403132703" lon="17.857893681769">
        <ele>108</ele>
        <time>2018-03-17T11:31:05Z</time>
      </trkpt>
      <trkpt lat="62.651368515456" lon="17.857956126924">
        <ele>108</ele>
        <time>2018-03-17T11:31:06Z</time>
      </trkpt>
      <trkpt lat="62.651343788851" lon="17.85798244609">
        <ele>108.2</ele>
        <time>2018-03-17T11:31:07Z</time>
      </trkpt>
      <trkpt lat="62.651308165776" lon="17.858047238177">
        <ele>108.2</ele>
        <time>2018-03-17T11:31:08Z</time>
      </trkpt>
      <trkpt lat="62.651282936257" lon="17.858111778807">
        <ele>107.6</ele>
        <time>2018-03-17T11:31:09Z</time>
      </trkpt>
      <trkpt lat="62.651265418086" lon="17.85816014237">
        <ele>107.6</ele>
        <time>2018-03-17T11:31:10Z</time>
      </trkpt>
      <trkpt lat="62.651236249074" lon="17.8582079192">
        <ele>107.4</ele>
        <time>2018-03-17T11:31:11Z</time>
      </trkpt>
      <trkpt lat="62.651211941564" lon="17.858253600555">
        <ele>107</ele>
        <time>2018-03-17T11:31:12Z</time>
      </trkpt>
      <trkpt lat="62.651190567719" lon="17.858302383213">
        <ele>107.2</ele>
        <time>2018-03-17T11:31:13Z</time>
      </trkpt>
      <trkpt lat="62.651163326544" lon="17.858348986577">
        <ele>107.2</ele>
        <time>2018-03-17T11:31:14Z</time>
      </trkpt>
      <trkpt lat="62.651145137821" lon="17.858372539716">
        <ele>107.2</ele>
        <time>2018-03-17T11:31:15Z</time>
      </trkpt>
      <trkpt lat="62.651109682384" lon="17.858406989325">
        <ele>107.2</ele>
        <time>2018-03-17T11:31:16Z</time>
      </trkpt>
      <trkpt lat="62.651075400413" lon="17.858453592689">
        <ele>107.2</ele>
        <time>2018-03-17T11:31:17Z</time>
      </trkpt>
      <trkpt lat="62.65103458056" lon="17.858484354262">
        <ele>107.2</ele>
        <time>2018-03-17T11:31:18Z</time>
      </trkpt>
      <trkpt lat="62.650996442915" lon="17.858519390604">
        <ele>107.2</ele>
        <time>2018-03-17T11:31:19Z</time>
      </trkpt>
      <trkpt lat="62.650953443768" lon="17.858550487453">
        <ele>107</ele>
        <time>2018-03-17T11:31:20Z</time>
      </trkpt>
      <trkpt lat="62.650921089634" lon="17.858557109154">
        <ele>106.8</ele>
        <time>2018-03-17T11:31:21Z</time>
      </trkpt>
      <trkpt lat="62.650895357201" lon="17.858555600412">
        <ele>106.4</ele>
        <time>2018-03-17T11:31:22Z</time>
      </trkpt>
      <trkpt lat="62.650876833202" lon="17.858535986766">
        <ele>106.2</ele>
        <time>2018-03-17T11:31:23Z</time>
      </trkpt>
      <trkpt lat="62.65085101695" lon="17.858512433627">
        <ele>106</ele>
        <time>2018-03-17T11:31:24Z</time>
      </trkpt>
      <trkpt lat="62.650816148246" lon="17.858491478877">
        <ele>106</ele>
        <time>2018-03-17T11:31:25Z</time>
      </trkpt>
      <trkpt lat="62.650803743034" lon="17.858477732561">
        <ele>106</ele>
        <time>2018-03-17T11:31:26Z</time>
      </trkpt>
      <trkpt lat="62.650784716121" lon="17.858476223819">
        <ele>106</ele>
        <time>2018-03-17T11:31:27Z</time>
      </trkpt>
      <trkpt lat="62.650769880158" lon="17.858470943222">
        <ele>106.2</ele>
        <time>2018-03-17T11:31:28Z</time>
      </trkpt>
      <trkpt lat="62.650746662295" lon="17.858449569377">
        <ele>106.2</ele>
        <time>2018-03-17T11:31:29Z</time>
      </trkpt>
      <trkpt lat="62.650717409464" lon="17.858425513324">
        <ele>106.2</ele>
        <time>2018-03-17T11:31:30Z</time>
      </trkpt>
      <trkpt lat="62.650687737538" lon="17.858370779517">
        <ele>106.2</ele>
        <time>2018-03-17T11:31:31Z</time>
      </trkpt>
      <trkpt lat="62.650658484707" lon="17.858299868643">
        <ele>106.2</ele>
        <time>2018-03-17T11:31:32Z</time>
      </trkpt>
      <trkpt lat="62.650633339007" lon="17.858227113751">
        <ele>105.8</ele>
        <time>2018-03-17T11:31:33Z</time>
      </trkpt>
      <trkpt lat="62.650616239931" lon="17.858115215386">
        <ele>105.2</ele>
        <time>2018-03-17T11:31:34Z</time>
      </trkpt>
      <trkpt lat="62.650593524982" lon="17.857983451918">
        <ele>104.2</ele>
        <time>2018-03-17T11:31:35Z</time>
      </trkpt>
      <trkpt lat="62.650572905508" lon="17.857844647654">
        <ele>103.2</ele>
        <time>2018-03-17T11:31:36Z</time>
      </trkpt>
      <trkpt lat="62.650554632966" lon="17.85770081425">
        <ele>102.4</ele>
        <time>2018-03-17T11:31:37Z</time>
      </trkpt>
      <trkpt lat="62.650531415103" lon="17.857552873715">
        <ele>101.4</ele>
        <time>2018-03-17T11:31:38Z</time>
      </trkpt>
      <trkpt lat="62.650500821168" lon="17.8574116387">
        <ele>100.4</ele>
        <time>2018-03-17T11:31:39Z</time>
      </trkpt>
      <trkpt lat="62.650456732374" lon="17.857255232446">
        <ele>99.8</ele>
        <time>2018-03-17T11:31:40Z</time>
      </trkpt>
      <trkpt lat="62.650413146494" lon="17.857126989376">
        <ele>99</ele>
        <time>2018-03-17T11:31:41Z</time>
      </trkpt>
      <trkpt lat="62.650364531474" lon="17.857000003591">
        <ele>98.2</ele>
        <time>2018-03-17T11:31:42Z</time>
      </trkpt>
      <trkpt lat="62.650322705793" lon="17.856897241497">
        <ele>97.4</ele>
        <time>2018-03-17T11:31:43Z</time>
      </trkpt>
      <trkpt lat="62.65026176938" lon="17.856790707548">
        <ele>96.6</ele>
        <time>2018-03-17T11:31:44Z</time>
      </trkpt>
      <trkpt lat="62.650206113564" lon="17.8566991772">
        <ele>96</ele>
        <time>2018-03-17T11:31:45Z</time>
      </trkpt>
      <trkpt lat="62.650148446092" lon="17.856640000986">
        <ele>95.4</ele>
        <time>2018-03-17T11:31:46Z</time>
      </trkpt>
      <trkpt lat="62.650094215199" lon="17.85658937431">
        <ele>95</ele>
        <time>2018-03-17T11:31:47Z</time>
      </trkpt>
      <trkpt lat="62.650031099492" lon="17.856556433443">
        <ele>94.6</ele>
        <time>2018-03-17T11:31:48Z</time>
      </trkpt>
      <trkpt lat="62.64998013754" lon="17.856538663815">
        <ele>94.4</ele>
        <time>2018-03-17T11:31:49Z</time>
      </trkpt>
      <trkpt lat="62.649930181416" lon="17.856537238892">
        <ele>94.2</ele>
        <time>2018-03-17T11:31:50Z</time>
      </trkpt>
      <trkpt lat="62.649917524747" lon="17.856525168956">
        <ele>94.4</ele>
        <time>2018-03-17T11:31:51Z</time>
      </trkpt>
      <trkpt lat="62.649886595536" lon="17.856520055997">
        <ele>94.8</ele>
        <time>2018-03-17T11:31:52Z</time>
      </trkpt>
      <trkpt lat="62.649861030741" lon="17.856531958295">
        <ele>95.4</ele>
        <time>2018-03-17T11:31:53Z</time>
      </trkpt>
      <trkpt lat="62.649853235574" lon="17.856527180612">
        <ele>96</ele>
        <time>2018-03-17T11:31:54Z</time>
      </trkpt>
      <trkpt lat="62.64983345429" lon="17.856519301626">
        <ele>96.8</ele>
        <time>2018-03-17T11:31:55Z</time>
      </trkpt>
      <trkpt lat="62.6498074704" lon="17.856503292197">
        <ele>96.8</ele>
        <time>2018-03-17T11:31:56Z</time>
      </trkpt>
      <trkpt lat="62.649786012736" lon="17.856503795111">
        <ele>97.2</ele>
        <time>2018-03-17T11:31:57Z</time>
      </trkpt>
      <trkpt lat="62.649774278076" lon="17.856506728776">
        <ele>97.4</ele>
        <time>2018-03-17T11:31:58Z</time>
      </trkpt>
      <trkpt lat="62.649758184828" lon="17.856505722948">
        <ele>97.6</ele>
        <time>2018-03-17T11:31:59Z</time>
      </trkpt>
      <trkpt lat="62.649738235906" lon="17.856500190894">
        <ele>97.6</ele>
        <time>2018-03-17T11:32:00Z</time>
      </trkpt>
      <trkpt lat="62.64970856398" lon="17.856501280541">
        <ele>98</ele>
        <time>2018-03-17T11:32:01Z</time>
      </trkpt>
      <trkpt lat="62.64969347656" lon="17.856501951093">
        <ele>98.2</ele>
        <time>2018-03-17T11:32:02Z</time>
      </trkpt>
      <trkpt lat="62.649678053864" lon="17.856501783455">
        <ele>98.4</ele>
        <time>2018-03-17T11:32:03Z</time>
      </trkpt>
      <trkpt lat="62.649665229557" lon="17.85649884979">
        <ele>98.6</ele>
        <time>2018-03-17T11:32:04Z</time>
      </trkpt>
      <trkpt lat="62.649641173504" lon="17.85650052617">
        <ele>98.6</ele>
        <time>2018-03-17T11:32:05Z</time>
      </trkpt>
      <trkpt lat="62.649624158247" lon="17.856499017428">
        <ele>99</ele>
        <time>2018-03-17T11:32:06Z</time>
      </trkpt>
      <trkpt lat="62.649605885705" lon="17.856501951093">
        <ele>99.2</ele>
        <time>2018-03-17T11:32:07Z</time>
      </trkpt>
      <trkpt lat="62.649576549055" lon="17.856501280541">
        <ele>99.4</ele>
        <time>2018-03-17T11:32:08Z</time>
      </trkpt>
      <trkpt lat="62.649551654812" lon="17.856501112903">
        <ele>99.6</ele>
        <time>2018-03-17T11:32:09Z</time>
      </trkpt>
      <trkpt lat="62.649523659266" lon="17.856501783455">
        <ele>100</ele>
        <time>2018-03-17T11:32:10Z</time>
      </trkpt>
      <trkpt lat="62.649511170235" lon="17.85650387893">
        <ele>100.2</ele>
        <time>2018-03-17T11:32:11Z</time>
      </trkpt>
      <trkpt lat="62.649482001223" lon="17.856502873102">
        <ele>100.4</ele>
        <time>2018-03-17T11:32:12Z</time>
      </trkpt>
      <trkpt lat="62.64945794517" lon="17.856496838134">
        <ele>100.4</ele>
        <time>2018-03-17T11:32:13Z</time>
      </trkpt>
      <trkpt lat="62.649432464194" lon="17.856490719347">
        <ele>100.8</ele>
        <time>2018-03-17T11:32:14Z</time>
      </trkpt>
      <trkpt lat="62.649413018186" lon="17.856487450406">
        <ele>100.8</ele>
        <time>2018-03-17T11:32:15Z</time>
      </trkpt>
      <trkpt lat="62.649386279925" lon="17.856456521195">
        <ele>101</ele>
        <time>2018-03-17T11:32:16Z</time>
      </trkpt>
      <trkpt lat="62.64935149504" lon="17.856434644436">
        <ele>101</ele>
        <time>2018-03-17T11:32:17Z</time>
      </trkpt>
      <trkpt lat="62.649333138679" lon="17.856414779333">
        <ele>101.2</ele>
        <time>2018-03-17T11:32:18Z</time>
      </trkpt>
      <trkpt lat="62.649303969667" lon="17.856367589236">
        <ele>101.2</ele>
        <time>2018-03-17T11:32:19Z</time>
      </trkpt>
      <trkpt lat="62.649281338537" lon="17.856342359717">
        <ele>101.4</ele>
        <time>2018-03-17T11:32:20Z</time>
      </trkpt>
      <trkpt lat="62.649269855334" lon="17.856319225673">
        <ele>101.6</ele>
        <time>2018-03-17T11:32:21Z</time>
      </trkpt>
      <trkpt lat="62.649245380186" lon="17.856269018092">
        <ele>101.8</ele>
        <time>2018-03-17T11:32:22Z</time>
      </trkpt>
      <trkpt lat="62.649237417381" lon="17.856247895704">
        <ele>101.8</ele>
        <time>2018-03-17T11:32:23Z</time>
      </trkpt>
      <trkpt lat="62.649204057419" lon="17.856186959291">
        <ele>102</ele>
        <time>2018-03-17T11:32:24Z</time>
      </trkpt>
      <trkpt lat="62.649180420461" lon="17.856164244342">
        <ele>102</ele>
        <time>2018-03-17T11:32:25Z</time>
      </trkpt>
      <trkpt lat="62.649162650833" lon="17.85613842809">
        <ele>102</ele>
        <time>2018-03-17T11:32:26Z</time>
      </trkpt>
      <trkpt lat="62.649136164029" lon="17.856095512762">
        <ele>102</ele>
        <time>2018-03-17T11:32:27Z</time>
      </trkpt>
      <trkpt lat="62.649124597007" lon="17.856051507787">
        <ele>102</ele>
        <time>2018-03-17T11:32:28Z</time>
      </trkpt>
      <trkpt lat="62.649107162655" lon="17.856034827806">
        <ele>101.8</ele>
        <time>2018-03-17T11:32:29Z</time>
      </trkpt>
      <trkpt lat="62.649076652539" lon="17.85599090665">
        <ele>101.8</ele>
        <time>2018-03-17T11:32:30Z</time>
      </trkpt>
      <trkpt lat="62.649053769952" lon="17.855945476752">
        <ele>101.8</ele>
        <time>2018-03-17T11:32:31Z</time>
      </trkpt>
      <trkpt lat="62.649041113283" lon="17.855924941097">
        <ele>101.8</ele>
        <time>2018-03-17T11:32:32Z</time>
      </trkpt>
      <trkpt lat="62.649022589284" lon="17.855891078221">
        <ele>102</ele>
        <time>2018-03-17T11:32:33Z</time>
      </trkpt>
      <trkpt lat="62.648992917358" lon="17.855852353843">
        <ele>101.8</ele>
        <time>2018-03-17T11:32:34Z</time>
      </trkpt>
      <trkpt lat="62.648971124418" lon="17.855819580614">
        <ele>102</ele>
        <time>2018-03-17T11:32:35Z</time>
      </trkpt>
      <trkpt lat="62.648955450265" lon="17.855797955312">
        <ele>102</ele>
        <time>2018-03-17T11:32:36Z</time>
      </trkpt>
      <trkpt lat="62.648936758628" lon="17.855770127404">
        <ele>102.2</ele>
        <time>2018-03-17T11:32:37Z</time>
      </trkpt>
      <trkpt lat="62.64891815081" lon="17.855743808238">
        <ele>102.4</ele>
        <time>2018-03-17T11:32:38Z</time>
      </trkpt>
      <trkpt lat="62.648901303191" lon="17.855717740529">
        <ele>102.6</ele>
        <time>2018-03-17T11:32:39Z</time>
      </trkpt>
      <trkpt lat="62.648882443916" lon="17.855679770522">
        <ele>102.8</ele>
        <time>2018-03-17T11:32:40Z</time>
      </trkpt>
      <trkpt lat="62.648873223826" lon="17.855649679501">
        <ele>103</ele>
        <time>2018-03-17T11:32:41Z</time>
      </trkpt>
      <trkpt lat="62.648854532189" lon="17.85562294124">
        <ele>103.2</ele>
        <time>2018-03-17T11:32:42Z</time>
      </trkpt>
      <trkpt lat="62.648832990706" lon="17.855573823306">
        <ele>103.4</ele>
        <time>2018-03-17T11:32:43Z</time>
      </trkpt>
      <trkpt lat="62.648816478363" lon="17.855542726457">
        <ele>103.4</ele>
        <time>2018-03-17T11:32:44Z</time>
      </trkpt>
      <trkpt lat="62.648800301296" lon="17.855511294332">
        <ele>103.6</ele>
        <time>2018-03-17T11:32:45Z</time>
      </trkpt>
      <trkpt lat="62.648786974075" lon="17.855477850551">
        <ele>103.8</ele>
        <time>2018-03-17T11:32:46Z</time>
      </trkpt>
      <trkpt lat="62.648774233587" lon="17.855441556924">
        <ele>104</ele>
        <time>2018-03-17T11:32:47Z</time>
      </trkpt>
      <trkpt lat="62.648745064575" lon="17.855396462302">
        <ele>104</ele>
        <time>2018-03-17T11:32:48Z</time>
      </trkpt>
      <trkpt lat="62.648738359055" lon="17.855385984927">
        <ele>104.2</ele>
        <time>2018-03-17T11:32:49Z</time>
      </trkpt>
      <trkpt lat="62.648703238894" lon="17.855335944984">
        <ele>104.4</ele>
        <time>2018-03-17T11:32:50Z</time>
      </trkpt>
      <trkpt lat="62.648682367963" lon="17.855333346595">
        <ele>104.4</ele>
        <time>2018-03-17T11:32:51Z</time>
      </trkpt>
      <trkpt lat="62.648653198951" lon="17.855313984406">
        <ele>104.4</ele>
        <time>2018-03-17T11:32:52Z</time>
      </trkpt>
      <trkpt lat="62.648626712147" lon="17.855306189239">
        <ele>104.4</ele>
        <time>2018-03-17T11:32:53Z</time>
      </trkpt>
      <trkpt lat="62.648606176492" lon="17.855324629419">
        <ele>104.4</ele>
        <time>2018-03-17T11:32:54Z</time>
      </trkpt>
      <trkpt lat="62.648569799046" lon="17.855340974124">
        <ele>104.4</ele>
        <time>2018-03-17T11:32:55Z</time>
      </trkpt>
      <trkpt lat="62.648546329726" lon="17.855352624965">
        <ele>104.6</ele>
        <time>2018-03-17T11:32:56Z</time>
      </trkpt>
      <trkpt lat="62.64852001056" lon="17.855388667135">
        <ele>104.4</ele>
        <time>2018-03-17T11:32:57Z</time>
      </trkpt>
      <trkpt lat="62.64849737943" lon="17.855415992129">
        <ele>104.4</ele>
        <time>2018-03-17T11:32:58Z</time>
      </trkpt>
      <trkpt lat="62.648472066092" lon="17.85544859772">
        <ele>104.4</ele>
        <time>2018-03-17T11:32:59Z</time>
      </trkpt>
      <trkpt lat="62.648453290636" lon="17.855471061212">
        <ele>104.2</ele>
        <time>2018-03-17T11:33:00Z</time>
      </trkpt>
      <trkpt lat="62.648421271778" lon="17.855488495564">
        <ele>104.2</ele>
        <time>2018-03-17T11:33:01Z</time>
      </trkpt>
      <trkpt lat="62.648396377535" lon="17.855534596014">
        <ele>104.2</ele>
        <time>2018-03-17T11:33:02Z</time>
      </trkpt>
      <trkpt lat="62.64836997455" lon="17.855544570475">
        <ele>104.2</ele>
        <time>2018-03-17T11:33:03Z</time>
      </trkpt>
      <trkpt lat="62.648339380615" lon="17.855555550764">
        <ele>104.2</ele>
        <time>2018-03-17T11:33:04Z</time>
      </trkpt>
      <trkpt lat="62.648314570191" lon="17.855560998999">
        <ele>104.2</ele>
        <time>2018-03-17T11:33:05Z</time>
      </trkpt>
      <trkpt lat="62.648274756166" lon="17.85556259156">
        <ele>104.2</ele>
        <time>2018-03-17T11:33:06Z</time>
      </trkpt>
      <trkpt lat="62.648262853868" lon="17.855563513569">
        <ele>104.2</ele>
        <time>2018-03-17T11:33:07Z</time>
      </trkpt>
      <trkpt lat="62.64823418777" lon="17.855547001226">
        <ele>104.2</ele>
        <time>2018-03-17T11:33:08Z</time>
      </trkpt>
      <trkpt lat="62.648221112006" lon="17.855542223543">
        <ele>104.2</ele>
        <time>2018-03-17T11:33:09Z</time>
      </trkpt>
      <trkpt lat="62.648198229419" lon="17.855538116412">
        <ele>104</ele>
        <time>2018-03-17T11:33:10Z</time>
      </trkpt>
      <trkpt lat="62.64817719085" lon="17.855534176919">
        <ele>104</ele>
        <time>2018-03-17T11:33:11Z</time>
      </trkpt>
      <trkpt lat="62.64815707429" lon="17.855541133896">
        <ele>104</ele>
        <time>2018-03-17T11:33:12Z</time>
      </trkpt>
      <trkpt lat="62.648129246382" lon="17.855547671778">
        <ele>104</ele>
        <time>2018-03-17T11:33:13Z</time>
      </trkpt>
      <trkpt lat="62.648108794546" lon="17.855553120013">
        <ele>104</ele>
        <time>2018-03-17T11:33:14Z</time>
      </trkpt>
      <trkpt lat="62.648088175072" lon="17.855567369243">
        <ele>104</ele>
        <time>2018-03-17T11:33:15Z</time>
      </trkpt>
      <trkpt lat="62.648071495091" lon="17.855583294853">
        <ele>104</ele>
        <time>2018-03-17T11:33:16Z</time>
      </trkpt>
      <trkpt lat="62.648056240033" lon="17.855592012029">
        <ele>104.2</ele>
        <time>2018-03-17T11:33:17Z</time>
      </trkpt>
      <trkpt lat="62.648039560052" lon="17.855618917928">
        <ele>104.4</ele>
        <time>2018-03-17T11:33:18Z</time>
      </trkpt>
      <trkpt lat="62.648023885899" lon="17.855637022832">
        <ele>104.6</ele>
        <time>2018-03-17T11:33:19Z</time>
      </trkpt>
      <trkpt lat="62.648004858986" lon="17.855660156876">
        <ele>104.8</ele>
        <time>2018-03-17T11:33:20Z</time>
      </trkpt>
      <trkpt lat="62.647989771566" lon="17.855689074431">
        <ele>105</ele>
        <time>2018-03-17T11:33:21Z</time>
      </trkpt>
      <trkpt lat="62.647978958915" lon="17.855713046665">
        <ele>105.2</ele>
        <time>2018-03-17T11:33:22Z</time>
      </trkpt>
      <trkpt lat="62.647967559531" lon="17.855732408854">
        <ele>105.2</ele>
        <time>2018-03-17T11:33:23Z</time>
      </trkpt>
      <trkpt lat="62.647948281161" lon="17.855752441595">
        <ele>105.6</ele>
        <time>2018-03-17T11:33:24Z</time>
      </trkpt>
      <trkpt lat="62.647935121578" lon="17.855774485992">
        <ele>105.8</ele>
        <time>2018-03-17T11:33:25Z</time>
      </trkpt>
      <trkpt lat="62.647924392746" lon="17.855804996108">
        <ele>106.2</ele>
        <time>2018-03-17T11:33:26Z</time>
      </trkpt>
      <trkpt lat="62.647905868747" lon="17.855837853156">
        <ele>106.4</ele>
        <time>2018-03-17T11:33:27Z</time>
      </trkpt>
      <trkpt lat="62.647888266757" lon="17.85586517815">
        <ele>106.6</ele>
        <time>2018-03-17T11:33:28Z</time>
      </trkpt>
      <trkpt lat="62.647880136314" lon="17.855893425153">
        <ele>106.8</ele>
        <time>2018-03-17T11:33:29Z</time>
      </trkpt>
      <trkpt lat="62.6478712515" lon="17.855923097079">
        <ele>106.8</ele>
        <time>2018-03-17T11:33:30Z</time>
      </trkpt>
      <trkpt lat="62.647861360858" lon="17.855949751521">
        <ele>107</ele>
        <time>2018-03-17T11:33:31Z</time>
      </trkpt>
      <trkpt lat="62.647848368913" lon="17.855979591085">
        <ele>107</ele>
        <time>2018-03-17T11:33:32Z</time>
      </trkpt>
      <trkpt lat="62.647837807719" lon="17.856017477273">
        <ele>107.2</ele>
        <time>2018-03-17T11:33:33Z</time>
      </trkpt>
      <trkpt lat="62.64782766562" lon="17.856056788384">
        <ele>107.4</ele>
        <time>2018-03-17T11:33:34Z</time>
      </trkpt>
      <trkpt lat="62.647813332571" lon="17.856102134463">
        <ele>107.4</ele>
        <time>2018-03-17T11:33:35Z</time>
      </trkpt>
      <trkpt lat="62.647804950671" lon="17.856135745882">
        <ele>107.6</ele>
        <time>2018-03-17T11:33:36Z</time>
      </trkpt>
      <trkpt lat="62.647795730581" lon="17.85616692655">
        <ele>107.8</ele>
        <time>2018-03-17T11:33:37Z</time>
      </trkpt>
      <trkpt lat="62.647781732808" lon="17.856207830222">
        <ele>108</ele>
        <time>2018-03-17T11:33:38Z</time>
      </trkpt>
      <trkpt lat="62.64777234508" lon="17.856246722238">
        <ele>108.2</ele>
        <time>2018-03-17T11:33:39Z</time>
      </trkpt>
      <trkpt lat="62.64776563956" lon="17.856282429132">
        <ele>108.2</ele>
        <time>2018-03-17T11:33:40Z</time>
      </trkpt>
      <trkpt lat="62.647755497461" lon="17.85631947713">
        <ele>108.4</ele>
        <time>2018-03-17T11:33:41Z</time>
      </trkpt>
      <trkpt lat="62.647748959579" lon="17.856377228421">
        <ele>108.6</ele>
        <time>2018-03-17T11:33:42Z</time>
      </trkpt>
      <trkpt lat="62.647739320394" lon="17.85641000165">
        <ele>108.8</ele>
        <time>2018-03-17T11:33:43Z</time>
      </trkpt>
      <trkpt lat="62.647735548539" lon="17.856447552562">
        <ele>108.8</ele>
        <time>2018-03-17T11:33:44Z</time>
      </trkpt>
      <trkpt lat="62.647731525227" lon="17.856486863673">
        <ele>109.2</ele>
        <time>2018-03-17T11:33:45Z</time>
      </trkpt>
      <trkpt lat="62.647725490259" lon="17.856529108449">
        <ele>109.4</ele>
        <time>2018-03-17T11:33:46Z</time>
      </trkpt>
      <trkpt lat="62.647723478603" lon="17.856569509207">
        <ele>109.6</ele>
        <time>2018-03-17T11:33:47Z</time>
      </trkpt>
      <trkpt lat="62.647724903526" lon="17.856610161422">
        <ele>109.8</ele>
        <time>2018-03-17T11:33:48Z</time>
      </trkpt>
      <trkpt lat="62.647724149155" lon="17.856650897456">
        <ele>110</ele>
        <time>2018-03-17T11:33:49Z</time>
      </trkpt>
      <trkpt lat="62.647719455291" lon="17.856709738394">
        <ele>110</ele>
        <time>2018-03-17T11:33:50Z</time>
      </trkpt>
      <trkpt lat="62.647724149155" lon="17.856755838844">
        <ele>110</ele>
        <time>2018-03-17T11:33:51Z</time>
      </trkpt>
      <trkpt lat="62.64772205368" lon="17.85679640724">
        <ele>110.2</ele>
        <time>2018-03-17T11:33:52Z</time>
      </trkpt>
      <trkpt lat="62.647718281825" lon="17.85685927149">
        <ele>110</ele>
        <time>2018-03-17T11:33:53Z</time>
      </trkpt>
      <trkpt lat="62.647720461119" lon="17.856907718872">
        <ele>110</ele>
        <time>2018-03-17T11:33:54Z</time>
      </trkpt>
      <trkpt lat="62.647716940721" lon="17.856988017474">
        <ele>110</ele>
        <time>2018-03-17T11:33:55Z</time>
      </trkpt>
      <trkpt lat="62.647722975689" lon="17.857045517308">
        <ele>110</ele>
        <time>2018-03-17T11:33:56Z</time>
      </trkpt>
      <trkpt lat="62.647708139726" lon="17.857115254716">
        <ele>110.2</ele>
        <time>2018-03-17T11:33:57Z</time>
      </trkpt>
      <trkpt lat="62.647690705374" lon="17.857186752323">
        <ele>110.2</ele>
        <time>2018-03-17T11:33:58Z</time>
      </trkpt>
      <trkpt lat="62.647682910207" lon="17.857243078691">
        <ele>110.2</ele>
        <time>2018-03-17T11:33:59Z</time>
      </trkpt>
      <trkpt lat="62.64768852608" lon="17.85732111418">
        <ele>110</ele>
        <time>2018-03-17T11:34:00Z</time>
      </trkpt>
      <trkpt lat="62.647673354841" lon="17.857411135786">
        <ele>110</ele>
        <time>2018-03-17T11:34:01Z</time>
      </trkpt>
      <trkpt lat="62.647657596869" lon="17.85748037028">
        <ele>109.8</ele>
        <time>2018-03-17T11:34:02Z</time>
      </trkpt>
      <trkpt lat="62.647652735367" lon="17.857557651398">
        <ele>109.6</ele>
        <time>2018-03-17T11:34:03Z</time>
      </trkpt>
      <trkpt lat="62.647656758679" lon="17.85762537715">
        <ele>109.4</ele>
        <time>2018-03-17T11:34:04Z</time>
      </trkpt>
      <trkpt lat="62.647656255765" lon="17.857680865328">
        <ele>109.4</ele>
        <time>2018-03-17T11:34:05Z</time>
      </trkpt>
      <trkpt lat="62.647652903005" lon="17.85777122221">
        <ele>109.4</ele>
        <time>2018-03-17T11:34:06Z</time>
      </trkpt>
      <trkpt lat="62.64764326382" lon="17.857856549952">
        <ele>109.2</ele>
        <time>2018-03-17T11:34:07Z</time>
      </trkpt>
      <trkpt lat="62.64764661658" lon="17.857903320954">
        <ele>109.2</ele>
        <time>2018-03-17T11:34:08Z</time>
      </trkpt>
      <trkpt lat="62.647642006535" lon="17.857974231828">
        <ele>109.2</ele>
        <time>2018-03-17T11:34:09Z</time>
      </trkpt>
      <trkpt lat="62.647638486137" lon="17.858014716405">
        <ele>109</ele>
        <time>2018-03-17T11:34:10Z</time>
      </trkpt>
      <trkpt lat="62.647625745649" lon="17.858084369994">
        <ele>109</ele>
        <time>2018-03-17T11:34:11Z</time>
      </trkpt>
      <trkpt lat="62.647618201939" lon="17.858151006099">
        <ele>109</ele>
        <time>2018-03-17T11:34:12Z</time>
      </trkpt>
      <trkpt lat="62.647613172799" lon="17.85818444988">
        <ele>109</ele>
        <time>2018-03-17T11:34:13Z</time>
      </trkpt>
      <trkpt lat="62.647602360148" lon="17.858243877551">
        <ele>109.2</ele>
        <time>2018-03-17T11:34:14Z</time>
      </trkpt>
      <trkpt lat="62.647593559153" lon="17.85830934019">
        <ele>109.2</ele>
        <time>2018-03-17T11:34:15Z</time>
      </trkpt>
      <trkpt lat="62.647592050411" lon="17.858336581365">
        <ele>109</ele>
        <time>2018-03-17T11:34:16Z</time>
      </trkpt>
      <trkpt lat="62.647584422882" lon="17.858411683189">
        <ele>109</ele>
        <time>2018-03-17T11:34:17Z</time>
      </trkpt>
      <trkpt lat="62.647583584692" lon="17.858466333177">
        <ele>109.2</ele>
        <time>2018-03-17T11:34:18Z</time>
      </trkpt>
      <trkpt lat="62.647580064294" lon="17.858538752793">
        <ele>109.2</ele>
        <time>2018-03-17T11:34:19Z</time>
      </trkpt>
      <trkpt lat="62.647586937452" lon="17.858592480772">
        <ele>109.2</ele>
        <time>2018-03-17T11:34:20Z</time>
      </trkpt>
      <trkpt lat="62.647580315751" lon="17.858666241492">
        <ele>109.4</ele>
        <time>2018-03-17T11:34:21Z</time>
      </trkpt>
      <trkpt lat="62.647578052638" lon="17.858718712186">
        <ele>109.4</ele>
        <time>2018-03-17T11:34:22Z</time>
      </trkpt>
      <trkpt lat="62.647576627715" lon="17.858764309722">
        <ele>109.4</ele>
        <time>2018-03-17T11:34:23Z</time>
      </trkpt>
      <trkpt lat="62.647569335462" lon="17.858842093754">
        <ele>109.4</ele>
        <time>2018-03-17T11:34:24Z</time>
      </trkpt>
      <trkpt lat="62.647567575263" lon="17.858891379326">
        <ele>109.2</ele>
        <time>2018-03-17T11:34:25Z</time>
      </trkpt>
      <trkpt lat="62.647560953562" lon="17.858950052626">
        <ele>109.2</ele>
        <time>2018-03-17T11:34:26Z</time>
      </trkpt>
      <trkpt lat="62.647554750956" lon="17.859029848314">
        <ele>109.2</ele>
        <time>2018-03-17T11:34:27Z</time>
      </trkpt>
      <trkpt lat="62.647547793979" lon="17.859093718392">
        <ele>109.6</ele>
        <time>2018-03-17T11:34:28Z</time>
      </trkpt>
      <trkpt lat="62.64754268102" lon="17.859159181031">
        <ele>109.6</ele>
        <time>2018-03-17T11:34:29Z</time>
      </trkpt>
      <trkpt lat="62.647530778722" lon="17.859213663381">
        <ele>109.6</ele>
        <time>2018-03-17T11:34:30Z</time>
      </trkpt>
      <trkpt lat="62.647519127881" lon="17.859282394961">
        <ele>109.6</ele>
        <time>2018-03-17T11:34:31Z</time>
      </trkpt>
      <trkpt lat="62.647510662162" lon="17.859327489583">
        <ele>109.6</ele>
        <time>2018-03-17T11:34:32Z</time>
      </trkpt>
      <trkpt lat="62.647505884479" lon="17.859378535354">
        <ele>109.4</ele>
        <time>2018-03-17T11:34:33Z</time>
      </trkpt>
      <trkpt lat="62.647493814543" lon="17.859447518391">
        <ele>109.6</ele>
        <time>2018-03-17T11:34:34Z</time>
      </trkpt>
      <trkpt lat="62.647480319684" lon="17.859499067076">
        <ele>109.4</ele>
        <time>2018-03-17T11:34:35Z</time>
      </trkpt>
      <trkpt lat="62.647466573368" lon="17.859551621589">
        <ele>109.4</ele>
        <time>2018-03-17T11:34:36Z</time>
      </trkpt>
      <trkpt lat="62.647453162328" lon="17.859613228554">
        <ele>109.6</ele>
        <time>2018-03-17T11:34:37Z</time>
      </trkpt>
      <trkpt lat="62.647441008573" lon="17.859662430307">
        <ele>109.6</ele>
        <time>2018-03-17T11:34:38Z</time>
      </trkpt>
      <trkpt lat="62.647432710492" lon="17.859694952079">
        <ele>109.6</ele>
        <time>2018-03-17T11:34:39Z</time>
      </trkpt>
      <trkpt lat="62.647409911724" lon="17.859758905976">
        <ele>109.8</ele>
        <time>2018-03-17T11:34:40Z</time>
      </trkpt>
      <trkpt lat="62.647394405209" lon="17.859802827132">
        <ele>110</ele>
        <time>2018-03-17T11:34:41Z</time>
      </trkpt>
      <trkpt lat="62.647380407436" lon="17.859855716921">
        <ele>110.2</ele>
        <time>2018-03-17T11:34:42Z</time>
      </trkpt>
      <trkpt lat="62.647363224541" lon="17.859907433244">
        <ele>110.2</ele>
        <time>2018-03-17T11:34:43Z</time>
      </trkpt>
      <trkpt lat="62.647344113809" lon="17.859958395196">
        <ele>110.2</ele>
        <time>2018-03-17T11:34:44Z</time>
      </trkpt>
      <trkpt lat="62.647328607294" lon="17.860004914741">
        <ele>110.4</ele>
        <time>2018-03-17T11:34:45Z</time>
      </trkpt>
      <trkpt lat="62.647305221793" lon="17.860054954684">
        <ele>110.4</ele>
        <time>2018-03-17T11:34:46Z</time>
      </trkpt>
      <trkpt lat="62.647289966735" lon="17.860096612727">
        <ele>110.6</ele>
        <time>2018-03-17T11:34:47Z</time>
      </trkpt>
      <trkpt lat="62.6472677547" lon="17.860148412869">
        <ele>110.6</ele>
        <time>2018-03-17T11:34:48Z</time>
      </trkpt>
      <trkpt lat="62.647251158538" lon="17.860215635707">
        <ele>110.8</ele>
        <time>2018-03-17T11:34:49Z</time>
      </trkpt>
      <trkpt lat="62.64723506529" lon="17.860273722274">
        <ele>111</ele>
        <time>2018-03-17T11:34:50Z</time>
      </trkpt>
      <trkpt lat="62.647201789147" lon="17.860334910144">
        <ele>111</ele>
        <time>2018-03-17T11:34:51Z</time>
      </trkpt>
      <trkpt lat="62.6471923176" lon="17.860385955915">
        <ele>110.8</ele>
        <time>2018-03-17T11:34:52Z</time>
      </trkpt>
      <trkpt lat="62.647159041457" lon="17.860431134356">
        <ele>110.8</ele>
        <time>2018-03-17T11:34:53Z</time>
      </trkpt>
      <trkpt lat="62.647130123902" lon="17.860472373304">
        <ele>110.8</ele>
        <time>2018-03-17T11:34:54Z</time>
      </trkpt>
      <trkpt lat="62.647116712862" lon="17.860499446841">
        <ele>110.6</ele>
        <time>2018-03-17T11:34:55Z</time>
      </trkpt>
      <trkpt lat="62.647090812791" lon="17.860535656649">
        <ele>110.6</ele>
        <time>2018-03-17T11:34:56Z</time>
      </trkpt>
      <trkpt lat="62.647060386494" lon="17.860565580032">
        <ele>110.6</ele>
        <time>2018-03-17T11:34:57Z</time>
      </trkpt>
      <trkpt lat="62.647033648233" lon="17.860593575578">
        <ele>110.6</ele>
        <time>2018-03-17T11:34:58Z</time>
      </trkpt>
      <trkpt lat="62.646997354606" lon="17.860628360463">
        <ele>110.8</ele>
        <time>2018-03-17T11:34:59Z</time>
      </trkpt>
      <trkpt lat="62.646979249702" lon="17.860675969655">
        <ele>110.8</ele>
        <time>2018-03-17T11:35:00Z</time>
      </trkpt>
      <trkpt lat="62.646939938591" lon="17.860703127011">
        <ele>111</ele>
        <time>2018-03-17T11:35:01Z</time>
      </trkpt>
      <trkpt lat="62.64691739128" lon="17.860746377615">
        <ele>111.2</ele>
        <time>2018-03-17T11:35:02Z</time>
      </trkpt>
      <trkpt lat="62.646883528404" lon="17.860772193867">
        <ele>111</ele>
        <time>2018-03-17T11:35:03Z</time>
      </trkpt>
      <trkpt lat="62.646850503718" lon="17.860807481666">
        <ele>111</ele>
        <time>2018-03-17T11:35:04Z</time>
      </trkpt>
      <trkpt lat="62.646838769058" lon="17.860847882424">
        <ele>110.8</ele>
        <time>2018-03-17T11:35:05Z</time>
      </trkpt>
      <trkpt lat="62.646799038852" lon="17.860889540467">
        <ele>110.6</ele>
        <time>2018-03-17T11:35:06Z</time>
      </trkpt>
      <trkpt lat="62.646767103813" lon="17.860942011161">
        <ele>110.4</ele>
        <time>2018-03-17T11:35:07Z</time>
      </trkpt>
      <trkpt lat="62.646735671688" lon="17.860971599268">
        <ele>110.4</ele>
        <time>2018-03-17T11:35:08Z</time>
      </trkpt>
      <trkpt lat="62.646705748305" lon="17.861005126868">
        <ele>110.4</ele>
        <time>2018-03-17T11:35:09Z</time>
      </trkpt>
      <trkpt lat="62.646688816867" lon="17.861034631156">
        <ele>110.4</ele>
        <time>2018-03-17T11:35:10Z</time>
      </trkpt>
      <trkpt lat="62.646658558208" lon="17.861059860675">
        <ele>110.4</ele>
        <time>2018-03-17T11:35:11Z</time>
      </trkpt>
      <trkpt lat="62.646621761667" lon="17.861089532601">
        <ele>110.6</ele>
        <time>2018-03-17T11:35:12Z</time>
      </trkpt>
      <trkpt lat="62.646610781378" lon="17.861115348853">
        <ele>110.6</ele>
        <time>2018-03-17T11:35:13Z</time>
      </trkpt>
      <trkpt lat="62.646584210755" lon="17.861141835657">
        <ele>110.6</ele>
        <time>2018-03-17T11:35:14Z</time>
      </trkpt>
      <trkpt lat="62.646553365363" lon="17.861174357429">
        <ele>110.6</ele>
        <time>2018-03-17T11:35:15Z</time>
      </trkpt>
      <trkpt lat="62.646536350106" lon="17.861191540324">
        <ele>110.6</ele>
        <time>2018-03-17T11:35:16Z</time>
      </trkpt>
      <trkpt lat="62.646501900497" lon="17.861217608033">
        <ele>110.6</ele>
        <time>2018-03-17T11:35:17Z</time>
      </trkpt>
      <trkpt lat="62.646468791992" lon="17.861251890004">
        <ele>110.8</ele>
        <time>2018-03-17T11:35:18Z</time>
      </trkpt>
      <trkpt lat="62.646458817531" lon="17.861270414003">
        <ele>110.8</ele>
        <time>2018-03-17T11:35:19Z</time>
      </trkpt>
      <trkpt lat="62.646436689315" lon="17.86128156193">
        <ele>110.8</ele>
        <time>2018-03-17T11:35:20Z</time>
      </trkpt>
      <trkpt lat="62.646412130348" lon="17.861303857784">
        <ele>110.8</ele>
        <time>2018-03-17T11:35:21Z</time>
      </trkpt>
      <trkpt lat="62.646386481734" lon="17.861316430634">
        <ele>111</ele>
        <time>2018-03-17T11:35:22Z</time>
      </trkpt>
      <trkpt lat="62.646363599147" lon="17.861338977945">
        <ele>111.2</ele>
        <time>2018-03-17T11:35:23Z</time>
      </trkpt>
      <trkpt lat="62.646347505899" lon="17.861356831392">
        <ele>111.2</ele>
        <time>2018-03-17T11:35:24Z</time>
      </trkpt>
      <trkpt lat="62.646330742099" lon="17.861380300712">
        <ele>111.4</ele>
        <time>2018-03-17T11:35:25Z</time>
      </trkpt>
      <trkpt lat="62.646312637195" lon="17.861400333453">
        <ele>111.8</ele>
        <time>2018-03-17T11:35:26Z</time>
      </trkpt>
      <trkpt lat="62.646299561431" lon="17.861426904076">
        <ele>112.2</ele>
        <time>2018-03-17T11:35:27Z</time>
      </trkpt>
      <trkpt lat="62.646267458754" lon="17.861475267639">
        <ele>112.4</ele>
        <time>2018-03-17T11:35:28Z</time>
      </trkpt>
      <trkpt lat="62.646255137361" lon="17.861512483275">
        <ele>112.6</ele>
        <time>2018-03-17T11:35:29Z</time>
      </trkpt>
      <trkpt lat="62.646229824023" lon="17.861567719996">
        <ele>112.6</ele>
        <time>2018-03-17T11:35:30Z</time>
      </trkpt>
      <trkpt lat="62.646228063824" lon="17.861581466312">
        <ele>112.6</ele>
        <time>2018-03-17T11:35:31Z</time>
      </trkpt>
      <trkpt lat="62.646187663066" lon="17.86168054037">
        <ele>112.8</ele>
        <time>2018-03-17T11:35:32Z</time>
      </trkpt>
      <trkpt lat="62.646170228714" lon="17.861750193959">
        <ele>112.6</ele>
        <time>2018-03-17T11:35:33Z</time>
      </trkpt>
      <trkpt lat="62.646141981711" lon="17.861822362118">
        <ele>112.4</ele>
        <time>2018-03-17T11:35:34Z</time>
      </trkpt>
      <trkpt lat="62.646119182943" lon="17.861896122838">
        <ele>112.4</ele>
        <time>2018-03-17T11:35:35Z</time>
      </trkpt>
      <trkpt lat="62.646095545985" lon="17.86195881945">
        <ele>112.2</ele>
        <time>2018-03-17T11:35:36Z</time>
      </trkpt>
      <trkpt lat="62.646065706421" lon="17.862018917673">
        <ele>112</ele>
        <time>2018-03-17T11:35:37Z</time>
      </trkpt>
      <trkpt lat="62.646080123289" lon="17.862093516583">
        <ele>111.8</ele>
        <time>2018-03-17T11:35:38Z</time>
      </trkpt>
      <trkpt lat="62.646043075291" lon="17.862149842951">
        <ele>111.8</ele>
        <time>2018-03-17T11:35:39Z</time>
      </trkpt>
      <trkpt lat="62.646000159963" lon="17.86221111464">
        <ele>111.6</ele>
        <time>2018-03-17T11:35:40Z</time>
      </trkpt>
      <trkpt lat="62.645988257665" lon="17.862272721605">
        <ele>111.6</ele>
        <time>2018-03-17T11:35:41Z</time>
      </trkpt>
      <trkpt lat="62.645960429757" lon="17.862338351882">
        <ele>111.4</ele>
        <time>2018-03-17T11:35:42Z</time>
      </trkpt>
      <trkpt lat="62.645936960437" lon="17.862399958847">
        <ele>111.2</ele>
        <time>2018-03-17T11:35:43Z</time>
      </trkpt>
      <trkpt lat="62.645932434211" lon="17.862438934682">
        <ele>111.2</ele>
        <time>2018-03-17T11:35:44Z</time>
      </trkpt>
      <trkpt lat="62.645928662356" lon="17.862487549702">
        <ele>111</ele>
        <time>2018-03-17T11:35:45Z</time>
      </trkpt>
      <trkpt lat="62.6459182688" lon="17.862556868015">
        <ele>111.2</ele>
        <time>2018-03-17T11:35:46Z</time>
      </trkpt>
      <trkpt lat="62.645915083678" lon="17.862611601822">
        <ele>111.2</ele>
        <time>2018-03-17T11:35:47Z</time>
      </trkpt>
      <trkpt lat="62.645901421181" lon="17.862702713075">
        <ele>111.2</ele>
        <time>2018-03-17T11:35:48Z</time>
      </trkpt>
      <trkpt lat="62.645894715661" lon="17.862762727479">
        <ele>111.2</ele>
        <time>2018-03-17T11:35:49Z</time>
      </trkpt>
      <trkpt lat="62.645894380385" lon="17.86282047877">
        <ele>111.2</ele>
        <time>2018-03-17T11:35:50Z</time>
      </trkpt>
      <trkpt lat="62.645889602702" lon="17.862890216178">
        <ele>111</ele>
        <time>2018-03-17T11:35:51Z</time>
      </trkpt>
      <trkpt lat="62.645889099788" lon="17.862931622764">
        <ele>110.8</ele>
        <time>2018-03-17T11:35:52Z</time>
      </trkpt>
      <trkpt lat="62.645883567734" lon="17.86299482229">
        <ele>110.8</ele>
        <time>2018-03-17T11:35:53Z</time>
      </trkpt>
      <trkpt lat="62.645882478087" lon="17.863059279101">
        <ele>110.8</ele>
        <time>2018-03-17T11:35:54Z</time>
      </trkpt>
      <trkpt lat="62.645890943806" lon="17.863116862754">
        <ele>110.8</ele>
        <time>2018-03-17T11:35:55Z</time>
      </trkpt>
      <trkpt lat="62.645893877471" lon="17.863193724777">
        <ele>110.8</ele>
        <time>2018-03-17T11:35:56Z</time>
      </trkpt>
      <trkpt lat="62.645904187208" lon="17.863257343398">
        <ele>110.8</ele>
        <time>2018-03-17T11:35:57Z</time>
      </trkpt>
      <trkpt lat="62.645902678466" lon="17.863303779124">
        <ele>110.8</ele>
        <time>2018-03-17T11:35:58Z</time>
      </trkpt>
      <trkpt lat="62.645905528312" lon="17.863342754959">
        <ele>110.8</ele>
        <time>2018-03-17T11:35:59Z</time>
      </trkpt>
      <trkpt lat="62.645922292112" lon="17.863408133779">
        <ele>110.8</ele>
        <time>2018-03-17T11:36:00Z</time>
      </trkpt>
      <trkpt lat="62.645928662356" lon="17.863466052708">
        <ele>110.8</ele>
        <time>2018-03-17T11:36:01Z</time>
      </trkpt>
      <trkpt lat="62.645931763659" lon="17.863508465122">
        <ele>110.8</ele>
        <time>2018-03-17T11:36:02Z</time>
      </trkpt>
      <trkpt lat="62.645936206066" lon="17.863595050149">
        <ele>111</ele>
        <time>2018-03-17T11:36:03Z</time>
      </trkpt>
      <trkpt lat="62.64594928183" lon="17.863631259957">
        <ele>111</ele>
        <time>2018-03-17T11:36:04Z</time>
      </trkpt>
      <trkpt lat="62.645951293486" lon="17.863673337095">
        <ele>111</ele>
        <time>2018-03-17T11:36:05Z</time>
      </trkpt>
      <trkpt lat="62.64594676726" lon="17.863741062847">
        <ele>111</ele>
        <time>2018-03-17T11:36:06Z</time>
      </trkpt>
      <trkpt lat="62.645948946554" lon="17.86380032288">
        <ele>111</ele>
        <time>2018-03-17T11:36:07Z</time>
      </trkpt>
      <trkpt lat="62.645949198011" lon="17.863841310371">
        <ele>111</ele>
        <time>2018-03-17T11:36:08Z</time>
      </trkpt>
      <trkpt lat="62.645955232979" lon="17.863908365571">
        <ele>111</ele>
        <time>2018-03-17T11:36:09Z</time>
      </trkpt>
      <trkpt lat="62.645969146933" lon="17.863962261188">
        <ele>111</ele>
        <time>2018-03-17T11:36:10Z</time>
      </trkpt>
      <trkpt lat="62.645978702299" lon="17.863989334725">
        <ele>111</ele>
        <time>2018-03-17T11:36:11Z</time>
      </trkpt>
      <trkpt lat="62.645994795547" lon="17.864032333872">
        <ele>111</ele>
        <time>2018-03-17T11:36:12Z</time>
      </trkpt>
      <trkpt lat="62.646013990098" lon="17.864069465689">
        <ele>111.2</ele>
        <time>2018-03-17T11:36:13Z</time>
      </trkpt>
      <trkpt lat="62.646039387255" lon="17.864082876729">
        <ele>111.2</ele>
        <time>2018-03-17T11:36:14Z</time>
      </trkpt>
      <trkpt lat="62.64606327567" lon="17.86411296775">
        <ele>111.4</ele>
        <time>2018-03-17T11:36:15Z</time>
      </trkpt>
      <trkpt lat="62.646087331723" lon="17.864142052943">
        <ele>111.4</ele>
        <time>2018-03-17T11:36:16Z</time>
      </trkpt>
      <trkpt lat="62.646109711396" lon="17.864161750408">
        <ele>111.6</ele>
        <time>2018-03-17T11:36:17Z</time>
      </trkpt>
      <trkpt lat="62.646138293675" lon="17.864161079856">
        <ele>111.6</ele>
        <time>2018-03-17T11:36:18Z</time>
      </trkpt>
      <trkpt lat="62.64615380019" lon="17.864183124253">
        <ele>111.6</ele>
        <time>2018-03-17T11:36:19Z</time>
      </trkpt>
      <trkpt lat="62.646164277565" lon="17.864195529465">
        <ele>111.6</ele>
        <time>2018-03-17T11:36:20Z</time>
      </trkpt>
      <trkpt lat="62.646174084388" lon="17.864198295492">
        <ele>111.8</ele>
        <time>2018-03-17T11:36:21Z</time>
      </trkpt>
      <trkpt lat="62.646189758541" lon="17.864207850858">
        <ele>111.8</ele>
        <time>2018-03-17T11:36:22Z</time>
      </trkpt>
      <trkpt lat="62.646206103246" lon="17.864210700704">
        <ele>111.8</ele>
        <time>2018-03-17T11:36:23Z</time>
      </trkpt>
      <trkpt lat="62.646233176783" lon="17.864220088432">
        <ele>112</ele>
        <time>2018-03-17T11:36:24Z</time>
      </trkpt>
      <trkpt lat="62.646255975551" lon="17.86423534349">
        <ele>112</ele>
        <time>2018-03-17T11:36:25Z</time>
      </trkpt>
      <trkpt lat="62.646276092111" lon="17.864241881372">
        <ele>112.2</ele>
        <time>2018-03-17T11:36:26Z</time>
      </trkpt>
      <trkpt lat="62.646296460128" lon="17.864240959363">
        <ele>112.2</ele>
        <time>2018-03-17T11:36:27Z</time>
      </trkpt>
      <trkpt lat="62.64631724724" lon="17.864255208593">
        <ele>112.4</ele>
        <time>2018-03-17T11:36:28Z</time>
      </trkpt>
      <trkpt lat="62.646332167022" lon="17.864252442566">
        <ele>112.6</ele>
        <time>2018-03-17T11:36:29Z</time>
      </trkpt>
      <trkpt lat="62.646351026297" lon="17.864254873317">
        <ele>112.8</ele>
        <time>2018-03-17T11:36:30Z</time>
      </trkpt>
      <trkpt lat="62.646379524757" lon="17.864264344864">
        <ele>112.8</ele>
        <time>2018-03-17T11:36:31Z</time>
      </trkpt>
      <trkpt lat="62.646407017389" lon="17.864265015416">
        <ele>113</ele>
        <time>2018-03-17T11:36:32Z</time>
      </trkpt>
      <trkpt lat="62.646421601895" lon="17.864258561353">
        <ele>113.2</ele>
        <time>2018-03-17T11:36:33Z</time>
      </trkpt>
      <trkpt lat="62.646450603269" lon="17.86425881281">
        <ele>113.2</ele>
        <time>2018-03-17T11:36:34Z</time>
      </trkpt>
      <trkpt lat="62.646478850272" lon="17.86425378367">
        <ele>113.4</ele>
        <time>2018-03-17T11:36:35Z</time>
      </trkpt>
      <trkpt lat="62.646514640985" lon="17.864254286584">
        <ele>113.4</ele>
        <time>2018-03-17T11:36:36Z</time>
      </trkpt>
      <trkpt lat="62.646544061454" lon="17.864249089806">
        <ele>113.4</ele>
        <time>2018-03-17T11:36:37Z</time>
      </trkpt>
      <trkpt lat="62.646574403932" lon="17.864255543869">
        <ele>113.6</ele>
        <time>2018-03-17T11:36:38Z</time>
      </trkpt>
      <trkpt lat="62.646602986211" lon="17.864264763959">
        <ele>113.6</ele>
        <time>2018-03-17T11:36:39Z</time>
      </trkpt>
      <trkpt lat="62.646644560435" lon="17.864277504447">
        <ele>113.6</ele>
        <time>2018-03-17T11:36:40Z</time>
      </trkpt>
      <trkpt lat="62.646677249845" lon="17.8642931786">
        <ele>113.6</ele>
        <time>2018-03-17T11:36:41Z</time>
      </trkpt>
      <trkpt lat="62.646713459653" lon="17.864325532734">
        <ele>113.6</ele>
        <time>2018-03-17T11:36:42Z</time>
      </trkpt>
      <trkpt lat="62.646760985026" lon="17.86435436647">
        <ele>113.6</ele>
        <time>2018-03-17T11:36:43Z</time>
      </trkpt>
      <trkpt lat="62.646795350816" lon="17.864381942921">
        <ele>113.4</ele>
        <time>2018-03-17T11:36:44Z</time>
      </trkpt>
      <trkpt lat="62.646838349963" lon="17.864404909327">
        <ele>113</ele>
        <time>2018-03-17T11:36:45Z</time>
      </trkpt>
      <trkpt lat="62.646879002178" lon="17.864442292601">
        <ele>112.4</ele>
        <time>2018-03-17T11:36:46Z</time>
      </trkpt>
      <trkpt lat="62.646922085144" lon="17.864472467441">
        <ele>111.8</ele>
        <time>2018-03-17T11:36:47Z</time>
      </trkpt>
      <trkpt lat="62.646968604689" lon="17.864495852942">
        <ele>111.2</ele>
        <time>2018-03-17T11:36:48Z</time>
      </trkpt>
      <trkpt lat="62.64701294494" lon="17.864523010298">
        <ele>110.6</ele>
        <time>2018-03-17T11:36:49Z</time>
      </trkpt>
      <trkpt lat="62.647066924376" lon="17.86456056121">
        <ele>110.4</ele>
        <time>2018-03-17T11:36:50Z</time>
      </trkpt>
      <trkpt lat="62.647123250744" lon="17.864594004991">
        <ele>110</ele>
        <time>2018-03-17T11:36:51Z</time>
      </trkpt>
      <trkpt lat="62.647184270976" lon="17.864627364953">
        <ele>109.6</ele>
        <time>2018-03-17T11:36:52Z</time>
      </trkpt>
      <trkpt lat="62.647235819661" lon="17.864650498997">
        <ele>109</ele>
        <time>2018-03-17T11:36:53Z</time>
      </trkpt>
      <trkpt lat="62.647289296183" lon="17.86467623143">
        <ele>108.4</ele>
        <time>2018-03-17T11:36:54Z</time>
      </trkpt>
      <trkpt lat="62.647349981139" lon="17.864710513401">
        <ele>107.6</ele>
        <time>2018-03-17T11:36:55Z</time>
      </trkpt>
      <trkpt lat="62.647412091018" lon="17.864734653273">
        <ele>107</ele>
        <time>2018-03-17T11:36:56Z</time>
      </trkpt>
      <trkpt lat="62.64746305297" lon="17.864761894448">
        <ele>106.2</ele>
        <time>2018-03-17T11:36:57Z</time>
      </trkpt>
      <trkpt lat="62.647516278035" lon="17.864788381252">
        <ele>105.4</ele>
        <time>2018-03-17T11:36:58Z</time>
      </trkpt>
      <trkpt lat="62.647571011842" lon="17.864814868056">
        <ele>105</ele>
        <time>2018-03-17T11:36:59Z</time>
      </trkpt>
      <trkpt lat="62.647643180001" lon="17.864856274642">
        <ele>104.8</ele>
        <time>2018-03-17T11:37:00Z</time>
      </trkpt>
      <trkpt lat="62.647702942948" lon="17.864930035362">
        <ele>104.2</ele>
        <time>2018-03-17T11:37:01Z</time>
      </trkpt>
      <trkpt lat="62.647754407814" lon="17.865026175755">
        <ele>103.6</ele>
        <time>2018-03-17T11:37:02Z</time>
      </trkpt>
      <trkpt lat="62.64779329983" lon="17.865122819062">
        <ele>102.8</ele>
        <time>2018-03-17T11:37:03Z</time>
      </trkpt>
      <trkpt lat="62.647831102199" lon="17.865209152632">
        <ele>102</ele>
        <time>2018-03-17T11:37:04Z</time>
      </trkpt>
      <trkpt lat="62.647900169055" lon="17.865270340502">
        <ele>101.4</ele>
        <time>2018-03-17T11:37:05Z</time>
      </trkpt>
      <trkpt lat="62.647945263677" lon="17.865336808969">
        <ele>100.8</ele>
        <time>2018-03-17T11:37:06Z</time>
      </trkpt>
      <trkpt lat="62.647995555077" lon="17.865405792006">
        <ele>100.6</ele>
        <time>2018-03-17T11:37:07Z</time>
      </trkpt>
      <trkpt lat="62.648039560052" lon="17.865459184709">
        <ele>100.6</ele>
        <time>2018-03-17T11:37:08Z</time>
      </trkpt>
      <trkpt lat="62.648058586965" lon="17.865510146661">
        <ele>100.6</ele>
        <time>2018-03-17T11:37:09Z</time>
      </trkpt>
      <trkpt lat="62.648097143705" lon="17.865558677862">
        <ele>101</ele>
        <time>2018-03-17T11:37:10Z</time>
      </trkpt>
      <trkpt lat="62.648128072916" lon="17.86561332785">
        <ele>101.4</ele>
        <time>2018-03-17T11:37:11Z</time>
      </trkpt>
      <trkpt lat="62.64815875067" lon="17.86563512079">
        <ele>101.4</ele>
        <time>2018-03-17T11:37:12Z</time>
      </trkpt>
      <trkpt lat="62.648200995446" lon="17.86569630866">
        <ele>101.4</ele>
        <time>2018-03-17T11:37:13Z</time>
      </trkpt>
      <trkpt lat="62.648240725652" lon="17.865749785182">
        <ele>101.6</ele>
        <time>2018-03-17T11:37:14Z</time>
      </trkpt>
      <trkpt lat="62.6482819646" lon="17.865811727423">
        <ele>101.6</ele>
        <time>2018-03-17T11:37:15Z</time>
      </trkpt>
      <trkpt lat="62.648328651783" lon="17.865854223656">
        <ele>101.2</ele>
        <time>2018-03-17T11:37:16Z</time>
      </trkpt>
      <trkpt lat="62.648368801084" lon="17.865896468432">
        <ele>101</ele>
        <time>2018-03-17T11:37:17Z</time>
      </trkpt>
      <trkpt lat="62.648412554602" lon="17.865956650474">
        <ele>101</ele>
        <time>2018-03-17T11:37:18Z</time>
      </trkpt>
      <trkpt lat="62.648457481586" lon="17.865993279377">
        <ele>100.6</ele>
        <time>2018-03-17T11:37:19Z</time>
      </trkpt>
      <trkpt lat="62.648485225675" lon="17.866075589635">
        <ele>100.4</ele>
        <time>2018-03-17T11:37:20Z</time>
      </trkpt>
      <trkpt lat="62.648513221221" lon="17.866172065304">
        <ele>100</ele>
        <time>2018-03-17T11:37:21Z</time>
      </trkpt>
      <trkpt lat="62.648533253962" lon="17.866275749407">
        <ele>99.6</ele>
        <time>2018-03-17T11:37:22Z</time>
      </trkpt>
      <trkpt lat="62.648546916459" lon="17.866373817637">
        <ele>98.8</ele>
        <time>2018-03-17T11:37:23Z</time>
      </trkpt>
      <trkpt lat="62.648557561472" lon="17.866490493685">
        <ele>98.2</ele>
        <time>2018-03-17T11:37:24Z</time>
      </trkpt>
      <trkpt lat="62.648573067987" lon="17.866604571344">
        <ele>97.6</ele>
        <time>2018-03-17T11:37:25Z</time>
      </trkpt>
      <trkpt lat="62.648586730484" lon="17.866721666487">
        <ele>97</ele>
        <time>2018-03-17T11:37:26Z</time>
      </trkpt>
      <trkpt lat="62.648603326646" lon="17.866837336707">
        <ele>96.4</ele>
        <time>2018-03-17T11:37:27Z</time>
      </trkpt>
      <trkpt lat="62.648619000799" lon="17.866956778782">
        <ele>95.8</ele>
        <time>2018-03-17T11:37:28Z</time>
      </trkpt>
      <trkpt lat="62.648635345504" lon="17.86706842569">
        <ele>95.6</ele>
        <time>2018-03-17T11:37:29Z</time>
      </trkpt>
      <trkpt lat="62.648655713521" lon="17.867190885249">
        <ele>95</ele>
        <time>2018-03-17T11:37:30Z</time>
      </trkpt>
      <trkpt lat="62.64867423752" lon="17.867293228248">
        <ele>94.6</ele>
        <time>2018-03-17T11:37:31Z</time>
      </trkpt>
      <trkpt lat="62.648689827854" lon="17.867391045021">
        <ele>94.4</ele>
        <time>2018-03-17T11:37:32Z</time>
      </trkpt>
      <trkpt lat="62.648716230839" lon="17.867491292545">
        <ele>94.4</ele>
        <time>2018-03-17T11:37:33Z</time>
      </trkpt>
      <trkpt lat="62.648733497553" lon="17.867566729645">
        <ele>94.4</ele>
        <time>2018-03-17T11:37:34Z</time>
      </trkpt>
      <trkpt lat="62.64875721833" lon="17.867633030474">
        <ele>94.6</ele>
        <time>2018-03-17T11:37:35Z</time>
      </trkpt>
      <trkpt lat="62.648772892483" lon="17.86770712647">
        <ele>94.8</ele>
        <time>2018-03-17T11:37:36Z</time>
      </trkpt>
      <trkpt lat="62.648813125603" lon="17.867787005977">
        <ele>95</ele>
        <time>2018-03-17T11:37:37Z</time>
      </trkpt>
      <trkpt lat="62.648814131431" lon="17.867863197448">
        <ele>94.8</ele>
        <time>2018-03-17T11:37:38Z</time>
      </trkpt>
      <trkpt lat="62.648829218851" lon="17.867932096666">
        <ele>95</ele>
        <time>2018-03-17T11:37:39Z</time>
      </trkpt>
      <trkpt lat="62.648841624063" lon="17.867990099414">
        <ele>95</ele>
        <time>2018-03-17T11:37:40Z</time>
      </trkpt>
      <trkpt lat="62.648840534416" lon="17.868060339736">
        <ele>95</ele>
        <time>2018-03-17T11:37:41Z</time>
      </trkpt>
      <trkpt lat="62.64884019914" lon="17.868127394936">
        <ele>95</ele>
        <time>2018-03-17T11:37:42Z</time>
      </trkpt>
      <trkpt lat="62.648856543845" lon="17.868230408487">
        <ele>95</ele>
        <time>2018-03-17T11:37:43Z</time>
      </trkpt>
      <trkpt lat="62.648872720912" lon="17.868294530022">
        <ele>94.6</ele>
        <time>2018-03-17T11:37:44Z</time>
      </trkpt>
      <trkpt lat="62.648882527735" lon="17.868391508605">
        <ele>94.6</ele>
        <time>2018-03-17T11:37:45Z</time>
      </trkpt>
      <trkpt lat="62.648904907408" lon="17.868474740872">
        <ele>94.2</ele>
        <time>2018-03-17T11:37:46Z</time>
      </trkpt>
      <trkpt lat="62.648943547967" lon="17.868538359493">
        <ele>94.2</ele>
        <time>2018-03-17T11:37:47Z</time>
      </trkpt>
      <trkpt lat="62.648971208237" lon="17.868615053878">
        <ele>94</ele>
        <time>2018-03-17T11:37:48Z</time>
      </trkpt>
      <trkpt lat="62.648990318969" lon="17.868679007775">
        <ele>94.2</ele>
        <time>2018-03-17T11:37:49Z</time>
      </trkpt>
      <trkpt lat="62.649009178244" lon="17.868749583373">
        <ele>94</ele>
        <time>2018-03-17T11:37:50Z</time>
      </trkpt>
      <trkpt lat="62.64904555569" lon="17.868805323008">
        <ele>93.8</ele>
        <time>2018-03-17T11:37:51Z</time>
      </trkpt>
      <trkpt lat="62.649068270639" lon="17.868855698227">
        <ele>93.8</ele>
        <time>2018-03-17T11:37:52Z</time>
      </trkpt>
      <trkpt lat="62.649096601461" lon="17.868917808106">
        <ele>93.8</ele>
        <time>2018-03-17T11:37:53Z</time>
      </trkpt>
      <trkpt lat="62.649139349151" lon="17.868971284628">
        <ele>93.6</ele>
        <time>2018-03-17T11:37:54Z</time>
      </trkpt>
      <trkpt lat="62.649159717168" lon="17.869035406163">
        <ele>93.6</ele>
        <time>2018-03-17T11:37:55Z</time>
      </trkpt>
      <trkpt lat="62.649192574216" lon="17.869111765272">
        <ele>93.6</ele>
        <time>2018-03-17T11:37:56Z</time>
      </trkpt>
      <trkpt lat="62.649220485943" lon="17.869177563187">
        <ele>93.6</ele>
        <time>2018-03-17T11:37:57Z</time>
      </trkpt>
      <trkpt lat="62.649244709634" lon="17.869250485717">
        <ele>93.4</ele>
        <time>2018-03-17T11:37:58Z</time>
      </trkpt>
      <trkpt lat="62.64927186699" lon="17.869312763234">
        <ele>93.2</ele>
        <time>2018-03-17T11:37:59Z</time>
      </trkpt>
      <trkpt lat="62.649298353794" lon="17.869398258614">
        <ele>93.2</ele>
        <time>2018-03-17T11:38:00Z</time>
      </trkpt>
      <trkpt lat="62.649335401792" lon="17.86946397271">
        <ele>92.8</ele>
        <time>2018-03-17T11:38:01Z</time>
      </trkpt>
      <trkpt lat="62.649347471728" lon="17.869547540253">
        <ele>92.6</ele>
        <time>2018-03-17T11:38:02Z</time>
      </trkpt>
      <trkpt lat="62.64937747893" lon="17.869616774747">
        <ele>92.4</ele>
        <time>2018-03-17T11:38:03Z</time>
      </trkpt>
      <trkpt lat="62.649394745644" lon="17.86969279858">
        <ele>92.4</ele>
        <time>2018-03-17T11:38:04Z</time>
      </trkpt>
      <trkpt lat="62.649426345407" lon="17.869762703626">
        <ele>92</ele>
        <time>2018-03-17T11:38:05Z</time>
      </trkpt>
      <trkpt lat="62.649452580754" lon="17.869826992799">
        <ele>91.8</ele>
        <time>2018-03-17T11:38:06Z</time>
      </trkpt>
      <trkpt lat="62.649488036191" lon="17.869888851221">
        <ele>91.6</ele>
        <time>2018-03-17T11:38:07Z</time>
      </trkpt>
      <trkpt lat="62.649532376442" lon="17.869951883109">
        <ele>91.4</ele>
        <time>2018-03-17T11:38:08Z</time>
      </trkpt>
      <trkpt lat="62.649558444151" lon="17.870023548354">
        <ele>91.4</ele>
        <time>2018-03-17T11:38:09Z</time>
      </trkpt>
      <trkpt lat="62.649593899588" lon="17.870100745653">
        <ele>91</ele>
        <time>2018-03-17T11:38:10Z</time>
      </trkpt>
      <trkpt lat="62.649623990609" lon="17.870166208292">
        <ele>90.8</ele>
        <time>2018-03-17T11:38:11Z</time>
      </trkpt>
      <trkpt lat="62.649659613684" lon="17.870234185501">
        <ele>90.6</ele>
        <time>2018-03-17T11:38:12Z</time>
      </trkpt>
      <trkpt lat="62.649690207619" lon="17.870314819379">
        <ele>90</ele>
        <time>2018-03-17T11:38:13Z</time>
      </trkpt>
      <trkpt lat="62.649716862061" lon="17.870393944515">
        <ele>89.4</ele>
        <time>2018-03-17T11:38:14Z</time>
      </trkpt>
      <trkpt lat="62.649749551471" lon="17.870489498175">
        <ele>88.6</ele>
        <time>2018-03-17T11:38:15Z</time>
      </trkpt>
      <trkpt lat="62.649785426003" lon="17.87057625084">
        <ele>88.4</ele>
        <time>2018-03-17T11:38:16Z</time>
      </trkpt>
      <trkpt lat="62.649805542563" lon="17.870643389859">
        <ele>88.4</ele>
        <time>2018-03-17T11:38:17Z</time>
      </trkpt>
      <trkpt lat="62.649818283051" lon="17.870741877184">
        <ele>88.4</ele>
        <time>2018-03-17T11:38:18Z</time>
      </trkpt>
      <trkpt lat="62.649853738488" lon="17.870806836909">
        <ele>88.4</ele>
        <time>2018-03-17T11:38:19Z</time>
      </trkpt>
      <trkpt lat="62.649868993546" lon="17.870882106371">
        <ele>88.4</ele>
        <time>2018-03-17T11:38:20Z</time>
      </trkpt>
      <trkpt lat="62.649897659644" lon="17.870972211796">
        <ele>88.4</ele>
        <time>2018-03-17T11:38:21Z</time>
      </trkpt>
      <trkpt lat="62.649929929959" lon="17.871047062163">
        <ele>88.2</ele>
        <time>2018-03-17T11:38:22Z</time>
      </trkpt>
      <trkpt lat="62.6499331989" lon="17.871120487607">
        <ele>88.2</ele>
        <time>2018-03-17T11:38:23Z</time>
      </trkpt>
      <trkpt lat="62.649941161705" lon="17.871191314662">
        <ele>88</ele>
        <time>2018-03-17T11:38:24Z</time>
      </trkpt>
      <trkpt lat="62.649977287694" lon="17.87125937569">
        <ele>88</ele>
        <time>2018-03-17T11:38:25Z</time>
      </trkpt>
      <trkpt lat="62.649996398426" lon="17.871336572989">
        <ele>87.8</ele>
        <time>2018-03-17T11:38:26Z</time>
      </trkpt>
      <trkpt lat="62.650002517213" lon="17.87141527903">
        <ele>87.8</ele>
        <time>2018-03-17T11:38:27Z</time>
      </trkpt>
      <trkpt lat="62.650014922425" lon="17.871481915135">
        <ele>87.8</ele>
        <time>2018-03-17T11:38:28Z</time>
      </trkpt>
      <trkpt lat="62.650020286841" lon="17.871564560669">
        <ele>87.8</ele>
        <time>2018-03-17T11:38:29Z</time>
      </trkpt>
      <trkpt lat="62.65002791437" lon="17.87161728282">
        <ele>87.8</ele>
        <time>2018-03-17T11:38:30Z</time>
      </trkpt>
      <trkpt lat="62.650038978478" lon="17.871698503431">
        <ele>88</ele>
        <time>2018-03-17T11:38:31Z</time>
      </trkpt>
      <trkpt lat="62.650042834152" lon="17.871763882251">
        <ele>87.8</ele>
        <time>2018-03-17T11:38:32Z</time>
      </trkpt>
      <trkpt lat="62.650054401174" lon="17.871806965217">
        <ele>88</ele>
        <time>2018-03-17T11:38:33Z</time>
      </trkpt>
      <trkpt lat="62.650066974024" lon="17.871877456996">
        <ele>87.8</ele>
        <time>2018-03-17T11:38:34Z</time>
      </trkpt>
      <trkpt lat="62.65008994043" lon="17.871931352613">
        <ele>87.8</ele>
        <time>2018-03-17T11:38:35Z</time>
      </trkpt>
      <trkpt lat="62.650101758909" lon="17.87198189547">
        <ele>87.8</ele>
        <time>2018-03-17T11:38:36Z</time>
      </trkpt>
      <trkpt lat="62.650110643723" lon="17.872018692011">
        <ele>87.8</ele>
        <time>2018-03-17T11:38:37Z</time>
      </trkpt>
      <trkpt lat="62.650119193261" lon="17.872062696986">
        <ele>87.8</ele>
        <time>2018-03-17T11:38:38Z</time>
      </trkpt>
      <trkpt lat="62.650126150238" lon="17.872112904567">
        <ele>87.8</ele>
        <time>2018-03-17T11:38:39Z</time>
      </trkpt>
      <trkpt lat="62.650135370328" lon="17.872153556782">
        <ele>87.8</ele>
        <time>2018-03-17T11:38:40Z</time>
      </trkpt>
      <trkpt lat="62.650144506599" lon="17.872187000563">
        <ele>87.6</ele>
        <time>2018-03-17T11:38:41Z</time>
      </trkpt>
      <trkpt lat="62.650149619558" lon="17.872242991655">
        <ele>87.8</ele>
        <time>2018-03-17T11:38:42Z</time>
      </trkpt>
      <trkpt lat="62.650153307594" lon="17.872295294711">
        <ele>87.8</ele>
        <time>2018-03-17T11:38:43Z</time>
      </trkpt>
      <trkpt lat="62.650151295938" lon="17.872344496464">
        <ele>88</ele>
        <time>2018-03-17T11:38:44Z</time>
      </trkpt>
      <trkpt lat="62.650145428608" lon="17.872398308262">
        <ele>88</ele>
        <time>2018-03-17T11:38:45Z</time>
      </trkpt>
      <trkpt lat="62.650134532138" lon="17.872441475047">
        <ele>88.2</ele>
        <time>2018-03-17T11:38:46Z</time>
      </trkpt>
      <trkpt lat="62.650112655379" lon="17.872468213308">
        <ele>88.2</ele>
        <time>2018-03-17T11:38:47Z</time>
      </trkpt>
      <trkpt lat="62.650096059217" lon="17.872455556639">
        <ele>88.4</ele>
        <time>2018-03-17T11:38:48Z</time>
      </trkpt>
      <trkpt lat="62.650082899634" lon="17.872448180567">
        <ele>88.2</ele>
        <time>2018-03-17T11:38:49Z</time>
      </trkpt>
      <trkpt lat="62.650064040359" lon="17.872377185874">
        <ele>88.4</ele>
        <time>2018-03-17T11:38:50Z</time>
      </trkpt>
      <trkpt lat="62.650063285988" lon="17.872351369622">
        <ele>88.4</ele>
        <time>2018-03-17T11:38:51Z</time>
      </trkpt>
      <trkpt lat="62.650061274332" lon="17.872292528684">
        <ele>88.4</ele>
        <time>2018-03-17T11:38:52Z</time>
      </trkpt>
      <trkpt lat="62.650062531617" lon="17.872258833446">
        <ele>88.4</ele>
        <time>2018-03-17T11:38:53Z</time>
      </trkpt>
      <trkpt lat="62.650054233536" lon="17.872220444344">
        <ele>88.4</ele>
        <time>2018-03-17T11:38:54Z</time>
      </trkpt>
      <trkpt lat="62.650046606007" lon="17.872155987533">
        <ele>88.2</ele>
        <time>2018-03-17T11:38:55Z</time>
      </trkpt>
      <trkpt lat="62.650041576867" lon="17.8721134913">
        <ele>88</ele>
        <time>2018-03-17T11:38:56Z</time>
      </trkpt>
      <trkpt lat="62.650027662913" lon="17.872059176588">
        <ele>88</ele>
        <time>2018-03-17T11:38:57Z</time>
      </trkpt>
      <trkpt lat="62.650014419511" lon="17.872012824681">
        <ele>88</ele>
        <time>2018-03-17T11:38:58Z</time>
      </trkpt>
      <trkpt lat="62.649993297123" lon="17.871957252684">
        <ele>88.2</ele>
        <time>2018-03-17T11:38:59Z</time>
      </trkpt>
      <trkpt lat="62.649979215531" lon="17.871920120867">
        <ele>88.2</ele>
        <time>2018-03-17T11:39:00Z</time>
      </trkpt>
      <trkpt lat="62.649967313233" lon="17.871842672111">
        <ele>88.2</ele>
        <time>2018-03-17T11:39:01Z</time>
      </trkpt>
      <trkpt lat="62.649956249125" lon="17.871789279408">
        <ele>88.2</ele>
        <time>2018-03-17T11:39:02Z</time>
      </trkpt>
      <trkpt lat="62.649956835858" lon="17.871764971898">
        <ele>88</ele>
        <time>2018-03-17T11:39:03Z</time>
      </trkpt>
      <trkpt lat="62.649947699587" lon="17.871692552282">
        <ele>87.8</ele>
        <time>2018-03-17T11:39:04Z</time>
      </trkpt>
      <trkpt lat="62.64994577175" lon="17.871650642782">
        <ele>87.8</ele>
        <time>2018-03-17T11:39:05Z</time>
      </trkpt>
      <trkpt lat="62.649941496981" lon="17.87159800445">
        <ele>87.8</ele>
        <time>2018-03-17T11:39:06Z</time>
      </trkpt>
      <trkpt lat="62.649927666846" lon="17.871540504616">
        <ele>87.8</ele>
        <time>2018-03-17T11:39:07Z</time>
      </trkpt>
      <trkpt lat="62.649917357109" lon="17.871516029468">
        <ele>87.8</ele>
        <time>2018-03-17T11:39:08Z</time>
      </trkpt>
      <trkpt lat="62.649915345453" lon="17.871458781091">
        <ele>87.8</ele>
        <time>2018-03-17T11:39:09Z</time>
      </trkpt>
      <trkpt lat="62.64989883311" lon="17.871402119447">
        <ele>87.8</ele>
        <time>2018-03-17T11:39:10Z</time>
      </trkpt>
      <trkpt lat="62.649889193925" lon="17.871375716462">
        <ele>87.8</ele>
        <time>2018-03-17T11:39:11Z</time>
      </trkpt>
      <trkpt lat="62.649886511717" lon="17.871317294619">
        <ele>87.8</ele>
        <time>2018-03-17T11:39:12Z</time>
      </trkpt>
      <trkpt lat="62.649876872532" lon="17.871253173084">
        <ele>87.8</ele>
        <time>2018-03-17T11:39:13Z</time>
      </trkpt>
      <trkpt lat="62.649875447609" lon="17.871220651312">
        <ele>87.8</ele>
        <time>2018-03-17T11:39:14Z</time>
      </trkpt>
      <trkpt lat="62.649867568623" lon="17.871170862826">
        <ele>87.8</ele>
        <time>2018-03-17T11:39:15Z</time>
      </trkpt>
      <trkpt lat="62.649857175067" lon="17.871104813454">
        <ele>88</ele>
        <time>2018-03-17T11:39:16Z</time>
      </trkpt>
      <trkpt lat="62.649851810651" lon="17.871067262542">
        <ele>88</ele>
        <time>2018-03-17T11:39:17Z</time>
      </trkpt>
      <trkpt lat="62.649840746543" lon="17.871022670834">
        <ele>88</ele>
        <time>2018-03-17T11:39:18Z</time>
      </trkpt>
      <trkpt lat="62.649820294707" lon="17.870965925371">
        <ele>88</ele>
        <time>2018-03-17T11:39:19Z</time>
      </trkpt>
      <trkpt lat="62.649819875612" lon="17.87093751073">
        <ele>88.2</ele>
        <time>2018-03-17T11:39:20Z</time>
      </trkpt>
      <trkpt lat="62.649799423776" lon="17.870881435819">
        <ele>88.2</ele>
        <time>2018-03-17T11:39:21Z</time>
      </trkpt>
      <trkpt lat="62.649783917261" lon="17.870834664817">
        <ele>88.2</ele>
        <time>2018-03-17T11:39:22Z</time>
      </trkpt>
      <trkpt lat="62.649774194257" lon="17.870816643732">
        <ele>88.4</ele>
        <time>2018-03-17T11:39:23Z</time>
      </trkpt>
      <trkpt lat="62.649757514276" lon="17.870751851645">
        <ele>88.4</ele>
        <time>2018-03-17T11:39:24Z</time>
      </trkpt>
      <trkpt lat="62.649733542042" lon="17.870707343756">
        <ele>88.4</ele>
        <time>2018-03-17T11:39:25Z</time>
      </trkpt>
      <trkpt lat="62.649723819038" lon="17.870686556644">
        <ele>88.4</ele>
        <time>2018-03-17T11:39:26Z</time>
      </trkpt>
      <trkpt lat="62.649696745501" lon="17.870625871688">
        <ele>88.6</ele>
        <time>2018-03-17T11:39:27Z</time>
      </trkpt>
      <trkpt lat="62.649684088832" lon="17.870589745699">
        <ele>88.6</ele>
        <time>2018-03-17T11:39:28Z</time>
      </trkpt>
      <trkpt lat="62.649671851258" lon="17.870569377682">
        <ele>88.6</ele>
        <time>2018-03-17T11:39:29Z</time>
      </trkpt>
      <trkpt lat="62.649648381938" lon="17.87050500469">
        <ele>88.6</ele>
        <time>2018-03-17T11:39:30Z</time>
      </trkpt>
      <trkpt lat="62.649633378337" lon="17.87047566804">
        <ele>88.8</ele>
        <time>2018-03-17T11:39:31Z</time>
      </trkpt>
      <trkpt lat="62.649621811315" lon="17.870451695806">
        <ele>88.8</ele>
        <time>2018-03-17T11:39:32Z</time>
      </trkpt>
      <trkpt lat="62.649600772746" lon="17.870397129637">
        <ele>88.8</ele>
        <time>2018-03-17T11:39:33Z</time>
      </trkpt>
      <trkpt lat="62.649584763317" lon="17.870371481023">
        <ele>89</ele>
        <time>2018-03-17T11:39:34Z</time>
      </trkpt>
      <trkpt lat="62.649565484947" lon="17.870354214309">
        <ele>89</ele>
        <time>2018-03-17T11:39:35Z</time>
      </trkpt>
      <trkpt lat="62.649552241545" lon="17.870308700592">
        <ele>89.2</ele>
        <time>2018-03-17T11:39:36Z</time>
      </trkpt>
      <trkpt lat="62.649526425293" lon="17.870276597915">
        <ele>89.4</ele>
        <time>2018-03-17T11:39:37Z</time>
      </trkpt>
      <trkpt lat="62.649515612642" lon="17.870254804975">
        <ele>89.6</ele>
        <time>2018-03-17T11:39:38Z</time>
      </trkpt>
      <trkpt lat="62.64949985467" lon="17.870242483582">
        <ele>89.6</ele>
        <time>2018-03-17T11:39:39Z</time>
      </trkpt>
      <trkpt lat="62.649473954599" lon="17.870195964037">
        <ele>89.8</ele>
        <time>2018-03-17T11:39:40Z</time>
      </trkpt>
      <trkpt lat="62.649462303758" lon="17.870173249088">
        <ele>90</ele>
        <time>2018-03-17T11:39:41Z</time>
      </trkpt>
      <trkpt lat="62.649455598238" lon="17.8701521267">
        <ele>90</ele>
        <time>2018-03-17T11:39:42Z</time>
      </trkpt>
      <trkpt lat="62.649442271017" lon="17.870134859986">
        <ele>90.2</ele>
        <time>2018-03-17T11:39:43Z</time>
      </trkpt>
      <trkpt lat="62.649430955452" lon="17.870100745653">
        <ele>90.2</ele>
        <time>2018-03-17T11:39:44Z</time>
      </trkpt>
      <trkpt lat="62.649404971562" lon="17.870070403175">
        <ele>90.4</ele>
        <time>2018-03-17T11:39:45Z</time>
      </trkpt>
      <trkpt lat="62.649392985445" lon="17.870064452026">
        <ele>90.6</ele>
        <time>2018-03-17T11:39:46Z</time>
      </trkpt>
      <trkpt lat="62.649371024867" lon="17.870032600806">
        <ele>90.8</ele>
        <time>2018-03-17T11:39:47Z</time>
      </trkpt>
      <trkpt lat="62.649348645194" lon="17.869997229188">
        <ele>90.8</ele>
        <time>2018-03-17T11:39:48Z</time>
      </trkpt>
      <trkpt lat="62.64934227495" lon="17.8699928706">
        <ele>91</ele>
        <time>2018-03-17T11:39:49Z</time>
      </trkpt>
      <trkpt lat="62.649341185303" lon="17.869931850368">
        <ele>91</ele>
        <time>2018-03-17T11:39:50Z</time>
      </trkpt>
      <trkpt lat="62.649317464526" lon="17.869896897845">
        <ele>91.2</ele>
        <time>2018-03-17T11:39:51Z</time>
      </trkpt>
      <trkpt lat="62.64930623278" lon="17.869883570624">
        <ele>91.2</ele>
        <time>2018-03-17T11:39:52Z</time>
      </trkpt>
      <trkpt lat="62.649278740148" lon="17.869841828762">
        <ele>91.2</ele>
        <time>2018-03-17T11:39:53Z</time>
      </trkpt>
      <trkpt lat="62.649271364076" lon="17.869825400238">
        <ele>91.2</ele>
        <time>2018-03-17T11:39:54Z</time>
      </trkpt>
      <trkpt lat="62.649246637471" lon="17.869786759679">
        <ele>91.4</ele>
        <time>2018-03-17T11:39:55Z</time>
      </trkpt>
      <trkpt lat="62.649211349672" lon="17.869757925943">
        <ele>91.4</ele>
        <time>2018-03-17T11:39:56Z</time>
      </trkpt>
      <trkpt lat="62.649213277509" lon="17.869733618433">
        <ele>91.4</ele>
        <time>2018-03-17T11:39:57Z</time>
      </trkpt>
      <trkpt lat="62.649197938632" lon="17.869696570435">
        <ele>91.6</ele>
        <time>2018-03-17T11:39:58Z</time>
      </trkpt>
      <trkpt lat="62.649173631122" lon="17.869661282636">
        <ele>91.6</ele>
        <time>2018-03-17T11:39:59Z</time>
      </trkpt>
      <trkpt lat="62.649168099068" lon="17.869631862167">
        <ele>91.8</ele>
        <time>2018-03-17T11:40:00Z</time>
      </trkpt>
      <trkpt lat="62.649154436571" lon="17.869607722295">
        <ele>91.8</ele>
        <time>2018-03-17T11:40:01Z</time>
      </trkpt>
      <trkpt lat="62.649138846237" lon="17.869562124759">
        <ele>91.8</ele>
        <time>2018-03-17T11:40:02Z</time>
      </trkpt>
      <trkpt lat="62.649130045242" lon="17.869541756742">
        <ele>92</ele>
        <time>2018-03-17T11:40:03Z</time>
      </trkpt>
      <trkpt lat="62.649121328066" lon="17.869514347929">
        <ele>92.2</ele>
        <time>2018-03-17T11:40:04Z</time>
      </trkpt>
      <trkpt lat="62.649090566493" lon="17.869459949398">
        <ele>92.2</ele>
        <time>2018-03-17T11:40:05Z</time>
      </trkpt>
      <trkpt lat="62.649077993643" lon="17.869442431227">
        <ele>92.4</ele>
        <time>2018-03-17T11:40:06Z</time>
      </trkpt>
      <trkpt lat="62.649065504612" lon="17.869405383229">
        <ele>92.6</ele>
        <time>2018-03-17T11:40:07Z</time>
      </trkpt>
      <trkpt lat="62.649048405536" lon="17.869358025494">
        <ele>92.6</ele>
        <time>2018-03-17T11:40:08Z</time>
      </trkpt>
      <trkpt lat="62.649036922333" lon="17.869348721585">
        <ele>92.6</ele>
        <time>2018-03-17T11:40:09Z</time>
      </trkpt>
      <trkpt lat="62.649014039746" lon="17.869294155416">
        <ele>92.8</ele>
        <time>2018-03-17T11:40:10Z</time>
      </trkpt>
      <trkpt lat="62.649017224868" lon="17.869265573137">
        <ele>92.8</ele>
        <time>2018-03-17T11:40:11Z</time>
      </trkpt>
      <trkpt lat="62.649004065285" lon="17.86923682322">
        <ele>92.8</ele>
        <time>2018-03-17T11:40:12Z</time>
      </trkpt>
      <trkpt lat="62.648976907929" lon="17.869191393322">
        <ele>92.8</ele>
        <time>2018-03-17T11:40:13Z</time>
      </trkpt>
      <trkpt lat="62.648971878789" lon="17.869181083585">
        <ele>93</ele>
        <time>2018-03-17T11:40:14Z</time>
      </trkpt>
      <trkpt lat="62.648947319822" lon="17.869127774701">
        <ele>93</ele>
        <time>2018-03-17T11:40:15Z</time>
      </trkpt>
      <trkpt lat="62.648932148583" lon="17.869098186594">
        <ele>93.2</ele>
        <time>2018-03-17T11:40:16Z</time>
      </trkpt>
      <trkpt lat="62.648923515226" lon="17.869077231844">
        <ele>93.4</ele>
        <time>2018-03-17T11:40:17Z</time>
      </trkpt>
      <trkpt lat="62.648909182177" lon="17.869031131394">
        <ele>93.4</ele>
        <time>2018-03-17T11:40:18Z</time>
      </trkpt>
      <trkpt lat="62.648898285707" lon="17.86898955717">
        <ele>93.4</ele>
        <time>2018-03-17T11:40:19Z</time>
      </trkpt>
      <trkpt lat="62.648883701201" lon="17.868969692067">
        <ele>93.4</ele>
        <time>2018-03-17T11:40:20Z</time>
      </trkpt>
      <trkpt lat="62.648861908261" lon="17.868915377355">
        <ele>93.6</ele>
        <time>2018-03-17T11:40:21Z</time>
      </trkpt>
      <trkpt lat="62.648858806958" lon="17.868885537791">
        <ele>93.6</ele>
        <time>2018-03-17T11:40:22Z</time>
      </trkpt>
      <trkpt lat="62.64884606647" lon="17.868859302444">
        <ele>93.4</ele>
        <time>2018-03-17T11:40:23Z</time>
      </trkpt>
      <trkpt lat="62.648820669313" lon="17.86880515537">
        <ele>93.6</ele>
        <time>2018-03-17T11:40:24Z</time>
      </trkpt>
      <trkpt lat="62.648816813639" lon="17.868773723245">
        <ele>93.8</ele>
        <time>2018-03-17T11:40:25Z</time>
      </trkpt>
      <trkpt lat="62.648810611033" lon="17.868737010523">
        <ele>93.8</ele>
        <time>2018-03-17T11:40:26Z</time>
      </trkpt>
      <trkpt lat="62.648792673767" lon="17.868686216209">
        <ele>94</ele>
        <time>2018-03-17T11:40:27Z</time>
      </trkpt>
      <trkpt lat="62.648787560808" lon="17.868668195124">
        <ele>94.2</ele>
        <time>2018-03-17T11:40:28Z</time>
      </trkpt>
      <trkpt lat="62.648770797008" lon="17.868610779109">
        <ele>94</ele>
        <time>2018-03-17T11:40:29Z</time>
      </trkpt>
      <trkpt lat="62.648764426764" lon="17.868575658948">
        <ele>94</ele>
        <time>2018-03-17T11:40:30Z</time>
      </trkpt>
      <trkpt lat="62.648754284665" lon="17.868534503819">
        <ele>94</ele>
        <time>2018-03-17T11:40:31Z</time>
      </trkpt>
      <trkpt lat="62.648739951616" lon="17.868474740872">
        <ele>94.2</ele>
        <time>2018-03-17T11:40:32Z</time>
      </trkpt>
      <trkpt lat="62.648732407906" lon="17.868458731443">
        <ele>94.2</ele>
        <time>2018-03-17T11:40:33Z</time>
      </trkpt>
      <trkpt lat="62.648719835056" lon="17.868391340967">
        <ele>94.2</ele>
        <time>2018-03-17T11:40:34Z</time>
      </trkpt>
      <trkpt lat="62.648706843111" lon="17.868351191666">
        <ele>94.4</ele>
        <time>2018-03-17T11:40:35Z</time>
      </trkpt>
      <trkpt lat="62.648709525319" lon="17.868322274111">
        <ele>94.2</ele>
        <time>2018-03-17T11:40:36Z</time>
      </trkpt>
      <trkpt lat="62.64869603046" lon="17.868260080413">
        <ele>94.2</ele>
        <time>2018-03-17T11:40:37Z</time>
      </trkpt>
      <trkpt lat="62.648690917501" lon="17.868225295528">
        <ele>94.4</ele>
        <time>2018-03-17T11:40:38Z</time>
      </trkpt>
      <trkpt lat="62.648685720723" lon="17.868202915855">
        <ele>94.4</ele>
        <time>2018-03-17T11:40:39Z</time>
      </trkpt>
      <trkpt lat="62.648671974407" lon="17.868130747696">
        <ele>94.6</ele>
        <time>2018-03-17T11:40:40Z</time>
      </trkpt>
      <trkpt lat="62.648671052398" lon="17.868100824313">
        <ele>94.8</ele>
        <time>2018-03-17T11:40:41Z</time>
      </trkpt>
      <trkpt lat="62.648670800941" lon="17.868057992804">
        <ele>94.8</ele>
        <time>2018-03-17T11:40:42Z</time>
      </trkpt>
      <trkpt lat="62.648657138444" lon="17.868004935377">
        <ele>94.8</ele>
        <time>2018-03-17T11:40:43Z</time>
      </trkpt>
      <trkpt lat="62.648655462064" lon="17.867984148265">
        <ele>95</ele>
        <time>2018-03-17T11:40:44Z</time>
      </trkpt>
      <trkpt lat="62.648639955549" lon="17.86791248302">
        <ele>95</ele>
        <time>2018-03-17T11:40:45Z</time>
      </trkpt>
      <trkpt lat="62.648645571422" lon="17.867877530497">
        <ele>95</ele>
        <time>2018-03-17T11:40:46Z</time>
      </trkpt>
      <trkpt lat="62.648638111531" lon="17.867840817775">
        <ele>95</ele>
        <time>2018-03-17T11:40:47Z</time>
      </trkpt>
      <trkpt lat="62.648618581704" lon="17.867765213037">
        <ele>95</ele>
        <time>2018-03-17T11:40:48Z</time>
      </trkpt>
      <trkpt lat="62.648613217288" lon="17.867750041798">
        <ele>95</ele>
        <time>2018-03-17T11:40:49Z</time>
      </trkpt>
      <trkpt lat="62.648601566447" lon="17.867672844499">
        <ele>95.2</ele>
        <time>2018-03-17T11:40:50Z</time>
      </trkpt>
      <trkpt lat="62.648592262538" lon="17.867628085153">
        <ele>95</ele>
        <time>2018-03-17T11:40:51Z</time>
      </trkpt>
      <trkpt lat="62.648583964457" lon="17.867595395743">
        <ele>95</ele>
        <time>2018-03-17T11:40:52Z</time>
      </trkpt>
      <trkpt lat="62.648574828186" lon="17.867530184561">
        <ele>95</ele>
        <time>2018-03-17T11:40:53Z</time>
      </trkpt>
      <trkpt lat="62.648574157634" lon="17.867506715241">
        <ele>95</ele>
        <time>2018-03-17T11:40:54Z</time>
      </trkpt>
      <trkpt lat="62.648557058558" lon="17.867420800766">
        <ele>95</ele>
        <time>2018-03-17T11:40:55Z</time>
      </trkpt>
      <trkpt lat="62.648562674431" lon="17.867408479373">
        <ele>95</ele>
        <time>2018-03-17T11:40:56Z</time>
      </trkpt>
      <trkpt lat="62.648550017762" lon="17.867329018961">
        <ele>95</ele>
        <time>2018-03-17T11:40:57Z</time>
      </trkpt>
      <trkpt lat="62.6485501854" lon="17.867284930167">
        <ele>95</ele>
        <time>2018-03-17T11:40:58Z</time>
      </trkpt>
      <trkpt lat="62.648549850124" lon="17.867253917137">
        <ele>95</ele>
        <time>2018-03-17T11:40:59Z</time>
      </trkpt>
      <trkpt lat="62.648526883718" lon="17.867179485865">
        <ele>95</ele>
        <time>2018-03-17T11:41:00Z</time>
      </trkpt>
      <trkpt lat="62.648518585637" lon="17.867152747604">
        <ele>95</ele>
        <time>2018-03-17T11:41:01Z</time>
      </trkpt>
      <trkpt lat="62.648505174597" lon="17.867090805363">
        <ele>95</ele>
        <time>2018-03-17T11:41:02Z</time>
      </trkpt>
      <trkpt lat="62.648487991702" lon="17.867041855067">
        <ele>95</ele>
        <time>2018-03-17T11:41:03Z</time>
      </trkpt>
      <trkpt lat="62.648486650598" lon="17.867023582525">
        <ele>95.2</ele>
        <time>2018-03-17T11:41:04Z</time>
      </trkpt>
      <trkpt lat="62.64846552821" lon="17.866962143198">
        <ele>95.2</ele>
        <time>2018-03-17T11:41:05Z</time>
      </trkpt>
      <trkpt lat="62.648455050835" lon="17.866917802947">
        <ele>95.4</ele>
        <time>2018-03-17T11:41:06Z</time>
      </trkpt>
      <trkpt lat="62.648453122998" lon="17.866881760777">
        <ele>95.4</ele>
        <time>2018-03-17T11:41:07Z</time>
      </trkpt>
      <trkpt lat="62.648445160193" lon="17.866850747747">
        <ele>95.6</ele>
        <time>2018-03-17T11:41:08Z</time>
      </trkpt>
      <trkpt lat="62.648440214872" lon="17.866803138555">
        <ele>95.6</ele>
        <time>2018-03-17T11:41:09Z</time>
      </trkpt>
      <trkpt lat="62.648445579288" lon="17.866755613182">
        <ele>95.8</ele>
        <time>2018-03-17T11:41:10Z</time>
      </trkpt>
      <trkpt lat="62.648440717786" lon="17.86671806227">
        <ele>96</ele>
        <time>2018-03-17T11:41:11Z</time>
      </trkpt>
      <trkpt lat="62.648444154365" lon="17.866684031756">
        <ele>96.2</ele>
        <time>2018-03-17T11:41:12Z</time>
      </trkpt>
      <trkpt lat="62.648443316175" lon="17.866652599631">
        <ele>96.4</ele>
        <time>2018-03-17T11:41:13Z</time>
      </trkpt>
      <trkpt lat="62.648439292863" lon="17.866608343199">
        <ele>96.6</ele>
        <time>2018-03-17T11:41:14Z</time>
      </trkpt>
      <trkpt lat="62.64842780966" lon="17.866562913301">
        <ele>96.8</ele>
        <time>2018-03-17T11:41:15Z</time>
      </trkpt>
      <trkpt lat="62.64842529509" lon="17.866527206407">
        <ele>97</ele>
        <time>2018-03-17T11:41:16Z</time>
      </trkpt>
      <trkpt lat="62.648422361425" lon="17.866500803422">
        <ele>97.2</ele>
        <time>2018-03-17T11:41:17Z</time>
      </trkpt>
      <trkpt lat="62.648406435815" lon="17.866446656348">
        <ele>97.4</ele>
        <time>2018-03-17T11:41:18Z</time>
      </trkpt>
      <trkpt lat="62.648398137734" lon="17.866409105436">
        <ele>97.4</ele>
        <time>2018-03-17T11:41:19Z</time>
      </trkpt>
      <trkpt lat="62.648386989807" lon="17.866372057438">
        <ele>97.6</ele>
        <time>2018-03-17T11:41:20Z</time>
      </trkpt>
      <trkpt lat="62.648378188812" lon="17.866347414652">
        <ele>97.6</ele>
        <time>2018-03-17T11:41:21Z</time>
      </trkpt>
      <trkpt lat="62.648366957066" lon="17.866309360826">
        <ele>97.8</ele>
        <time>2018-03-17T11:41:22Z</time>
      </trkpt>
      <trkpt lat="62.64835656351" lon="17.866269882077">
        <ele>97.8</ele>
        <time>2018-03-17T11:41:23Z</time>
      </trkpt>
      <trkpt lat="62.648346002316" lon="17.866239036685">
        <ele>98</ele>
        <time>2018-03-17T11:41:24Z</time>
      </trkpt>
      <trkpt lat="62.648338626244" lon="17.866208191293">
        <ele>98.2</ele>
        <time>2018-03-17T11:41:25Z</time>
      </trkpt>
      <trkpt lat="62.648329238516" lon="17.866193606787">
        <ele>98.4</ele>
        <time>2018-03-17T11:41:26Z</time>
      </trkpt>
      <trkpt lat="62.648318761141" lon="17.866163599585">
        <ele>98.6</ele>
        <time>2018-03-17T11:41:27Z</time>
      </trkpt>
      <trkpt lat="62.648302164979" lon="17.866134765849">
        <ele>99</ele>
        <time>2018-03-17T11:41:28Z</time>
      </trkpt>
      <trkpt lat="62.648291100871" lon="17.866123953198">
        <ele>99.2</ele>
        <time>2018-03-17T11:41:29Z</time>
      </trkpt>
      <trkpt lat="62.648279114754" lon="17.866113559642">
        <ele>99.4</ele>
        <time>2018-03-17T11:41:30Z</time>
      </trkpt>
      <trkpt lat="62.648253633778" lon="17.866088413942">
        <ele>99.6</ele>
        <time>2018-03-17T11:41:31Z</time>
      </trkpt>
      <trkpt lat="62.648245335697" lon="17.866070644314">
        <ele>99.6</ele>
        <time>2018-03-17T11:41:32Z</time>
      </trkpt>
      <trkpt lat="62.648233181942" lon="17.86607517054">
        <ele>99.8</ele>
        <time>2018-03-17T11:41:33Z</time>
      </trkpt>
      <trkpt lat="62.648217507789" lon="17.866073326522">
        <ele>99.8</ele>
        <time>2018-03-17T11:41:34Z</time>
      </trkpt>
      <trkpt lat="62.648198313238" lon="17.866067794468">
        <ele>100</ele>
        <time>2018-03-17T11:41:35Z</time>
      </trkpt>
      <trkpt lat="62.648179621601" lon="17.866071985418">
        <ele>100</ele>
        <time>2018-03-17T11:41:36Z</time>
      </trkpt>
      <trkpt lat="62.648163612172" lon="17.866074835264">
        <ele>100.2</ele>
        <time>2018-03-17T11:41:37Z</time>
      </trkpt>
      <trkpt lat="62.648150117313" lon="17.866086318467">
        <ele>100.2</ele>
        <time>2018-03-17T11:41:38Z</time>
      </trkpt>
      <trkpt lat="62.648136790092" lon="17.866095706195">
        <ele>100.4</ele>
        <time>2018-03-17T11:41:39Z</time>
      </trkpt>
      <trkpt lat="62.648118182274" lon="17.866111296529">
        <ele>100.6</ele>
        <time>2018-03-17T11:41:40Z</time>
      </trkpt>
      <trkpt lat="62.648107369623" lon="17.866116828583">
        <ele>100.8</ele>
        <time>2018-03-17T11:41:41Z</time>
      </trkpt>
      <trkpt lat="62.64810175375" lon="17.866133592383">
        <ele>101</ele>
        <time>2018-03-17T11:41:42Z</time>
      </trkpt>
      <trkpt lat="62.648087253063" lon="17.866150691459">
        <ele>101.2</ele>
        <time>2018-03-17T11:41:43Z</time>
      </trkpt>
      <trkpt lat="62.648076188955" lon="17.866162929033">
        <ele>101.2</ele>
        <time>2018-03-17T11:41:44Z</time>
      </trkpt>
      <trkpt lat="62.648060598621" lon="17.866182961774">
        <ele>101.6</ele>
        <time>2018-03-17T11:41:45Z</time>
      </trkpt>
      <trkpt lat="62.648048863961" lon="17.866200312307">
        <ele>101.8</ele>
        <time>2018-03-17T11:41:46Z</time>
      </trkpt>
      <trkpt lat="62.648029334134" lon="17.866227302025">
        <ele>102</ele>
        <time>2018-03-17T11:41:47Z</time>
      </trkpt>
      <trkpt lat="62.648015001085" lon="17.866250184612">
        <ele>102.4</ele>
        <time>2018-03-17T11:41:48Z</time>
      </trkpt>
      <trkpt lat="62.648013324705" lon="17.866260829625">
        <ele>102.4</ele>
        <time>2018-03-17T11:41:49Z</time>
      </trkpt>
      <trkpt lat="62.647993124326" lon="17.866300811288">
        <ele>102.6</ele>
        <time>2018-03-17T11:41:50Z</time>
      </trkpt>
      <trkpt lat="62.647973762137" lon="17.866328052463">
        <ele>102.8</ele>
        <time>2018-03-17T11:41:52Z</time>
      </trkpt>
      <trkpt lat="62.647968732997" lon="17.866342972245">
        <ele>102.8</ele>
        <time>2018-03-17T11:41:53Z</time>
      </trkpt>
      <trkpt lat="62.647956914518" lon="17.866368956135">
        <ele>103</ele>
        <time>2018-03-17T11:41:54Z</time>
      </trkpt>
      <trkpt lat="62.647948532618" lon="17.866392341636">
        <ele>103.2</ele>
        <time>2018-03-17T11:41:55Z</time>
      </trkpt>
      <trkpt lat="62.647938809614" lon="17.866415224223">
        <ele>103.6</ele>
        <time>2018-03-17T11:41:56Z</time>
      </trkpt>
      <trkpt lat="62.647928835153" lon="17.866438190629">
        <ele>103.8</ele>
        <time>2018-03-17T11:41:57Z</time>
      </trkpt>
      <trkpt lat="62.647917100493" lon="17.866465180347">
        <ele>104</ele>
        <time>2018-03-17T11:41:58Z</time>
      </trkpt>
      <trkpt lat="62.647908299498" lon="17.866485967459">
        <ele>104.2</ele>
        <time>2018-03-17T11:41:59Z</time>
      </trkpt>
      <trkpt lat="62.647901761616" lon="17.866510945521">
        <ele>104.4</ele>
        <time>2018-03-17T11:42:00Z</time>
      </trkpt>
      <trkpt lat="62.647894050268" lon="17.866530810624">
        <ele>104.8</ele>
        <time>2018-03-17T11:42:01Z</time>
      </trkpt>
      <trkpt lat="62.647884913997" lon="17.866552855021">
        <ele>104.8</ele>
        <time>2018-03-17T11:42:02Z</time>
      </trkpt>
      <trkpt lat="62.647872424966" lon="17.866576072884">
        <ele>105</ele>
        <time>2018-03-17T11:42:03Z</time>
      </trkpt>
      <trkpt lat="62.647862199048" lon="17.866594345426">
        <ele>105.2</ele>
        <time>2018-03-17T11:42:04Z</time>
      </trkpt>
      <trkpt lat="62.647850715845" lon="17.866612953244">
        <ele>105.4</ele>
        <time>2018-03-17T11:42:05Z</time>
      </trkpt>
      <trkpt lat="62.647839065004" lon="17.866636506383">
        <ele>105.6</ele>
        <time>2018-03-17T11:42:06Z</time>
      </trkpt>
      <trkpt lat="62.647834203502" lon="17.866657628771">
        <ele>105.8</ele>
        <time>2018-03-17T11:42:07Z</time>
      </trkpt>
      <trkpt lat="62.647826324516" lon="17.866683109747">
        <ele>106.2</ele>
        <time>2018-03-17T11:42:08Z</time>
      </trkpt>
      <trkpt lat="62.647816350055" lon="17.866706076153">
        <ele>106.4</ele>
        <time>2018-03-17T11:42:09Z</time>
      </trkpt>
      <trkpt lat="62.647806291775" lon="17.866729713111">
        <ele>106.8</ele>
        <time>2018-03-17T11:42:10Z</time>
      </trkpt>
      <trkpt lat="62.647799921531" lon="17.866745806359">
        <ele>107.2</ele>
        <time>2018-03-17T11:42:11Z</time>
      </trkpt>
      <trkpt lat="62.64779078526" lon="17.866777406122">
        <ele>107.4</ele>
        <time>2018-03-17T11:42:12Z</time>
      </trkpt>
      <trkpt lat="62.647789276518" lon="17.866803306193">
        <ele>107.6</ele>
        <time>2018-03-17T11:42:13Z</time>
      </trkpt>
      <trkpt lat="62.647776787487" lon="17.866844545141">
        <ele>107.8</ele>
        <time>2018-03-17T11:42:14Z</time>
      </trkpt>
      <trkpt lat="62.647773686184" lon="17.866870445212">
        <ele>107.8</ele>
        <time>2018-03-17T11:42:15Z</time>
      </trkpt>
      <trkpt lat="62.647760191325" lon="17.866928867055">
        <ele>108</ele>
        <time>2018-03-17T11:42:16Z</time>
      </trkpt>
      <trkpt lat="62.647756168013" lon="17.866951162909">
        <ele>108</ele>
        <time>2018-03-17T11:42:17Z</time>
      </trkpt>
      <trkpt lat="62.647743176068" lon="17.867004555612">
        <ele>108</ele>
        <time>2018-03-17T11:42:18Z</time>
      </trkpt>
      <trkpt lat="62.647736470548" lon="17.867042944714">
        <ele>108</ele>
        <time>2018-03-17T11:42:19Z</time>
      </trkpt>
      <trkpt lat="62.64772624463" lon="17.867082591101">
        <ele>108</ele>
        <time>2018-03-17T11:42:20Z</time>
      </trkpt>
      <trkpt lat="62.647721886042" lon="17.867114609959">
        <ele>108</ele>
        <time>2018-03-17T11:42:21Z</time>
      </trkpt>
      <trkpt lat="62.647714929065" lon="17.867153250518">
        <ele>108.2</ele>
        <time>2018-03-17T11:42:22Z</time>
      </trkpt>
      <trkpt lat="62.647706714803" lon="17.867184012091">
        <ele>108.2</ele>
        <time>2018-03-17T11:42:23Z</time>
      </trkpt>
      <trkpt lat="62.647698416722" lon="17.86721343256">
        <ele>108.4</ele>
        <time>2018-03-17T11:42:24Z</time>
      </trkpt>
      <trkpt lat="62.647688861356" lon="17.867245702875">
        <ele>108.4</ele>
        <time>2018-03-17T11:42:25Z</time>
      </trkpt>
      <trkpt lat="62.647682826388" lon="17.867281409769">
        <ele>108.6</ele>
        <time>2018-03-17T11:42:26Z</time>
      </trkpt>
      <trkpt lat="62.647676959058" lon="17.86731820631">
        <ele>109</ele>
        <time>2018-03-17T11:42:27Z</time>
      </trkpt>
      <trkpt lat="62.647670169719" lon="17.86734754296">
        <ele>109.2</ele>
        <time>2018-03-17T11:42:28Z</time>
      </trkpt>
      <trkpt lat="62.647663715656" lon="17.867372772479">
        <ele>109.4</ele>
        <time>2018-03-17T11:42:29Z</time>
      </trkpt>
      <trkpt lat="62.647652735367" lon="17.867411999771">
        <ele>109.8</ele>
        <time>2018-03-17T11:42:30Z</time>
      </trkpt>
      <trkpt lat="62.647643431458" lon="17.867443431896">
        <ele>110</ele>
        <time>2018-03-17T11:42:31Z</time>
      </trkpt>
      <trkpt lat="62.647635133377" lon="17.867469834881">
        <ele>110.2</ele>
        <time>2018-03-17T11:42:32Z</time>
      </trkpt>
      <trkpt lat="62.647627757305" lon="17.867494477667">
        <ele>110.4</ele>
        <time>2018-03-17T11:42:33Z</time>
      </trkpt>
      <trkpt lat="62.647622392889" lon="17.867518030806">
        <ele>110.6</ele>
        <time>2018-03-17T11:42:34Z</time>
      </trkpt>
      <trkpt lat="62.647613759532" lon="17.867551055492">
        <ele>110.8</ele>
        <time>2018-03-17T11:42:35Z</time>
      </trkpt>
      <trkpt lat="62.647607556926" lon="17.86758391254">
        <ele>111</ele>
        <time>2018-03-17T11:42:36Z</time>
      </trkpt>
      <trkpt lat="62.647599426483" lon="17.867615428484">
        <ele>111.4</ele>
        <time>2018-03-17T11:42:37Z</time>
      </trkpt>
      <trkpt lat="62.647589032927" lon="17.867637891976">
        <ele>111.4</ele>
        <time>2018-03-17T11:42:38Z</time>
      </trkpt>
      <trkpt lat="62.647584674339" lon="17.867661193658">
        <ele>111.6</ele>
        <time>2018-03-17T11:42:39Z</time>
      </trkpt>
      <trkpt lat="62.647573945507" lon="17.867692961059">
        <ele>111.8</ele>
        <time>2018-03-17T11:42:40Z</time>
      </trkpt>
      <trkpt lat="62.647557516983" lon="17.867726153383">
        <ele>112</ele>
        <time>2018-03-17T11:42:41Z</time>
      </trkpt>
      <trkpt lat="62.647550308549" lon="17.867753981291">
        <ele>112</ele>
        <time>2018-03-17T11:42:42Z</time>
      </trkpt>
      <trkpt lat="62.647526001039" lon="17.867791699841">
        <ele>112</ele>
        <time>2018-03-17T11:42:43Z</time>
      </trkpt>
      <trkpt lat="62.647515104569" lon="17.867804188872">
        <ele>112.2</ele>
        <time>2018-03-17T11:42:44Z</time>
      </trkpt>
      <trkpt lat="62.647498676045" lon="17.867819611568">
        <ele>112.2</ele>
        <time>2018-03-17T11:42:45Z</time>
      </trkpt>
      <trkpt lat="62.647475374363" lon="17.867829669848">
        <ele>112.2</ele>
        <time>2018-03-17T11:42:46Z</time>
      </trkpt>
      <trkpt lat="62.647453329966" lon="17.86784039868">
        <ele>112.4</ele>
        <time>2018-03-17T11:42:47Z</time>
      </trkpt>
      <trkpt lat="62.647441176211" lon="17.867852049521">
        <ele>112.4</ele>
        <time>2018-03-17T11:42:48Z</time>
      </trkpt>
      <trkpt lat="62.647416701063" lon="17.867861269611">
        <ele>112.6</ele>
        <time>2018-03-17T11:42:49Z</time>
      </trkpt>
      <trkpt lat="62.647386107128" lon="17.867859760869">
        <ele>112.8</ele>
        <time>2018-03-17T11:42:50Z</time>
      </trkpt>
      <trkpt lat="62.647375713572" lon="17.867857665394">
        <ele>112.8</ele>
        <time>2018-03-17T11:42:51Z</time>
      </trkpt>
      <trkpt lat="62.64735408827" lon="17.867848948218">
        <ele>113</ele>
        <time>2018-03-17T11:42:52Z</time>
      </trkpt>
      <trkpt lat="62.647329529303" lon="17.867844841087">
        <ele>113</ele>
        <time>2018-03-17T11:42:53Z</time>
      </trkpt>
      <trkpt lat="62.647312765503" lon="17.867837465015">
        <ele>113.4</ele>
        <time>2018-03-17T11:42:54Z</time>
      </trkpt>
      <trkpt lat="62.647287619803" lon="17.867806535804">
        <ele>113.4</ele>
        <time>2018-03-17T11:42:55Z</time>
      </trkpt>
      <trkpt lat="62.647267000329" lon="17.867780216638">
        <ele>113.6</ele>
        <time>2018-03-17T11:42:56Z</time>
      </trkpt>
      <trkpt lat="62.647248224873" lon="17.867762195553">
        <ele>113.8</ele>
        <time>2018-03-17T11:42:57Z</time>
      </trkpt>
      <trkpt lat="62.647235232928" lon="17.867736044025">
        <ele>113.8</ele>
        <time>2018-03-17T11:42:58Z</time>
      </trkpt>
      <trkpt lat="62.647213020893" lon="17.867702684063">
        <ele>113.8</ele>
        <time>2018-03-17T11:42:59Z</time>
      </trkpt>
      <trkpt lat="62.647184103338" lon="17.867664797875">
        <ele>114</ele>
        <time>2018-03-17T11:43:00Z</time>
      </trkpt>
      <trkpt lat="62.647163400045" lon="17.867627079325">
        <ele>114</ele>
        <time>2018-03-17T11:43:01Z</time>
      </trkpt>
      <trkpt lat="62.64716214276" lon="17.867596988304">
        <ele>114.2</ele>
        <time>2018-03-17T11:43:02Z</time>
      </trkpt>
      <trkpt lat="62.647146887702" lon="17.867553150967">
        <ele>114.2</ele>
        <time>2018-03-17T11:43:03Z</time>
      </trkpt>
      <trkpt lat="62.647124508029" lon="17.867513756037">
        <ele>114.2</ele>
        <time>2018-03-17T11:43:04Z</time>
      </trkpt>
      <trkpt lat="62.647119646527" lon="17.867477378591">
        <ele>114.2</ele>
        <time>2018-03-17T11:43:05Z</time>
      </trkpt>
      <trkpt lat="62.647111767541" lon="17.867437145471">
        <ele>114.2</ele>
        <time>2018-03-17T11:43:06Z</time>
      </trkpt>
      <trkpt lat="62.647098356501" lon="17.867389284822">
        <ele>114.2</ele>
        <time>2018-03-17T11:43:07Z</time>
      </trkpt>
      <trkpt lat="62.647083269081" lon="17.867353829385">
        <ele>114</ele>
        <time>2018-03-17T11:43:08Z</time>
      </trkpt>
      <trkpt lat="62.647089471687" lon="17.867320972337">
        <ele>114.2</ele>
        <time>2018-03-17T11:43:09Z</time>
      </trkpt>
      <trkpt lat="62.647074300448" lon="17.867279314294">
        <ele>114.2</ele>
        <time>2018-03-17T11:43:10Z</time>
      </trkpt>
      <trkpt lat="62.647047394549" lon="17.867238159165">
        <ele>114.4</ele>
        <time>2018-03-17T11:43:11Z</time>
      </trkpt>
      <trkpt lat="62.647033312957" lon="17.867212426732">
        <ele>114.8</ele>
        <time>2018-03-17T11:43:12Z</time>
      </trkpt>
      <trkpt lat="62.647021578297" lon="17.86715224469">
        <ele>115</ele>
        <time>2018-03-17T11:43:13Z</time>
      </trkpt>
      <trkpt lat="62.646999198624" lon="17.867107150068">
        <ele>115</ele>
        <time>2018-03-17T11:43:14Z</time>
      </trkpt>
      <trkpt lat="62.646979082064" lon="17.867069096242">
        <ele>115.2</ele>
        <time>2018-03-17T11:43:15Z</time>
      </trkpt>
      <trkpt lat="62.646960306608" lon="17.867003801241">
        <ele>115.2</ele>
        <time>2018-03-17T11:43:16Z</time>
      </trkpt>
      <trkpt lat="62.646942872256" lon="17.86697454841">
        <ele>115.2</ele>
        <time>2018-03-17T11:43:17Z</time>
      </trkpt>
      <trkpt lat="62.646946560292" lon="17.866916042748">
        <ele>115.2</ele>
        <time>2018-03-17T11:43:18Z</time>
      </trkpt>
      <trkpt lat="62.646940357686" lon="17.866854603421">
        <ele>115.2</ele>
        <time>2018-03-17T11:43:19Z</time>
      </trkpt>
      <trkpt lat="62.646934238899" lon="17.866792828818">
        <ele>115.2</ele>
        <time>2018-03-17T11:43:20Z</time>
      </trkpt>
      <trkpt lat="62.646928790664" lon="17.866739519934">
        <ele>115.4</ele>
        <time>2018-03-17T11:43:21Z</time>
      </trkpt>
      <trkpt lat="62.646926779008" lon="17.866655533296">
        <ele>115.2</ele>
        <time>2018-03-17T11:43:22Z</time>
      </trkpt>
      <trkpt lat="62.646919151479" lon="17.866601721498">
        <ele>115.4</ele>
        <time>2018-03-17T11:43:23Z</time>
      </trkpt>
      <trkpt lat="62.646915128167" lon="17.866521506715">
        <ele>115.4</ele>
        <time>2018-03-17T11:43:24Z</time>
      </trkpt>
      <trkpt lat="62.646909260837" lon="17.866448668004">
        <ele>115.4</ele>
        <time>2018-03-17T11:43:25Z</time>
      </trkpt>
      <trkpt lat="62.646904566973" lon="17.866375829293">
        <ele>115.6</ele>
        <time>2018-03-17T11:43:26Z</time>
      </trkpt>
      <trkpt lat="62.646898699643" lon="17.86629980546">
        <ele>115.6</ele>
        <time>2018-03-17T11:43:27Z</time>
      </trkpt>
      <trkpt lat="62.646905321344" lon="17.866239120504">
        <ele>115.4</ele>
        <time>2018-03-17T11:43:28Z</time>
      </trkpt>
      <trkpt lat="62.64689140739" lon="17.866165192146">
        <ele>115.6</ele>
        <time>2018-03-17T11:43:29Z</time>
      </trkpt>
      <trkpt lat="62.64688134911" lon="17.866093526901">
        <ele>115.2</ele>
        <time>2018-03-17T11:43:30Z</time>
      </trkpt>
      <trkpt lat="62.6468821873" lon="17.866033847773">
        <ele>115.2</ele>
        <time>2018-03-17T11:43:31Z</time>
      </trkpt>
      <trkpt lat="62.646867686613" lon="17.865963607451">
        <ele>115</ele>
        <time>2018-03-17T11:43:32Z</time>
      </trkpt>
      <trkpt lat="62.646851844822" lon="17.86592429634">
        <ele>115</ele>
        <time>2018-03-17T11:43:33Z</time>
      </trkpt>
      <trkpt lat="62.646842121818" lon="17.865856319131">
        <ele>114.8</ele>
        <time>2018-03-17T11:43:34Z</time>
      </trkpt>
      <trkpt lat="62.646832482633" lon="17.865783983334">
        <ele>114.8</ele>
        <time>2018-03-17T11:43:35Z</time>
      </trkpt>
      <trkpt lat="62.646819993602" lon="17.865717682505">
        <ele>114.6</ele>
        <time>2018-03-17T11:43:36Z</time>
      </trkpt>
      <trkpt lat="62.64679501554" lon="17.865642832138">
        <ele>114.6</ele>
        <time>2018-03-17T11:43:37Z</time>
      </trkpt>
      <trkpt lat="62.646777162093" lon="17.865584661752">
        <ele>114.4</ele>
        <time>2018-03-17T11:43:38Z</time>
      </trkpt>
      <trkpt lat="62.646754530963" lon="17.865536801103">
        <ele>114.2</ele>
        <time>2018-03-17T11:43:39Z</time>
      </trkpt>
      <trkpt lat="62.646727708883" lon="17.865485252418">
        <ele>114.2</ele>
        <time>2018-03-17T11:43:40Z</time>
      </trkpt>
      <trkpt lat="62.646707927599" lon="17.865462202193">
        <ele>114</ele>
        <time>2018-03-17T11:43:41Z</time>
      </trkpt>
      <trkpt lat="62.646689738876" lon="17.865385256351">
        <ele>114</ele>
        <time>2018-03-17T11:43:42Z</time>
      </trkpt>
      <trkpt lat="62.646668113574" lon="17.865324068481">
        <ele>114</ele>
        <time>2018-03-17T11:43:43Z</time>
      </trkpt>
      <trkpt lat="62.646655792181" lon="17.865298671324">
        <ele>114</ele>
        <time>2018-03-17T11:43:44Z</time>
      </trkpt>
      <trkpt lat="62.646630646481" lon="17.865241674404">
        <ele>113.8</ele>
        <time>2018-03-17T11:43:45Z</time>
      </trkpt>
      <trkpt lat="62.646596196872" lon="17.865199764904">
        <ele>113.8</ele>
        <time>2018-03-17T11:43:46Z</time>
      </trkpt>
      <trkpt lat="62.646586976782" lon="17.865163806553">
        <ele>113.8</ele>
        <time>2018-03-17T11:43:47Z</time>
      </trkpt>
      <trkpt lat="62.646570464439" lon="17.865088034177">
        <ele>113.8</ele>
        <time>2018-03-17T11:43:48Z</time>
      </trkpt>
      <trkpt lat="62.646562082539" lon="17.865042688098">
        <ele>113.8</ele>
        <time>2018-03-17T11:43:49Z</time>
      </trkpt>
      <trkpt lat="62.646541211608" lon="17.865015027828">
        <ele>113.8</ele>
        <time>2018-03-17T11:43:50Z</time>
      </trkpt>
      <trkpt lat="62.646513551338" lon="17.864967334817">
        <ele>113.8</ele>
        <time>2018-03-17T11:43:51Z</time>
      </trkpt>
      <trkpt lat="62.646480107557" lon="17.86493523214">
        <ele>114</ele>
        <time>2018-03-17T11:43:52Z</time>
      </trkpt>
      <trkpt lat="62.646459152807" lon="17.864906901318">
        <ele>114</ele>
        <time>2018-03-17T11:43:53Z</time>
      </trkpt>
      <trkpt lat="62.646432666003" lon="17.864870775329">
        <ele>114</ele>
        <time>2018-03-17T11:43:54Z</time>
      </trkpt>
      <trkpt lat="62.646411878891" lon="17.864857029013">
        <ele>114.2</ele>
        <time>2018-03-17T11:43:55Z</time>
      </trkpt>
      <trkpt lat="62.646382709879" lon="17.864815957703">
        <ele>114.2</ele>
        <time>2018-03-17T11:43:56Z</time>
      </trkpt>
      <trkpt lat="62.64635580398" lon="17.86480363631">
        <ele>114</ele>
        <time>2018-03-17T11:43:57Z</time>
      </trkpt>
      <trkpt lat="62.646325796778" lon="17.864779077343">
        <ele>114</ele>
        <time>2018-03-17T11:43:58Z</time>
      </trkpt>
      <trkpt lat="62.646291850083" lon="17.864748483408">
        <ele>114.2</ele>
        <time>2018-03-17T11:43:59Z</time>
      </trkpt>
      <trkpt lat="62.64625941213" lon="17.86472652283">
        <ele>114</ele>
        <time>2018-03-17T11:44:00Z</time>
      </trkpt>
      <trkpt lat="62.646222364132" lon="17.864724259717">
        <ele>114</ele>
        <time>2018-03-17T11:44:01Z</time>
      </trkpt>
      <trkpt lat="62.646179951718" lon="17.864758206412">
        <ele>113.8</ele>
        <time>2018-03-17T11:44:02Z</time>
      </trkpt>
      <trkpt lat="62.646142987539" lon="17.864790392908">
        <ele>113.8</ele>
        <time>2018-03-17T11:44:03Z</time>
      </trkpt>
      <trkpt lat="62.646120691685" lon="17.864828530553">
        <ele>113.6</ele>
        <time>2018-03-17T11:44:04Z</time>
      </trkpt>
      <trkpt lat="62.646097892917" lon="17.864879660143">
        <ele>113.4</ele>
        <time>2018-03-17T11:44:05Z</time>
      </trkpt>
      <trkpt lat="62.646076938167" lon="17.864947721171">
        <ele>113.2</ele>
        <time>2018-03-17T11:44:06Z</time>
      </trkpt>
      <trkpt lat="62.646056989245" lon="17.8650056401">
        <ele>113.2</ele>
        <time>2018-03-17T11:44:07Z</time>
      </trkpt>
      <trkpt lat="62.646029999527" lon="17.865077053888">
        <ele>113</ele>
        <time>2018-03-17T11:44:08Z</time>
      </trkpt>
      <trkpt lat="62.646000495239" lon="17.865147797124">
        <ele>113</ele>
        <time>2018-03-17T11:44:09Z</time>
      </trkpt>
      <trkpt lat="62.645957915187" lon="17.865227844269">
        <ele>112.8</ele>
        <time>2018-03-17T11:44:10Z</time>
      </trkpt>
      <trkpt lat="62.6459182688" lon="17.865291630528">
        <ele>112.4</ele>
        <time>2018-03-17T11:44:11Z</time>
      </trkpt>
      <trkpt lat="62.645874850558" lon="17.865364553058">
        <ele>112.2</ele>
        <time>2018-03-17T11:44:12Z</time>
      </trkpt>
      <trkpt lat="62.64582774428" lon="17.865439151968">
        <ele>111.4</ele>
        <time>2018-03-17T11:44:13Z</time>
      </trkpt>
      <trkpt lat="62.645782817296" lon="17.865518277104">
        <ele>111</ele>
        <time>2018-03-17T11:44:14Z</time>
      </trkpt>
      <trkpt lat="62.645727412937" lon="17.865616512972">
        <ele>110.6</ele>
        <time>2018-03-17T11:44:15Z</time>
      </trkpt>
      <trkpt lat="62.645683407962" lon="17.865715084116">
        <ele>110.2</ele>
        <time>2018-03-17T11:44:16Z</time>
      </trkpt>
      <trkpt lat="62.645639738263" lon="17.8658103025">
        <ele>109.6</ele>
        <time>2018-03-17T11:44:17Z</time>
      </trkpt>
      <trkpt lat="62.6455913747" lon="17.865921278856">
        <ele>109</ele>
        <time>2018-03-17T11:44:18Z</time>
      </trkpt>
      <trkpt lat="62.645541837671" lon="17.866006606598">
        <ele>108.2</ele>
        <time>2018-03-17T11:44:19Z</time>
      </trkpt>
      <trkpt lat="62.645487355321" lon="17.866105932113">
        <ele>107.4</ele>
        <time>2018-03-17T11:44:20Z</time>
      </trkpt>
      <trkpt lat="62.64543714774" lon="17.866200982859">
        <ele>106.8</ele>
        <time>2018-03-17T11:44:21Z</time>
      </trkpt>
      <trkpt lat="62.645381994838" lon="17.866296285062">
        <ele>106</ele>
        <time>2018-03-17T11:44:22Z</time>
      </trkpt>
      <trkpt lat="62.645329775601" lon="17.866391000532">
        <ele>105.4</ele>
        <time>2018-03-17T11:44:23Z</time>
      </trkpt>
      <trkpt lat="62.645278394554" lon="17.866485296907">
        <ele>104.6</ele>
        <time>2018-03-17T11:44:24Z</time>
      </trkpt>
      <trkpt lat="62.645222319643" lon="17.866596273263">
        <ele>103.8</ele>
        <time>2018-03-17T11:44:25Z</time>
      </trkpt>
      <trkpt lat="62.645173201709" lon="17.866708087809">
        <ele>103</ele>
        <time>2018-03-17T11:44:26Z</time>
      </trkpt>
      <trkpt lat="62.645121485386" lon="17.866841695295">
        <ele>102</ele>
        <time>2018-03-17T11:44:27Z</time>
      </trkpt>
      <trkpt lat="62.645079324429" lon="17.866969938365">
        <ele>101.2</ele>
        <time>2018-03-17T11:44:28Z</time>
      </trkpt>
      <trkpt lat="62.645057028575" lon="17.867074795934">
        <ele>100.6</ele>
        <time>2018-03-17T11:44:29Z</time>
      </trkpt>
      <trkpt lat="62.645014448523" lon="17.867254000956">
        <ele>99.4</ele>
        <time>2018-03-17T11:44:30Z</time>
      </trkpt>
      <trkpt lat="62.64496859953" lon="17.867406048622">
        <ele>98.2</ele>
        <time>2018-03-17T11:44:31Z</time>
      </trkpt>
      <trkpt lat="62.64493171917" lon="17.867539572289">
        <ele>97</ele>
        <time>2018-03-17T11:44:32Z</time>
      </trkpt>
      <trkpt lat="62.64488897148" lon="17.86765851145">
        <ele>95.6</ele>
        <time>2018-03-17T11:44:33Z</time>
      </trkpt>
      <trkpt lat="62.644856114432" lon="17.867768062883">
        <ele>94.4</ele>
        <time>2018-03-17T11:44:34Z</time>
      </trkpt>
      <trkpt lat="62.644816970959" lon="17.867906196595">
        <ele>93.8</ele>
        <time>2018-03-17T11:44:35Z</time>
      </trkpt>
      <trkpt lat="62.644787801947" lon="17.868032679466">
        <ele>92.8</ele>
        <time>2018-03-17T11:44:36Z</time>
      </trkpt>
      <trkpt lat="62.644774474726" lon="17.868143152908">
        <ele>92.4</ele>
        <time>2018-03-17T11:44:37Z</time>
      </trkpt>
      <trkpt lat="62.644759638763" lon="17.868240382948">
        <ele>92.4</ele>
        <time>2018-03-17T11:44:38Z</time>
      </trkpt>
      <trkpt lat="62.644746060085" lon="17.868336690979">
        <ele>92.4</ele>
        <time>2018-03-17T11:44:39Z</time>
      </trkpt>
      <trkpt lat="62.644726194982" lon="17.868444985127">
        <ele>92.4</ele>
        <time>2018-03-17T11:44:40Z</time>
      </trkpt>
      <trkpt lat="62.644713538313" lon="17.868518997304">
        <ele>92.4</ele>
        <time>2018-03-17T11:44:41Z</time>
      </trkpt>
      <trkpt lat="62.644712616304" lon="17.868654113532">
        <ele>93</ele>
        <time>2018-03-17T11:44:42Z</time>
      </trkpt>
      <trkpt lat="62.64471462796" lon="17.868758049092">
        <ele>93.2</ele>
        <time>2018-03-17T11:44:43Z</time>
      </trkpt>
      <trkpt lat="62.644704904956" lon="17.868877574986">
        <ele>93.4</ele>
        <time>2018-03-17T11:44:44Z</time>
      </trkpt>
      <trkpt lat="62.644703563852" lon="17.868970027343">
        <ele>93.8</ele>
        <time>2018-03-17T11:44:45Z</time>
      </trkpt>
      <trkpt lat="62.644704234404" lon="17.869073208532">
        <ele>94</ele>
        <time>2018-03-17T11:44:46Z</time>
      </trkpt>
      <trkpt lat="62.644696271599" lon="17.869160631749">
        <ele>93.8</ele>
        <time>2018-03-17T11:44:47Z</time>
      </trkpt>
      <trkpt lat="62.644688224975" lon="17.869254089934">
        <ele>93.8</ele>
        <time>2018-03-17T11:44:48Z</time>
      </trkpt>
      <trkpt lat="62.644679675437" lon="17.869345955558">
        <ele>93.8</ele>
        <time>2018-03-17T11:44:49Z</time>
      </trkpt>
      <trkpt lat="62.6446777476" lon="17.869457770104">
        <ele>93.8</ele>
        <time>2018-03-17T11:44:50Z</time>
      </trkpt>
      <trkpt lat="62.644670120071" lon="17.869549384271">
        <ele>93.8</ele>
        <time>2018-03-17T11:44:51Z</time>
      </trkpt>
      <trkpt lat="62.644665007112" lon="17.869637813316">
        <ele>93.8</ele>
        <time>2018-03-17T11:44:52Z</time>
      </trkpt>
      <trkpt lat="62.644666515854" lon="17.869733702252">
        <ele>93.6</ele>
        <time>2018-03-17T11:44:53Z</time>
      </trkpt>
      <trkpt lat="62.644661067619" lon="17.869835542337">
        <ele>93.4</ele>
        <time>2018-03-17T11:44:54Z</time>
      </trkpt>
      <trkpt lat="62.644648494769" lon="17.869957079887">
        <ele>93.2</ele>
        <time>2018-03-17T11:44:55Z</time>
      </trkpt>
      <trkpt lat="62.644652685719" lon="17.870062021275">
        <ele>92.8</ele>
        <time>2018-03-17T11:44:56Z</time>
      </trkpt>
      <trkpt lat="62.644639442317" lon="17.870173416726">
        <ele>92.6</ele>
        <time>2018-03-17T11:44:57Z</time>
      </trkpt>
      <trkpt lat="62.644623097612" lon="17.870282129969">
        <ele>92.2</ele>
        <time>2018-03-17T11:44:58Z</time>
      </trkpt>
      <trkpt lat="62.644617146463" lon="17.870364021132">
        <ele>92.2</ele>
        <time>2018-03-17T11:44:59Z</time>
      </trkpt>
      <trkpt lat="62.644599041559" lon="17.870497628618">
        <ele>92</ele>
        <time>2018-03-17T11:45:00Z</time>
      </trkpt>
      <trkpt lat="62.644588228908" lon="17.870621010186">
        <ele>91.8</ele>
        <time>2018-03-17T11:45:01Z</time>
      </trkpt>
      <trkpt lat="62.644575572239" lon="17.870716899122">
        <ele>91.8</ele>
        <time>2018-03-17T11:45:02Z</time>
      </trkpt>
      <trkpt lat="62.644563250846" lon="17.87085201535">
        <ele>91.4</ele>
        <time>2018-03-17T11:45:03Z</time>
      </trkpt>
      <trkpt lat="62.644556964421" lon="17.870970954511">
        <ele>90.8</ele>
        <time>2018-03-17T11:45:04Z</time>
      </trkpt>
      <trkpt lat="62.644553108747" lon="17.871095174269">
        <ele>90.2</ele>
        <time>2018-03-17T11:45:05Z</time>
      </trkpt>
      <trkpt lat="62.644539278612" lon="17.871222411511">
        <ele>89.6</ele>
        <time>2018-03-17T11:45:06Z</time>
      </trkpt>
      <trkpt lat="62.644521676622" lon="17.871345038708">
        <ele>88.8</ele>
        <time>2018-03-17T11:45:07Z</time>
      </trkpt>
      <trkpt lat="62.644504661365" lon="17.871456769435">
        <ele>88.4</ele>
        <time>2018-03-17T11:45:08Z</time>
      </trkpt>
      <trkpt lat="62.64450088951" lon="17.871565398859">
        <ele>88.4</ele>
        <time>2018-03-17T11:45:09Z</time>
      </trkpt>
      <trkpt lat="62.644499464587" lon="17.871669502057">
        <ele>88.4</ele>
        <time>2018-03-17T11:45:10Z</time>
      </trkpt>
      <trkpt lat="62.644487143194" lon="17.871754829799">
        <ele>88.6</ele>
        <time>2018-03-17T11:45:11Z</time>
      </trkpt>
      <trkpt lat="62.644467948643" lon="17.871863794499">
        <ele>88.6</ele>
        <time>2018-03-17T11:45:12Z</time>
      </trkpt>
      <trkpt lat="62.644449508463" lon="17.871965802222">
        <ele>88.6</ele>
        <time>2018-03-17T11:45:13Z</time>
      </trkpt>
      <trkpt lat="62.644430313912" lon="17.872044675901">
        <ele>88.6</ele>
        <time>2018-03-17T11:45:14Z</time>
      </trkpt>
      <trkpt lat="62.644408353334" lon="17.872147437995">
        <ele>88.6</ele>
        <time>2018-03-17T11:45:15Z</time>
      </trkpt>
      <trkpt lat="62.644392763" lon="17.872226144036">
        <ele>88.6</ele>
        <time>2018-03-17T11:45:16Z</time>
      </trkpt>
      <trkpt lat="62.644374741915" lon="17.872314824538">
        <ele>88.4</ele>
        <time>2018-03-17T11:45:17Z</time>
      </trkpt>
      <trkpt lat="62.644355463545" lon="17.872418341003">
        <ele>88.2</ele>
        <time>2018-03-17T11:45:18Z</time>
      </trkpt>
      <trkpt lat="62.644343896523" lon="17.872503584926">
        <ele>88.2</ele>
        <time>2018-03-17T11:45:19Z</time>
      </trkpt>
      <trkpt lat="62.644321935945" lon="17.872600144414">
        <ele>88</ele>
        <time>2018-03-17T11:45:20Z</time>
      </trkpt>
      <trkpt lat="62.644306177973" lon="17.872678515179">
        <ele>87.8</ele>
        <time>2018-03-17T11:45:21Z</time>
      </trkpt>
      <trkpt lat="62.644291258191" lon="17.872760909256">
        <ele>87.8</ele>
        <time>2018-03-17T11:45:22Z</time>
      </trkpt>
      <trkpt lat="62.644277763332" lon="17.872850847043">
        <ele>87.6</ele>
        <time>2018-03-17T11:45:23Z</time>
      </trkpt>
      <trkpt lat="62.64426368174" lon="17.87294832854">
        <ele>87.6</ele>
        <time>2018-03-17T11:45:24Z</time>
      </trkpt>
      <trkpt lat="62.64424691794" lon="17.873061400371">
        <ele>87.4</ele>
        <time>2018-03-17T11:45:25Z</time>
      </trkpt>
      <trkpt lat="62.644233842176" lon="17.873170951804">
        <ele>87.2</ele>
        <time>2018-03-17T11:45:26Z</time>
      </trkpt>
      <trkpt lat="62.644214731444" lon="17.873290142422">
        <ele>87</ele>
        <time>2018-03-17T11:45:27Z</time>
      </trkpt>
      <trkpt lat="62.644194028151" lon="17.873398520389">
        <ele>86.6</ele>
        <time>2018-03-17T11:45:28Z</time>
      </trkpt>
      <trkpt lat="62.644174330686" lon="17.873490218375">
        <ele>86</ele>
        <time>2018-03-17T11:45:29Z</time>
      </trkpt>
      <trkpt lat="62.644149352624" lon="17.873617120341">
        <ele>85.6</ele>
        <time>2018-03-17T11:45:30Z</time>
      </trkpt>
      <trkpt lat="62.644124877476" lon="17.873729270163">
        <ele>85.2</ele>
        <time>2018-03-17T11:45:31Z</time>
      </trkpt>
      <trkpt lat="62.6440993965" lon="17.873826584022">
        <ele>84.6</ele>
        <time>2018-03-17T11:45:32Z</time>
      </trkpt>
      <trkpt lat="62.644074753714" lon="17.873922053863">
        <ele>84</ele>
        <time>2018-03-17T11:45:33Z</time>
      </trkpt>
      <trkpt lat="62.644058828104" lon="17.874008555071">
        <ele>84</ele>
        <time>2018-03-17T11:45:34Z</time>
      </trkpt>
      <trkpt lat="62.644039549734" lon="17.874115340477">
        <ele>83.8</ele>
        <time>2018-03-17T11:45:35Z</time>
      </trkpt>
      <trkpt lat="62.644015242224" lon="17.87426428684">
        <ele>83.8</ele>
        <time>2018-03-17T11:45:36Z</time>
      </trkpt>
      <trkpt lat="62.643988420144" lon="17.874359169948">
        <ele>83.8</ele>
        <time>2018-03-17T11:45:37Z</time>
      </trkpt>
      <trkpt lat="62.643964112634" lon="17.874456064712">
        <ele>83.4</ele>
        <time>2018-03-17T11:45:38Z</time>
      </trkpt>
      <trkpt lat="62.643943828436" lon="17.874544074662">
        <ele>83.2</ele>
        <time>2018-03-17T11:45:39Z</time>
      </trkpt>
      <trkpt lat="62.643922454591" lon="17.874623367436">
        <ele>82.6</ele>
        <time>2018-03-17T11:45:40Z</time>
      </trkpt>
      <trkpt lat="62.643905523153" lon="17.874713724318">
        <ele>82.4</ele>
        <time>2018-03-17T11:45:41Z</time>
      </trkpt>
      <trkpt lat="62.64390409823" lon="17.874800393164">
        <ele>82</ele>
        <time>2018-03-17T11:45:42Z</time>
      </trkpt>
      <trkpt lat="62.643888424077" lon="17.87490634038">
        <ele>82</ele>
        <time>2018-03-17T11:45:43Z</time>
      </trkpt>
      <trkpt lat="62.643879120168" lon="17.874995859072">
        <ele>82</ele>
        <time>2018-03-17T11:45:44Z</time>
      </trkpt>
      <trkpt lat="62.643870486811" lon="17.875093340569">
        <ele>82</ele>
        <time>2018-03-17T11:45:45Z</time>
      </trkpt>
      <trkpt lat="62.643849112966" lon="17.875206915314">
        <ele>81.8</ele>
        <time>2018-03-17T11:45:46Z</time>
      </trkpt>
      <trkpt lat="62.643834025546" lon="17.875294003255">
        <ele>81.8</ele>
        <time>2018-03-17T11:45:47Z</time>
      </trkpt>
      <trkpt lat="62.643812567882" lon="17.875393412589">
        <ele>81.6</ele>
        <time>2018-03-17T11:45:48Z</time>
      </trkpt>
      <trkpt lat="62.643795720263" lon="17.875469520241">
        <ele>81.6</ele>
        <time>2018-03-17T11:45:49Z</time>
      </trkpt>
      <trkpt lat="62.64377417878" lon="17.875579826045">
        <ele>81.6</ele>
        <time>2018-03-17T11:45:50Z</time>
      </trkpt>
      <trkpt lat="62.643753978401" lon="17.875674038601">
        <ele>81.6</ele>
        <time>2018-03-17T11:45:51Z</time>
      </trkpt>
      <trkpt lat="62.643740734999" lon="17.875756348859">
        <ele>81.4</ele>
        <time>2018-03-17T11:45:52Z</time>
      </trkpt>
      <trkpt lat="62.643725060846" lon="17.875843688257">
        <ele>81.4</ele>
        <time>2018-03-17T11:45:53Z</time>
      </trkpt>
      <trkpt lat="62.64371634367" lon="17.875917700434">
        <ele>81.2</ele>
        <time>2018-03-17T11:45:54Z</time>
      </trkpt>
      <trkpt lat="62.643700501879" lon="17.876015349569">
        <ele>81.2</ele>
        <time>2018-03-17T11:45:55Z</time>
      </trkpt>
      <trkpt lat="62.643685917373" lon="17.876108640116">
        <ele>81</ele>
        <time>2018-03-17T11:45:56Z</time>
      </trkpt>
      <trkpt lat="62.64367108141" lon="17.8761954766">
        <ele>81</ele>
        <time>2018-03-17T11:45:57Z</time>
      </trkpt>
      <trkpt lat="62.643655742533" lon="17.876286671672">
        <ele>81</ele>
        <time>2018-03-17T11:45:58Z</time>
      </trkpt>
      <trkpt lat="62.643644426968" lon="17.876380046038">
        <ele>81</ele>
        <time>2018-03-17T11:45:59Z</time>
      </trkpt>
      <trkpt lat="62.643625064779" lon="17.876449615808">
        <ele>80.8</ele>
        <time>2018-03-17T11:46:00Z</time>
      </trkpt>
      <trkpt lat="62.643603774753" lon="17.876538547767">
        <ele>80.8</ele>
        <time>2018-03-17T11:46:01Z</time>
      </trkpt>
      <trkpt lat="62.643568486954" lon="17.876611386478">
        <ele>80.6</ele>
        <time>2018-03-17T11:46:02Z</time>
      </trkpt>
      <trkpt lat="62.643530349309" lon="17.87666821576">
        <ele>80.4</ele>
        <time>2018-03-17T11:46:03Z</time>
      </trkpt>
      <trkpt lat="62.643490283827" lon="17.876695121659">
        <ele>80.2</ele>
        <time>2018-03-17T11:46:04Z</time>
      </trkpt>
      <trkpt lat="62.643457510598" lon="17.876745245421">
        <ele>80</ele>
        <time>2018-03-17T11:46:05Z</time>
      </trkpt>
      <trkpt lat="62.643418534763" lon="17.876757231538">
        <ele>80</ele>
        <time>2018-03-17T11:46:06Z</time>
      </trkpt>
      <trkpt lat="62.643384839525" lon="17.876755806615">
        <ele>79.8</ele>
        <time>2018-03-17T11:46:07Z</time>
      </trkpt>
      <trkpt lat="62.643353323581" lon="17.876764272334">
        <ele>79.8</ele>
        <time>2018-03-17T11:46:08Z</time>
      </trkpt>
      <trkpt lat="62.643307642226" lon="17.876764188515">
        <ele>79.8</ele>
        <time>2018-03-17T11:46:09Z</time>
      </trkpt>
      <trkpt lat="62.643273444074" lon="17.876765194343">
        <ele>79.8</ele>
        <time>2018-03-17T11:46:10Z</time>
      </trkpt>
      <trkpt lat="62.643260116853" lon="17.876771564587">
        <ele>79.8</ele>
        <time>2018-03-17T11:46:11Z</time>
      </trkpt>
      <trkpt lat="62.643229103823" lon="17.8767570639">
        <ele>79.8</ele>
        <time>2018-03-17T11:46:12Z</time>
      </trkpt>
      <trkpt lat="62.64319666587" lon="17.876743317584">
        <ele>79.8</ele>
        <time>2018-03-17T11:46:13Z</time>
      </trkpt>
      <trkpt lat="62.643170765799" lon="17.876730325639">
        <ele>79.8</ele>
        <time>2018-03-17T11:46:14Z</time>
      </trkpt>
      <trkpt lat="62.643138746941" lon="17.876714232391">
        <ele>79.6</ele>
        <time>2018-03-17T11:46:15Z</time>
      </trkpt>
      <trkpt lat="62.643108069187" lon="17.876706185767">
        <ele>79.6</ele>
        <time>2018-03-17T11:46:16Z</time>
      </trkpt>
      <trkpt lat="62.643078397261" lon="17.876687075035">
        <ele>79.6</ele>
        <time>2018-03-17T11:46:17Z</time>
      </trkpt>
      <trkpt lat="62.643044199109" lon="17.876669473045">
        <ele>79.8</ele>
        <time>2018-03-17T11:46:18Z</time>
      </trkpt>
      <trkpt lat="62.643014527183" lon="17.876654385625">
        <ele>79.6</ele>
        <time>2018-03-17T11:46:19Z</time>
      </trkpt>
      <trkpt lat="62.642988040379" lon="17.876638627653">
        <ele>80</ele>
        <time>2018-03-17T11:46:20Z</time>
      </trkpt>
      <trkpt lat="62.642965995982" lon="17.87662379169">
        <ele>80</ele>
        <time>2018-03-17T11:46:21Z</time>
      </trkpt>
      <trkpt lat="62.64294353249" lon="17.876615158333">
        <ele>80.4</ele>
        <time>2018-03-17T11:46:22Z</time>
      </trkpt>
      <trkpt lat="62.642925595224" lon="17.876608033718">
        <ele>80.8</ele>
        <time>2018-03-17T11:46:23Z</time>
      </trkpt>
      <trkpt lat="62.642904556655" lon="17.876607195528">
        <ele>81.2</ele>
        <time>2018-03-17T11:46:24Z</time>
      </trkpt>
      <trkpt lat="62.642884272457" lon="17.876600992922">
        <ele>81.2</ele>
        <time>2018-03-17T11:46:25Z</time>
      </trkpt>
      <trkpt lat="62.642862479517" lon="17.876597891619">
        <ele>81.8</ele>
        <time>2018-03-17T11:46:26Z</time>
      </trkpt>
      <trkpt lat="62.64284462607" lon="17.876600573827">
        <ele>82.4</ele>
        <time>2018-03-17T11:46:27Z</time>
      </trkpt>
      <trkpt lat="62.642824844786" lon="17.876602753121">
        <ele>82.6</ele>
        <time>2018-03-17T11:46:28Z</time>
      </trkpt>
      <trkpt lat="62.642810427918" lon="17.876604094225">
        <ele>82.8</ele>
        <time>2018-03-17T11:46:29Z</time>
      </trkpt>
      <trkpt lat="62.642786371865" lon="17.876608871908">
        <ele>83</ele>
        <time>2018-03-17T11:46:30Z</time>
      </trkpt>
      <trkpt lat="62.642768853694" lon="17.876618091998">
        <ele>83.2</ele>
        <time>2018-03-17T11:46:31Z</time>
      </trkpt>
      <trkpt lat="62.64274236689" lon="17.876628401735">
        <ele>83.2</ele>
        <time>2018-03-17T11:46:32Z</time>
      </trkpt>
      <trkpt lat="62.642716885914" lon="17.876645081716">
        <ele>83.4</ele>
        <time>2018-03-17T11:46:33Z</time>
      </trkpt>
      <trkpt lat="62.642695260612" lon="17.876664779181">
        <ele>83.4</ele>
        <time>2018-03-17T11:46:34Z</time>
      </trkpt>
      <trkpt lat="62.642672042749" lon="17.876684309008">
        <ele>83.8</ele>
        <time>2018-03-17T11:46:35Z</time>
      </trkpt>
      <trkpt lat="62.642646729411" lon="17.876704593206">
        <ele>83.8</ele>
        <time>2018-03-17T11:46:36Z</time>
      </trkpt>
      <trkpt lat="62.642624936471" lon="17.87672018354">
        <ele>83.8</ele>
        <time>2018-03-17T11:46:37Z</time>
      </trkpt>
      <trkpt lat="62.642585541541" lon="17.876752956769">
        <ele>84</ele>
        <time>2018-03-17T11:46:38Z</time>
      </trkpt>
      <trkpt lat="62.64256131785" lon="17.87677969503">
        <ele>84.2</ele>
        <time>2018-03-17T11:46:39Z</time>
      </trkpt>
      <trkpt lat="62.642545308421" lon="17.876804589273">
        <ele>84.4</ele>
        <time>2018-03-17T11:46:40Z</time>
      </trkpt>
      <trkpt lat="62.642531059191" lon="17.87682160453">
        <ele>84.6</ele>
        <time>2018-03-17T11:46:41Z</time>
      </trkpt>
      <trkpt lat="62.642501554903" lon="17.876848594248">
        <ele>85</ele>
        <time>2018-03-17T11:46:42Z</time>
      </trkpt>
      <trkpt lat="62.642482192714" lon="17.876880780744">
        <ele>85</ele>
        <time>2018-03-17T11:46:43Z</time>
      </trkpt>
      <trkpt lat="62.642466686199" lon="17.876907686643">
        <ele>85.2</ele>
        <time>2018-03-17T11:46:44Z</time>
      </trkpt>
      <trkpt lat="62.642431314581" lon="17.876940124596">
        <ele>85.4</ele>
        <time>2018-03-17T11:46:45Z</time>
      </trkpt>
      <trkpt lat="62.642414047867" lon="17.876968958332">
        <ele>85.4</ele>
        <time>2018-03-17T11:46:46Z</time>
      </trkpt>
      <trkpt lat="62.642403654311" lon="17.876998797896">
        <ele>85.4</ele>
        <time>2018-03-17T11:46:47Z</time>
      </trkpt>
      <trkpt lat="62.642377335145" lon="17.877035678256">
        <ele>85.6</ele>
        <time>2018-03-17T11:46:48Z</time>
      </trkpt>
      <trkpt lat="62.642359062603" lon="17.877070127865">
        <ele>85.6</ele>
        <time>2018-03-17T11:46:49Z</time>
      </trkpt>
      <trkpt lat="62.642356967128" lon="17.877098039592">
        <ele>85.6</ele>
        <time>2018-03-17T11:46:50Z</time>
      </trkpt>
      <trkpt lat="62.642334838912" lon="17.877145397327">
        <ele>85.8</ele>
        <time>2018-03-17T11:46:51Z</time>
      </trkpt>
      <trkpt lat="62.642314638533" lon="17.877199209125">
        <ele>86</ele>
        <time>2018-03-17T11:46:52Z</time>
      </trkpt>
      <trkpt lat="62.642282871132" lon="17.877255619312">
        <ele>86</ele>
        <time>2018-03-17T11:46:53Z</time>
      </trkpt>
      <trkpt lat="62.642251606645" lon="17.877299540468">
        <ele>86</ele>
        <time>2018-03-17T11:46:54Z</time>
      </trkpt>
      <trkpt lat="62.642218581959" lon="17.877351592067">
        <ele>85.6</ele>
        <time>2018-03-17T11:46:55Z</time>
      </trkpt>
      <trkpt lat="62.64219335244" lon="17.877407164064">
        <ele>85.2</ele>
        <time>2018-03-17T11:46:56Z</time>
      </trkpt>
      <trkpt lat="62.642157394089" lon="17.877459886215">
        <ele>85</ele>
        <time>2018-03-17T11:46:57Z</time>
      </trkpt>
      <trkpt lat="62.642123531213" lon="17.877519565343">
        <ele>84.6</ele>
        <time>2018-03-17T11:46:58Z</time>
      </trkpt>
      <trkpt lat="62.642091260898" lon="17.877573712417">
        <ele>84.4</ele>
        <time>2018-03-17T11:46:59Z</time>
      </trkpt>
      <trkpt lat="62.642053123253" lon="17.87765560358">
        <ele>84.2</ele>
        <time>2018-03-17T11:47:00Z</time>
      </trkpt>
      <trkpt lat="62.642019260377" lon="17.877738081476">
        <ele>84</ele>
        <time>2018-03-17T11:47:01Z</time>
      </trkpt>
      <trkpt lat="62.641988079709" lon="17.877828773634">
        <ele>83.4</ele>
        <time>2018-03-17T11:47:02Z</time>
      </trkpt>
      <trkpt lat="62.641957401955" lon="17.877925836036">
        <ele>83</ele>
        <time>2018-03-17T11:47:03Z</time>
      </trkpt>
      <trkpt lat="62.64193016078" lon="17.878029603958">
        <ele>82.6</ele>
        <time>2018-03-17T11:47:04Z</time>
      </trkpt>
      <trkpt lat="62.641899231569" lon="17.878150219499">
        <ele>82</ele>
        <time>2018-03-17T11:47:05Z</time>
      </trkpt>
      <trkpt lat="62.641869978738" lon="17.878279384578">
        <ele>81.4</ele>
        <time>2018-03-17T11:47:06Z</time>
      </trkpt>
      <trkpt lat="62.641841899373" lon="17.878409639304">
        <ele>80.8</ele>
        <time>2018-03-17T11:47:07Z</time>
      </trkpt>
      <trkpt lat="62.641818849148" lon="17.878557747477">
        <ele>80</ele>
        <time>2018-03-17T11:47:08Z</time>
      </trkpt>
      <trkpt lat="62.641798900226" lon="17.87869244461">
        <ele>79.2</ele>
        <time>2018-03-17T11:47:09Z</time>
      </trkpt>
      <trkpt lat="62.641781633512" lon="17.878829153399">
        <ele>78.4</ele>
        <time>2018-03-17T11:47:10Z</time>
      </trkpt>
      <trkpt lat="62.64177425744" lon="17.878967957663">
        <ele>77.8</ele>
        <time>2018-03-17T11:47:11Z</time>
      </trkpt>
      <trkpt lat="62.641775430906" lon="17.879122771356">
        <ele>77.2</ele>
        <time>2018-03-17T11:47:12Z</time>
      </trkpt>
      <trkpt lat="62.641785321548" lon="17.879283787655">
        <ele>76.6</ele>
        <time>2018-03-17T11:47:13Z</time>
      </trkpt>
      <trkpt lat="62.641796469475" lon="17.879431979647">
        <ele>76</ele>
        <time>2018-03-17T11:47:14Z</time>
      </trkpt>
      <trkpt lat="62.641806863031" lon="17.879595091421">
        <ele>75.4</ele>
        <time>2018-03-17T11:47:15Z</time>
      </trkpt>
      <trkpt lat="62.641818178596" lon="17.879742612861">
        <ele>74.8</ele>
        <time>2018-03-17T11:47:16Z</time>
      </trkpt>
      <trkpt lat="62.641825470849" lon="17.879872364673">
        <ele>74.2</ele>
        <time>2018-03-17T11:47:17Z</time>
      </trkpt>
      <trkpt lat="62.641830248532" lon="17.88000840291">
        <ele>73.8</ele>
        <time>2018-03-17T11:47:18Z</time>
      </trkpt>
      <trkpt lat="62.641826644315" lon="17.880134382867">
        <ele>73.4</ele>
        <time>2018-03-17T11:47:19Z</time>
      </trkpt>
      <trkpt lat="62.64181868151" lon="17.880286262895">
        <ele>73.2</ele>
        <time>2018-03-17T11:47:20Z</time>
      </trkpt>
      <trkpt lat="62.641807701221" lon="17.880421211485">
        <ele>73</ele>
        <time>2018-03-17T11:47:21Z</time>
      </trkpt>
      <trkpt lat="62.641789847774" lon="17.880554567514">
        <ele>72.8</ele>
        <time>2018-03-17T11:47:22Z</time>
      </trkpt>
      <trkpt lat="62.641773838345" lon="17.880660430911">
        <ele>72.4</ele>
        <time>2018-03-17T11:47:23Z</time>
      </trkpt>
      <trkpt lat="62.641753554147" lon="17.880769227973">
        <ele>72</ele>
        <time>2018-03-17T11:47:24Z</time>
      </trkpt>
      <trkpt lat="62.641727989352" lon="17.880863105253">
        <ele>71.8</ele>
        <time>2018-03-17T11:47:25Z</time>
      </trkpt>
      <trkpt lat="62.641709297715" lon="17.880950193194">
        <ele>71.8</ele>
        <time>2018-03-17T11:47:26Z</time>
      </trkpt>
      <trkpt lat="62.641691528087" lon="17.881022864267">
        <ele>72</ele>
        <time>2018-03-17T11:47:27Z</time>
      </trkpt>
      <trkpt lat="62.64167786559" lon="17.881086147612">
        <ele>72.6</ele>
        <time>2018-03-17T11:47:28Z</time>
      </trkpt>
      <trkpt lat="62.641667052939" lon="17.881134175899">
        <ele>73</ele>
        <time>2018-03-17T11:47:29Z</time>
      </trkpt>
      <trkpt lat="62.641653306623" lon="17.881212965759">
        <ele>73.2</ele>
        <time>2018-03-17T11:47:30Z</time>
      </trkpt>
      <trkpt lat="62.641644589447" lon="17.881294018732">
        <ele>73.4</ele>
        <time>2018-03-17T11:47:31Z</time>
      </trkpt>
      <trkpt lat="62.641638889755" lon="17.881382447777">
        <ele>73.2</ele>
        <time>2018-03-17T11:47:32Z</time>
      </trkpt>
      <trkpt lat="62.641638135384" lon="17.881457717239">
        <ele>72.8</ele>
        <time>2018-03-17T11:47:33Z</time>
      </trkpt>
      <trkpt lat="62.641624137611" lon="17.881547822664">
        <ele>72.4</ele>
        <time>2018-03-17T11:47:34Z</time>
      </trkpt>
      <trkpt lat="62.641605697431" lon="17.881596353865">
        <ele>71.8</ele>
        <time>2018-03-17T11:47:35Z</time>
      </trkpt>
      <trkpt lat="62.641563620293" lon="17.88168310653">
        <ele>71.2</ele>
        <time>2018-03-17T11:47:36Z</time>
      </trkpt>
      <trkpt lat="62.641545515389" lon="17.881710096248">
        <ele>71</ele>
        <time>2018-03-17T11:47:37Z</time>
      </trkpt>
      <trkpt lat="62.641513245074" lon="17.88173507431">
        <ele>71.2</ele>
        <time>2018-03-17T11:47:38Z</time>
      </trkpt>
      <trkpt lat="62.641484159881" lon="17.88175519087">
        <ele>71.6</ele>
        <time>2018-03-17T11:47:39Z</time>
      </trkpt>
      <trkpt lat="62.641452224842" lon="17.881783270235">
        <ele>71.8</ele>
        <time>2018-03-17T11:47:40Z</time>
      </trkpt>
      <trkpt lat="62.641430934816" lon="17.881803051519">
        <ele>72.2</ele>
        <time>2018-03-17T11:47:41Z</time>
      </trkpt>
      <trkpt lat="62.641395814655" lon="17.881811517238">
        <ele>72.4</ele>
        <time>2018-03-17T11:47:42Z</time>
      </trkpt>
      <trkpt lat="62.641366310367" lon="17.881824509183">
        <ele>72.6</ele>
        <time>2018-03-17T11:47:43Z</time>
      </trkpt>
      <trkpt lat="62.641363209064" lon="17.88184320082">
        <ele>72.6</ele>
        <time>2018-03-17T11:47:44Z</time>
      </trkpt>
      <trkpt lat="62.641338733916" lon="17.881861473362">
        <ele>72.8</ele>
        <time>2018-03-17T11:47:45Z</time>
      </trkpt>
      <trkpt lat="62.641301769737" lon="17.881883350121">
        <ele>73</ele>
        <time>2018-03-17T11:47:46Z</time>
      </trkpt>
      <trkpt lat="62.641277126951" lon="17.881905729794">
        <ele>73</ele>
        <time>2018-03-17T11:47:47Z</time>
      </trkpt>
      <trkpt lat="62.641249885776" lon="17.881927690372">
        <ele>73</ele>
        <time>2018-03-17T11:47:48Z</time>
      </trkpt>
      <trkpt lat="62.641219710936" lon="17.881959960687">
        <ele>73</ele>
        <time>2018-03-17T11:47:49Z</time>
      </trkpt>
      <trkpt lat="62.641189452277" lon="17.882011509372">
        <ele>73</ele>
        <time>2018-03-17T11:47:50Z</time>
      </trkpt>
      <trkpt lat="62.641153493926" lon="17.882082420246">
        <ele>73.2</ele>
        <time>2018-03-17T11:47:51Z</time>
      </trkpt>
      <trkpt lat="62.641123989638" lon="17.882155091319">
        <ele>73.2</ele>
        <time>2018-03-17T11:47:52Z</time>
      </trkpt>
      <trkpt lat="62.641095407359" lon="17.882237401577">
        <ele>73</ele>
        <time>2018-03-17T11:47:53Z</time>
      </trkpt>
      <trkpt lat="62.641064981062" lon="17.882360699326">
        <ele>72.4</ele>
        <time>2018-03-17T11:47:54Z</time>
      </trkpt>
      <trkpt lat="62.641041763199" lon="17.882494139174">
        <ele>71.6</ele>
        <time>2018-03-17T11:47:55Z</time>
      </trkpt>
      <trkpt lat="62.641019970259" lon="17.882606875729">
        <ele>70.4</ele>
        <time>2018-03-17T11:47:56Z</time>
      </trkpt>
      <trkpt lat="62.641009073789" lon="17.882733107143">
        <ele>69.4</ele>
        <time>2018-03-17T11:47:57Z</time>
      </trkpt>
      <trkpt lat="62.641003374097" lon="17.882845592241">
        <ele>68.4</ele>
        <time>2018-03-17T11:47:58Z</time>
      </trkpt>
      <trkpt lat="62.640996668577" lon="17.88293033325">
        <ele>68</ele>
        <time>2018-03-17T11:47:59Z</time>
      </trkpt>
      <trkpt lat="62.640984933917" lon="17.88302756329">
        <ele>67.6</ele>
        <time>2018-03-17T11:48:00Z</time>
      </trkpt>
      <trkpt lat="62.64097462418" lon="17.883113142489">
        <ele>67.6</ele>
        <time>2018-03-17T11:48:01Z</time>
      </trkpt>
      <trkpt lat="62.640962554244" lon="17.883198889326">
        <ele>67.6</ele>
        <time>2018-03-17T11:48:02Z</time>
      </trkpt>
      <trkpt lat="62.640961632235" lon="17.883305339456">
        <ele>67.6</ele>
        <time>2018-03-17T11:48:03Z</time>
      </trkpt>
      <trkpt lat="62.64096791866" lon="17.883427547558">
        <ele>67.4</ele>
        <time>2018-03-17T11:48:04Z</time>
      </trkpt>
      <trkpt lat="62.64098635884" lon="17.883545397072">
        <ele>67.4</ele>
        <time>2018-03-17T11:48:05Z</time>
      </trkpt>
      <trkpt lat="62.641007565047" lon="17.883653523582">
        <ele>67</ele>
        <time>2018-03-17T11:48:06Z</time>
      </trkpt>
      <trkpt lat="62.641033716575" lon="17.883758967884">
        <ele>66.6</ele>
        <time>2018-03-17T11:48:07Z</time>
      </trkpt>
      <trkpt lat="62.641056431524" lon="17.883845301454">
        <ele>66.2</ele>
        <time>2018-03-17T11:48:08Z</time>
      </trkpt>
      <trkpt lat="62.641078811197" lon="17.883941106571">
        <ele>66</ele>
        <time>2018-03-17T11:48:09Z</time>
      </trkpt>
      <trkpt lat="62.641112506435" lon="17.884065493967">
        <ele>65.8</ele>
        <time>2018-03-17T11:48:10Z</time>
      </trkpt>
      <trkpt lat="62.64113555666" lon="17.884165657672">
        <ele>65.8</ele>
        <time>2018-03-17T11:48:11Z</time>
      </trkpt>
      <trkpt lat="62.641163384568" lon="17.884274203277">
        <ele>65.8</ele>
        <time>2018-03-17T11:48:12Z</time>
      </trkpt>
      <trkpt lat="62.641190122829" lon="17.884368499652">
        <ele>65.6</ele>
        <time>2018-03-17T11:48:13Z</time>
      </trkpt>
      <trkpt lat="62.641223398972" lon="17.884454078851">
        <ele>65.4</ele>
        <time>2018-03-17T11:48:14Z</time>
      </trkpt>
      <trkpt lat="62.641260363151" lon="17.884540999154">
        <ele>65.2</ele>
        <time>2018-03-17T11:48:15Z</time>
      </trkpt>
      <trkpt lat="62.641297746425" lon="17.88462012429">
        <ele>64.8</ele>
        <time>2018-03-17T11:48:16Z</time>
      </trkpt>
      <trkpt lat="62.64133672226" lon="17.884696064304">
        <ele>64.2</ele>
        <time>2018-03-17T11:48:17Z</time>
      </trkpt>
      <trkpt lat="62.641377709751" lon="17.884777368734">
        <ele>63.6</ele>
        <time>2018-03-17T11:48:18Z</time>
      </trkpt>
      <trkpt lat="62.641422888192" lon="17.884853811662">
        <ele>62.8</ele>
        <time>2018-03-17T11:48:19Z</time>
      </trkpt>
      <trkpt lat="62.641469491556" lon="17.884938720309">
        <ele>61.8</ele>
        <time>2018-03-17T11:48:20Z</time>
      </trkpt>
      <trkpt lat="62.64151190397" lon="17.885015917608">
        <ele>61</ele>
        <time>2018-03-17T11:48:21Z</time>
      </trkpt>
      <trkpt lat="62.64155381347" lon="17.885095042744">
        <ele>60.6</ele>
        <time>2018-03-17T11:48:22Z</time>
      </trkpt>
      <trkpt lat="62.641594298047" lon="17.885166205075">
        <ele>60.4</ele>
        <time>2018-03-17T11:48:23Z</time>
      </trkpt>
      <trkpt lat="62.641640230859" lon="17.885246168401">
        <ele>60</ele>
        <time>2018-03-17T11:48:24Z</time>
      </trkpt>
      <trkpt lat="62.641691360449" lon="17.885337195835">
        <ele>59.6</ele>
        <time>2018-03-17T11:48:25Z</time>
      </trkpt>
      <trkpt lat="62.641739640193" lon="17.885424367595">
        <ele>59.4</ele>
        <time>2018-03-17T11:48:26Z</time>
      </trkpt>
      <trkpt lat="62.641787333204" lon="17.885515646486">
        <ele>58.8</ele>
        <time>2018-03-17T11:48:27Z</time>
      </trkpt>
      <trkpt lat="62.641838462794" lon="17.885612038336">
        <ele>58.2</ele>
        <time>2018-03-17T11:48:28Z</time>
      </trkpt>
      <trkpt lat="62.641881629579" lon="17.885690325282">
        <ele>57.8</ele>
        <time>2018-03-17T11:48:29Z</time>
      </trkpt>
      <trkpt lat="62.641929909323" lon="17.885781520354">
        <ele>57</ele>
        <time>2018-03-17T11:48:30Z</time>
      </trkpt>
      <trkpt lat="62.641966957321" lon="17.88585645454">
        <ele>56.4</ele>
        <time>2018-03-17T11:48:31Z</time>
      </trkpt>
      <trkpt lat="62.642000987835" lon="17.885924850844">
        <ele>55.8</ele>
        <time>2018-03-17T11:48:32Z</time>
      </trkpt>
      <trkpt lat="62.642030324485" lon="17.885986625447">
        <ele>55.4</ele>
        <time>2018-03-17T11:48:33Z</time>
      </trkpt>
      <trkpt lat="62.642060834601" lon="17.886048064774">
        <ele>55.2</ele>
        <time>2018-03-17T11:48:34Z</time>
      </trkpt>
      <trkpt lat="62.642090590346" lon="17.886108582092">
        <ele>55</ele>
        <time>2018-03-17T11:48:35Z</time>
      </trkpt>
      <trkpt lat="62.642120346091" lon="17.886173038903">
        <ele>55</ele>
        <time>2018-03-17T11:48:36Z</time>
      </trkpt>
      <trkpt lat="62.642152113492" lon="17.886225928692">
        <ele>55</ele>
        <time>2018-03-17T11:48:37Z</time>
      </trkpt>
      <trkpt lat="62.642181366323" lon="17.886290385503">
        <ele>55</ele>
        <time>2018-03-17T11:48:38Z</time>
      </trkpt>
      <trkpt lat="62.642215229199" lon="17.886353585029">
        <ele>55.2</ele>
        <time>2018-03-17T11:48:39Z</time>
      </trkpt>
      <trkpt lat="62.64225621669" lon="17.886436901115">
        <ele>55.2</ele>
        <time>2018-03-17T11:48:40Z</time>
      </trkpt>
      <trkpt lat="62.642294438154" lon="17.886524994884">
        <ele>55</ele>
        <time>2018-03-17T11:48:41Z</time>
      </trkpt>
      <trkpt lat="62.642333413989" lon="17.886626583512">
        <ele>54.8</ele>
        <time>2018-03-17T11:48:42Z</time>
      </trkpt>
      <trkpt lat="62.642363253553" lon="17.886721969534">
        <ele>54.2</ele>
        <time>2018-03-17T11:48:43Z</time>
      </trkpt>
      <trkpt lat="62.642383705389" lon="17.88680612381">
        <ele>53.6</ele>
        <time>2018-03-17T11:48:44Z</time>
      </trkpt>
      <trkpt lat="62.642401558836" lon="17.88690838299">
        <ele>53.2</ele>
        <time>2018-03-17T11:48:45Z</time>
      </trkpt>
      <trkpt lat="62.642406085062" lon="17.887011061265">
        <ele>52.6</ele>
        <time>2018-03-17T11:48:46Z</time>
      </trkpt>
      <trkpt lat="62.642398289895" lon="17.887107788391">
        <ele>52.2</ele>
        <time>2018-03-17T11:48:47Z</time>
      </trkpt>
      <trkpt lat="62.642378424792" lon="17.887196385074">
        <ele>51.8</ele>
        <time>2018-03-17T11:48:48Z</time>
      </trkpt>
      <trkpt lat="62.642349088142" lon="17.887261344799">
        <ele>51.4</ele>
        <time>2018-03-17T11:48:49Z</time>
      </trkpt>
      <trkpt lat="62.642315309085" lon="17.887320018099">
        <ele>51</ele>
        <time>2018-03-17T11:48:50Z</time>
      </trkpt>
      <trkpt lat="62.642283541684" lon="17.887378188485">
        <ele>50.6</ele>
        <time>2018-03-17T11:48:51Z</time>
      </trkpt>
      <trkpt lat="62.642247583333" lon="17.887444405495">
        <ele>50.4</ele>
        <time>2018-03-17T11:48:52Z</time>
      </trkpt>
      <trkpt lat="62.642210786792" lon="17.887513891446">
        <ele>50</ele>
        <time>2018-03-17T11:48:53Z</time>
      </trkpt>
      <trkpt lat="62.642165524532" lon="17.88757055309">
        <ele>49.8</ele>
        <time>2018-03-17T11:48:54Z</time>
      </trkpt>
      <trkpt lat="62.642054129081" lon="17.887750596302">
        <ele>48.4</ele>
        <time>2018-03-17T11:48:57Z</time>
      </trkpt>
      <trkpt lat="62.642023618965" lon="17.887789991232">
        <ele>48</ele>
        <time>2018-03-17T11:48:58Z</time>
      </trkpt>
      <trkpt lat="62.642001826025" lon="17.887841204641">
        <ele>48</ele>
        <time>2018-03-17T11:48:59Z</time>
      </trkpt>
      <trkpt lat="62.64197793761" lon="17.887931729161">
        <ele>47.4</ele>
        <time>2018-03-17T11:49:00Z</time>
      </trkpt>
      <trkpt lat="62.641949522969" lon="17.888002053302">
        <ele>47.6</ele>
        <time>2018-03-17T11:49:01Z</time>
      </trkpt>
      <trkpt lat="62.641928987314" lon="17.888065169009">
        <ele>47.6</ele>
        <time>2018-03-17T11:49:02Z</time>
      </trkpt>
      <trkpt lat="62.641910128039" lon="17.888118310255">
        <ele>47.6</ele>
        <time>2018-03-17T11:49:03Z</time>
      </trkpt>
      <trkpt lat="62.641889760022" lon="17.888187377111">
        <ele>47.6</ele>
        <time>2018-03-17T11:49:04Z</time>
      </trkpt>
      <trkpt lat="62.641881964855" lon="17.88823942871">
        <ele>47.6</ele>
        <time>2018-03-17T11:49:05Z</time>
      </trkpt>
      <trkpt lat="62.641858495535" lon="17.888324169719">
        <ele>47.8</ele>
        <time>2018-03-17T11:49:06Z</time>
      </trkpt>
      <trkpt lat="62.641842318468" lon="17.888388458892">
        <ele>47.6</ele>
        <time>2018-03-17T11:49:07Z</time>
      </trkpt>
      <trkpt lat="62.641831673455" lon="17.88844478526">
        <ele>47.4</ele>
        <time>2018-03-17T11:49:08Z</time>
      </trkpt>
      <trkpt lat="62.64181449056" lon="17.888522317835">
        <ele>47.4</ele>
        <time>2018-03-17T11:49:09Z</time>
      </trkpt>
      <trkpt lat="62.641798145855" lon="17.888616278934">
        <ele>47.2</ele>
        <time>2018-03-17T11:49:10Z</time>
      </trkpt>
      <trkpt lat="62.641788674308" lon="17.888683585591">
        <ele>47</ele>
        <time>2018-03-17T11:49:11Z</time>
      </trkpt>
      <trkpt lat="62.641771826689" lon="17.888759190329">
        <ele>46.8</ele>
        <time>2018-03-17T11:49:12Z</time>
      </trkpt>
      <trkpt lat="62.641759756753" lon="17.888798836716">
        <ele>46.8</ele>
        <time>2018-03-17T11:49:13Z</time>
      </trkpt>
      <trkpt lat="62.641748105912" lon="17.888823144226">
        <ele>46.6</ele>
        <time>2018-03-17T11:49:14Z</time>
      </trkpt>
      <trkpt lat="62.641737125623" lon="17.888860192224">
        <ele>46.6</ele>
        <time>2018-03-17T11:49:15Z</time>
      </trkpt>
      <trkpt lat="62.641724888049" lon="17.888894558014">
        <ele>47</ele>
        <time>2018-03-17T11:49:16Z</time>
      </trkpt>
      <trkpt lat="62.641715081226" lon="17.888927666519">
        <ele>47</ele>
        <time>2018-03-17T11:49:17Z</time>
      </trkpt>
      <trkpt lat="62.641704268575" lon="17.888952896038">
        <ele>47.4</ele>
        <time>2018-03-17T11:49:18Z</time>
      </trkpt>
      <trkpt lat="62.641694880847" lon="17.888980723946">
        <ele>47.6</ele>
        <time>2018-03-17T11:49:19Z</time>
      </trkpt>
      <trkpt lat="62.641686750404" lon="17.889004360904">
        <ele>48.2</ele>
        <time>2018-03-17T11:49:20Z</time>
      </trkpt>
      <trkpt lat="62.641683230006" lon="17.889026572939">
        <ele>48.6</ele>
        <time>2018-03-17T11:49:21Z</time>
      </trkpt>
      <trkpt lat="62.641675099563" lon="17.889047862965">
        <ele>49</ele>
        <time>2018-03-17T11:49:22Z</time>
      </trkpt>
      <trkpt lat="62.641669818966" lon="17.889064626765">
        <ele>49.4</ele>
        <time>2018-03-17T11:49:23Z</time>
      </trkpt>
      <trkpt lat="62.641663783998" lon="17.889082312574">
        <ele>49.8</ele>
        <time>2018-03-17T11:49:24Z</time>
      </trkpt>
      <trkpt lat="62.641659257772" lon="17.889106703903">
        <ele>50.2</ele>
        <time>2018-03-17T11:49:25Z</time>
      </trkpt>
      <trkpt lat="62.64166110179" lon="17.889121791323">
        <ele>50.6</ele>
        <time>2018-03-17T11:49:26Z</time>
      </trkpt>
      <trkpt lat="62.64165691084" lon="17.88914718848">
        <ele>50.8</ele>
        <time>2018-03-17T11:49:27Z</time>
      </trkpt>
      <trkpt lat="62.641659341591" lon="17.889169735791">
        <ele>51</ele>
        <time>2018-03-17T11:49:28Z</time>
      </trkpt>
      <trkpt lat="62.641652636071" lon="17.889190187627">
        <ele>51.2</ele>
        <time>2018-03-17T11:49:29Z</time>
      </trkpt>
      <trkpt lat="62.641649031854" lon="17.889216506793">
        <ele>51.6</ele>
        <time>2018-03-17T11:49:30Z</time>
      </trkpt>
      <trkpt lat="62.641646098189" lon="17.889243412692">
        <ele>51.8</ele>
        <time>2018-03-17T11:49:31Z</time>
      </trkpt>
      <trkpt lat="62.641641991058" lon="17.889274258084">
        <ele>52.2</ele>
        <time>2018-03-17T11:49:32Z</time>
      </trkpt>
      <trkpt lat="62.641637800108" lon="17.889292698264">
        <ele>52.4</ele>
        <time>2018-03-17T11:49:33Z</time>
      </trkpt>
      <trkpt lat="62.641631597502" lon="17.889316083765">
        <ele>52.8</ele>
        <time>2018-03-17T11:49:34Z</time>
      </trkpt>
      <trkpt lat="62.641627322733" lon="17.889337792886">
        <ele>53</ele>
        <time>2018-03-17T11:49:35Z</time>
      </trkpt>
      <trkpt lat="62.641623467059" lon="17.88936511788">
        <ele>53.4</ele>
        <time>2018-03-17T11:49:36Z</time>
      </trkpt>
      <trkpt lat="62.641618437919" lon="17.889390598856">
        <ele>53.8</ele>
        <time>2018-03-17T11:49:37Z</time>
      </trkpt>
      <trkpt lat="62.64161583953" lon="17.889417337117">
        <ele>54.2</ele>
        <time>2018-03-17T11:49:38Z</time>
      </trkpt>
      <trkpt lat="62.641617432091" lon="17.889436615487">
        <ele>54.4</ele>
        <time>2018-03-17T11:49:39Z</time>
      </trkpt>
      <trkpt lat="62.641619024652" lon="17.889462934653">
        <ele>55</ele>
        <time>2018-03-17T11:49:40Z</time>
      </trkpt>
      <trkpt lat="62.641618521738" lon="17.889485901059">
        <ele>55</ele>
        <time>2018-03-17T11:49:41Z</time>
      </trkpt>
      <trkpt lat="62.641618186462" lon="17.889509621836">
        <ele>55.2</ele>
        <time>2018-03-17T11:49:42Z</time>
      </trkpt>
      <trkpt lat="62.6416183541" lon="17.88953527045">
        <ele>55.6</ele>
        <time>2018-03-17T11:49:43Z</time>
      </trkpt>
      <trkpt lat="62.641617432091" lon="17.889556476657">
        <ele>56</ele>
        <time>2018-03-17T11:49:44Z</time>
      </trkpt>
      <trkpt lat="62.64161583953" lon="17.889583214918">
        <ele>56.4</ele>
        <time>2018-03-17T11:49:45Z</time>
      </trkpt>
      <trkpt lat="62.641615923349" lon="17.889609534084">
        <ele>56.6</ele>
        <time>2018-03-17T11:49:46Z</time>
      </trkpt>
      <trkpt lat="62.641617264453" lon="17.889634512146">
        <ele>57</ele>
        <time>2018-03-17T11:49:47Z</time>
      </trkpt>
      <trkpt lat="62.641614666064" lon="17.889669883764">
        <ele>57.4</ele>
        <time>2018-03-17T11:49:48Z</time>
      </trkpt>
      <trkpt lat="62.641617767367" lon="17.88969536474">
        <ele>57.6</ele>
        <time>2018-03-17T11:49:49Z</time>
      </trkpt>
      <trkpt lat="62.641617264453" lon="17.889735178765">
        <ele>58</ele>
        <time>2018-03-17T11:49:50Z</time>
      </trkpt>
      <trkpt lat="62.64162003048" lon="17.889771556211">
        <ele>58.2</ele>
        <time>2018-03-17T11:49:51Z</time>
      </trkpt>
      <trkpt lat="62.641621287765" lon="17.889795779902">
        <ele>58.4</ele>
        <time>2018-03-17T11:49:52Z</time>
      </trkpt>
      <trkpt lat="62.641623215602" lon="17.889807011648">
        <ele>58.4</ele>
        <time>2018-03-17T11:49:53Z</time>
      </trkpt>
      <trkpt lat="62.641626316905" lon="17.88985964998">
        <ele>58.6</ele>
        <time>2018-03-17T11:49:54Z</time>
      </trkpt>
      <trkpt lat="62.641628244742" lon="17.889892171752">
        <ele>59</ele>
        <time>2018-03-17T11:49:55Z</time>
      </trkpt>
      <trkpt lat="62.641630004941" lon="17.889924274429">
        <ele>59.2</ele>
        <time>2018-03-17T11:49:56Z</time>
      </trkpt>
      <trkpt lat="62.64163763247" lon="17.889965010463">
        <ele>59.8</ele>
        <time>2018-03-17T11:49:57Z</time>
      </trkpt>
      <trkpt lat="62.641645511456" lon="17.889999795348">
        <ele>60</ele>
        <time>2018-03-17T11:49:58Z</time>
      </trkpt>
      <trkpt lat="62.641650540596" lon="17.89001220056">
        <ele>60.2</ele>
        <time>2018-03-17T11:49:59Z</time>
      </trkpt>
      <trkpt lat="62.641664119274" lon="17.890079674855">
        <ele>60.4</ele>
        <time>2018-03-17T11:50:00Z</time>
      </trkpt>
      <trkpt lat="62.641675602477" lon="17.890117309586">
        <ele>60.4</ele>
        <time>2018-03-17T11:50:01Z</time>
      </trkpt>
      <trkpt lat="62.64169462939" lon="17.890174977058">
        <ele>60.4</ele>
        <time>2018-03-17T11:50:02Z</time>
      </trkpt>
      <trkpt lat="62.64171390776" lon="17.890204313708">
        <ele>60.4</ele>
        <time>2018-03-17T11:50:03Z</time>
      </trkpt>
      <trkpt lat="62.641742154763" lon="17.890256197669">
        <ele>60.2</ele>
        <time>2018-03-17T11:50:04Z</time>
      </trkpt>
      <trkpt lat="62.64177258106" lon="17.890303806861">
        <ele>60.2</ele>
        <time>2018-03-17T11:50:05Z</time>
      </trkpt>
      <trkpt lat="62.641811473076" lon="17.890354601175">
        <ele>59.8</ele>
        <time>2018-03-17T11:50:06Z</time>
      </trkpt>
      <trkpt lat="62.641853634033" lon="17.890396510675">
        <ele>59.2</ele>
        <time>2018-03-17T11:50:07Z</time>
      </trkpt>
      <trkpt lat="62.64190669146" lon="17.890432301388">
        <ele>58.8</ele>
        <time>2018-03-17T11:50:08Z</time>
      </trkpt>
      <trkpt lat="62.641964861846" lon="17.890469684662">
        <ele>58.2</ele>
        <time>2018-03-17T11:50:09Z</time>
      </trkpt>
      <trkpt lat="62.642041891507" lon="17.890524502288">
        <ele>57.2</ele>
        <time>2018-03-17T11:50:10Z</time>
      </trkpt>
      <trkpt lat="62.642118250616" lon="17.890579739009">
        <ele>56.4</ele>
        <time>2018-03-17T11:50:11Z</time>
      </trkpt>
      <trkpt lat="62.642206344385" lon="17.89064503401">
        <ele>55.4</ele>
        <time>2018-03-17T11:50:12Z</time>
      </trkpt>
      <trkpt lat="62.642292426498" lon="17.890712843581">
        <ele>54.4</ele>
        <time>2018-03-17T11:50:13Z</time>
      </trkpt>
      <trkpt lat="62.642358392051" lon="17.890774785822">
        <ele>53</ele>
        <time>2018-03-17T11:50:14Z</time>
      </trkpt>
      <trkpt lat="62.6424230165" lon="17.890835051683">
        <ele>51.6</ele>
        <time>2018-03-17T11:50:15Z</time>
      </trkpt>
      <trkpt lat="62.642468697855" lon="17.890888528205">
        <ele>50.8</ele>
        <time>2018-03-17T11:50:16Z</time>
      </trkpt>
      <trkpt lat="62.642492418632" lon="17.89094678241">
        <ele>50.4</ele>
        <time>2018-03-17T11:50:17Z</time>
      </trkpt>
      <trkpt lat="62.64251354102" lon="17.890993804869">
        <ele>50.4</ele>
        <time>2018-03-17T11:50:18Z</time>
      </trkpt>
      <trkpt lat="62.642528125526" lon="17.891027583926">
        <ele>50.8</ele>
        <time>2018-03-17T11:50:19Z</time>
      </trkpt>
      <trkpt lat="62.642541704204" lon="17.891073684376">
        <ele>51.8</ele>
        <time>2018-03-17T11:50:20Z</time>
      </trkpt>
      <trkpt lat="62.642546481887" lon="17.891124981604">
        <ele>52.8</ele>
        <time>2018-03-17T11:50:21Z</time>
      </trkpt>
      <trkpt lat="62.642548158267" lon="17.891180134506">
        <ele>53.4</ele>
        <time>2018-03-17T11:50:22Z</time>
      </trkpt>
      <trkpt lat="62.642548409724" lon="17.891232856657">
        <ele>53.8</ele>
        <time>2018-03-17T11:50:23Z</time>
      </trkpt>
      <trkpt lat="62.642544386412" lon="17.891276274899">
        <ele>54</ele>
        <time>2018-03-17T11:50:24Z</time>
      </trkpt>
      <trkpt lat="62.642524772766" lon="17.891346431402">
        <ele>54.2</ele>
        <time>2018-03-17T11:50:25Z</time>
      </trkpt>
      <trkpt lat="62.642512870468" lon="17.891400075562">
        <ele>54.2</ele>
        <time>2018-03-17T11:50:26Z</time>
      </trkpt>
      <trkpt lat="62.64248839532" lon="17.891444164356">
        <ele>54.4</ele>
        <time>2018-03-17T11:50:27Z</time>
      </trkpt>
      <trkpt lat="62.642462076154" lon="17.891504262579">
        <ele>54.6</ele>
        <time>2018-03-17T11:50:28Z</time>
      </trkpt>
      <trkpt lat="62.642438439196" lon="17.891545417708">
        <ele>54.2</ele>
        <time>2018-03-17T11:50:29Z</time>
      </trkpt>
      <trkpt lat="62.642406168881" lon="17.891605013017">
        <ele>53.8</ele>
        <time>2018-03-17T11:50:30Z</time>
      </trkpt>
      <trkpt lat="62.642370881082" lon="17.891646084327">
        <ele>53.2</ele>
        <time>2018-03-17T11:50:31Z</time>
      </trkpt>
      <trkpt lat="62.642350513065" lon="17.891691430406">
        <ele>52.6</ele>
        <time>2018-03-17T11:50:32Z</time>
      </trkpt>
      <trkpt lat="62.642332659618" lon="17.891720264142">
        <ele>52.2</ele>
        <time>2018-03-17T11:50:33Z</time>
      </trkpt>
      <trkpt lat="62.64231656637" lon="17.891748175869">
        <ele>52.4</ele>
        <time>2018-03-17T11:50:34Z</time>
      </trkpt>
      <trkpt lat="62.642308016832" lon="17.891776758148">
        <ele>52.6</ele>
        <time>2018-03-17T11:50:35Z</time>
      </trkpt>
      <trkpt lat="62.642290079566" lon="17.891790755921">
        <ele>53</ele>
        <time>2018-03-17T11:50:36Z</time>
      </trkpt>
      <trkpt lat="62.642278931639" lon="17.891818751467">
        <ele>53.4</ele>
        <time>2018-03-17T11:50:37Z</time>
      </trkpt>
      <trkpt lat="62.642266191151" lon="17.891829899394">
        <ele>53.6</ele>
        <time>2018-03-17T11:50:38Z</time>
      </trkpt>
      <trkpt lat="62.642255713776" lon="17.891844651538">
        <ele>53.8</ele>
        <time>2018-03-17T11:50:39Z</time>
      </trkpt>
      <trkpt lat="62.642242889469" lon="17.891856972931">
        <ele>54</ele>
        <time>2018-03-17T11:50:40Z</time>
      </trkpt>
      <trkpt lat="62.642230316619" lon="17.891865606288">
        <ele>54.2</ele>
        <time>2018-03-17T11:50:41Z</time>
      </trkpt>
      <trkpt lat="62.642208188403" lon="17.891870719247">
        <ele>54.4</ele>
        <time>2018-03-17T11:50:42Z</time>
      </trkpt>
      <trkpt lat="62.642197375752" lon="17.891874239645">
        <ele>54.8</ele>
        <time>2018-03-17T11:50:43Z</time>
      </trkpt>
      <trkpt lat="62.642175415174" lon="17.891880861346">
        <ele>55</ele>
        <time>2018-03-17T11:50:44Z</time>
      </trkpt>
      <trkpt lat="62.642155969166" lon="17.891888824151">
        <ele>55.2</ele>
        <time>2018-03-17T11:50:45Z</time>
      </trkpt>
      <trkpt lat="62.642140714108" lon="17.891902654286">
        <ele>55.4</ele>
        <time>2018-03-17T11:50:46Z</time>
      </trkpt>
      <trkpt lat="62.642129063267" lon="17.89190483358">
        <ele>55.6</ele>
        <time>2018-03-17T11:50:47Z</time>
      </trkpt>
      <trkpt lat="62.642109030526" lon="17.891912712566">
        <ele>56</ele>
        <time>2018-03-17T11:50:48Z</time>
      </trkpt>
      <trkpt lat="62.642089584518" lon="17.89191237729">
        <ele>56.2</ele>
        <time>2018-03-17T11:50:49Z</time>
      </trkpt>
      <trkpt lat="62.642075335288" lon="17.891921765018">
        <ele>56.6</ele>
        <time>2018-03-17T11:50:50Z</time>
      </trkpt>
      <trkpt lat="62.642061840429" lon="17.891927129434">
        <ele>56.8</ele>
        <time>2018-03-17T11:50:51Z</time>
      </trkpt>
      <trkpt lat="62.642045579543" lon="17.891930146918">
        <ele>57.2</ele>
        <time>2018-03-17T11:50:52Z</time>
      </trkpt>
      <trkpt lat="62.642027893734" lon="17.891939786103">
        <ele>57.4</ele>
        <time>2018-03-17T11:50:53Z</time>
      </trkpt>
      <trkpt lat="62.642007441898" lon="17.891949425288">
        <ele>57.6</ele>
        <time>2018-03-17T11:50:54Z</time>
      </trkpt>
      <trkpt lat="62.641991600107" lon="17.89195512498">
        <ele>57.8</ele>
        <time>2018-03-17T11:50:55Z</time>
      </trkpt>
      <trkpt lat="62.641980033085" lon="17.891960237939">
        <ele>58</ele>
        <time>2018-03-17T11:50:56Z</time>
      </trkpt>
      <trkpt lat="62.641965113303" lon="17.89197356516">
        <ele>58.2</ele>
        <time>2018-03-17T11:50:57Z</time>
      </trkpt>
      <trkpt lat="62.641942901268" lon="17.891986305648">
        <ele>58.4</ele>
        <time>2018-03-17T11:50:58Z</time>
      </trkpt>
      <trkpt lat="62.641922533251" lon="17.892006422208">
        <ele>58.6</ele>
        <time>2018-03-17T11:50:59Z</time>
      </trkpt>
      <trkpt lat="62.641899566845" lon="17.892030059166">
        <ele>58.6</ele>
        <time>2018-03-17T11:51:00Z</time>
      </trkpt>
      <trkpt lat="62.641892777506" lon="17.892050427183">
        <ele>58.8</ele>
        <time>2018-03-17T11:51:01Z</time>
      </trkpt>
      <trkpt lat="62.64188908947" lon="17.892073142132">
        <ele>59</ele>
        <time>2018-03-17T11:51:02Z</time>
      </trkpt>
      <trkpt lat="62.641881713398" lon="17.892098958384">
        <ele>59.2</ele>
        <time>2018-03-17T11:51:03Z</time>
      </trkpt>
      <trkpt lat="62.641875426973" lon="17.892127875939">
        <ele>59.4</ele>
        <time>2018-03-17T11:51:04Z</time>
      </trkpt>
      <trkpt lat="62.641869224367" lon="17.89216215791">
        <ele>59.6</ele>
        <time>2018-03-17T11:51:05Z</time>
      </trkpt>
      <trkpt lat="62.641870146376" lon="17.892202139573">
        <ele>59.8</ele>
        <time>2018-03-17T11:51:06Z</time>
      </trkpt>
      <trkpt lat="62.641869894919" lon="17.892238852295">
        <ele>60</ele>
        <time>2018-03-17T11:51:07Z</time>
      </trkpt>
      <trkpt lat="62.641876097525" lon="17.892275732655">
        <ele>60.2</ele>
        <time>2018-03-17T11:51:08Z</time>
      </trkpt>
      <trkpt lat="62.641879534104" lon="17.892314121757">
        <ele>60.6</ele>
        <time>2018-03-17T11:51:09Z</time>
      </trkpt>
      <trkpt lat="62.641888502737" lon="17.892365754261">
        <ele>61</ele>
        <time>2018-03-17T11:51:10Z</time>
      </trkpt>
      <trkpt lat="62.641890933488" lon="17.892412441444">
        <ele>61.2</ele>
        <time>2018-03-17T11:51:11Z</time>
      </trkpt>
      <trkpt lat="62.641891771678" lon="17.892460805007">
        <ele>61.4</ele>
        <time>2018-03-17T11:51:12Z</time>
      </trkpt>
      <trkpt lat="62.6418949568" lon="17.892500199937">
        <ele>61.4</ele>
        <time>2018-03-17T11:51:13Z</time>
      </trkpt>
      <trkpt lat="62.641890346755" lon="17.892534398089">
        <ele>61.4</ele>
        <time>2018-03-17T11:51:14Z</time>
      </trkpt>
      <trkpt lat="62.641896968456" lon="17.892575637037">
        <ele>61.4</ele>
        <time>2018-03-17T11:51:15Z</time>
      </trkpt>
      <trkpt lat="62.641891520221" lon="17.892613690863">
        <ele>61.6</ele>
        <time>2018-03-17T11:51:16Z</time>
      </trkpt>
      <trkpt lat="62.641887748366" lon="17.892650571223">
        <ele>61.8</ele>
        <time>2018-03-17T11:51:17Z</time>
      </trkpt>
      <trkpt lat="62.641883976511" lon="17.892681919529">
        <ele>61.8</ele>
        <time>2018-03-17T11:51:18Z</time>
      </trkpt>
      <trkpt lat="62.641880791389" lon="17.892720224812">
        <ele>62</ele>
        <time>2018-03-17T11:51:19Z</time>
      </trkpt>
      <trkpt lat="62.641875929887" lon="17.892757775724">
        <ele>62.4</ele>
        <time>2018-03-17T11:51:20Z</time>
      </trkpt>
      <trkpt lat="62.641872912403" lon="17.892785184537">
        <ele>62.6</ele>
        <time>2018-03-17T11:51:21Z</time>
      </trkpt>
      <trkpt lat="62.641875426973" lon="17.892802199794">
        <ele>63</ele>
        <time>2018-03-17T11:51:22Z</time>
      </trkpt>
      <trkpt lat="62.641867464168" lon="17.892831955539">
        <ele>63.2</ele>
        <time>2018-03-17T11:51:23Z</time>
      </trkpt>
      <trkpt lat="62.641864195227" lon="17.892852072099">
        <ele>63.4</ele>
        <time>2018-03-17T11:51:24Z</time>
      </trkpt>
      <trkpt lat="62.64185891463" lon="17.892887611355">
        <ele>63.6</ele>
        <time>2018-03-17T11:51:25Z</time>
      </trkpt>
      <trkpt lat="62.641862351209" lon="17.8929089852">
        <ele>63.8</ele>
        <time>2018-03-17T11:51:26Z</time>
      </trkpt>
      <trkpt lat="62.641869140548" lon="17.892945195008">
        <ele>64</ele>
        <time>2018-03-17T11:51:27Z</time>
      </trkpt>
      <trkpt lat="62.641860004277" lon="17.89297268764">
        <ele>64.4</ele>
        <time>2018-03-17T11:51:28Z</time>
      </trkpt>
      <trkpt lat="62.641860339553" lon="17.892994312942">
        <ele>64.6</ele>
        <time>2018-03-17T11:51:29Z</time>
      </trkpt>
      <trkpt lat="62.641849443083" lon="17.893022224669">
        <ele>65</ele>
        <time>2018-03-17T11:51:30Z</time>
      </trkpt>
      <trkpt lat="62.641851538558" lon="17.893040916306">
        <ele>65.4</ele>
        <time>2018-03-17T11:51:31Z</time>
      </trkpt>
      <trkpt lat="62.641851454739" lon="17.893056925735">
        <ele>65.8</ele>
        <time>2018-03-17T11:51:32Z</time>
      </trkpt>
      <trkpt lat="62.641850113635" lon="17.893067822205">
        <ele>66.2</ele>
        <time>2018-03-17T11:51:33Z</time>
      </trkpt>
      <trkpt lat="62.641849107807" lon="17.893094811923">
        <ele>66.6</ele>
        <time>2018-03-17T11:51:34Z</time>
      </trkpt>
      <trkpt lat="62.641845587409" lon="17.89311937089">
        <ele>67</ele>
        <time>2018-03-17T11:51:35Z</time>
      </trkpt>
      <trkpt lat="62.641843994848" lon="17.893140828554">
        <ele>67.4</ele>
        <time>2018-03-17T11:51:36Z</time>
      </trkpt>
      <trkpt lat="62.641839720079" lon="17.893174020878">
        <ele>67.6</ele>
        <time>2018-03-17T11:51:37Z</time>
      </trkpt>
      <trkpt lat="62.641829997075" lon="17.893197406379">
        <ele>67.8</ele>
        <time>2018-03-17T11:51:38Z</time>
      </trkpt>
      <trkpt lat="62.641821866632" lon="17.893221965346">
        <ele>68</ele>
        <time>2018-03-17T11:51:39Z</time>
      </trkpt>
      <trkpt lat="62.641818765329" lon="17.893248619788">
        <ele>68.4</ele>
        <time>2018-03-17T11:51:40Z</time>
      </trkpt>
      <trkpt lat="62.641812562723" lon="17.893288936727">
        <ele>68.6</ele>
        <time>2018-03-17T11:51:41Z</time>
      </trkpt>
      <trkpt lat="62.641805186651" lon="17.893327744924">
        <ele>68.8</ele>
        <time>2018-03-17T11:51:42Z</time>
      </trkpt>
      <trkpt lat="62.641800660425" lon="17.893367894225">
        <ele>69</ele>
        <time>2018-03-17T11:51:43Z</time>
      </trkpt>
      <trkpt lat="62.641792781439" lon="17.893404942223">
        <ele>69.2</ele>
        <time>2018-03-17T11:51:44Z</time>
      </trkpt>
      <trkpt lat="62.641785573005" lon="17.893441319669">
        <ele>69.4</ele>
        <time>2018-03-17T11:51:45Z</time>
      </trkpt>
      <trkpt lat="62.641777861657" lon="17.893471662147">
        <ele>69.8</ele>
        <time>2018-03-17T11:51:46Z</time>
      </trkpt>
      <trkpt lat="62.641772916336" lon="17.893506949946">
        <ele>69.8</ele>
        <time>2018-03-17T11:51:47Z</time>
      </trkpt>
      <trkpt lat="62.641763193332" lon="17.89354265684">
        <ele>70</ele>
        <time>2018-03-17T11:51:48Z</time>
      </trkpt>
      <trkpt lat="62.641756739269" lon="17.893576603535">
        <ele>70.2</ele>
        <time>2018-03-17T11:51:49Z</time>
      </trkpt>
      <trkpt lat="62.641748608826" lon="17.893615914646">
        <ele>70.4</ele>
        <time>2018-03-17T11:51:50Z</time>
      </trkpt>
      <trkpt lat="62.641745256066" lon="17.893650867169">
        <ele>70.8</ele>
        <time>2018-03-17T11:51:51Z</time>
      </trkpt>
      <trkpt lat="62.641740226926" lon="17.893693866316">
        <ele>71.2</ele>
        <time>2018-03-17T11:51:52Z</time>
      </trkpt>
      <trkpt lat="62.641739472555" lon="17.893746001734">
        <ele>71.6</ele>
        <time>2018-03-17T11:51:53Z</time>
      </trkpt>
      <trkpt lat="62.641740059288" lon="17.893776428031">
        <ele>71.8</ele>
        <time>2018-03-17T11:51:54Z</time>
      </trkpt>
      <trkpt lat="62.641745423704" lon="17.893824456318">
        <ele>72</ele>
        <time>2018-03-17T11:51:55Z</time>
      </trkpt>
      <trkpt lat="62.64175414088" lon="17.893865695266">
        <ele>72.2</ele>
        <time>2018-03-17T11:51:56Z</time>
      </trkpt>
      <trkpt lat="62.641773503069" lon="17.893897965581">
        <ele>72.2</ele>
        <time>2018-03-17T11:51:57Z</time>
      </trkpt>
      <trkpt lat="62.641797140027" lon="17.893929816801">
        <ele>72.2</ele>
        <time>2018-03-17T11:51:58Z</time>
      </trkpt>
      <trkpt lat="62.641828404514" lon="17.893946748239">
        <ele>72.2</ele>
        <time>2018-03-17T11:51:59Z</time>
      </trkpt>
      <trkpt lat="62.641869643462" lon="17.893963763496">
        <ele>72</ele>
        <time>2018-03-17T11:52:00Z</time>
      </trkpt>
      <trkpt lat="62.641911469143" lon="17.893972313034">
        <ele>72</ele>
        <time>2018-03-17T11:52:01Z</time>
      </trkpt>
      <trkpt lat="62.641964107475" lon="17.893963344401">
        <ele>71.6</ele>
        <time>2018-03-17T11:52:02Z</time>
      </trkpt>
      <trkpt lat="62.642012219581" lon="17.893946412963">
        <ele>71.2</ele>
        <time>2018-03-17T11:52:03Z</time>
      </trkpt>
      <trkpt lat="62.642061924248" lon="17.893941551461">
        <ele>70.6</ele>
        <time>2018-03-17T11:52:04Z</time>
      </trkpt>
      <trkpt lat="62.642112215648" lon="17.893962506211">
        <ele>70</ele>
        <time>2018-03-17T11:52:05Z</time>
      </trkpt>
      <trkpt lat="62.642156639718" lon="17.894016150371">
        <ele>69.4</ele>
        <time>2018-03-17T11:52:06Z</time>
      </trkpt>
      <trkpt lat="62.64217742683" lon="17.894089743453">
        <ele>68.4</ele>
        <time>2018-03-17T11:52:07Z</time>
      </trkpt>
      <trkpt lat="62.64220424891" lon="17.894190242434">
        <ele>67.6</ele>
        <time>2018-03-17T11:52:08Z</time>
      </trkpt>
      <trkpt lat="62.642211122068" lon="17.894253274322">
        <ele>67.2</ele>
        <time>2018-03-17T11:52:09Z</time>
      </trkpt>
      <trkpt lat="62.642222102357" lon="17.894324436653">
        <ele>66.8</ele>
        <time>2018-03-17T11:52:10Z</time>
      </trkpt>
      <trkpt lat="62.642230065162" lon="17.894426863471">
        <ele>66.6</ele>
        <time>2018-03-17T11:52:11Z</time>
      </trkpt>
      <trkpt lat="62.642233417922" lon="17.894553681618">
        <ele>66.4</ele>
        <time>2018-03-17T11:52:12Z</time>
      </trkpt>
      <trkpt lat="62.642222605271" lon="17.89467840429">
        <ele>66.2</ele>
        <time>2018-03-17T11:52:13Z</time>
      </trkpt>
      <trkpt lat="62.642201147607" lon="17.894823578798">
        <ele>65.4</ele>
        <time>2018-03-17T11:52:14Z</time>
      </trkpt>
      <trkpt lat="62.642172732966" lon="17.894982415803">
        <ele>64.4</ele>
        <time>2018-03-17T11:52:15Z</time>
      </trkpt>
      <trkpt lat="62.642155130976" lon="17.895119711325">
        <ele>63.2</ele>
        <time>2018-03-17T11:52:16Z</time>
      </trkpt>
      <trkpt lat="62.642153370777" lon="17.89526094634">
        <ele>62.4</ele>
        <time>2018-03-17T11:52:17Z</time>
      </trkpt>
      <trkpt lat="62.642149850379" lon="17.895447359796">
        <ele>61.4</ele>
        <time>2018-03-17T11:52:18Z</time>
      </trkpt>
      <trkpt lat="62.642149431284" lon="17.895635701089">
        <ele>60.8</ele>
        <time>2018-03-17T11:52:19Z</time>
      </trkpt>
      <trkpt lat="62.642131577837" lon="17.895843404571">
        <ele>59.6</ele>
        <time>2018-03-17T11:52:20Z</time>
      </trkpt>
      <trkpt lat="62.64211120982" lon="17.896017245177">
        <ele>58.6</ele>
        <time>2018-03-17T11:52:21Z</time>
      </trkpt>
      <trkpt lat="62.642088243414" lon="17.896179183485">
        <ele>56.8</ele>
        <time>2018-03-17T11:52:22Z</time>
      </trkpt>
      <trkpt lat="62.642055218728" lon="17.896315473179">
        <ele>56</ele>
        <time>2018-03-17T11:52:23Z</time>
      </trkpt>
      <trkpt lat="62.64201900892" lon="17.896454445081">
        <ele>55.2</ele>
        <time>2018-03-17T11:52:24Z</time>
      </trkpt>
      <trkpt lat="62.641984726949" lon="17.896587214377">
        <ele>54.6</ele>
        <time>2018-03-17T11:52:25Z</time>
      </trkpt>
      <trkpt lat="62.641951031711" lon="17.89673532255">
        <ele>54.4</ele>
        <time>2018-03-17T11:52:26Z</time>
      </trkpt>
      <trkpt lat="62.641926221287" lon="17.896867253656">
        <ele>54.2</ele>
        <time>2018-03-17T11:52:27Z</time>
      </trkpt>
      <trkpt lat="62.641909960401" lon="17.897000525866">
        <ele>53.8</ele>
        <time>2018-03-17T11:52:28Z</time>
      </trkpt>
      <trkpt lat="62.641899566845" lon="17.897124326529">
        <ele>53.4</ele>
        <time>2018-03-17T11:52:29Z</time>
      </trkpt>
      <trkpt lat="62.641886239624" lon="17.897290120511">
        <ele>53</ele>
        <time>2018-03-17T11:52:30Z</time>
      </trkpt>
      <trkpt lat="62.64187903119" lon="17.897439066874">
        <ele>52.6</ele>
        <time>2018-03-17T11:52:31Z</time>
      </trkpt>
      <trkpt lat="62.641870062557" lon="17.897589857255">
        <ele>52</ele>
        <time>2018-03-17T11:52:32Z</time>
      </trkpt>
      <trkpt lat="62.641861177743" lon="17.897742743111">
        <ele>51.6</ele>
        <time>2018-03-17T11:52:33Z</time>
      </trkpt>
      <trkpt lat="62.641860339553" lon="17.89783586602">
        <ele>50.8</ele>
        <time>2018-03-17T11:52:34Z</time>
      </trkpt>
      <trkpt lat="62.641861345381" lon="17.89796494728">
        <ele>50.4</ele>
        <time>2018-03-17T11:52:35Z</time>
      </trkpt>
      <trkpt lat="62.641858244078" lon="17.898083215889">
        <ele>50.4</ele>
        <time>2018-03-17T11:52:36Z</time>
      </trkpt>
      <trkpt lat="62.64185723825" lon="17.898193102598">
        <ele>50.4</ele>
        <time>2018-03-17T11:52:37Z</time>
      </trkpt>
      <trkpt lat="62.641851119463" lon="17.898290751733">
        <ele>50.6</ele>
        <time>2018-03-17T11:52:38Z</time>
      </trkpt>
      <trkpt lat="62.641849359264" lon="17.898358309847">
        <ele>50.8</ele>
        <time>2018-03-17T11:52:39Z</time>
      </trkpt>
      <trkpt lat="62.641841061183" lon="17.898435674784">
        <ele>51.2</ele>
        <time>2018-03-17T11:52:40Z</time>
      </trkpt>
      <trkpt lat="62.641837373147" lon="17.898495773007">
        <ele>51.4</ele>
        <time>2018-03-17T11:52:41Z</time>
      </trkpt>
      <trkpt lat="62.641834439482" lon="17.898575233419">
        <ele>51.4</ele>
        <time>2018-03-17T11:52:42Z</time>
      </trkpt>
      <trkpt lat="62.641833517473" lon="17.898623010249">
        <ele>51.6</ele>
        <time>2018-03-17T11:52:43Z</time>
      </trkpt>
      <trkpt lat="62.641826811953" lon="17.898675983857">
        <ele>51.6</ele>
        <time>2018-03-17T11:52:44Z</time>
      </trkpt>
      <trkpt lat="62.641821279899" lon="17.898746056541">
        <ele>51.8</ele>
        <time>2018-03-17T11:52:45Z</time>
      </trkpt>
      <trkpt lat="62.641814909655" lon="17.898804059289">
        <ele>52</ele>
        <time>2018-03-17T11:52:46Z</time>
      </trkpt>
      <trkpt lat="62.641810467248" lon="17.898858541639">
        <ele>52</ele>
        <time>2018-03-17T11:52:47Z</time>
      </trkpt>
      <trkpt lat="62.641803258814" lon="17.898920819156">
        <ele>52.4</ele>
        <time>2018-03-17T11:52:48Z</time>
      </trkpt>
      <trkpt lat="62.641792027068" lon="17.898979827732">
        <ele>52.4</ele>
        <time>2018-03-17T11:52:49Z</time>
      </trkpt>
      <trkpt lat="62.641774760354" lon="17.899036321738">
        <ele>52.6</ele>
        <time>2018-03-17T11:52:50Z</time>
      </trkpt>
      <trkpt lat="62.641764366798" lon="17.899071693356">
        <ele>52.8</ele>
        <time>2018-03-17T11:52:51Z</time>
      </trkpt>
      <trkpt lat="62.641742322401" lon="17.899107819345">
        <ele>53</ele>
        <time>2018-03-17T11:52:52Z</time>
      </trkpt>
      <trkpt lat="62.641727067343" lon="17.899129863742">
        <ele>53.2</ele>
        <time>2018-03-17T11:52:53Z</time>
      </trkpt>
      <trkpt lat="62.641716757606" lon="17.899149645026">
        <ele>53.4</ele>
        <time>2018-03-17T11:52:54Z</time>
      </trkpt>
    </trkseg>
  </trk>
</gpx>